<?xml version="1.0" encoding="UTF-8" standalone="no" ?>
<gpx xmlns="http://www.topografix.com/GPX/1/1" xmlns:xsi="http://www.w3.org/2001/XMLSchema-instance" xsi:schemaLocation="http://www.topografix.com/GPX/1/1 http://www.topografix.com/GPX/1/1/gpx.xsd" version="1.1" creator="VisuGPX - https://www.visugpx.com">
  <metadata>
    <name>62 CCC Flémalle - Durbuy - Flémalle</name>
    <desc><![CDATA[Randonnée au départ de l'Auto5 de Flémalle.
Flémalle - Seraing - Angleur - Chênée - Chaudfontaine - Prayon - Andoumont - Hotchamps - Remouchamps - Nonceveux - Lorcé - Werbomont - Fays - Villers-St-Gertrode - Bomal - Tohogne - Hamoir - Comblain-la-Tour - Comblain-au-Pont - Esneux - Tilf - Angleur - Seraing - Jemeppe - Flémalle.]]></desc>
  </metadata>
  <trk>
    <name><![CDATA[62 CCC]]></name>
    <extensions>
      <line xmlns="http://www.topografix.com/GPX/gpx_style/0/2">
        <color>0000FF</color>
        <width>4</width>
      </line>
    </extensions>
    <trkseg>
      <trkpt lat="50.60423" lon="5.48419">
        <ele>65</ele>
        <time>2019-05-01T05:33:15.000Z</time>
      </trkpt>
      <trkpt lat="50.60405" lon="5.48439">
        <ele>65</ele>
        <time>2019-05-01T05:33:58.000Z</time>
      </trkpt>
      <trkpt lat="50.6035" lon="5.48519">
        <ele>64</ele>
        <time>2019-05-01T05:34:08.000Z</time>
      </trkpt>
      <trkpt lat="50.60366" lon="5.48546">
        <ele>63.5</ele>
        <time>2019-05-01T05:34:11.000Z</time>
      </trkpt>
      <trkpt lat="50.60377" lon="5.48528">
        <ele>64</ele>
        <time>2019-05-01T05:34:17.000Z</time>
      </trkpt>
      <trkpt lat="50.6044" lon="5.48451">
        <ele>57.200000762939</ele>
        <time>2019-05-01T05:34:26.000Z</time>
      </trkpt>
      <trkpt lat="50.60469" lon="5.48417">
        <ele>65.9</ele>
        <time>2019-05-01T05:34:28.000Z</time>
      </trkpt>
      <trkpt lat="50.60487" lon="5.48394">
        <ele>66.7</ele>
        <time>2019-05-01T05:34:37.000Z</time>
      </trkpt>
      <trkpt lat="50.60495" lon="5.48396">
        <ele>66.8</ele>
        <time>2019-05-01T05:34:38.000Z</time>
      </trkpt>
      <trkpt lat="50.60502" lon="5.48394">
        <ele>67.3</ele>
        <time>2019-05-01T05:34:46.000Z</time>
      </trkpt>
      <trkpt lat="50.60506" lon="5.48404">
        <ele>67.2</ele>
        <time>2019-05-01T05:35:04.000Z</time>
      </trkpt>
      <trkpt lat="50.60528" lon="5.48453">
        <ele>66.5</ele>
        <time>2019-05-01T05:35:11.000Z</time>
      </trkpt>
      <trkpt lat="50.6054" lon="5.48481">
        <ele>66.4</ele>
        <time>2019-05-01T05:35:15.000Z</time>
      </trkpt>
      <trkpt lat="50.60559" lon="5.48524">
        <ele>65.1</ele>
        <time>2019-05-01T05:35:24.000Z</time>
      </trkpt>
      <trkpt lat="50.60586" lon="5.48589">
        <ele>57.400001525879</ele>
        <time>2019-05-01T05:35:26.000Z</time>
      </trkpt>
      <trkpt lat="50.60613" lon="5.48648">
        <ele>64.2</ele>
        <time>2019-05-01T05:35:34.000Z</time>
      </trkpt>
      <trkpt lat="50.60626" lon="5.4868">
        <ele>56</ele>
        <time>2019-05-01T05:35:38.000Z</time>
      </trkpt>
      <trkpt lat="50.60639" lon="5.48706">
        <ele>55.599998474121</ele>
        <time>2019-05-01T05:35:43.000Z</time>
      </trkpt>
      <trkpt lat="50.60662" lon="5.48756">
        <ele>55</ele>
        <time>2019-05-01T05:35:51.000Z</time>
      </trkpt>
      <trkpt lat="50.60697" lon="5.48827">
        <ele>54.799999237061</ele>
        <time>2019-05-01T05:36:00.000Z</time>
      </trkpt>
      <trkpt lat="50.60705" lon="5.48843">
        <ele>54.799999237061</ele>
        <time>2019-05-01T05:36:01.000Z</time>
      </trkpt>
      <trkpt lat="50.6074" lon="5.48913">
        <ele>54.599998474121</ele>
        <time>2019-05-01T05:36:08.000Z</time>
      </trkpt>
      <trkpt lat="50.60744" lon="5.4892">
        <ele>54.599998474121</ele>
        <time>2019-05-01T05:36:10.000Z</time>
      </trkpt>
      <trkpt lat="50.60775" lon="5.48982">
        <ele>54.599998474121</ele>
        <time>2019-05-01T05:37:18.000Z</time>
      </trkpt>
      <trkpt lat="50.60811" lon="5.4905">
        <ele>65.8</ele>
        <time>2019-05-01T05:37:29.000Z</time>
      </trkpt>
      <trkpt lat="50.60849" lon="5.49116">
        <ele>54.799999237061</ele>
        <time>2019-05-01T05:37:31.000Z</time>
      </trkpt>
      <trkpt lat="50.6088" lon="5.49165">
        <ele>54.799999237061</ele>
        <time>2019-05-01T05:37:35.000Z</time>
      </trkpt>
      <trkpt lat="50.60898" lon="5.49192">
        <ele>54.799999237061</ele>
        <time>2019-05-01T05:37:37.000Z</time>
      </trkpt>
      <trkpt lat="50.60939" lon="5.49254">
        <ele>54.400001525879</ele>
        <time>2019-05-01T05:37:41.000Z</time>
      </trkpt>
      <trkpt lat="50.60949" lon="5.49268">
        <ele>54.400001525879</ele>
        <time>2019-05-01T05:38:03.000Z</time>
      </trkpt>
      <trkpt lat="50.60984" lon="5.49323">
        <ele>54.400001525879</ele>
        <time>2019-05-01T05:38:27.000Z</time>
      </trkpt>
      <trkpt lat="50.61002" lon="5.49349">
        <ele>54.200000762939</ele>
        <time>2019-05-01T05:38:30.000Z</time>
      </trkpt>
      <trkpt lat="50.61024" lon="5.49383">
        <ele>54.200000762939</ele>
        <time>2019-05-01T05:38:55.000Z</time>
      </trkpt>
      <trkpt lat="50.6106" lon="5.49437">
        <ele>54.200000762939</ele>
        <time>2019-05-01T05:39:02.000Z</time>
      </trkpt>
      <trkpt lat="50.61102" lon="5.495">
        <ele>54.200000762939</ele>
        <time>2019-05-01T05:39:11.000Z</time>
      </trkpt>
      <trkpt lat="50.61106" lon="5.49507">
        <ele>54.200000762939</ele>
        <time>2019-05-01T05:39:14.000Z</time>
      </trkpt>
      <trkpt lat="50.61139" lon="5.49556">
        <ele>54.200000762939</ele>
        <time>2019-05-01T05:39:43.000Z</time>
      </trkpt>
      <trkpt lat="50.61148" lon="5.4957">
        <ele>54.200000762939</ele>
        <time>2019-05-01T05:39:48.000Z</time>
      </trkpt>
      <trkpt lat="50.61176" lon="5.49612">
        <ele>67.4</ele>
        <time>2019-05-01T05:39:50.000Z</time>
      </trkpt>
      <trkpt lat="50.61203" lon="5.49653">
        <ele>67.9</ele>
        <time>2019-05-01T05:39:56.000Z</time>
      </trkpt>
      <trkpt lat="50.61226" lon="5.49687">
        <ele>66</ele>
        <time>2019-05-01T05:39:58.000Z</time>
      </trkpt>
      <trkpt lat="50.61252" lon="5.49728">
        <ele>64</ele>
        <time>2019-05-01T05:40:00.000Z</time>
      </trkpt>
      <trkpt lat="50.61291" lon="5.49796">
        <ele>61</ele>
        <time>2019-05-01T05:40:02.000Z</time>
      </trkpt>
      <trkpt lat="50.61317" lon="5.49839">
        <ele>60.4</ele>
        <time>2019-05-01T05:40:04.000Z</time>
      </trkpt>
      <trkpt lat="50.61331" lon="5.49866">
        <ele>60.6</ele>
        <time>2019-05-01T05:40:05.000Z</time>
      </trkpt>
      <trkpt lat="50.61373" lon="5.49935">
        <ele>62.2</ele>
        <time>2019-05-01T05:40:08.000Z</time>
      </trkpt>
      <trkpt lat="50.61407" lon="5.49993">
        <ele>62.7</ele>
        <time>2019-05-01T05:40:09.000Z</time>
      </trkpt>
      <trkpt lat="50.61424" lon="5.50023">
        <ele>63.4</ele>
        <time>2019-05-01T05:40:12.000Z</time>
      </trkpt>
      <trkpt lat="50.61434" lon="5.50041">
        <ele>54</ele>
        <time>2019-05-01T05:40:13.000Z</time>
      </trkpt>
      <trkpt lat="50.61441" lon="5.50053">
        <ele>63.5</ele>
        <time>2019-05-01T05:40:17.000Z</time>
      </trkpt>
      <trkpt lat="50.61454" lon="5.50076">
        <ele>63.5</ele>
        <time>2019-05-01T05:40:21.000Z</time>
      </trkpt>
      <trkpt lat="50.61465" lon="5.50093">
        <ele>63.3</ele>
        <time>2019-05-01T05:40:26.000Z</time>
      </trkpt>
      <trkpt lat="50.61455" lon="5.50106">
        <ele>54</ele>
        <time>2019-05-01T05:40:27.000Z</time>
      </trkpt>
      <trkpt lat="50.61447" lon="5.50116">
        <ele>54</ele>
        <time>2019-05-01T05:40:33.000Z</time>
      </trkpt>
      <trkpt lat="50.61431" lon="5.50141">
        <ele>53.799999237061</ele>
        <time>2019-05-01T05:40:38.000Z</time>
      </trkpt>
      <trkpt lat="50.61422" lon="5.50154">
        <ele>53.799999237061</ele>
        <time>2019-05-01T05:40:49.000Z</time>
      </trkpt>
      <trkpt lat="50.61406" lon="5.50179">
        <ele>53.599998474121</ele>
        <time>2019-05-01T05:40:50.000Z</time>
      </trkpt>
      <trkpt lat="50.61397" lon="5.50193">
        <ele>63.7</ele>
        <time>2019-05-01T05:40:51.000Z</time>
      </trkpt>
      <trkpt lat="50.61372" lon="5.50231">
        <ele>64.2</ele>
        <time>2019-05-01T05:40:53.000Z</time>
      </trkpt>
      <trkpt lat="50.61358" lon="5.50252">
        <ele>65.5</ele>
        <time>2019-05-01T05:40:55.000Z</time>
      </trkpt>
      <trkpt lat="50.61348" lon="5.50266">
        <ele>56.200000762939</ele>
        <time>2019-05-01T05:40:56.000Z</time>
      </trkpt>
      <trkpt lat="50.61333" lon="5.50295">
        <ele>67.3</ele>
        <time>2019-05-01T05:40:58.000Z</time>
      </trkpt>
      <trkpt lat="50.61352" lon="5.50313">
        <ele>66.9</ele>
        <time>2019-05-01T05:40:59.000Z</time>
      </trkpt>
      <trkpt lat="50.61372" lon="5.5033">
        <ele>66.6</ele>
        <time>2019-05-01T05:41:00.000Z</time>
      </trkpt>
      <trkpt lat="50.61409" lon="5.50366">
        <ele>57.599998474121</ele>
        <time>2019-05-01T05:41:01.000Z</time>
      </trkpt>
      <trkpt lat="50.61424" lon="5.50383">
        <ele>57.599998474121</ele>
        <time>2019-05-01T05:41:03.000Z</time>
      </trkpt>
      <trkpt lat="50.61438" lon="5.50398">
        <ele>65.1</ele>
        <time>2019-05-01T05:41:04.000Z</time>
      </trkpt>
      <trkpt lat="50.61485" lon="5.50452">
        <ele>65.7</ele>
        <time>2019-05-01T05:41:06.000Z</time>
      </trkpt>
      <trkpt lat="50.61524" lon="5.50503">
        <ele>68.4</ele>
        <time>2019-05-01T05:41:08.000Z</time>
      </trkpt>
      <trkpt lat="50.61548" lon="5.50539">
        <ele>57.200000762939</ele>
        <time>2019-05-01T05:41:12.000Z</time>
      </trkpt>
      <trkpt lat="50.6158" lon="5.50588">
        <ele>57</ele>
        <time>2019-05-01T05:41:15.000Z</time>
      </trkpt>
      <trkpt lat="50.6162" lon="5.50656">
        <ele>57</ele>
        <time>2019-05-01T05:41:17.000Z</time>
      </trkpt>
      <trkpt lat="50.61633" lon="5.50679">
        <ele>57</ele>
        <time>2019-05-01T05:41:19.000Z</time>
      </trkpt>
      <trkpt lat="50.61667" lon="5.5075">
        <ele>64</ele>
        <time>2019-05-01T05:41:22.000Z</time>
      </trkpt>
      <trkpt lat="50.61699" lon="5.50835">
        <ele>62.3</ele>
        <time>2019-05-01T05:41:26.000Z</time>
      </trkpt>
      <trkpt lat="50.61726" lon="5.50917">
        <ele>63</ele>
        <time>2019-05-01T05:41:27.000Z</time>
      </trkpt>
      <trkpt lat="50.61729" lon="5.50934">
        <ele>56.799999237061</ele>
        <time>2019-05-01T05:41:33.000Z</time>
      </trkpt>
      <trkpt lat="50.61745" lon="5.5099">
        <ele>56.400001525879</ele>
        <time>2019-05-01T05:41:42.000Z</time>
      </trkpt>
      <trkpt lat="50.6175" lon="5.5101">
        <ele>55.799999237061</ele>
        <time>2019-05-01T05:41:50.000Z</time>
      </trkpt>
      <trkpt lat="50.61764" lon="5.51061">
        <ele>55.599998474121</ele>
        <time>2019-05-01T05:41:54.000Z</time>
      </trkpt>
      <trkpt lat="50.61768" lon="5.51076">
        <ele>55.599998474121</ele>
        <time>2019-05-01T05:41:58.000Z</time>
      </trkpt>
      <trkpt lat="50.61772" lon="5.5109">
        <ele>55.799999237061</ele>
        <time>2019-05-01T05:42:01.000Z</time>
      </trkpt>
      <trkpt lat="50.61775" lon="5.51105">
        <ele>56.599998474121</ele>
        <time>2019-05-01T05:42:04.000Z</time>
      </trkpt>
      <trkpt lat="50.61776" lon="5.51125">
        <ele>57.599998474121</ele>
        <time>2019-05-01T05:42:09.000Z</time>
      </trkpt>
      <trkpt lat="50.6177" lon="5.51144">
        <ele>58.599998474121</ele>
        <time>2019-05-01T05:42:11.000Z</time>
      </trkpt>
      <trkpt lat="50.61757" lon="5.51161">
        <ele>60.200000762939</ele>
        <time>2019-05-01T05:42:13.000Z</time>
      </trkpt>
      <trkpt lat="50.61736" lon="5.51177">
        <ele>61.200000762939</ele>
        <time>2019-05-01T05:42:20.000Z</time>
      </trkpt>
      <trkpt lat="50.61721" lon="5.51186">
        <ele>62.400001525879</ele>
        <time>2019-05-01T05:42:21.000Z</time>
      </trkpt>
      <trkpt lat="50.61709" lon="5.51192">
        <ele>63.200000762939</ele>
        <time>2019-05-01T05:42:24.000Z</time>
      </trkpt>
      <trkpt lat="50.61708" lon="5.51193">
        <ele>63.400001525879</ele>
        <time>2019-05-01T05:42:27.000Z</time>
      </trkpt>
      <trkpt lat="50.617" lon="5.51197">
        <ele>63.400001525879</ele>
        <time>2019-05-01T05:42:32.000Z</time>
      </trkpt>
      <trkpt lat="50.61685" lon="5.51205">
        <ele>63.400001525879</ele>
        <time>2019-05-01T05:42:36.000Z</time>
      </trkpt>
      <trkpt lat="50.61671" lon="5.51214">
        <ele>63.3</ele>
        <time>2019-05-01T05:42:45.000Z</time>
      </trkpt>
      <trkpt lat="50.61662" lon="5.51226">
        <ele>62.9</ele>
        <time>2019-05-01T05:42:46.000Z</time>
      </trkpt>
      <trkpt lat="50.61654" lon="5.51252">
        <ele>62.4</ele>
        <time>2019-05-01T05:42:55.000Z</time>
      </trkpt>
      <trkpt lat="50.61655" lon="5.51275">
        <ele>61.9</ele>
        <time>2019-05-01T05:43:54.000Z</time>
      </trkpt>
      <trkpt lat="50.6166" lon="5.51286">
        <ele>61.6</ele>
        <time>2019-05-01T05:44:02.000Z</time>
      </trkpt>
      <trkpt lat="50.61662" lon="5.51306">
        <ele>61.1</ele>
        <time>2019-05-01T05:44:21.000Z</time>
      </trkpt>
      <trkpt lat="50.61666" lon="5.51332">
        <ele>60.1</ele>
        <time>2019-05-01T05:44:22.000Z</time>
      </trkpt>
      <trkpt lat="50.6167" lon="5.51355">
        <ele>61.1</ele>
        <time>2019-05-01T05:44:30.000Z</time>
      </trkpt>
      <trkpt lat="50.61672" lon="5.51373">
        <ele>61.6</ele>
        <time>2019-05-01T05:44:37.000Z</time>
      </trkpt>
      <trkpt lat="50.61673" lon="5.51387">
        <ele>62</ele>
        <time>2019-05-01T05:44:40.000Z</time>
      </trkpt>
      <trkpt lat="50.61667" lon="5.51397">
        <ele>62.3</ele>
        <time>2019-05-01T05:44:48.000Z</time>
      </trkpt>
      <trkpt lat="50.61662" lon="5.514">
        <ele>62</ele>
        <time>2019-05-01T05:44:57.000Z</time>
      </trkpt>
      <trkpt lat="50.61659" lon="5.51406">
        <ele>57.599998474121</ele>
        <time>2019-05-01T05:45:03.000Z</time>
      </trkpt>
      <trkpt lat="50.61658" lon="5.51414">
        <ele>57.200000762939</ele>
        <time>2019-05-01T05:45:06.000Z</time>
      </trkpt>
      <trkpt lat="50.61661" lon="5.51431">
        <ele>63</ele>
        <time>2019-05-01T05:45:14.000Z</time>
      </trkpt>
      <trkpt lat="50.61664" lon="5.5144">
        <ele>63</ele>
        <time>2019-05-01T05:45:20.000Z</time>
      </trkpt>
      <trkpt lat="50.61668" lon="5.51464">
        <ele>63</ele>
        <time>2019-05-01T05:45:23.000Z</time>
      </trkpt>
      <trkpt lat="50.61666" lon="5.5148">
        <ele>54.799999237061</ele>
        <time>2019-05-01T05:45:30.000Z</time>
      </trkpt>
      <trkpt lat="50.6167" lon="5.51494">
        <ele>63</ele>
        <time>2019-05-01T05:45:33.000Z</time>
      </trkpt>
      <trkpt lat="50.61677" lon="5.51501">
        <ele>54.599998474121</ele>
        <time>2019-05-01T05:45:37.000Z</time>
      </trkpt>
      <trkpt lat="50.61685" lon="5.51515">
        <ele>54.599998474121</ele>
        <time>2019-05-01T05:45:39.000Z</time>
      </trkpt>
      <trkpt lat="50.6169" lon="5.51534">
        <ele>54.400001525879</ele>
        <time>2019-05-01T05:45:42.000Z</time>
      </trkpt>
      <trkpt lat="50.61695" lon="5.51565">
        <ele>54.400001525879</ele>
        <time>2019-05-01T05:45:58.000Z</time>
      </trkpt>
      <trkpt lat="50.61699" lon="5.51608">
        <ele>54.400001525879</ele>
        <time>2019-05-01T05:46:05.000Z</time>
      </trkpt>
      <trkpt lat="50.617" lon="5.51619">
        <ele>54.400001525879</ele>
        <time>2019-05-01T05:46:08.000Z</time>
      </trkpt>
      <trkpt lat="50.61705" lon="5.51683">
        <ele>54.400001525879</ele>
        <time>2019-05-01T05:46:10.000Z</time>
      </trkpt>
      <trkpt lat="50.61709" lon="5.51774">
        <ele>54.400001525879</ele>
        <time>2019-05-01T05:46:13.000Z</time>
      </trkpt>
      <trkpt lat="50.61712" lon="5.51851">
        <ele>54.799999237061</ele>
        <time>2019-05-01T05:46:15.000Z</time>
      </trkpt>
      <trkpt lat="50.61713" lon="5.51865">
        <ele>61</ele>
        <time>2019-05-01T05:46:21.000Z</time>
      </trkpt>
      <trkpt lat="50.61707" lon="5.51886">
        <ele>55.200000762939</ele>
        <time>2019-05-01T05:46:22.000Z</time>
      </trkpt>
      <trkpt lat="50.61698" lon="5.51904">
        <ele>62</ele>
        <time>2019-05-01T05:46:26.000Z</time>
      </trkpt>
      <trkpt lat="50.6169" lon="5.51909">
        <ele>55.400001525879</ele>
        <time>2019-05-01T05:46:30.000Z</time>
      </trkpt>
      <trkpt lat="50.61673" lon="5.51907">
        <ele>55.599998474121</ele>
        <time>2019-05-01T05:46:36.000Z</time>
      </trkpt>
      <trkpt lat="50.61664" lon="5.51909">
        <ele>61</ele>
        <time>2019-05-01T05:46:42.000Z</time>
      </trkpt>
      <trkpt lat="50.61657" lon="5.51919">
        <ele>55.599998474121</ele>
        <time>2019-05-01T05:46:46.000Z</time>
      </trkpt>
      <trkpt lat="50.61654" lon="5.51936">
        <ele>55.599998474121</ele>
        <time>2019-05-01T05:46:53.000Z</time>
      </trkpt>
      <trkpt lat="50.61658" lon="5.51951">
        <ele>61</ele>
        <time>2019-05-01T05:47:01.000Z</time>
      </trkpt>
      <trkpt lat="50.61663" lon="5.51957">
        <ele>55.599998474121</ele>
        <time>2019-05-01T05:47:09.000Z</time>
      </trkpt>
      <trkpt lat="50.61674" lon="5.51964">
        <ele>55.400001525879</ele>
        <time>2019-05-01T05:47:10.000Z</time>
      </trkpt>
      <trkpt lat="50.61682" lon="5.51964">
        <ele>60.9</ele>
        <time>2019-05-01T05:47:16.000Z</time>
      </trkpt>
      <trkpt lat="50.61688" lon="5.51974">
        <ele>61</ele>
        <time>2019-05-01T05:47:22.000Z</time>
      </trkpt>
      <trkpt lat="50.61694" lon="5.51998">
        <ele>55.400001525879</ele>
        <time>2019-05-01T05:47:26.000Z</time>
      </trkpt>
      <trkpt lat="50.61695" lon="5.52036">
        <ele>55.400001525879</ele>
        <time>2019-05-01T05:47:28.000Z</time>
      </trkpt>
      <trkpt lat="50.61694" lon="5.52045">
        <ele>55.400001525879</ele>
        <time>2019-05-01T05:47:31.000Z</time>
      </trkpt>
      <trkpt lat="50.61689" lon="5.52074">
        <ele>55.799999237061</ele>
        <time>2019-05-01T05:47:34.000Z</time>
      </trkpt>
      <trkpt lat="50.61683" lon="5.52103">
        <ele>56.400001525879</ele>
        <time>2019-05-01T05:47:39.000Z</time>
      </trkpt>
      <trkpt lat="50.6167" lon="5.5215">
        <ele>56.799999237061</ele>
        <time>2019-05-01T05:47:40.000Z</time>
      </trkpt>
      <trkpt lat="50.61658" lon="5.52187">
        <ele>57</ele>
        <time>2019-05-01T05:47:47.000Z</time>
      </trkpt>
      <trkpt lat="50.61629" lon="5.52269">
        <ele>57.400001525879</ele>
        <time>2019-05-01T05:47:51.000Z</time>
      </trkpt>
      <trkpt lat="50.61626" lon="5.52278">
        <ele>57.599998474121</ele>
        <time>2019-05-01T05:47:55.000Z</time>
      </trkpt>
      <trkpt lat="50.61593" lon="5.52358">
        <ele>57.799999237061</ele>
        <time>2019-05-01T05:47:58.000Z</time>
      </trkpt>
      <trkpt lat="50.61561" lon="5.52426">
        <ele>57.799999237061</ele>
        <time>2019-05-01T05:48:00.000Z</time>
      </trkpt>
      <trkpt lat="50.61553" lon="5.52443">
        <ele>57.799999237061</ele>
        <time>2019-05-01T05:48:04.000Z</time>
      </trkpt>
      <trkpt lat="50.61527" lon="5.52492">
        <ele>57.599998474121</ele>
        <time>2019-05-01T05:48:13.000Z</time>
      </trkpt>
      <trkpt lat="50.61506" lon="5.52532">
        <ele>57.599998474121</ele>
        <time>2019-05-01T05:48:14.000Z</time>
      </trkpt>
      <trkpt lat="50.6147" lon="5.52593">
        <ele>57.799999237061</ele>
        <time>2019-05-01T05:48:23.000Z</time>
      </trkpt>
      <trkpt lat="50.61461" lon="5.52608">
        <ele>57.799999237061</ele>
        <time>2019-05-01T05:48:24.000Z</time>
      </trkpt>
      <trkpt lat="50.61438" lon="5.52645">
        <ele>57.799999237061</ele>
        <time>2019-05-01T05:48:33.000Z</time>
      </trkpt>
      <trkpt lat="50.61419" lon="5.52673">
        <ele>58</ele>
        <time>2019-05-01T05:48:34.000Z</time>
      </trkpt>
      <trkpt lat="50.61375" lon="5.52735">
        <ele>58</ele>
        <time>2019-05-01T05:48:43.000Z</time>
      </trkpt>
      <trkpt lat="50.61329" lon="5.52795">
        <ele>58</ele>
        <time>2019-05-01T05:48:52.000Z</time>
      </trkpt>
      <trkpt lat="50.61324" lon="5.52801">
        <ele>58.200000762939</ele>
        <time>2019-05-01T05:49:04.000Z</time>
      </trkpt>
      <trkpt lat="50.61281" lon="5.52849">
        <ele>58.200000762939</ele>
        <time>2019-05-01T05:49:06.000Z</time>
      </trkpt>
      <trkpt lat="50.61236" lon="5.52895">
        <ele>58.400001525879</ele>
        <time>2019-05-01T05:49:36.000Z</time>
      </trkpt>
      <trkpt lat="50.61218" lon="5.52911">
        <ele>58.400001525879</ele>
        <time>2019-05-01T05:49:38.000Z</time>
      </trkpt>
      <trkpt lat="50.61172" lon="5.52955">
        <ele>58.200000762939</ele>
        <time>2019-05-01T05:49:46.000Z</time>
      </trkpt>
      <trkpt lat="50.61167" lon="5.52961">
        <ele>58.200000762939</ele>
        <time>2019-05-01T05:49:57.000Z</time>
      </trkpt>
      <trkpt lat="50.61123" lon="5.53004">
        <ele>58</ele>
        <time>2019-05-01T05:50:05.000Z</time>
      </trkpt>
      <trkpt lat="50.61083" lon="5.53041">
        <ele>58</ele>
        <time>2019-05-01T05:50:12.000Z</time>
      </trkpt>
      <trkpt lat="50.61066" lon="5.53058">
        <ele>57.799999237061</ele>
        <time>2019-05-01T05:50:18.000Z</time>
      </trkpt>
      <trkpt lat="50.6102" lon="5.53101">
        <ele>57.799999237061</ele>
        <time>2019-05-01T05:50:27.000Z</time>
      </trkpt>
      <trkpt lat="50.60969" lon="5.53154">
        <ele>57.799999237061</ele>
        <time>2019-05-01T05:50:33.000Z</time>
      </trkpt>
      <trkpt lat="50.60939" lon="5.53196">
        <ele>57.799999237061</ele>
        <time>2019-05-01T05:50:34.000Z</time>
      </trkpt>
      <trkpt lat="50.60925" lon="5.53219">
        <ele>57.799999237061</ele>
        <time>2019-05-01T05:50:44.000Z</time>
      </trkpt>
      <trkpt lat="50.60893" lon="5.53284">
        <ele>57.400001525879</ele>
        <time>2019-05-01T05:50:54.000Z</time>
      </trkpt>
      <trkpt lat="50.6087" lon="5.53337">
        <ele>57.200000762939</ele>
        <time>2019-05-01T05:50:55.000Z</time>
      </trkpt>
      <trkpt lat="50.60859" lon="5.53365">
        <ele>57.200000762939</ele>
        <time>2019-05-01T05:51:03.000Z</time>
      </trkpt>
      <trkpt lat="50.60832" lon="5.53431">
        <ele>56.599998474121</ele>
        <time>2019-05-01T05:51:05.000Z</time>
      </trkpt>
      <trkpt lat="50.60823" lon="5.53458">
        <ele>56.200000762939</ele>
        <time>2019-05-01T05:51:11.000Z</time>
      </trkpt>
      <trkpt lat="50.60812" lon="5.53491">
        <ele>55.599998474121</ele>
        <time>2019-05-01T05:51:14.000Z</time>
      </trkpt>
      <trkpt lat="50.60803" lon="5.53523">
        <ele>55.400001525879</ele>
        <time>2019-05-01T05:51:18.000Z</time>
      </trkpt>
      <trkpt lat="50.60796" lon="5.53546">
        <ele>55.400001525879</ele>
        <time>2019-05-01T05:51:22.000Z</time>
      </trkpt>
      <trkpt lat="50.6079" lon="5.53572">
        <ele>64.5</ele>
        <time>2019-05-01T05:51:26.000Z</time>
      </trkpt>
      <trkpt lat="50.60783" lon="5.53607">
        <ele>64.5</ele>
        <time>2019-05-01T05:53:00.000Z</time>
      </trkpt>
      <trkpt lat="50.60777" lon="5.53642">
        <ele>56</ele>
        <time>2019-05-01T05:53:28.000Z</time>
      </trkpt>
      <trkpt lat="50.60769" lon="5.53698">
        <ele>56</ele>
        <time>2019-05-01T05:53:44.000Z</time>
      </trkpt>
      <trkpt lat="50.60759" lon="5.53748">
        <ele>55.799999237061</ele>
        <time>2019-05-01T05:53:50.000Z</time>
      </trkpt>
      <trkpt lat="50.6075" lon="5.53793">
        <ele>64.3</ele>
        <time>2019-05-01T05:57:30.000Z</time>
      </trkpt>
      <trkpt lat="50.60738" lon="5.53853">
        <ele>54.799999237061</ele>
        <time>2019-05-01T05:57:34.000Z</time>
      </trkpt>
      <trkpt lat="50.60726" lon="5.53915">
        <ele>54.799999237061</ele>
        <time>2019-05-01T05:57:35.000Z</time>
      </trkpt>
      <trkpt lat="50.60719" lon="5.53953">
        <ele>54.799999237061</ele>
        <time>2019-05-01T05:57:40.000Z</time>
      </trkpt>
      <trkpt lat="50.60707" lon="5.54019">
        <ele>55</ele>
        <time>2019-05-01T05:57:43.000Z</time>
      </trkpt>
      <trkpt lat="50.60692" lon="5.54101">
        <ele>66</ele>
        <time>2019-05-01T05:57:46.000Z</time>
      </trkpt>
      <trkpt lat="50.60679" lon="5.54168">
        <ele>68</ele>
        <time>2019-05-01T05:57:53.000Z</time>
      </trkpt>
      <trkpt lat="50.60667" lon="5.54223">
        <ele>55.799999237061</ele>
        <time>2019-05-01T05:58:01.000Z</time>
      </trkpt>
      <trkpt lat="50.60658" lon="5.54273">
        <ele>56.400001525879</ele>
        <time>2019-05-01T05:58:12.000Z</time>
      </trkpt>
      <trkpt lat="50.60654" lon="5.54305">
        <ele>57</ele>
        <time>2019-05-01T05:58:33.000Z</time>
      </trkpt>
      <trkpt lat="50.60652" lon="5.54322">
        <ele>57.200000762939</ele>
        <time>2019-05-01T05:58:38.000Z</time>
      </trkpt>
      <trkpt lat="50.60649" lon="5.54347">
        <ele>57.400001525879</ele>
        <time>2019-05-01T05:58:42.000Z</time>
      </trkpt>
      <trkpt lat="50.60646" lon="5.54371">
        <ele>58</ele>
        <time>2019-05-01T05:58:44.000Z</time>
      </trkpt>
      <trkpt lat="50.60643" lon="5.54414">
        <ele>58.599998474121</ele>
        <time>2019-05-01T05:58:55.000Z</time>
      </trkpt>
      <trkpt lat="50.60642" lon="5.54423">
        <ele>58.599998474121</ele>
        <time>2019-05-01T05:59:04.000Z</time>
      </trkpt>
      <trkpt lat="50.60638" lon="5.54487">
        <ele>58.799999237061</ele>
        <time>2019-05-01T06:00:00.000Z</time>
      </trkpt>
      <trkpt lat="50.60636" lon="5.54528">
        <ele>58.799999237061</ele>
        <time>2019-05-01T06:00:01.000Z</time>
      </trkpt>
      <trkpt lat="50.60634" lon="5.54568">
        <ele>58.200000762939</ele>
        <time>2019-05-01T06:00:04.000Z</time>
      </trkpt>
      <trkpt lat="50.60633" lon="5.54598">
        <ele>57.799999237061</ele>
        <time>2019-05-01T06:00:05.000Z</time>
      </trkpt>
      <trkpt lat="50.60632" lon="5.54618">
        <ele>57.400001525879</ele>
        <time>2019-05-01T06:00:13.000Z</time>
      </trkpt>
      <trkpt lat="50.60632" lon="5.54662">
        <ele>70.9</ele>
        <time>2019-05-01T06:00:15.000Z</time>
      </trkpt>
      <trkpt lat="50.60634" lon="5.54743">
        <ele>73.2</ele>
        <time>2019-05-01T06:00:23.000Z</time>
      </trkpt>
      <trkpt lat="50.60637" lon="5.54852">
        <ele>71.1</ele>
        <time>2019-05-01T06:00:27.000Z</time>
      </trkpt>
      <trkpt lat="50.6064" lon="5.54941">
        <ele>67.2</ele>
        <time>2019-05-01T06:00:30.000Z</time>
      </trkpt>
      <trkpt lat="50.60636" lon="5.55039">
        <ele>66</ele>
        <time>2019-05-01T06:00:39.000Z</time>
      </trkpt>
      <trkpt lat="50.60633" lon="5.55129">
        <ele>68.1</ele>
        <time>2019-05-01T06:00:40.000Z</time>
      </trkpt>
      <trkpt lat="50.60631" lon="5.55167">
        <ele>70.4</ele>
        <time>2019-05-01T06:00:48.000Z</time>
      </trkpt>
      <trkpt lat="50.60627" lon="5.55253">
        <ele>71.8</ele>
        <time>2019-05-01T06:00:52.000Z</time>
      </trkpt>
      <trkpt lat="50.60624" lon="5.55284">
        <ele>72</ele>
        <time>2019-05-01T06:00:56.000Z</time>
      </trkpt>
      <trkpt lat="50.60619" lon="5.55357">
        <ele>72.9</ele>
        <time>2019-05-01T06:00:57.000Z</time>
      </trkpt>
      <trkpt lat="50.60613" lon="5.55428">
        <ele>72.8</ele>
        <time>2019-05-01T06:01:00.000Z</time>
      </trkpt>
      <trkpt lat="50.60607" lon="5.55493">
        <ele>72.3</ele>
        <time>2019-05-01T06:01:04.000Z</time>
      </trkpt>
      <trkpt lat="50.60602" lon="5.55549">
        <ele>72.7</ele>
        <time>2019-05-01T06:01:06.000Z</time>
      </trkpt>
      <trkpt lat="50.60597" lon="5.55618">
        <ele>73</ele>
        <time>2019-05-01T06:01:12.000Z</time>
      </trkpt>
      <trkpt lat="50.60591" lon="5.55658">
        <ele>63.200000762939</ele>
        <time>2019-05-01T06:01:16.000Z</time>
      </trkpt>
      <trkpt lat="50.60578" lon="5.55708">
        <ele>71.2</ele>
        <time>2019-05-01T06:01:20.000Z</time>
      </trkpt>
      <trkpt lat="50.60555" lon="5.55774">
        <ele>70</ele>
        <time>2019-05-01T06:01:23.000Z</time>
      </trkpt>
      <trkpt lat="50.60549" lon="5.55825">
        <ele>70.3</ele>
        <time>2019-05-01T06:01:24.000Z</time>
      </trkpt>
      <trkpt lat="50.60543" lon="5.55871">
        <ele>70.7</ele>
        <time>2019-05-01T06:01:27.000Z</time>
      </trkpt>
      <trkpt lat="50.60532" lon="5.55901">
        <ele>71.1</ele>
        <time>2019-05-01T06:01:29.000Z</time>
      </trkpt>
      <trkpt lat="50.60519" lon="5.55927">
        <ele>66.199996948242</ele>
        <time>2019-05-01T06:01:32.000Z</time>
      </trkpt>
      <trkpt lat="50.60501" lon="5.55962">
        <ele>71.3</ele>
        <time>2019-05-01T06:01:33.000Z</time>
      </trkpt>
      <trkpt lat="50.60481" lon="5.55994">
        <ele>75</ele>
        <time>2019-05-01T06:01:34.000Z</time>
      </trkpt>
      <trkpt lat="50.60461" lon="5.56032">
        <ele>75.6</ele>
        <time>2019-05-01T06:01:37.000Z</time>
      </trkpt>
      <trkpt lat="50.6043" lon="5.5609">
        <ele>75.6</ele>
        <time>2019-05-01T06:01:39.000Z</time>
      </trkpt>
      <trkpt lat="50.60405" lon="5.56147">
        <ele>70.199996948242</ele>
        <time>2019-05-01T06:01:42.000Z</time>
      </trkpt>
      <trkpt lat="50.604" lon="5.5616">
        <ele>70.599998474121</ele>
        <time>2019-05-01T06:01:46.000Z</time>
      </trkpt>
      <trkpt lat="50.60391" lon="5.56197">
        <ele>81</ele>
        <time>2019-05-01T06:01:48.000Z</time>
      </trkpt>
      <trkpt lat="50.60382" lon="5.56232">
        <ele>81.9</ele>
        <time>2019-05-01T06:01:52.000Z</time>
      </trkpt>
      <trkpt lat="50.60377" lon="5.56258">
        <ele>83.1</ele>
        <time>2019-05-01T06:01:56.000Z</time>
      </trkpt>
      <trkpt lat="50.60372" lon="5.56289">
        <ele>83.9</ele>
        <time>2019-05-01T06:02:01.000Z</time>
      </trkpt>
      <trkpt lat="50.60366" lon="5.56342">
        <ele>85.5</ele>
        <time>2019-05-01T06:02:09.000Z</time>
      </trkpt>
      <trkpt lat="50.60364" lon="5.56393">
        <ele>85.8</ele>
        <time>2019-05-01T06:02:12.000Z</time>
      </trkpt>
      <trkpt lat="50.60364" lon="5.56427">
        <ele>87.2</ele>
        <time>2019-05-01T06:02:15.000Z</time>
      </trkpt>
      <trkpt lat="50.60366" lon="5.56468">
        <ele>86.8</ele>
        <time>2019-05-01T06:02:18.000Z</time>
      </trkpt>
      <trkpt lat="50.60374" lon="5.56541">
        <ele>87.6</ele>
        <time>2019-05-01T06:02:20.000Z</time>
      </trkpt>
      <trkpt lat="50.60381" lon="5.56592">
        <ele>88.1</ele>
        <time>2019-05-01T06:02:21.000Z</time>
      </trkpt>
      <trkpt lat="50.6039" lon="5.56647">
        <ele>87.7</ele>
        <time>2019-05-01T06:02:22.000Z</time>
      </trkpt>
      <trkpt lat="50.60398" lon="5.56696">
        <ele>90.3</ele>
        <time>2019-05-01T06:02:24.000Z</time>
      </trkpt>
      <trkpt lat="50.60409" lon="5.56766">
        <ele>92.7</ele>
        <time>2019-05-01T06:02:25.000Z</time>
      </trkpt>
      <trkpt lat="50.6042" lon="5.56835">
        <ele>89.8</ele>
        <time>2019-05-01T06:02:29.000Z</time>
      </trkpt>
      <trkpt lat="50.60433" lon="5.5691">
        <ele>89.4</ele>
        <time>2019-05-01T06:02:31.000Z</time>
      </trkpt>
      <trkpt lat="50.60445" lon="5.56985">
        <ele>90.2</ele>
        <time>2019-05-01T06:02:33.000Z</time>
      </trkpt>
      <trkpt lat="50.6046" lon="5.57075">
        <ele>89</ele>
        <time>2019-05-01T06:02:35.000Z</time>
      </trkpt>
      <trkpt lat="50.60472" lon="5.57145">
        <ele>89.6</ele>
        <time>2019-05-01T06:02:37.000Z</time>
      </trkpt>
      <trkpt lat="50.6049" lon="5.57249">
        <ele>90.5</ele>
        <time>2019-05-01T06:02:44.000Z</time>
      </trkpt>
      <trkpt lat="50.60501" lon="5.57309">
        <ele>83.2</ele>
        <time>2019-05-01T06:02:45.000Z</time>
      </trkpt>
      <trkpt lat="50.6051" lon="5.57359">
        <ele>83.9</ele>
        <time>2019-05-01T06:02:50.000Z</time>
      </trkpt>
      <trkpt lat="50.60521" lon="5.5742">
        <ele>85.6</ele>
        <time>2019-05-01T06:02:52.000Z</time>
      </trkpt>
      <trkpt lat="50.60532" lon="5.57485">
        <ele>84</ele>
        <time>2019-05-01T06:02:56.000Z</time>
      </trkpt>
      <trkpt lat="50.60547" lon="5.57569">
        <ele>85.4</ele>
        <time>2019-05-01T06:02:57.000Z</time>
      </trkpt>
      <trkpt lat="50.60559" lon="5.57628">
        <ele>89</ele>
        <time>2019-05-01T06:02:59.000Z</time>
      </trkpt>
      <trkpt lat="50.60575" lon="5.57705">
        <ele>94</ele>
        <time>2019-05-01T06:03:01.000Z</time>
      </trkpt>
      <trkpt lat="50.60592" lon="5.57769">
        <ele>84.3</ele>
        <time>2019-05-01T06:03:02.000Z</time>
      </trkpt>
      <trkpt lat="50.60613" lon="5.57841">
        <ele>91</ele>
        <time>2019-05-01T06:03:05.000Z</time>
      </trkpt>
      <trkpt lat="50.60637" lon="5.57908">
        <ele>88</ele>
        <time>2019-05-01T06:03:07.000Z</time>
      </trkpt>
      <trkpt lat="50.60655" lon="5.57953">
        <ele>94.4</ele>
        <time>2019-05-01T06:03:11.000Z</time>
      </trkpt>
      <trkpt lat="50.60673" lon="5.57994">
        <ele>86.5</ele>
        <time>2019-05-01T06:03:16.000Z</time>
      </trkpt>
      <trkpt lat="50.60687" lon="5.58025">
        <ele>86.6</ele>
        <time>2019-05-01T06:03:18.000Z</time>
      </trkpt>
      <trkpt lat="50.6071" lon="5.58069">
        <ele>85.4</ele>
        <time>2019-05-01T06:03:19.000Z</time>
      </trkpt>
      <trkpt lat="50.60738" lon="5.5812">
        <ele>89.8</ele>
        <time>2019-05-01T06:03:20.000Z</time>
      </trkpt>
      <trkpt lat="50.60778" lon="5.58198">
        <ele>84</ele>
        <time>2019-05-01T06:03:23.000Z</time>
      </trkpt>
      <trkpt lat="50.60814" lon="5.58268">
        <ele>90.2</ele>
        <time>2019-05-01T06:03:26.000Z</time>
      </trkpt>
      <trkpt lat="50.60842" lon="5.58317">
        <ele>83.7</ele>
        <time>2019-05-01T06:03:27.000Z</time>
      </trkpt>
      <trkpt lat="50.60858" lon="5.58349">
        <ele>88.5</ele>
        <time>2019-05-01T06:03:36.000Z</time>
      </trkpt>
      <trkpt lat="50.60877" lon="5.58374">
        <ele>87.2</ele>
        <time>2019-05-01T06:03:37.000Z</time>
      </trkpt>
      <trkpt lat="50.60887" lon="5.58382">
        <ele>86</ele>
        <time>2019-05-01T06:03:46.000Z</time>
      </trkpt>
      <trkpt lat="50.60904" lon="5.58395">
        <ele>84</ele>
        <time>2019-05-01T06:03:48.000Z</time>
      </trkpt>
      <trkpt lat="50.60921" lon="5.58403">
        <ele>75.6</ele>
        <time>2019-05-01T06:03:54.000Z</time>
      </trkpt>
      <trkpt lat="50.60947" lon="5.5841">
        <ele>74</ele>
        <time>2019-05-01T06:04:03.000Z</time>
      </trkpt>
      <trkpt lat="50.60972" lon="5.58412">
        <ele>63.799999237061</ele>
        <time>2019-05-01T06:04:04.000Z</time>
      </trkpt>
      <trkpt lat="50.60988" lon="5.58413">
        <ele>63</ele>
        <time>2019-05-01T06:04:08.000Z</time>
      </trkpt>
      <trkpt lat="50.61003" lon="5.58412">
        <ele>62.799999237061</ele>
        <time>2019-05-01T06:04:11.000Z</time>
      </trkpt>
      <trkpt lat="50.61033" lon="5.58413">
        <ele>61.599998474121</ele>
        <time>2019-05-01T06:04:14.000Z</time>
      </trkpt>
      <trkpt lat="50.6104" lon="5.58414">
        <ele>61.400001525879</ele>
        <time>2019-05-01T06:04:22.000Z</time>
      </trkpt>
      <trkpt lat="50.61063" lon="5.58413">
        <ele>60.400001525879</ele>
        <time>2019-05-01T06:04:29.000Z</time>
      </trkpt>
      <trkpt lat="50.61077" lon="5.58413">
        <ele>60</ele>
        <time>2019-05-01T06:04:38.000Z</time>
      </trkpt>
      <trkpt lat="50.61088" lon="5.58416">
        <ele>59.599998474121</ele>
        <time>2019-05-01T06:04:45.000Z</time>
      </trkpt>
      <trkpt lat="50.61095" lon="5.58426">
        <ele>59</ele>
        <time>2019-05-01T06:04:49.000Z</time>
      </trkpt>
      <trkpt lat="50.61104" lon="5.58437">
        <ele>69.3</ele>
        <time>2019-05-01T06:04:58.000Z</time>
      </trkpt>
      <trkpt lat="50.6112" lon="5.58463">
        <ele>69.1</ele>
        <time>2019-05-01T06:05:01.000Z</time>
      </trkpt>
      <trkpt lat="50.61128" lon="5.58477">
        <ele>69</ele>
        <time>2019-05-01T06:05:05.000Z</time>
      </trkpt>
      <trkpt lat="50.61141" lon="5.585">
        <ele>68.7</ele>
        <time>2019-05-01T06:05:07.000Z</time>
      </trkpt>
      <trkpt lat="50.61164" lon="5.58497">
        <ele>57</ele>
        <time>2019-05-01T06:05:11.000Z</time>
      </trkpt>
      <trkpt lat="50.61193" lon="5.58493">
        <ele>56.200000762939</ele>
        <time>2019-05-01T06:05:16.000Z</time>
      </trkpt>
      <trkpt lat="50.61205" lon="5.58494">
        <ele>56</ele>
        <time>2019-05-01T06:05:21.000Z</time>
      </trkpt>
      <trkpt lat="50.61222" lon="5.58488">
        <ele>55.599998474121</ele>
        <time>2019-05-01T06:05:24.000Z</time>
      </trkpt>
      <trkpt lat="50.61244" lon="5.58486">
        <ele>67.9</ele>
        <time>2019-05-01T06:05:28.000Z</time>
      </trkpt>
      <trkpt lat="50.61263" lon="5.58483">
        <ele>55.200000762939</ele>
        <time>2019-05-01T06:05:29.000Z</time>
      </trkpt>
      <trkpt lat="50.61273" lon="5.58482">
        <ele>67</ele>
        <time>2019-05-01T06:05:31.000Z</time>
      </trkpt>
      <trkpt lat="50.61274" lon="5.58492">
        <ele>67.2</ele>
        <time>2019-05-01T06:05:33.000Z</time>
      </trkpt>
      <trkpt lat="50.61274" lon="5.58519">
        <ele>66.7</ele>
        <time>2019-05-01T06:05:35.000Z</time>
      </trkpt>
      <trkpt lat="50.61277" lon="5.58536">
        <ele>66.5</ele>
        <time>2019-05-01T06:05:36.000Z</time>
      </trkpt>
      <trkpt lat="50.61283" lon="5.58555">
        <ele>54.799999237061</ele>
        <time>2019-05-01T06:05:39.000Z</time>
      </trkpt>
      <trkpt lat="50.61291" lon="5.58567">
        <ele>66</ele>
        <time>2019-05-01T06:05:40.000Z</time>
      </trkpt>
      <trkpt lat="50.6131" lon="5.58567">
        <ele>65.8</ele>
        <time>2019-05-01T06:05:42.000Z</time>
      </trkpt>
      <trkpt lat="50.61333" lon="5.58564">
        <ele>65.6</ele>
        <time>2019-05-01T06:05:44.000Z</time>
      </trkpt>
      <trkpt lat="50.61344" lon="5.58563">
        <ele>65</ele>
        <time>2019-05-01T06:05:48.000Z</time>
      </trkpt>
      <trkpt lat="50.61351" lon="5.58606">
        <ele>65.2</ele>
        <time>2019-05-01T06:05:55.000Z</time>
      </trkpt>
      <trkpt lat="50.61354" lon="5.58634">
        <ele>65.4</ele>
        <time>2019-05-01T06:05:56.000Z</time>
      </trkpt>
      <trkpt lat="50.61352" lon="5.58685">
        <ele>66.3</ele>
        <time>2019-05-01T06:06:03.000Z</time>
      </trkpt>
      <trkpt lat="50.6135" lon="5.58747">
        <ele>66.8</ele>
        <time>2019-05-01T06:06:05.000Z</time>
      </trkpt>
      <trkpt lat="50.61346" lon="5.58847">
        <ele>66.7</ele>
        <time>2019-05-01T06:06:11.000Z</time>
      </trkpt>
      <trkpt lat="50.61347" lon="5.58893">
        <ele>66.7</ele>
        <time>2019-05-01T06:06:14.000Z</time>
      </trkpt>
      <trkpt lat="50.61346" lon="5.58934">
        <ele>66.3</ele>
        <time>2019-05-01T06:06:16.000Z</time>
      </trkpt>
      <trkpt lat="50.61339" lon="5.58987">
        <ele>54.599998474121</ele>
        <time>2019-05-01T06:06:17.000Z</time>
      </trkpt>
      <trkpt lat="50.61338" lon="5.58996">
        <ele>54.599998474121</ele>
        <time>2019-05-01T06:06:18.000Z</time>
      </trkpt>
      <trkpt lat="50.61334" lon="5.59046">
        <ele>54.799999237061</ele>
        <time>2019-05-01T06:06:21.000Z</time>
      </trkpt>
      <trkpt lat="50.61332" lon="5.59077">
        <ele>54.799999237061</ele>
        <time>2019-05-01T06:06:22.000Z</time>
      </trkpt>
      <trkpt lat="50.61327" lon="5.59107">
        <ele>67.8</ele>
        <time>2019-05-01T06:06:25.000Z</time>
      </trkpt>
      <trkpt lat="50.61311" lon="5.59183">
        <ele>54.599998474121</ele>
        <time>2019-05-01T06:06:26.000Z</time>
      </trkpt>
      <trkpt lat="50.61297" lon="5.5926">
        <ele>54.599998474121</ele>
        <time>2019-05-01T06:06:27.000Z</time>
      </trkpt>
      <trkpt lat="50.61278" lon="5.59345">
        <ele>54.599998474121</ele>
        <time>2019-05-01T06:06:30.000Z</time>
      </trkpt>
      <trkpt lat="50.61274" lon="5.59364">
        <ele>54.599998474121</ele>
        <time>2019-05-01T06:06:32.000Z</time>
      </trkpt>
      <trkpt lat="50.61265" lon="5.59404">
        <ele>65.6</ele>
        <time>2019-05-01T06:06:44.000Z</time>
      </trkpt>
      <trkpt lat="50.61256" lon="5.59441">
        <ele>65.3</ele>
        <time>2019-05-01T06:06:59.000Z</time>
      </trkpt>
      <trkpt lat="50.61252" lon="5.5946">
        <ele>54.400001525879</ele>
        <time>2019-05-01T06:07:03.000Z</time>
      </trkpt>
      <trkpt lat="50.61253" lon="5.59484">
        <ele>65.2</ele>
        <time>2019-05-01T06:07:08.000Z</time>
      </trkpt>
      <trkpt lat="50.61254" lon="5.59502">
        <ele>65</ele>
        <time>2019-05-01T06:07:52.000Z</time>
      </trkpt>
      <trkpt lat="50.61257" lon="5.59525">
        <ele>54.599998474121</ele>
        <time>2019-05-01T06:07:56.000Z</time>
      </trkpt>
      <trkpt lat="50.61259" lon="5.59547">
        <ele>54.799999237061</ele>
        <time>2019-05-01T06:07:59.000Z</time>
      </trkpt>
      <trkpt lat="50.6126" lon="5.59575">
        <ele>54.799999237061</ele>
        <time>2019-05-01T06:08:11.000Z</time>
      </trkpt>
      <trkpt lat="50.61262" lon="5.59598">
        <ele>65</ele>
        <time>2019-05-01T06:08:41.000Z</time>
      </trkpt>
      <trkpt lat="50.61265" lon="5.59642">
        <ele>64.7</ele>
        <time>2019-05-01T06:08:49.000Z</time>
      </trkpt>
      <trkpt lat="50.61269" lon="5.59702">
        <ele>64.7</ele>
        <time>2019-05-01T06:08:50.000Z</time>
      </trkpt>
      <trkpt lat="50.61268" lon="5.59734">
        <ele>64.7</ele>
        <time>2019-05-01T06:08:52.000Z</time>
      </trkpt>
      <trkpt lat="50.61262" lon="5.59752">
        <ele>64.8</ele>
        <time>2019-05-01T06:08:55.000Z</time>
      </trkpt>
      <trkpt lat="50.61243" lon="5.59779">
        <ele>64.4</ele>
        <time>2019-05-01T06:08:56.000Z</time>
      </trkpt>
      <trkpt lat="50.61184" lon="5.59859">
        <ele>64.3</ele>
        <time>2019-05-01T06:08:59.000Z</time>
      </trkpt>
      <trkpt lat="50.61151" lon="5.59901">
        <ele>64.8</ele>
        <time>2019-05-01T06:21:02.000Z</time>
      </trkpt>
      <trkpt lat="50.61139" lon="5.59917">
        <ele>65</ele>
        <time>2019-05-01T06:21:03.000Z</time>
      </trkpt>
      <trkpt lat="50.6113" lon="5.59935">
        <ele>65.3</ele>
        <time>2019-05-01T06:21:07.000Z</time>
      </trkpt>
      <trkpt lat="50.61132" lon="5.5995">
        <ele>65.4</ele>
        <time>2019-05-01T06:21:10.000Z</time>
      </trkpt>
      <trkpt lat="50.6114" lon="5.59951">
        <ele>65.3</ele>
        <time>2019-05-01T06:21:19.000Z</time>
      </trkpt>
      <trkpt lat="50.6115" lon="5.59958">
        <ele>54.799999237061</ele>
        <time>2019-05-01T06:21:27.000Z</time>
      </trkpt>
      <trkpt lat="50.61168" lon="5.59987">
        <ele>55</ele>
        <time>2019-05-01T06:21:33.000Z</time>
      </trkpt>
      <trkpt lat="50.61172" lon="5.59994">
        <ele>55</ele>
        <time>2019-05-01T06:21:37.000Z</time>
      </trkpt>
      <trkpt lat="50.61201" lon="5.60058">
        <ele>66.4</ele>
        <time>2019-05-01T06:21:40.000Z</time>
      </trkpt>
      <trkpt lat="50.61218" lon="5.6009">
        <ele>66.7</ele>
        <time>2019-05-01T06:21:41.000Z</time>
      </trkpt>
      <trkpt lat="50.61227" lon="5.60105">
        <ele>66.8</ele>
        <time>2019-05-01T06:21:44.000Z</time>
      </trkpt>
      <trkpt lat="50.61246" lon="5.6012">
        <ele>55</ele>
        <time>2019-05-01T06:21:48.000Z</time>
      </trkpt>
      <trkpt lat="50.61258" lon="5.60126">
        <ele>66.5</ele>
        <time>2019-05-01T06:21:51.000Z</time>
      </trkpt>
      <trkpt lat="50.61249" lon="5.60163">
        <ele>67</ele>
        <time>2019-05-01T06:21:56.000Z</time>
      </trkpt>
      <trkpt lat="50.6124" lon="5.602">
        <ele>66.7</ele>
        <time>2019-05-01T06:22:02.000Z</time>
      </trkpt>
      <trkpt lat="50.61223" lon="5.60261">
        <ele>66.2</ele>
        <time>2019-05-01T06:22:09.000Z</time>
      </trkpt>
      <trkpt lat="50.61201" lon="5.60339">
        <ele>66.4</ele>
        <time>2019-05-01T06:22:12.000Z</time>
      </trkpt>
      <trkpt lat="50.61188" lon="5.60377">
        <ele>66.8</ele>
        <time>2019-05-01T06:22:14.000Z</time>
      </trkpt>
      <trkpt lat="50.61178" lon="5.60406">
        <ele>67.7</ele>
        <time>2019-05-01T06:22:21.000Z</time>
      </trkpt>
      <trkpt lat="50.61153" lon="5.60484">
        <ele>56</ele>
        <time>2019-05-01T06:22:22.000Z</time>
      </trkpt>
      <trkpt lat="50.61126" lon="5.60568">
        <ele>56.200000762939</ele>
        <time>2019-05-01T06:22:25.000Z</time>
      </trkpt>
      <trkpt lat="50.61114" lon="5.60606">
        <ele>56.200000762939</ele>
        <time>2019-05-01T06:22:26.000Z</time>
      </trkpt>
      <trkpt lat="50.61101" lon="5.60643">
        <ele>56.200000762939</ele>
        <time>2019-05-01T06:22:28.000Z</time>
      </trkpt>
      <trkpt lat="50.61097" lon="5.60652">
        <ele>56</ele>
        <time>2019-05-01T06:22:29.000Z</time>
      </trkpt>
      <trkpt lat="50.61087" lon="5.6068">
        <ele>56</ele>
        <time>2019-05-01T06:22:33.000Z</time>
      </trkpt>
      <trkpt lat="50.61074" lon="5.60717">
        <ele>55.799999237061</ele>
        <time>2019-05-01T06:22:36.000Z</time>
      </trkpt>
      <trkpt lat="50.61068" lon="5.60736">
        <ele>55.599998474121</ele>
        <time>2019-05-01T06:22:39.000Z</time>
      </trkpt>
      <trkpt lat="50.6105" lon="5.60793">
        <ele>55.400001525879</ele>
        <time>2019-05-01T06:22:40.000Z</time>
      </trkpt>
      <trkpt lat="50.61039" lon="5.60834">
        <ele>66.7</ele>
        <time>2019-05-01T06:22:43.000Z</time>
      </trkpt>
      <trkpt lat="50.6103" lon="5.60864">
        <ele>55.400001525879</ele>
        <time>2019-05-01T06:22:45.000Z</time>
      </trkpt>
      <trkpt lat="50.61023" lon="5.60889">
        <ele>55.599998474121</ele>
        <time>2019-05-01T06:22:46.000Z</time>
      </trkpt>
      <trkpt lat="50.61015" lon="5.60921">
        <ele>56.200000762939</ele>
        <time>2019-05-01T06:22:57.000Z</time>
      </trkpt>
      <trkpt lat="50.61005" lon="5.60959">
        <ele>57.400001525879</ele>
        <time>2019-05-01T06:23:03.000Z</time>
      </trkpt>
      <trkpt lat="50.60995" lon="5.60997">
        <ele>58.599998474121</ele>
        <time>2019-05-01T06:23:11.000Z</time>
      </trkpt>
      <trkpt lat="50.6099" lon="5.61013">
        <ele>59.200000762939</ele>
        <time>2019-05-01T06:23:16.000Z</time>
      </trkpt>
      <trkpt lat="50.60984" lon="5.61036">
        <ele>60.200000762939</ele>
        <time>2019-05-01T06:23:23.000Z</time>
      </trkpt>
      <trkpt lat="50.60976" lon="5.61066">
        <ele>61.200000762939</ele>
        <time>2019-05-01T06:23:26.000Z</time>
      </trkpt>
      <trkpt lat="50.60973" lon="5.61081">
        <ele>61.200000762939</ele>
        <time>2019-05-01T06:25:07.000Z</time>
      </trkpt>
      <trkpt lat="50.60963" lon="5.61112">
        <ele>61.799999237061</ele>
        <time>2019-05-01T06:25:37.000Z</time>
      </trkpt>
      <trkpt lat="50.60955" lon="5.61144">
        <ele>62.200000762939</ele>
        <time>2019-05-01T06:25:41.000Z</time>
      </trkpt>
      <trkpt lat="50.60943" lon="5.61185">
        <ele>62.400001525879</ele>
        <time>2019-05-01T06:25:50.000Z</time>
      </trkpt>
      <trkpt lat="50.60925" lon="5.6125">
        <ele>62.200000762939</ele>
        <time>2019-05-01T06:26:47.000Z</time>
      </trkpt>
      <trkpt lat="50.60919" lon="5.61273">
        <ele>62</ele>
        <time>2019-05-01T06:26:49.000Z</time>
      </trkpt>
      <trkpt lat="50.60914" lon="5.61287">
        <ele>62</ele>
        <time>2019-05-01T06:27:07.000Z</time>
      </trkpt>
      <trkpt lat="50.60912" lon="5.61293">
        <ele>61.799999237061</ele>
        <time>2019-05-01T06:27:15.000Z</time>
      </trkpt>
      <trkpt lat="50.6091" lon="5.61295">
        <ele>61.400001525879</ele>
        <time>2019-05-01T06:28:09.000Z</time>
      </trkpt>
      <trkpt lat="50.60908" lon="5.61295">
        <ele>61.400001525879</ele>
        <time>2019-05-01T06:28:16.000Z</time>
      </trkpt>
      <trkpt lat="50.60906" lon="5.61296">
        <ele>61.200000762939</ele>
        <time>2019-05-01T06:28:18.000Z</time>
      </trkpt>
      <trkpt lat="50.60902" lon="5.61301">
        <ele>61</ele>
        <time>2019-05-01T06:28:23.000Z</time>
      </trkpt>
      <trkpt lat="50.609" lon="5.61305">
        <ele>61</ele>
        <time>2019-05-01T06:28:24.000Z</time>
      </trkpt>
      <trkpt lat="50.60894" lon="5.61325">
        <ele>61</ele>
        <time>2019-05-01T06:28:27.000Z</time>
      </trkpt>
      <trkpt lat="50.6089" lon="5.61337">
        <ele>61</ele>
        <time>2019-05-01T06:28:36.000Z</time>
      </trkpt>
      <trkpt lat="50.60886" lon="5.6135">
        <ele>61.200000762939</ele>
        <time>2019-05-01T06:28:48.000Z</time>
      </trkpt>
      <trkpt lat="50.60883" lon="5.61364">
        <ele>61.400001525879</ele>
        <time>2019-05-01T06:28:57.000Z</time>
      </trkpt>
      <trkpt lat="50.60879" lon="5.61378">
        <ele>61.799999237061</ele>
        <time>2019-05-01T06:29:24.000Z</time>
      </trkpt>
      <trkpt lat="50.60866" lon="5.61424">
        <ele>62</ele>
        <time>2019-05-01T06:29:27.000Z</time>
      </trkpt>
      <trkpt lat="50.60864" lon="5.61431">
        <ele>62</ele>
        <time>2019-05-01T06:29:40.000Z</time>
      </trkpt>
      <trkpt lat="50.60854" lon="5.61467">
        <ele>62</ele>
        <time>2019-05-01T06:29:41.000Z</time>
      </trkpt>
      <trkpt lat="50.60851" lon="5.61487">
        <ele>67.1</ele>
        <time>2019-05-01T06:34:36.000Z</time>
      </trkpt>
      <trkpt lat="50.60847" lon="5.61521">
        <ele>67.6</ele>
        <time>2019-05-01T06:37:10.000Z</time>
      </trkpt>
      <trkpt lat="50.60842" lon="5.61532">
        <ele>61.799999237061</ele>
        <time>2019-05-01T06:37:31.000Z</time>
      </trkpt>
      <trkpt lat="50.60841" lon="5.61548">
        <ele>61.599998474121</ele>
        <time>2019-05-01T06:37:34.000Z</time>
      </trkpt>
      <trkpt lat="50.60842" lon="5.61561">
        <ele>61.200000762939</ele>
        <time>2019-05-01T06:37:39.000Z</time>
      </trkpt>
      <trkpt lat="50.60843" lon="5.61568">
        <ele>61</ele>
        <time>2019-05-01T06:37:44.000Z</time>
      </trkpt>
      <trkpt lat="50.60842" lon="5.61591">
        <ele>61</ele>
        <time>2019-05-01T06:37:49.000Z</time>
      </trkpt>
      <trkpt lat="50.60839" lon="5.61622">
        <ele>69</ele>
        <time>2019-05-01T06:37:51.000Z</time>
      </trkpt>
      <trkpt lat="50.60835" lon="5.61643">
        <ele>61.200000762939</ele>
        <time>2019-05-01T06:37:52.000Z</time>
      </trkpt>
      <trkpt lat="50.60823" lon="5.61684">
        <ele>69.5</ele>
        <time>2019-05-01T06:37:54.000Z</time>
      </trkpt>
      <trkpt lat="50.60815" lon="5.61708">
        <ele>69.3</ele>
        <time>2019-05-01T06:37:56.000Z</time>
      </trkpt>
      <trkpt lat="50.60808" lon="5.61731">
        <ele>69.2</ele>
        <time>2019-05-01T06:38:05.000Z</time>
      </trkpt>
      <trkpt lat="50.608" lon="5.61753">
        <ele>69.4</ele>
        <time>2019-05-01T06:38:08.000Z</time>
      </trkpt>
      <trkpt lat="50.60794" lon="5.61775">
        <ele>69.4</ele>
        <time>2019-05-01T06:38:12.000Z</time>
      </trkpt>
      <trkpt lat="50.60784" lon="5.61795">
        <ele>69</ele>
        <time>2019-05-01T06:38:19.000Z</time>
      </trkpt>
      <trkpt lat="50.60773" lon="5.61809">
        <ele>69.6</ele>
        <time>2019-05-01T06:38:20.000Z</time>
      </trkpt>
      <trkpt lat="50.60765" lon="5.61835">
        <ele>70</ele>
        <time>2019-05-01T06:38:25.000Z</time>
      </trkpt>
      <trkpt lat="50.60749" lon="5.61889">
        <ele>69.6</ele>
        <time>2019-05-01T06:38:31.000Z</time>
      </trkpt>
      <trkpt lat="50.60736" lon="5.61937">
        <ele>69.7</ele>
        <time>2019-05-01T06:38:35.000Z</time>
      </trkpt>
      <trkpt lat="50.6072" lon="5.61993">
        <ele>69.9</ele>
        <time>2019-05-01T06:38:41.000Z</time>
      </trkpt>
      <trkpt lat="50.60688" lon="5.62085">
        <ele>71.3</ele>
        <time>2019-05-01T06:38:49.000Z</time>
      </trkpt>
      <trkpt lat="50.60682" lon="5.62108">
        <ele>71.4</ele>
        <time>2019-05-01T06:38:56.000Z</time>
      </trkpt>
      <trkpt lat="50.60672" lon="5.62141">
        <ele>71.6</ele>
        <time>2019-05-01T06:39:02.000Z</time>
      </trkpt>
      <trkpt lat="50.60661" lon="5.62171">
        <ele>71.6</ele>
        <time>2019-05-01T06:39:10.000Z</time>
      </trkpt>
      <trkpt lat="50.60653" lon="5.62198">
        <ele>70.8</ele>
        <time>2019-05-01T06:39:57.000Z</time>
      </trkpt>
      <trkpt lat="50.60633" lon="5.6226">
        <ele>70.6</ele>
        <time>2019-05-01T06:40:14.000Z</time>
      </trkpt>
      <trkpt lat="50.60613" lon="5.62315">
        <ele>71</ele>
        <time>2019-05-01T06:40:20.000Z</time>
      </trkpt>
      <trkpt lat="50.60588" lon="5.62387">
        <ele>71.6</ele>
        <time>2019-05-01T06:40:23.000Z</time>
      </trkpt>
      <trkpt lat="50.60568" lon="5.62447">
        <ele>71.8</ele>
        <time>2019-05-01T06:40:28.000Z</time>
      </trkpt>
      <trkpt lat="50.60557" lon="5.62482">
        <ele>71.8</ele>
        <time>2019-05-01T06:40:46.000Z</time>
      </trkpt>
      <trkpt lat="50.60534" lon="5.62552">
        <ele>71.4</ele>
        <time>2019-05-01T06:40:48.000Z</time>
      </trkpt>
      <trkpt lat="50.60525" lon="5.62581">
        <ele>71.3</ele>
        <time>2019-05-01T06:40:49.000Z</time>
      </trkpt>
      <trkpt lat="50.60516" lon="5.62606">
        <ele>70.6</ele>
        <time>2019-05-01T06:40:52.000Z</time>
      </trkpt>
      <trkpt lat="50.60504" lon="5.62647">
        <ele>69.9</ele>
        <time>2019-05-01T06:40:57.000Z</time>
      </trkpt>
      <trkpt lat="50.60491" lon="5.6269">
        <ele>69.6</ele>
        <time>2019-05-01T06:41:21.000Z</time>
      </trkpt>
      <trkpt lat="50.60481" lon="5.62727">
        <ele>69.7</ele>
        <time>2019-05-01T06:41:22.000Z</time>
      </trkpt>
      <trkpt lat="50.60472" lon="5.6274">
        <ele>64</ele>
        <time>2019-05-01T06:41:26.000Z</time>
      </trkpt>
      <trkpt lat="50.60462" lon="5.62745">
        <ele>69.9</ele>
        <time>2019-05-01T06:41:30.000Z</time>
      </trkpt>
      <trkpt lat="50.60445" lon="5.62754">
        <ele>62</ele>
        <time>2019-05-01T06:41:32.000Z</time>
      </trkpt>
      <trkpt lat="50.60441" lon="5.62754">
        <ele>61.799999237061</ele>
        <time>2019-05-01T06:41:39.000Z</time>
      </trkpt>
      <trkpt lat="50.60428" lon="5.62759">
        <ele>61.599998474121</ele>
        <time>2019-05-01T06:41:46.000Z</time>
      </trkpt>
      <trkpt lat="50.60403" lon="5.62774">
        <ele>71</ele>
        <time>2019-05-01T06:41:54.000Z</time>
      </trkpt>
      <trkpt lat="50.60383" lon="5.62789">
        <ele>71</ele>
        <time>2019-05-01T06:41:55.000Z</time>
      </trkpt>
      <trkpt lat="50.6034" lon="5.62814">
        <ele>71</ele>
        <time>2019-05-01T06:42:00.000Z</time>
      </trkpt>
      <trkpt lat="50.60305" lon="5.62841">
        <ele>71.2</ele>
        <time>2019-05-01T06:42:13.000Z</time>
      </trkpt>
      <trkpt lat="50.60269" lon="5.62866">
        <ele>71.3</ele>
        <time>2019-05-01T06:42:14.000Z</time>
      </trkpt>
      <trkpt lat="50.60259" lon="5.62866">
        <ele>60.400001525879</ele>
        <time>2019-05-01T06:42:17.000Z</time>
      </trkpt>
      <trkpt lat="50.60252" lon="5.62871">
        <ele>60.400001525879</ele>
        <time>2019-05-01T06:42:18.000Z</time>
      </trkpt>
      <trkpt lat="50.60244" lon="5.62879">
        <ele>73.3</ele>
        <time>2019-05-01T06:42:19.000Z</time>
      </trkpt>
      <trkpt lat="50.60229" lon="5.62881">
        <ele>73.6</ele>
        <time>2019-05-01T06:42:23.000Z</time>
      </trkpt>
      <trkpt lat="50.60225" lon="5.62882">
        <ele>60.400001525879</ele>
        <time>2019-05-01T06:42:26.000Z</time>
      </trkpt>
      <trkpt lat="50.60212" lon="5.62894">
        <ele>60.400001525879</ele>
        <time>2019-05-01T06:42:30.000Z</time>
      </trkpt>
      <trkpt lat="50.60205" lon="5.629">
        <ele>73.6</ele>
        <time>2019-05-01T06:42:34.000Z</time>
      </trkpt>
      <trkpt lat="50.60191" lon="5.62914">
        <ele>73.3</ele>
        <time>2019-05-01T06:42:39.000Z</time>
      </trkpt>
      <trkpt lat="50.60179" lon="5.62934">
        <ele>71.1</ele>
        <time>2019-05-01T06:42:43.000Z</time>
      </trkpt>
      <trkpt lat="50.60158" lon="5.62967">
        <ele>71</ele>
        <time>2019-05-01T06:42:48.000Z</time>
      </trkpt>
      <trkpt lat="50.60147" lon="5.62983">
        <ele>71</ele>
        <time>2019-05-01T06:42:55.000Z</time>
      </trkpt>
      <trkpt lat="50.60137" lon="5.63017">
        <ele>70.6</ele>
        <time>2019-05-01T06:43:29.000Z</time>
      </trkpt>
      <trkpt lat="50.6012" lon="5.6308">
        <ele>70.8</ele>
        <time>2019-05-01T06:43:31.000Z</time>
      </trkpt>
      <trkpt lat="50.60119" lon="5.63101">
        <ele>61</ele>
        <time>2019-05-01T06:43:33.000Z</time>
      </trkpt>
      <trkpt lat="50.60119" lon="5.63103">
        <ele>60.799999237061</ele>
        <time>2019-05-01T06:43:35.000Z</time>
      </trkpt>
      <trkpt lat="50.60116" lon="5.63116">
        <ele>60.799999237061</ele>
        <time>2019-05-01T06:43:37.000Z</time>
      </trkpt>
      <trkpt lat="50.60112" lon="5.63126">
        <ele>60.799999237061</ele>
        <time>2019-05-01T06:43:42.000Z</time>
      </trkpt>
      <trkpt lat="50.60107" lon="5.63139">
        <ele>60.799999237061</ele>
        <time>2019-05-01T06:43:43.000Z</time>
      </trkpt>
      <trkpt lat="50.60106" lon="5.63147">
        <ele>60.799999237061</ele>
        <time>2019-05-01T06:43:48.000Z</time>
      </trkpt>
      <trkpt lat="50.60109" lon="5.63184">
        <ele>70.4</ele>
        <time>2019-05-01T06:43:49.000Z</time>
      </trkpt>
      <trkpt lat="50.60103" lon="5.63199">
        <ele>60.799999237061</ele>
        <time>2019-05-01T06:43:55.000Z</time>
      </trkpt>
      <trkpt lat="50.60094" lon="5.63215">
        <ele>70.3</ele>
        <time>2019-05-01T06:44:00.000Z</time>
      </trkpt>
      <trkpt lat="50.60078" lon="5.63231">
        <ele>70.4</ele>
        <time>2019-05-01T06:44:04.000Z</time>
      </trkpt>
      <trkpt lat="50.60068" lon="5.63242">
        <ele>70</ele>
        <time>2019-05-01T06:44:05.000Z</time>
      </trkpt>
      <trkpt lat="50.60062" lon="5.63254">
        <ele>60.599998474121</ele>
        <time>2019-05-01T06:44:06.000Z</time>
      </trkpt>
      <trkpt lat="50.60057" lon="5.63261">
        <ele>70.4</ele>
        <time>2019-05-01T06:44:08.000Z</time>
      </trkpt>
      <trkpt lat="50.60053" lon="5.63283">
        <ele>70.5</ele>
        <time>2019-05-01T06:44:09.000Z</time>
      </trkpt>
      <trkpt lat="50.60053" lon="5.63301">
        <ele>60.400001525879</ele>
        <time>2019-05-01T06:44:10.000Z</time>
      </trkpt>
      <trkpt lat="50.60047" lon="5.63316">
        <ele>71</ele>
        <time>2019-05-01T06:44:14.000Z</time>
      </trkpt>
      <trkpt lat="50.6004" lon="5.6332">
        <ele>70.5</ele>
        <time>2019-05-01T06:44:15.000Z</time>
      </trkpt>
      <trkpt lat="50.6003" lon="5.6332">
        <ele>70.4</ele>
        <time>2019-05-01T06:44:17.000Z</time>
      </trkpt>
      <trkpt lat="50.60013" lon="5.63307">
        <ele>70.4</ele>
        <time>2019-05-01T06:44:19.000Z</time>
      </trkpt>
      <trkpt lat="50.60004" lon="5.63298">
        <ele>70.5</ele>
        <time>2019-05-01T06:44:20.000Z</time>
      </trkpt>
      <trkpt lat="50.59993" lon="5.63288">
        <ele>70.2</ele>
        <time>2019-05-01T06:44:22.000Z</time>
      </trkpt>
      <trkpt lat="50.59979" lon="5.63277">
        <ele>70.2</ele>
        <time>2019-05-01T06:44:24.000Z</time>
      </trkpt>
      <trkpt lat="50.59975" lon="5.63302">
        <ele>70</ele>
        <time>2019-05-01T06:44:29.000Z</time>
      </trkpt>
      <trkpt lat="50.59975" lon="5.63322">
        <ele>63.200000762939</ele>
        <time>2019-05-01T06:44:30.000Z</time>
      </trkpt>
      <trkpt lat="50.59971" lon="5.63362">
        <ele>63.200000762939</ele>
        <time>2019-05-01T06:44:37.000Z</time>
      </trkpt>
      <trkpt lat="50.59965" lon="5.63383">
        <ele>69.8</ele>
        <time>2019-05-01T06:44:39.000Z</time>
      </trkpt>
      <trkpt lat="50.59955" lon="5.63397">
        <ele>69.8</ele>
        <time>2019-05-01T06:44:43.000Z</time>
      </trkpt>
      <trkpt lat="50.59935" lon="5.63426">
        <ele>61.200000762939</ele>
        <time>2019-05-01T06:44:49.000Z</time>
      </trkpt>
      <trkpt lat="50.59931" lon="5.63432">
        <ele>61.200000762939</ele>
        <time>2019-05-01T06:44:52.000Z</time>
      </trkpt>
      <trkpt lat="50.59909" lon="5.6346">
        <ele>71</ele>
        <time>2019-05-01T06:44:55.000Z</time>
      </trkpt>
      <trkpt lat="50.59886" lon="5.63484">
        <ele>71.2</ele>
        <time>2019-05-01T06:44:59.000Z</time>
      </trkpt>
      <trkpt lat="50.59872" lon="5.63489">
        <ele>71.4</ele>
        <time>2019-05-01T06:45:01.000Z</time>
      </trkpt>
      <trkpt lat="50.59855" lon="5.63482">
        <ele>72</ele>
        <time>2019-05-01T06:45:03.000Z</time>
      </trkpt>
      <trkpt lat="50.59841" lon="5.63485">
        <ele>71.7</ele>
        <time>2019-05-01T06:45:04.000Z</time>
      </trkpt>
      <trkpt lat="50.59829" lon="5.63492">
        <ele>72.1</ele>
        <time>2019-05-01T06:45:06.000Z</time>
      </trkpt>
      <trkpt lat="50.59815" lon="5.63516">
        <ele>74.3</ele>
        <time>2019-05-01T06:45:10.000Z</time>
      </trkpt>
      <trkpt lat="50.59801" lon="5.63535">
        <ele>75.4</ele>
        <time>2019-05-01T06:45:11.000Z</time>
      </trkpt>
      <trkpt lat="50.59785" lon="5.63541">
        <ele>75.8</ele>
        <time>2019-05-01T06:45:15.000Z</time>
      </trkpt>
      <trkpt lat="50.59768" lon="5.63531">
        <ele>75.4</ele>
        <time>2019-05-01T06:45:20.000Z</time>
      </trkpt>
      <trkpt lat="50.59749" lon="5.63514">
        <ele>75.5</ele>
        <time>2019-05-01T06:45:21.000Z</time>
      </trkpt>
      <trkpt lat="50.59731" lon="5.63496">
        <ele>73</ele>
        <time>2019-05-01T06:45:24.000Z</time>
      </trkpt>
      <trkpt lat="50.59708" lon="5.63464">
        <ele>72.8</ele>
        <time>2019-05-01T06:45:26.000Z</time>
      </trkpt>
      <trkpt lat="50.59684" lon="5.63415">
        <ele>71.5</ele>
        <time>2019-05-01T06:45:28.000Z</time>
      </trkpt>
      <trkpt lat="50.59675" lon="5.6339">
        <ele>71.7</ele>
        <time>2019-05-01T06:45:32.000Z</time>
      </trkpt>
      <trkpt lat="50.59668" lon="5.63369">
        <ele>71.9</ele>
        <time>2019-05-01T06:45:36.000Z</time>
      </trkpt>
      <trkpt lat="50.59654" lon="5.6332">
        <ele>72.1</ele>
        <time>2019-05-01T06:45:37.000Z</time>
      </trkpt>
      <trkpt lat="50.59652" lon="5.63306">
        <ele>72.2</ele>
        <time>2019-05-01T06:45:40.000Z</time>
      </trkpt>
      <trkpt lat="50.5965" lon="5.63281">
        <ele>72.5</ele>
        <time>2019-05-01T06:45:44.000Z</time>
      </trkpt>
      <trkpt lat="50.5965" lon="5.63252">
        <ele>72.7</ele>
        <time>2019-05-01T06:45:45.000Z</time>
      </trkpt>
      <trkpt lat="50.59648" lon="5.63229">
        <ele>74.3</ele>
        <time>2019-05-01T06:45:50.000Z</time>
      </trkpt>
      <trkpt lat="50.59646" lon="5.63206">
        <ele>74.8</ele>
        <time>2019-05-01T06:45:51.000Z</time>
      </trkpt>
      <trkpt lat="50.5963" lon="5.63209">
        <ele>74.9</ele>
        <time>2019-05-01T06:45:54.000Z</time>
      </trkpt>
      <trkpt lat="50.59612" lon="5.6321">
        <ele>75.1</ele>
        <time>2019-05-01T06:45:56.000Z</time>
      </trkpt>
      <trkpt lat="50.59593" lon="5.63213">
        <ele>75.2</ele>
        <time>2019-05-01T06:46:02.000Z</time>
      </trkpt>
      <trkpt lat="50.59569" lon="5.63214">
        <ele>64.400001525879</ele>
        <time>2019-05-01T06:46:11.000Z</time>
      </trkpt>
      <trkpt lat="50.59553" lon="5.63216">
        <ele>75.6</ele>
        <time>2019-05-01T06:46:12.000Z</time>
      </trkpt>
      <trkpt lat="50.59521" lon="5.63218">
        <ele>75.5</ele>
        <time>2019-05-01T06:46:13.000Z</time>
      </trkpt>
      <trkpt lat="50.59478" lon="5.63215">
        <ele>75.4</ele>
        <time>2019-05-01T06:46:17.000Z</time>
      </trkpt>
      <trkpt lat="50.59426" lon="5.6321">
        <ele>75.5</ele>
        <time>2019-05-01T06:46:23.000Z</time>
      </trkpt>
      <trkpt lat="50.59391" lon="5.63203">
        <ele>75.5</ele>
        <time>2019-05-01T06:46:24.000Z</time>
      </trkpt>
      <trkpt lat="50.59352" lon="5.63197">
        <ele>75.6</ele>
        <time>2019-05-01T06:46:28.000Z</time>
      </trkpt>
      <trkpt lat="50.59329" lon="5.63181">
        <ele>75.5</ele>
        <time>2019-05-01T06:46:31.000Z</time>
      </trkpt>
      <trkpt lat="50.59295" lon="5.63155">
        <ele>77</ele>
        <time>2019-05-01T06:46:33.000Z</time>
      </trkpt>
      <trkpt lat="50.59254" lon="5.63121">
        <ele>77.1</ele>
        <time>2019-05-01T06:46:36.000Z</time>
      </trkpt>
      <trkpt lat="50.59206" lon="5.63084">
        <ele>75.3</ele>
        <time>2019-05-01T06:46:40.000Z</time>
      </trkpt>
      <trkpt lat="50.59162" lon="5.63049">
        <ele>78.7</ele>
        <time>2019-05-01T06:46:42.000Z</time>
      </trkpt>
      <trkpt lat="50.59145" lon="5.63037">
        <ele>79.5</ele>
        <time>2019-05-01T06:46:48.000Z</time>
      </trkpt>
      <trkpt lat="50.59105" lon="5.63005">
        <ele>78.4</ele>
        <time>2019-05-01T06:46:54.000Z</time>
      </trkpt>
      <trkpt lat="50.5907" lon="5.62977">
        <ele>81.1</ele>
        <time>2019-05-01T06:47:00.000Z</time>
      </trkpt>
      <trkpt lat="50.59055" lon="5.62958">
        <ele>82.8</ele>
        <time>2019-05-01T06:47:08.000Z</time>
      </trkpt>
      <trkpt lat="50.59027" lon="5.62923">
        <ele>84.3</ele>
        <time>2019-05-01T06:47:15.000Z</time>
      </trkpt>
      <trkpt lat="50.59006" lon="5.629">
        <ele>93.8</ele>
        <time>2019-05-01T06:47:16.000Z</time>
      </trkpt>
      <trkpt lat="50.58998" lon="5.62894">
        <ele>100.8</ele>
        <time>2019-05-01T06:47:21.000Z</time>
      </trkpt>
      <trkpt lat="50.58982" lon="5.62894">
        <ele>103.4</ele>
        <time>2019-05-01T06:47:22.000Z</time>
      </trkpt>
      <trkpt lat="50.58972" lon="5.62899">
        <ele>104.5</ele>
        <time>2019-05-01T06:47:26.000Z</time>
      </trkpt>
      <trkpt lat="50.58959" lon="5.62907">
        <ele>106.3</ele>
        <time>2019-05-01T06:47:29.000Z</time>
      </trkpt>
      <trkpt lat="50.58946" lon="5.62911">
        <ele>108</ele>
        <time>2019-05-01T06:47:34.000Z</time>
      </trkpt>
      <trkpt lat="50.58935" lon="5.62932">
        <ele>96.9</ele>
        <time>2019-05-01T06:47:40.000Z</time>
      </trkpt>
      <trkpt lat="50.58919" lon="5.62951">
        <ele>94.5</ele>
        <time>2019-05-01T06:47:47.000Z</time>
      </trkpt>
      <trkpt lat="50.589" lon="5.62987">
        <ele>94.1</ele>
        <time>2019-05-01T06:47:52.000Z</time>
      </trkpt>
      <trkpt lat="50.58878" lon="5.6303">
        <ele>87.3</ele>
        <time>2019-05-01T06:47:55.000Z</time>
      </trkpt>
      <trkpt lat="50.58868" lon="5.63052">
        <ele>67.599998474121</ele>
        <time>2019-05-01T06:48:00.000Z</time>
      </trkpt>
      <trkpt lat="50.5885" lon="5.63095">
        <ele>82.5</ele>
        <time>2019-05-01T06:48:02.000Z</time>
      </trkpt>
      <trkpt lat="50.5883" lon="5.63153">
        <ele>82</ele>
        <time>2019-05-01T06:48:11.000Z</time>
      </trkpt>
      <trkpt lat="50.58817" lon="5.63199">
        <ele>80.1</ele>
        <time>2019-05-01T06:48:13.000Z</time>
      </trkpt>
      <trkpt lat="50.58805" lon="5.63258">
        <ele>76.9</ele>
        <time>2019-05-01T06:48:17.000Z</time>
      </trkpt>
      <trkpt lat="50.58787" lon="5.63344">
        <ele>76.9</ele>
        <time>2019-05-01T06:48:23.000Z</time>
      </trkpt>
      <trkpt lat="50.5877" lon="5.63424">
        <ele>78.5</ele>
        <time>2019-05-01T06:48:29.000Z</time>
      </trkpt>
      <trkpt lat="50.58762" lon="5.63463">
        <ele>66.199996948242</ele>
        <time>2019-05-01T06:48:31.000Z</time>
      </trkpt>
      <trkpt lat="50.58752" lon="5.63503">
        <ele>66.199996948242</ele>
        <time>2019-05-01T06:48:35.000Z</time>
      </trkpt>
      <trkpt lat="50.58733" lon="5.6359">
        <ele>80.2</ele>
        <time>2019-05-01T06:48:38.000Z</time>
      </trkpt>
      <trkpt lat="50.58715" lon="5.63672">
        <ele>66.800003051758</ele>
        <time>2019-05-01T06:48:41.000Z</time>
      </trkpt>
      <trkpt lat="50.58701" lon="5.63735">
        <ele>80.7</ele>
        <time>2019-05-01T06:48:42.000Z</time>
      </trkpt>
      <trkpt lat="50.58697" lon="5.63768">
        <ele>80</ele>
        <time>2019-05-01T06:48:44.000Z</time>
      </trkpt>
      <trkpt lat="50.58687" lon="5.63808">
        <ele>67</ele>
        <time>2019-05-01T06:48:47.000Z</time>
      </trkpt>
      <trkpt lat="50.5868" lon="5.63848">
        <ele>79</ele>
        <time>2019-05-01T06:48:49.000Z</time>
      </trkpt>
      <trkpt lat="50.58673" lon="5.63873">
        <ele>78.1</ele>
        <time>2019-05-01T06:48:53.000Z</time>
      </trkpt>
      <trkpt lat="50.58664" lon="5.63896">
        <ele>84</ele>
        <time>2019-05-01T06:48:54.000Z</time>
      </trkpt>
      <trkpt lat="50.58658" lon="5.63933">
        <ele>67.400001525879</ele>
        <time>2019-05-01T06:48:56.000Z</time>
      </trkpt>
      <trkpt lat="50.58657" lon="5.63973">
        <ele>82</ele>
        <time>2019-05-01T06:48:59.000Z</time>
      </trkpt>
      <trkpt lat="50.58653" lon="5.63999">
        <ele>67.400001525879</ele>
        <time>2019-05-01T06:49:04.000Z</time>
      </trkpt>
      <trkpt lat="50.58652" lon="5.64009">
        <ele>67.599998474121</ele>
        <time>2019-05-01T06:49:09.000Z</time>
      </trkpt>
      <trkpt lat="50.58644" lon="5.64051">
        <ele>67.400001525879</ele>
        <time>2019-05-01T06:49:10.000Z</time>
      </trkpt>
      <trkpt lat="50.58629" lon="5.64113">
        <ele>67.599998474121</ele>
        <time>2019-05-01T06:49:15.000Z</time>
      </trkpt>
      <trkpt lat="50.58612" lon="5.64173">
        <ele>79.1</ele>
        <time>2019-05-01T06:49:18.000Z</time>
      </trkpt>
      <trkpt lat="50.58603" lon="5.64208">
        <ele>78.7</ele>
        <time>2019-05-01T06:49:20.000Z</time>
      </trkpt>
      <trkpt lat="50.58587" lon="5.64273">
        <ele>77.8</ele>
        <time>2019-05-01T06:49:25.000Z</time>
      </trkpt>
      <trkpt lat="50.58582" lon="5.64295">
        <ele>67.800003051758</ele>
        <time>2019-05-01T06:49:26.000Z</time>
      </trkpt>
      <trkpt lat="50.58564" lon="5.64364">
        <ele>68.199996948242</ele>
        <time>2019-05-01T06:49:30.000Z</time>
      </trkpt>
      <trkpt lat="50.58561" lon="5.64374">
        <ele>68.199996948242</ele>
        <time>2019-05-01T06:49:31.000Z</time>
      </trkpt>
      <trkpt lat="50.58542" lon="5.64455">
        <ele>68.199996948242</ele>
        <time>2019-05-01T06:49:32.000Z</time>
      </trkpt>
      <trkpt lat="50.58539" lon="5.64465">
        <ele>68.400001525879</ele>
        <time>2019-05-01T06:49:33.000Z</time>
      </trkpt>
      <trkpt lat="50.58522" lon="5.64543">
        <ele>68.400001525879</ele>
        <time>2019-05-01T06:49:34.000Z</time>
      </trkpt>
      <trkpt lat="50.58516" lon="5.64581">
        <ele>79</ele>
        <time>2019-05-01T06:49:37.000Z</time>
      </trkpt>
      <trkpt lat="50.5851" lon="5.64627">
        <ele>68.400001525879</ele>
        <time>2019-05-01T06:49:38.000Z</time>
      </trkpt>
      <trkpt lat="50.58509" lon="5.6466">
        <ele>80</ele>
        <time>2019-05-01T06:49:39.000Z</time>
      </trkpt>
      <trkpt lat="50.58511" lon="5.64691">
        <ele>68.599998474121</ele>
        <time>2019-05-01T06:49:40.000Z</time>
      </trkpt>
      <trkpt lat="50.58516" lon="5.64736">
        <ele>80</ele>
        <time>2019-05-01T06:49:43.000Z</time>
      </trkpt>
      <trkpt lat="50.58522" lon="5.6477">
        <ele>79.4</ele>
        <time>2019-05-01T06:49:45.000Z</time>
      </trkpt>
      <trkpt lat="50.58539" lon="5.64819">
        <ele>68.800003051758</ele>
        <time>2019-05-01T06:49:48.000Z</time>
      </trkpt>
      <trkpt lat="50.58551" lon="5.6485">
        <ele>81</ele>
        <time>2019-05-01T06:49:52.000Z</time>
      </trkpt>
      <trkpt lat="50.58563" lon="5.64875">
        <ele>81</ele>
        <time>2019-05-01T06:49:57.000Z</time>
      </trkpt>
      <trkpt lat="50.58577" lon="5.64897">
        <ele>81</ele>
        <time>2019-05-01T06:50:00.000Z</time>
      </trkpt>
      <trkpt lat="50.58592" lon="5.64915">
        <ele>69</ele>
        <time>2019-05-01T06:50:06.000Z</time>
      </trkpt>
      <trkpt lat="50.58622" lon="5.64954">
        <ele>81.9</ele>
        <time>2019-05-01T06:50:08.000Z</time>
      </trkpt>
      <trkpt lat="50.58657" lon="5.64994">
        <ele>69.199996948242</ele>
        <time>2019-05-01T06:50:10.000Z</time>
      </trkpt>
      <trkpt lat="50.58668" lon="5.65006">
        <ele>69.400001525879</ele>
        <time>2019-05-01T06:50:11.000Z</time>
      </trkpt>
      <trkpt lat="50.58693" lon="5.65032">
        <ele>81.8</ele>
        <time>2019-05-01T06:50:12.000Z</time>
      </trkpt>
      <trkpt lat="50.58715" lon="5.65055">
        <ele>70</ele>
        <time>2019-05-01T06:50:15.000Z</time>
      </trkpt>
      <trkpt lat="50.58752" lon="5.65097">
        <ele>81.1</ele>
        <time>2019-05-01T06:50:18.000Z</time>
      </trkpt>
      <trkpt lat="50.5879" lon="5.65137">
        <ele>82.5</ele>
        <time>2019-05-01T06:50:19.000Z</time>
      </trkpt>
      <trkpt lat="50.58806" lon="5.65155">
        <ele>82.3</ele>
        <time>2019-05-01T06:50:22.000Z</time>
      </trkpt>
      <trkpt lat="50.58818" lon="5.65181">
        <ele>83.2</ele>
        <time>2019-05-01T06:50:23.000Z</time>
      </trkpt>
      <trkpt lat="50.58827" lon="5.65212">
        <ele>83.8</ele>
        <time>2019-05-01T06:50:25.000Z</time>
      </trkpt>
      <trkpt lat="50.58832" lon="5.65241">
        <ele>82.9</ele>
        <time>2019-05-01T06:50:31.000Z</time>
      </trkpt>
      <trkpt lat="50.58834" lon="5.65278">
        <ele>82.1</ele>
        <time>2019-05-01T06:50:33.000Z</time>
      </trkpt>
      <trkpt lat="50.58829" lon="5.65331">
        <ele>82.5</ele>
        <time>2019-05-01T06:50:35.000Z</time>
      </trkpt>
      <trkpt lat="50.58826" lon="5.65352">
        <ele>82.7</ele>
        <time>2019-05-01T06:50:39.000Z</time>
      </trkpt>
      <trkpt lat="50.5882" lon="5.65391">
        <ele>83.1</ele>
        <time>2019-05-01T06:50:41.000Z</time>
      </trkpt>
      <trkpt lat="50.58817" lon="5.65408">
        <ele>72.800003051758</ele>
        <time>2019-05-01T06:50:44.000Z</time>
      </trkpt>
      <trkpt lat="50.58811" lon="5.65434">
        <ele>84.1</ele>
        <time>2019-05-01T06:50:46.000Z</time>
      </trkpt>
      <trkpt lat="50.58803" lon="5.65449">
        <ele>84.5</ele>
        <time>2019-05-01T06:50:47.000Z</time>
      </trkpt>
      <trkpt lat="50.58793" lon="5.65467">
        <ele>84.9</ele>
        <time>2019-05-01T06:50:50.000Z</time>
      </trkpt>
      <trkpt lat="50.58785" lon="5.65476">
        <ele>73</ele>
        <time>2019-05-01T06:50:53.000Z</time>
      </trkpt>
      <trkpt lat="50.58773" lon="5.65488">
        <ele>86</ele>
        <time>2019-05-01T06:50:54.000Z</time>
      </trkpt>
      <trkpt lat="50.58754" lon="5.65494">
        <ele>72.599998474121</ele>
        <time>2019-05-01T06:50:56.000Z</time>
      </trkpt>
      <trkpt lat="50.58736" lon="5.65499">
        <ele>72.599998474121</ele>
        <time>2019-05-01T06:50:59.000Z</time>
      </trkpt>
      <trkpt lat="50.58688" lon="5.65511">
        <ele>72.400001525879</ele>
        <time>2019-05-01T06:51:01.000Z</time>
      </trkpt>
      <trkpt lat="50.58647" lon="5.65517">
        <ele>91.1</ele>
        <time>2019-05-01T06:51:02.000Z</time>
      </trkpt>
      <trkpt lat="50.58606" lon="5.65526">
        <ele>90.9</ele>
        <time>2019-05-01T06:51:05.000Z</time>
      </trkpt>
      <trkpt lat="50.58552" lon="5.65536">
        <ele>88.7</ele>
        <time>2019-05-01T06:51:07.000Z</time>
      </trkpt>
      <trkpt lat="50.58525" lon="5.65542">
        <ele>73.599998474121</ele>
        <time>2019-05-01T06:51:08.000Z</time>
      </trkpt>
      <trkpt lat="50.58465" lon="5.65552">
        <ele>73.400001525879</ele>
        <time>2019-05-01T06:51:10.000Z</time>
      </trkpt>
      <trkpt lat="50.58426" lon="5.65562">
        <ele>73.599998474121</ele>
        <time>2019-05-01T06:51:13.000Z</time>
      </trkpt>
      <trkpt lat="50.58391" lon="5.65584">
        <ele>74</ele>
        <time>2019-05-01T06:51:14.000Z</time>
      </trkpt>
      <trkpt lat="50.58386" lon="5.65589">
        <ele>74</ele>
        <time>2019-05-01T06:51:19.000Z</time>
      </trkpt>
      <trkpt lat="50.58371" lon="5.65604">
        <ele>85.5</ele>
        <time>2019-05-01T06:51:25.000Z</time>
      </trkpt>
      <trkpt lat="50.5835" lon="5.65629">
        <ele>86</ele>
        <time>2019-05-01T06:51:27.000Z</time>
      </trkpt>
      <trkpt lat="50.58334" lon="5.65653">
        <ele>86.7</ele>
        <time>2019-05-01T06:51:33.000Z</time>
      </trkpt>
      <trkpt lat="50.58314" lon="5.65693">
        <ele>87.4</ele>
        <time>2019-05-01T06:51:36.000Z</time>
      </trkpt>
      <trkpt lat="50.58284" lon="5.65742">
        <ele>87.6</ele>
        <time>2019-05-01T06:51:40.000Z</time>
      </trkpt>
      <trkpt lat="50.58264" lon="5.65785">
        <ele>89.2</ele>
        <time>2019-05-01T06:51:42.000Z</time>
      </trkpt>
      <trkpt lat="50.58256" lon="5.65812">
        <ele>88.9</ele>
        <time>2019-05-01T06:51:45.000Z</time>
      </trkpt>
      <trkpt lat="50.58246" lon="5.65854">
        <ele>86.1</ele>
        <time>2019-05-01T06:51:49.000Z</time>
      </trkpt>
      <trkpt lat="50.58234" lon="5.65952">
        <ele>86.4</ele>
        <time>2019-05-01T06:51:50.000Z</time>
      </trkpt>
      <trkpt lat="50.58223" lon="5.66041">
        <ele>74.599998474121</ele>
        <time>2019-05-01T06:51:54.000Z</time>
      </trkpt>
      <trkpt lat="50.58212" lon="5.66117">
        <ele>74.599998474121</ele>
        <time>2019-05-01T06:51:59.000Z</time>
      </trkpt>
      <trkpt lat="50.582" lon="5.66204">
        <ele>74.599998474121</ele>
        <time>2019-05-01T06:52:00.000Z</time>
      </trkpt>
      <trkpt lat="50.58194" lon="5.66247">
        <ele>74.599998474121</ele>
        <time>2019-05-01T06:52:01.000Z</time>
      </trkpt>
      <trkpt lat="50.5818" lon="5.66332">
        <ele>74.599998474121</ele>
        <time>2019-05-01T06:52:03.000Z</time>
      </trkpt>
      <trkpt lat="50.58171" lon="5.66375">
        <ele>100</ele>
        <time>2019-05-01T06:52:04.000Z</time>
      </trkpt>
      <trkpt lat="50.58163" lon="5.66402">
        <ele>74.599998474121</ele>
        <time>2019-05-01T06:52:10.000Z</time>
      </trkpt>
      <trkpt lat="50.58142" lon="5.66464">
        <ele>89.1</ele>
        <time>2019-05-01T06:52:11.000Z</time>
      </trkpt>
      <trkpt lat="50.58138" lon="5.66478">
        <ele>74.800003051758</ele>
        <time>2019-05-01T06:52:15.000Z</time>
      </trkpt>
      <trkpt lat="50.58108" lon="5.66555">
        <ele>90.8</ele>
        <time>2019-05-01T06:52:19.000Z</time>
      </trkpt>
      <trkpt lat="50.58093" lon="5.66587">
        <ele>74.599998474121</ele>
        <time>2019-05-01T06:52:20.000Z</time>
      </trkpt>
      <trkpt lat="50.58081" lon="5.66615">
        <ele>74.800003051758</ele>
        <time>2019-05-01T06:52:29.000Z</time>
      </trkpt>
      <trkpt lat="50.58062" lon="5.66663">
        <ele>75</ele>
        <time>2019-05-01T06:52:36.000Z</time>
      </trkpt>
      <trkpt lat="50.58043" lon="5.66704">
        <ele>86.8</ele>
        <time>2019-05-01T06:52:41.000Z</time>
      </trkpt>
      <trkpt lat="50.58009" lon="5.66783">
        <ele>87.5</ele>
        <time>2019-05-01T06:52:42.000Z</time>
      </trkpt>
      <trkpt lat="50.57984" lon="5.66846">
        <ele>85.8</ele>
        <time>2019-05-01T06:52:44.000Z</time>
      </trkpt>
      <trkpt lat="50.57974" lon="5.66876">
        <ele>76</ele>
        <time>2019-05-01T06:52:45.000Z</time>
      </trkpt>
      <trkpt lat="50.57959" lon="5.66914">
        <ele>87</ele>
        <time>2019-05-01T06:52:46.000Z</time>
      </trkpt>
      <trkpt lat="50.57945" lon="5.66958">
        <ele>76.400001525879</ele>
        <time>2019-05-01T06:52:47.000Z</time>
      </trkpt>
      <trkpt lat="50.57925" lon="5.67025">
        <ele>76.800003051758</ele>
        <time>2019-05-01T06:52:50.000Z</time>
      </trkpt>
      <trkpt lat="50.57918" lon="5.67054">
        <ele>77</ele>
        <time>2019-05-01T06:52:51.000Z</time>
      </trkpt>
      <trkpt lat="50.57913" lon="5.67074">
        <ele>77</ele>
        <time>2019-05-01T06:52:53.000Z</time>
      </trkpt>
      <trkpt lat="50.57897" lon="5.67146">
        <ele>77.400001525879</ele>
        <time>2019-05-01T06:52:55.000Z</time>
      </trkpt>
      <trkpt lat="50.57879" lon="5.67225">
        <ele>77.800003051758</ele>
        <time>2019-05-01T06:52:58.000Z</time>
      </trkpt>
      <trkpt lat="50.57863" lon="5.67295">
        <ele>78</ele>
        <time>2019-05-01T06:52:59.000Z</time>
      </trkpt>
      <trkpt lat="50.57858" lon="5.67315">
        <ele>78</ele>
        <time>2019-05-01T06:53:05.000Z</time>
      </trkpt>
      <trkpt lat="50.57849" lon="5.67366">
        <ele>89.2</ele>
        <time>2019-05-01T06:53:06.000Z</time>
      </trkpt>
      <trkpt lat="50.57834" lon="5.67434">
        <ele>78</ele>
        <time>2019-05-01T06:53:08.000Z</time>
      </trkpt>
      <trkpt lat="50.5782" lon="5.67495">
        <ele>88.7</ele>
        <time>2019-05-01T06:53:15.000Z</time>
      </trkpt>
      <trkpt lat="50.57801" lon="5.67583">
        <ele>89.6</ele>
        <time>2019-05-01T06:53:17.000Z</time>
      </trkpt>
      <trkpt lat="50.57788" lon="5.67647">
        <ele>78.599998474121</ele>
        <time>2019-05-01T06:53:22.000Z</time>
      </trkpt>
      <trkpt lat="50.5777" lon="5.67727">
        <ele>78.800003051758</ele>
        <time>2019-05-01T06:53:25.000Z</time>
      </trkpt>
      <trkpt lat="50.57756" lon="5.67791">
        <ele>105.8</ele>
        <time>2019-05-01T06:53:28.000Z</time>
      </trkpt>
      <trkpt lat="50.57738" lon="5.67873">
        <ele>79</ele>
        <time>2019-05-01T06:53:31.000Z</time>
      </trkpt>
      <trkpt lat="50.57721" lon="5.67944">
        <ele>98.3</ele>
        <time>2019-05-01T06:53:33.000Z</time>
      </trkpt>
      <trkpt lat="50.57703" lon="5.68025">
        <ele>98.8</ele>
        <time>2019-05-01T06:53:35.000Z</time>
      </trkpt>
      <trkpt lat="50.57685" lon="5.68108">
        <ele>99.8</ele>
        <time>2019-05-01T06:53:40.000Z</time>
      </trkpt>
      <trkpt lat="50.57672" lon="5.68171">
        <ele>94.8</ele>
        <time>2019-05-01T06:53:41.000Z</time>
      </trkpt>
      <trkpt lat="50.57657" lon="5.68243">
        <ele>90.3</ele>
        <time>2019-05-01T06:53:44.000Z</time>
      </trkpt>
      <trkpt lat="50.57638" lon="5.68324">
        <ele>91.2</ele>
        <time>2019-05-01T06:53:47.000Z</time>
      </trkpt>
      <trkpt lat="50.57618" lon="5.68414">
        <ele>92</ele>
        <time>2019-05-01T06:53:49.000Z</time>
      </trkpt>
      <trkpt lat="50.57597" lon="5.68514">
        <ele>93.1</ele>
        <time>2019-05-01T06:53:52.000Z</time>
      </trkpt>
      <trkpt lat="50.57579" lon="5.68593">
        <ele>82</ele>
        <time>2019-05-01T06:53:58.000Z</time>
      </trkpt>
      <trkpt lat="50.57553" lon="5.68657">
        <ele>82.199996948242</ele>
        <time>2019-05-01T06:54:04.000Z</time>
      </trkpt>
      <trkpt lat="50.57522" lon="5.68712">
        <ele>82.400001525879</ele>
        <time>2019-05-01T06:54:09.000Z</time>
      </trkpt>
      <trkpt lat="50.57484" lon="5.68761">
        <ele>82.400001525879</ele>
        <time>2019-05-01T06:54:10.000Z</time>
      </trkpt>
      <trkpt lat="50.57462" lon="5.68788">
        <ele>82.400001525879</ele>
        <time>2019-05-01T06:54:14.000Z</time>
      </trkpt>
      <trkpt lat="50.57445" lon="5.68808">
        <ele>82.400001525879</ele>
        <time>2019-05-01T06:54:18.000Z</time>
      </trkpt>
      <trkpt lat="50.57407" lon="5.68853">
        <ele>82.400001525879</ele>
        <time>2019-05-01T06:54:22.000Z</time>
      </trkpt>
      <trkpt lat="50.57402" lon="5.6886">
        <ele>82.400001525879</ele>
        <time>2019-05-01T06:54:24.000Z</time>
      </trkpt>
      <trkpt lat="50.5738" lon="5.68886">
        <ele>82.199996948242</ele>
        <time>2019-05-01T06:54:30.000Z</time>
      </trkpt>
      <trkpt lat="50.57358" lon="5.68918">
        <ele>97.3</ele>
        <time>2019-05-01T07:02:22.000Z</time>
      </trkpt>
      <trkpt lat="50.57334" lon="5.68933">
        <ele>97</ele>
        <time>2019-05-01T07:05:54.000Z</time>
      </trkpt>
      <trkpt lat="50.57315" lon="5.68937">
        <ele>96.5</ele>
        <time>2019-05-01T07:05:59.000Z</time>
      </trkpt>
      <trkpt lat="50.57301" lon="5.68936">
        <ele>96.8</ele>
        <time>2019-05-01T07:07:39.000Z</time>
      </trkpt>
      <trkpt lat="50.57284" lon="5.68937">
        <ele>97</ele>
        <time>2019-05-01T07:10:00.000Z</time>
      </trkpt>
      <trkpt lat="50.57282" lon="5.68924">
        <ele>97.6</ele>
        <time>2019-05-01T07:10:04.000Z</time>
      </trkpt>
      <trkpt lat="50.57275" lon="5.68917">
        <ele>98.1</ele>
        <time>2019-05-01T07:10:09.000Z</time>
      </trkpt>
      <trkpt lat="50.57267" lon="5.68919">
        <ele>99</ele>
        <time>2019-05-01T07:10:12.000Z</time>
      </trkpt>
      <trkpt lat="50.57263" lon="5.68925">
        <ele>98.8</ele>
        <time>2019-05-01T07:10:13.000Z</time>
      </trkpt>
      <trkpt lat="50.57256" lon="5.68929">
        <ele>98.9</ele>
        <time>2019-05-01T07:10:14.000Z</time>
      </trkpt>
      <trkpt lat="50.57248" lon="5.68934">
        <ele>100</ele>
        <time>2019-05-01T07:10:16.000Z</time>
      </trkpt>
      <trkpt lat="50.57235" lon="5.68939">
        <ele>99.9</ele>
        <time>2019-05-01T07:10:54.000Z</time>
      </trkpt>
      <trkpt lat="50.57217" lon="5.68946">
        <ele>100</ele>
        <time>2019-05-01T07:10:56.000Z</time>
      </trkpt>
      <trkpt lat="50.57202" lon="5.68951">
        <ele>100.3</ele>
        <time>2019-05-01T07:10:58.000Z</time>
      </trkpt>
      <trkpt lat="50.57169" lon="5.6896">
        <ele>100.4</ele>
        <time>2019-05-01T07:11:00.000Z</time>
      </trkpt>
      <trkpt lat="50.57127" lon="5.68953">
        <ele>101.7</ele>
        <time>2019-05-01T07:11:02.000Z</time>
      </trkpt>
      <trkpt lat="50.57091" lon="5.6894">
        <ele>102.4</ele>
        <time>2019-05-01T07:11:05.000Z</time>
      </trkpt>
      <trkpt lat="50.57063" lon="5.68927">
        <ele>104.4</ele>
        <time>2019-05-01T07:11:06.000Z</time>
      </trkpt>
      <trkpt lat="50.57029" lon="5.68914">
        <ele>117.9</ele>
        <time>2019-05-01T07:11:07.000Z</time>
      </trkpt>
      <trkpt lat="50.57013" lon="5.68914">
        <ele>117.4</ele>
        <time>2019-05-01T07:11:08.000Z</time>
      </trkpt>
      <trkpt lat="50.56999" lon="5.68916">
        <ele>116.1</ele>
        <time>2019-05-01T07:11:09.000Z</time>
      </trkpt>
      <trkpt lat="50.56982" lon="5.68927">
        <ele>116.4</ele>
        <time>2019-05-01T07:11:12.000Z</time>
      </trkpt>
      <trkpt lat="50.56967" lon="5.68946">
        <ele>116.9</ele>
        <time>2019-05-01T07:11:14.000Z</time>
      </trkpt>
      <trkpt lat="50.56956" lon="5.68978">
        <ele>115</ele>
        <time>2019-05-01T07:11:16.000Z</time>
      </trkpt>
      <trkpt lat="50.56951" lon="5.69006">
        <ele>105.4</ele>
        <time>2019-05-01T07:11:18.000Z</time>
      </trkpt>
      <trkpt lat="50.56952" lon="5.69033">
        <ele>103.3</ele>
        <time>2019-05-01T07:11:20.000Z</time>
      </trkpt>
      <trkpt lat="50.56954" lon="5.69069">
        <ele>100.5</ele>
        <time>2019-05-01T07:11:21.000Z</time>
      </trkpt>
      <trkpt lat="50.56957" lon="5.69098">
        <ele>95.3</ele>
        <time>2019-05-01T07:11:23.000Z</time>
      </trkpt>
      <trkpt lat="50.56959" lon="5.69122">
        <ele>95</ele>
        <time>2019-05-01T07:11:29.000Z</time>
      </trkpt>
      <trkpt lat="50.5696" lon="5.69149">
        <ele>94.7</ele>
        <time>2019-05-01T07:11:35.000Z</time>
      </trkpt>
      <trkpt lat="50.56952" lon="5.6915">
        <ele>95</ele>
        <time>2019-05-01T07:11:37.000Z</time>
      </trkpt>
      <trkpt lat="50.56944" lon="5.69142">
        <ele>95.1</ele>
        <time>2019-05-01T07:11:40.000Z</time>
      </trkpt>
      <trkpt lat="50.56924" lon="5.69121">
        <ele>95.8</ele>
        <time>2019-05-01T07:11:46.000Z</time>
      </trkpt>
      <trkpt lat="50.56909" lon="5.69104">
        <ele>100.8</ele>
        <time>2019-05-01T07:11:47.000Z</time>
      </trkpt>
      <trkpt lat="50.56888" lon="5.69084">
        <ele>101.5</ele>
        <time>2019-05-01T07:11:52.000Z</time>
      </trkpt>
      <trkpt lat="50.56869" lon="5.69067">
        <ele>106.2</ele>
        <time>2019-05-01T07:11:53.000Z</time>
      </trkpt>
      <trkpt lat="50.56844" lon="5.69053">
        <ele>106.8</ele>
        <time>2019-05-01T07:11:55.000Z</time>
      </trkpt>
      <trkpt lat="50.56819" lon="5.69041">
        <ele>108.1</ele>
        <time>2019-05-01T07:11:58.000Z</time>
      </trkpt>
      <trkpt lat="50.56797" lon="5.69033">
        <ele>108.3</ele>
        <time>2019-05-01T07:12:01.000Z</time>
      </trkpt>
      <trkpt lat="50.5676" lon="5.6902">
        <ele>107.3</ele>
        <time>2019-05-01T07:12:03.000Z</time>
      </trkpt>
      <trkpt lat="50.56727" lon="5.69008">
        <ele>107.7</ele>
        <time>2019-05-01T07:12:05.000Z</time>
      </trkpt>
      <trkpt lat="50.56697" lon="5.69">
        <ele>108.2</ele>
        <time>2019-05-01T07:12:10.000Z</time>
      </trkpt>
      <trkpt lat="50.56677" lon="5.68996">
        <ele>109</ele>
        <time>2019-05-01T07:12:12.000Z</time>
      </trkpt>
      <trkpt lat="50.56655" lon="5.68995">
        <ele>109.7</ele>
        <time>2019-05-01T07:12:16.000Z</time>
      </trkpt>
      <trkpt lat="50.56628" lon="5.68994">
        <ele>111.8</ele>
        <time>2019-05-01T07:12:17.000Z</time>
      </trkpt>
      <trkpt lat="50.56608" lon="5.68999">
        <ele>111.6</ele>
        <time>2019-05-01T07:12:22.000Z</time>
      </trkpt>
      <trkpt lat="50.56575" lon="5.69008">
        <ele>112</ele>
        <time>2019-05-01T07:12:28.000Z</time>
      </trkpt>
      <trkpt lat="50.56538" lon="5.69027">
        <ele>117</ele>
        <time>2019-05-01T07:12:29.000Z</time>
      </trkpt>
      <trkpt lat="50.56511" lon="5.69043">
        <ele>117.8</ele>
        <time>2019-05-01T07:12:31.000Z</time>
      </trkpt>
      <trkpt lat="50.56486" lon="5.69062">
        <ele>126</ele>
        <time>2019-05-01T07:12:34.000Z</time>
      </trkpt>
      <trkpt lat="50.56463" lon="5.69077">
        <ele>128.6</ele>
        <time>2019-05-01T07:12:40.000Z</time>
      </trkpt>
      <trkpt lat="50.56429" lon="5.69103">
        <ele>127.1</ele>
        <time>2019-05-01T07:12:41.000Z</time>
      </trkpt>
      <trkpt lat="50.56405" lon="5.69122">
        <ele>134.2</ele>
        <time>2019-05-01T07:12:44.000Z</time>
      </trkpt>
      <trkpt lat="50.56375" lon="5.69144">
        <ele>135.3</ele>
        <time>2019-05-01T07:12:47.000Z</time>
      </trkpt>
      <trkpt lat="50.5634" lon="5.69169">
        <ele>136.8</ele>
        <time>2019-05-01T07:12:52.000Z</time>
      </trkpt>
      <trkpt lat="50.56305" lon="5.69183">
        <ele>139.1</ele>
        <time>2019-05-01T07:12:54.000Z</time>
      </trkpt>
      <trkpt lat="50.56278" lon="5.69187">
        <ele>138.7</ele>
        <time>2019-05-01T07:12:57.000Z</time>
      </trkpt>
      <trkpt lat="50.56227" lon="5.69198">
        <ele>135.2</ele>
        <time>2019-05-01T07:12:58.000Z</time>
      </trkpt>
      <trkpt lat="50.56177" lon="5.69211">
        <ele>134.1</ele>
        <time>2019-05-01T07:13:02.000Z</time>
      </trkpt>
      <trkpt lat="50.56124" lon="5.69225">
        <ele>134.7</ele>
        <time>2019-05-01T07:13:03.000Z</time>
      </trkpt>
      <trkpt lat="50.56096" lon="5.69232">
        <ele>134.9</ele>
        <time>2019-05-01T07:13:05.000Z</time>
      </trkpt>
      <trkpt lat="50.56061" lon="5.69241">
        <ele>139.1</ele>
        <time>2019-05-01T07:13:10.000Z</time>
      </trkpt>
      <trkpt lat="50.56038" lon="5.69245">
        <ele>140.9</ele>
        <time>2019-05-01T07:13:11.000Z</time>
      </trkpt>
      <trkpt lat="50.56013" lon="5.69254">
        <ele>140.8</ele>
        <time>2019-05-01T07:13:14.000Z</time>
      </trkpt>
      <trkpt lat="50.55987" lon="5.69259">
        <ele>141.3</ele>
        <time>2019-05-01T07:13:17.000Z</time>
      </trkpt>
      <trkpt lat="50.55972" lon="5.69264">
        <ele>142.1</ele>
        <time>2019-05-01T07:13:20.000Z</time>
      </trkpt>
      <trkpt lat="50.5596" lon="5.69273">
        <ele>142.5</ele>
        <time>2019-05-01T07:13:21.000Z</time>
      </trkpt>
      <trkpt lat="50.55953" lon="5.69284">
        <ele>142.4</ele>
        <time>2019-05-01T07:13:22.000Z</time>
      </trkpt>
      <trkpt lat="50.55941" lon="5.69299">
        <ele>141.9</ele>
        <time>2019-05-01T07:13:25.000Z</time>
      </trkpt>
      <trkpt lat="50.55922" lon="5.69335">
        <ele>139</ele>
        <time>2019-05-01T07:13:27.000Z</time>
      </trkpt>
      <trkpt lat="50.55912" lon="5.69352">
        <ele>140</ele>
        <time>2019-05-01T07:13:30.000Z</time>
      </trkpt>
      <trkpt lat="50.55901" lon="5.69365">
        <ele>141.2</ele>
        <time>2019-05-01T07:13:33.000Z</time>
      </trkpt>
      <trkpt lat="50.55882" lon="5.69377">
        <ele>142.2</ele>
        <time>2019-05-01T07:13:37.000Z</time>
      </trkpt>
      <trkpt lat="50.55861" lon="5.69374">
        <ele>143</ele>
        <time>2019-05-01T07:13:42.000Z</time>
      </trkpt>
      <trkpt lat="50.55841" lon="5.69366">
        <ele>144</ele>
        <time>2019-05-01T07:13:43.000Z</time>
      </trkpt>
      <trkpt lat="50.55825" lon="5.69357">
        <ele>146</ele>
        <time>2019-05-01T07:13:47.000Z</time>
      </trkpt>
      <trkpt lat="50.55801" lon="5.69337">
        <ele>145.5</ele>
        <time>2019-05-01T07:13:49.000Z</time>
      </trkpt>
      <trkpt lat="50.55767" lon="5.69311">
        <ele>152</ele>
        <time>2019-05-01T07:13:50.000Z</time>
      </trkpt>
      <trkpt lat="50.55751" lon="5.69302">
        <ele>152.9</ele>
        <time>2019-05-01T07:13:51.000Z</time>
      </trkpt>
      <trkpt lat="50.55728" lon="5.69294">
        <ele>150.6</ele>
        <time>2019-05-01T07:13:53.000Z</time>
      </trkpt>
      <trkpt lat="50.55702" lon="5.69286">
        <ele>150.5</ele>
        <time>2019-05-01T07:13:56.000Z</time>
      </trkpt>
      <trkpt lat="50.55678" lon="5.69278">
        <ele>150.6</ele>
        <time>2019-05-01T07:13:57.000Z</time>
      </trkpt>
      <trkpt lat="50.55658" lon="5.69274">
        <ele>150.1</ele>
        <time>2019-05-01T07:13:59.000Z</time>
      </trkpt>
      <trkpt lat="50.55633" lon="5.69266">
        <ele>150</ele>
        <time>2019-05-01T07:14:00.000Z</time>
      </trkpt>
      <trkpt lat="50.5561" lon="5.69252">
        <ele>149.8</ele>
        <time>2019-05-01T07:14:01.000Z</time>
      </trkpt>
      <trkpt lat="50.55598" lon="5.69239">
        <ele>153.6</ele>
        <time>2019-05-01T07:14:04.000Z</time>
      </trkpt>
      <trkpt lat="50.55588" lon="5.69216">
        <ele>155.4</ele>
        <time>2019-05-01T07:14:05.000Z</time>
      </trkpt>
      <trkpt lat="50.55579" lon="5.69188">
        <ele>160.5</ele>
        <time>2019-05-01T07:14:06.000Z</time>
      </trkpt>
      <trkpt lat="50.55573" lon="5.69164">
        <ele>157.8</ele>
        <time>2019-05-01T07:14:07.000Z</time>
      </trkpt>
      <trkpt lat="50.55567" lon="5.6913">
        <ele>162.8</ele>
        <time>2019-05-01T07:14:09.000Z</time>
      </trkpt>
      <trkpt lat="50.55563" lon="5.691">
        <ele>162</ele>
        <time>2019-05-01T07:14:11.000Z</time>
      </trkpt>
      <trkpt lat="50.5556" lon="5.6907">
        <ele>161.2</ele>
        <time>2019-05-01T07:14:12.000Z</time>
      </trkpt>
      <trkpt lat="50.55558" lon="5.69034">
        <ele>162.4</ele>
        <time>2019-05-01T07:14:14.000Z</time>
      </trkpt>
      <trkpt lat="50.55556" lon="5.69006">
        <ele>161.8</ele>
        <time>2019-05-01T07:14:16.000Z</time>
      </trkpt>
      <trkpt lat="50.55552" lon="5.68973">
        <ele>163.1</ele>
        <time>2019-05-01T07:14:17.000Z</time>
      </trkpt>
      <trkpt lat="50.55546" lon="5.68947">
        <ele>163.9</ele>
        <time>2019-05-01T07:14:20.000Z</time>
      </trkpt>
      <trkpt lat="50.55541" lon="5.68931">
        <ele>163.9</ele>
        <time>2019-05-01T07:14:23.000Z</time>
      </trkpt>
      <trkpt lat="50.55528" lon="5.689">
        <ele>167.5</ele>
        <time>2019-05-01T07:14:24.000Z</time>
      </trkpt>
      <trkpt lat="50.55507" lon="5.68878">
        <ele>167.7</ele>
        <time>2019-05-01T07:14:27.000Z</time>
      </trkpt>
      <trkpt lat="50.55492" lon="5.68869">
        <ele>136.60000610352</ele>
        <time>2019-05-01T07:14:30.000Z</time>
      </trkpt>
      <trkpt lat="50.55482" lon="5.68867">
        <ele>166</ele>
        <time>2019-05-01T07:14:31.000Z</time>
      </trkpt>
      <trkpt lat="50.5546" lon="5.68871">
        <ele>167</ele>
        <time>2019-05-01T07:14:32.000Z</time>
      </trkpt>
      <trkpt lat="50.55443" lon="5.68874">
        <ele>167.6</ele>
        <time>2019-05-01T07:14:33.000Z</time>
      </trkpt>
      <trkpt lat="50.55408" lon="5.68881">
        <ele>171.2</ele>
        <time>2019-05-01T07:14:35.000Z</time>
      </trkpt>
      <trkpt lat="50.55373" lon="5.68889">
        <ele>171.1</ele>
        <time>2019-05-01T07:14:36.000Z</time>
      </trkpt>
      <trkpt lat="50.55353" lon="5.68896">
        <ele>170.3</ele>
        <time>2019-05-01T07:14:39.000Z</time>
      </trkpt>
      <trkpt lat="50.55331" lon="5.68903">
        <ele>171</ele>
        <time>2019-05-01T07:14:42.000Z</time>
      </trkpt>
      <trkpt lat="50.55301" lon="5.68913">
        <ele>174.1</ele>
        <time>2019-05-01T07:14:43.000Z</time>
      </trkpt>
      <trkpt lat="50.55271" lon="5.68927">
        <ele>172.3</ele>
        <time>2019-05-01T07:14:45.000Z</time>
      </trkpt>
      <trkpt lat="50.55239" lon="5.68941">
        <ele>173.9</ele>
        <time>2019-05-01T07:14:47.000Z</time>
      </trkpt>
      <trkpt lat="50.55215" lon="5.68952">
        <ele>174.7</ele>
        <time>2019-05-01T07:14:49.000Z</time>
      </trkpt>
      <trkpt lat="50.55186" lon="5.68958">
        <ele>175.4</ele>
        <time>2019-05-01T07:14:52.000Z</time>
      </trkpt>
      <trkpt lat="50.55162" lon="5.68962">
        <ele>176.2</ele>
        <time>2019-05-01T07:14:54.000Z</time>
      </trkpt>
      <trkpt lat="50.5514" lon="5.6896">
        <ele>176.3</ele>
        <time>2019-05-01T07:14:55.000Z</time>
      </trkpt>
      <trkpt lat="50.55117" lon="5.68952">
        <ele>176.3</ele>
        <time>2019-05-01T07:14:57.000Z</time>
      </trkpt>
      <trkpt lat="50.55092" lon="5.68936">
        <ele>175.6</ele>
        <time>2019-05-01T07:15:00.000Z</time>
      </trkpt>
      <trkpt lat="50.55071" lon="5.68922">
        <ele>175.3</ele>
        <time>2019-05-01T07:15:04.000Z</time>
      </trkpt>
      <trkpt lat="50.5504" lon="5.68903">
        <ele>177.9</ele>
        <time>2019-05-01T07:15:06.000Z</time>
      </trkpt>
      <trkpt lat="50.54999" lon="5.68886">
        <ele>177.5</ele>
        <time>2019-05-01T07:15:10.000Z</time>
      </trkpt>
      <trkpt lat="50.54978" lon="5.68879">
        <ele>179</ele>
        <time>2019-05-01T07:15:13.000Z</time>
      </trkpt>
      <trkpt lat="50.5495" lon="5.68872">
        <ele>180.8</ele>
        <time>2019-05-01T07:15:15.000Z</time>
      </trkpt>
      <trkpt lat="50.54919" lon="5.68864">
        <ele>182.7</ele>
        <time>2019-05-01T07:15:17.000Z</time>
      </trkpt>
      <trkpt lat="50.54903" lon="5.68864">
        <ele>184.2</ele>
        <time>2019-05-01T07:15:20.000Z</time>
      </trkpt>
      <trkpt lat="50.54883" lon="5.68867">
        <ele>183.7</ele>
        <time>2019-05-01T07:15:22.000Z</time>
      </trkpt>
      <trkpt lat="50.54867" lon="5.68875">
        <ele>183.2</ele>
        <time>2019-05-01T07:15:25.000Z</time>
      </trkpt>
      <trkpt lat="50.54846" lon="5.68889">
        <ele>181.9</ele>
        <time>2019-05-01T07:15:28.000Z</time>
      </trkpt>
      <trkpt lat="50.54829" lon="5.68898">
        <ele>181.3</ele>
        <time>2019-05-01T07:15:30.000Z</time>
      </trkpt>
      <trkpt lat="50.54788" lon="5.68923">
        <ele>179</ele>
        <time>2019-05-01T07:15:33.000Z</time>
      </trkpt>
      <trkpt lat="50.5474" lon="5.68955">
        <ele>180.7</ele>
        <time>2019-05-01T07:15:36.000Z</time>
      </trkpt>
      <trkpt lat="50.54715" lon="5.68973">
        <ele>181.2</ele>
        <time>2019-05-01T07:15:42.000Z</time>
      </trkpt>
      <trkpt lat="50.547" lon="5.68985">
        <ele>182</ele>
        <time>2019-05-01T07:15:48.000Z</time>
      </trkpt>
      <trkpt lat="50.54682" lon="5.68999">
        <ele>181.6</ele>
        <time>2019-05-01T07:15:51.000Z</time>
      </trkpt>
      <trkpt lat="50.54658" lon="5.69018">
        <ele>180.7</ele>
        <time>2019-05-01T07:15:53.000Z</time>
      </trkpt>
      <trkpt lat="50.54625" lon="5.69042">
        <ele>180.5</ele>
        <time>2019-05-01T07:15:56.000Z</time>
      </trkpt>
      <trkpt lat="50.54603" lon="5.69054">
        <ele>180.2</ele>
        <time>2019-05-01T07:15:58.000Z</time>
      </trkpt>
      <trkpt lat="50.54583" lon="5.69056">
        <ele>179.6</ele>
        <time>2019-05-01T07:15:59.000Z</time>
      </trkpt>
      <trkpt lat="50.5455" lon="5.69045">
        <ele>179.6</ele>
        <time>2019-05-01T07:16:01.000Z</time>
      </trkpt>
      <trkpt lat="50.54521" lon="5.69033">
        <ele>179</ele>
        <time>2019-05-01T07:16:05.000Z</time>
      </trkpt>
      <trkpt lat="50.54493" lon="5.69016">
        <ele>177.1</ele>
        <time>2019-05-01T07:16:07.000Z</time>
      </trkpt>
      <trkpt lat="50.54485" lon="5.69014">
        <ele>177.3</ele>
        <time>2019-05-01T07:16:09.000Z</time>
      </trkpt>
      <trkpt lat="50.54477" lon="5.69012">
        <ele>177.6</ele>
        <time>2019-05-01T07:16:15.000Z</time>
      </trkpt>
      <trkpt lat="50.54459" lon="5.69012">
        <ele>178.3</ele>
        <time>2019-05-01T07:16:21.000Z</time>
      </trkpt>
      <trkpt lat="50.54422" lon="5.69024">
        <ele>179.3</ele>
        <time>2019-05-01T07:16:24.000Z</time>
      </trkpt>
      <trkpt lat="50.54408" lon="5.69029">
        <ele>182.5</ele>
        <time>2019-05-01T07:16:27.000Z</time>
      </trkpt>
      <trkpt lat="50.54408" lon="5.69043">
        <ele>181.9</ele>
        <time>2019-05-01T07:16:32.000Z</time>
      </trkpt>
      <trkpt lat="50.54407" lon="5.6906">
        <ele>167.39999389648</ele>
        <time>2019-05-01T07:16:36.000Z</time>
      </trkpt>
      <trkpt lat="50.54404" lon="5.69087">
        <ele>167.39999389648</ele>
        <time>2019-05-01T07:16:37.000Z</time>
      </trkpt>
      <trkpt lat="50.54395" lon="5.69123">
        <ele>177.8</ele>
        <time>2019-05-01T07:16:40.000Z</time>
      </trkpt>
      <trkpt lat="50.54388" lon="5.69148">
        <ele>177.6</ele>
        <time>2019-05-01T07:16:42.000Z</time>
      </trkpt>
      <trkpt lat="50.54368" lon="5.69185">
        <ele>178.1</ele>
        <time>2019-05-01T07:16:47.000Z</time>
      </trkpt>
      <trkpt lat="50.54341" lon="5.69219">
        <ele>178.4</ele>
        <time>2019-05-01T07:16:49.000Z</time>
      </trkpt>
      <trkpt lat="50.54309" lon="5.69242">
        <ele>180.3</ele>
        <time>2019-05-01T07:16:50.000Z</time>
      </trkpt>
      <trkpt lat="50.54267" lon="5.69265">
        <ele>184.6</ele>
        <time>2019-05-01T07:16:51.000Z</time>
      </trkpt>
      <trkpt lat="50.5423" lon="5.69284">
        <ele>187.8</ele>
        <time>2019-05-01T07:16:56.000Z</time>
      </trkpt>
      <trkpt lat="50.54216" lon="5.69292">
        <ele>188.4</ele>
        <time>2019-05-01T07:16:58.000Z</time>
      </trkpt>
      <trkpt lat="50.54197" lon="5.69296">
        <ele>189</ele>
        <time>2019-05-01T07:17:00.000Z</time>
      </trkpt>
      <trkpt lat="50.54178" lon="5.69301">
        <ele>189.8</ele>
        <time>2019-05-01T07:17:05.000Z</time>
      </trkpt>
      <trkpt lat="50.54153" lon="5.69295">
        <ele>192.6</ele>
        <time>2019-05-01T07:17:11.000Z</time>
      </trkpt>
      <trkpt lat="50.54127" lon="5.69289">
        <ele>192.9</ele>
        <time>2019-05-01T07:17:16.000Z</time>
      </trkpt>
      <trkpt lat="50.54099" lon="5.69281">
        <ele>192.7</ele>
        <time>2019-05-01T07:17:20.000Z</time>
      </trkpt>
      <trkpt lat="50.54064" lon="5.6927">
        <ele>197.3</ele>
        <time>2019-05-01T07:17:21.000Z</time>
      </trkpt>
      <trkpt lat="50.54037" lon="5.69263">
        <ele>199.1</ele>
        <time>2019-05-01T07:17:22.000Z</time>
      </trkpt>
      <trkpt lat="50.54022" lon="5.69259">
        <ele>198.8</ele>
        <time>2019-05-01T07:17:24.000Z</time>
      </trkpt>
      <trkpt lat="50.53984" lon="5.69239">
        <ele>196</ele>
        <time>2019-05-01T07:17:28.000Z</time>
      </trkpt>
      <trkpt lat="50.53926" lon="5.69206">
        <ele>197</ele>
        <time>2019-05-01T07:17:33.000Z</time>
      </trkpt>
      <trkpt lat="50.53904" lon="5.69195">
        <ele>197.3</ele>
        <time>2019-05-01T07:17:34.000Z</time>
      </trkpt>
      <trkpt lat="50.53871" lon="5.69178">
        <ele>197.2</ele>
        <time>2019-05-01T07:17:41.000Z</time>
      </trkpt>
      <trkpt lat="50.53845" lon="5.69167">
        <ele>196</ele>
        <time>2019-05-01T07:17:46.000Z</time>
      </trkpt>
      <trkpt lat="50.53829" lon="5.69164">
        <ele>195.9</ele>
        <time>2019-05-01T07:17:49.000Z</time>
      </trkpt>
      <trkpt lat="50.53807" lon="5.69168">
        <ele>198.6</ele>
        <time>2019-05-01T07:17:54.000Z</time>
      </trkpt>
      <trkpt lat="50.53793" lon="5.69173">
        <ele>199.7</ele>
        <time>2019-05-01T07:17:58.000Z</time>
      </trkpt>
      <trkpt lat="50.5378" lon="5.6918">
        <ele>200.3</ele>
        <time>2019-05-01T07:18:03.000Z</time>
      </trkpt>
      <trkpt lat="50.53768" lon="5.69191">
        <ele>200.8</ele>
        <time>2019-05-01T07:18:10.000Z</time>
      </trkpt>
      <trkpt lat="50.53751" lon="5.69205">
        <ele>201.4</ele>
        <time>2019-05-01T07:18:13.000Z</time>
      </trkpt>
      <trkpt lat="50.53736" lon="5.69225">
        <ele>181</ele>
        <time>2019-05-01T07:18:16.000Z</time>
      </trkpt>
      <trkpt lat="50.53731" lon="5.69232">
        <ele>205.2</ele>
        <time>2019-05-01T07:18:24.000Z</time>
      </trkpt>
      <trkpt lat="50.53716" lon="5.69255">
        <ele>207</ele>
        <time>2019-05-01T07:18:32.000Z</time>
      </trkpt>
      <trkpt lat="50.53701" lon="5.69288">
        <ele>207.7</ele>
        <time>2019-05-01T07:18:39.000Z</time>
      </trkpt>
      <trkpt lat="50.53691" lon="5.6931">
        <ele>207.5</ele>
        <time>2019-05-01T07:18:46.000Z</time>
      </trkpt>
      <trkpt lat="50.53679" lon="5.69345">
        <ele>208.2</ele>
        <time>2019-05-01T07:18:50.000Z</time>
      </trkpt>
      <trkpt lat="50.53666" lon="5.69395">
        <ele>205</ele>
        <time>2019-05-01T07:18:53.000Z</time>
      </trkpt>
      <trkpt lat="50.53653" lon="5.69456">
        <ele>205.3</ele>
        <time>2019-05-01T07:19:00.000Z</time>
      </trkpt>
      <trkpt lat="50.53644" lon="5.69499">
        <ele>206.3</ele>
        <time>2019-05-01T07:19:06.000Z</time>
      </trkpt>
      <trkpt lat="50.53631" lon="5.69554">
        <ele>208.6</ele>
        <time>2019-05-01T07:19:08.000Z</time>
      </trkpt>
      <trkpt lat="50.53625" lon="5.69586">
        <ele>211.3</ele>
        <time>2019-05-01T07:19:12.000Z</time>
      </trkpt>
      <trkpt lat="50.5362" lon="5.69628">
        <ele>211.3</ele>
        <time>2019-05-01T07:19:14.000Z</time>
      </trkpt>
      <trkpt lat="50.53617" lon="5.69655">
        <ele>210.9</ele>
        <time>2019-05-01T07:19:17.000Z</time>
      </trkpt>
      <trkpt lat="50.53617" lon="5.69714">
        <ele>212.5</ele>
        <time>2019-05-01T07:19:19.000Z</time>
      </trkpt>
      <trkpt lat="50.53619" lon="5.69765">
        <ele>212.2</ele>
        <time>2019-05-01T07:19:21.000Z</time>
      </trkpt>
      <trkpt lat="50.53617" lon="5.69798">
        <ele>212.2</ele>
        <time>2019-05-01T07:19:25.000Z</time>
      </trkpt>
      <trkpt lat="50.53614" lon="5.69843">
        <ele>210.9</ele>
        <time>2019-05-01T07:19:33.000Z</time>
      </trkpt>
      <trkpt lat="50.53612" lon="5.69872">
        <ele>211.8</ele>
        <time>2019-05-01T07:19:34.000Z</time>
      </trkpt>
      <trkpt lat="50.53602" lon="5.6988">
        <ele>210.1</ele>
        <time>2019-05-01T07:19:41.000Z</time>
      </trkpt>
      <trkpt lat="50.53589" lon="5.69895">
        <ele>207.1</ele>
        <time>2019-05-01T07:19:48.000Z</time>
      </trkpt>
      <trkpt lat="50.53579" lon="5.69905">
        <ele>199</ele>
        <time>2019-05-01T07:19:55.000Z</time>
      </trkpt>
      <trkpt lat="50.53568" lon="5.69908">
        <ele>199.4</ele>
        <time>2019-05-01T07:19:56.000Z</time>
      </trkpt>
      <trkpt lat="50.53555" lon="5.69888">
        <ele>199.6</ele>
        <time>2019-05-01T07:20:03.000Z</time>
      </trkpt>
      <trkpt lat="50.53544" lon="5.69875">
        <ele>199.7</ele>
        <time>2019-05-01T07:20:05.000Z</time>
      </trkpt>
      <trkpt lat="50.53533" lon="5.6986">
        <ele>199.7</ele>
        <time>2019-05-01T07:20:12.000Z</time>
      </trkpt>
      <trkpt lat="50.53519" lon="5.69849">
        <ele>199.8</ele>
        <time>2019-05-01T07:20:14.000Z</time>
      </trkpt>
      <trkpt lat="50.53489" lon="5.6983">
        <ele>201.3</ele>
        <time>2019-05-01T07:20:19.000Z</time>
      </trkpt>
      <trkpt lat="50.53472" lon="5.69819">
        <ele>202.7</ele>
        <time>2019-05-01T07:20:25.000Z</time>
      </trkpt>
      <trkpt lat="50.53457" lon="5.69816">
        <ele>203.2</ele>
        <time>2019-05-01T07:20:31.000Z</time>
      </trkpt>
      <trkpt lat="50.53443" lon="5.69815">
        <ele>203.5</ele>
        <time>2019-05-01T07:20:35.000Z</time>
      </trkpt>
      <trkpt lat="50.5343" lon="5.6981">
        <ele>203.7</ele>
        <time>2019-05-01T07:20:36.000Z</time>
      </trkpt>
      <trkpt lat="50.5342" lon="5.69804">
        <ele>203.9</ele>
        <time>2019-05-01T07:20:37.000Z</time>
      </trkpt>
      <trkpt lat="50.53414" lon="5.69787">
        <ele>204.8</ele>
        <time>2019-05-01T07:20:43.000Z</time>
      </trkpt>
      <trkpt lat="50.53416" lon="5.69767">
        <ele>206</ele>
        <time>2019-05-01T07:20:45.000Z</time>
      </trkpt>
      <trkpt lat="50.53419" lon="5.69748">
        <ele>207.9</ele>
        <time>2019-05-01T07:20:50.000Z</time>
      </trkpt>
      <trkpt lat="50.53421" lon="5.69727">
        <ele>207.4</ele>
        <time>2019-05-01T07:20:53.000Z</time>
      </trkpt>
      <trkpt lat="50.53424" lon="5.69698">
        <ele>207.9</ele>
        <time>2019-05-01T07:20:58.000Z</time>
      </trkpt>
      <trkpt lat="50.53425" lon="5.69679">
        <ele>209</ele>
        <time>2019-05-01T07:21:03.000Z</time>
      </trkpt>
      <trkpt lat="50.53423" lon="5.69659">
        <ele>209.7</ele>
        <time>2019-05-01T07:21:07.000Z</time>
      </trkpt>
      <trkpt lat="50.5342" lon="5.69632">
        <ele>208.5</ele>
        <time>2019-05-01T07:21:09.000Z</time>
      </trkpt>
      <trkpt lat="50.53411" lon="5.69602">
        <ele>211.2</ele>
        <time>2019-05-01T07:21:13.000Z</time>
      </trkpt>
      <trkpt lat="50.534" lon="5.69571">
        <ele>211.4</ele>
        <time>2019-05-01T07:21:15.000Z</time>
      </trkpt>
      <trkpt lat="50.53387" lon="5.69531">
        <ele>211.4</ele>
        <time>2019-05-01T07:21:21.000Z</time>
      </trkpt>
      <trkpt lat="50.53377" lon="5.69494">
        <ele>212.1</ele>
        <time>2019-05-01T07:21:26.000Z</time>
      </trkpt>
      <trkpt lat="50.53373" lon="5.69472">
        <ele>212.4</ele>
        <time>2019-05-01T07:21:31.000Z</time>
      </trkpt>
      <trkpt lat="50.53369" lon="5.69458">
        <ele>212.7</ele>
        <time>2019-05-01T07:21:32.000Z</time>
      </trkpt>
      <trkpt lat="50.53356" lon="5.69438">
        <ele>213.2</ele>
        <time>2019-05-01T07:21:34.000Z</time>
      </trkpt>
      <trkpt lat="50.53343" lon="5.69415">
        <ele>214.8</ele>
        <time>2019-05-01T07:21:37.000Z</time>
      </trkpt>
      <trkpt lat="50.53337" lon="5.69401">
        <ele>214.8</ele>
        <time>2019-05-01T07:21:38.000Z</time>
      </trkpt>
      <trkpt lat="50.5333" lon="5.69376">
        <ele>215.6</ele>
        <time>2019-05-01T07:21:39.000Z</time>
      </trkpt>
      <trkpt lat="50.5332" lon="5.69338">
        <ele>215.9</ele>
        <time>2019-05-01T07:21:42.000Z</time>
      </trkpt>
      <trkpt lat="50.53316" lon="5.69328">
        <ele>216.4</ele>
        <time>2019-05-01T07:21:47.000Z</time>
      </trkpt>
      <trkpt lat="50.53301" lon="5.6932">
        <ele>216.5</ele>
        <time>2019-05-01T07:21:53.000Z</time>
      </trkpt>
      <trkpt lat="50.53277" lon="5.69301">
        <ele>217</ele>
        <time>2019-05-01T07:21:55.000Z</time>
      </trkpt>
      <trkpt lat="50.53271" lon="5.69294">
        <ele>216.7</ele>
        <time>2019-05-01T07:21:59.000Z</time>
      </trkpt>
      <trkpt lat="50.53255" lon="5.6927">
        <ele>210.39999389648</ele>
        <time>2019-05-01T07:22:04.000Z</time>
      </trkpt>
      <trkpt lat="50.53235" lon="5.6924">
        <ele>211.39999389648</ele>
        <time>2019-05-01T07:22:10.000Z</time>
      </trkpt>
      <trkpt lat="50.53201" lon="5.69188">
        <ele>217</ele>
        <time>2019-05-01T07:22:15.000Z</time>
      </trkpt>
      <trkpt lat="50.53168" lon="5.69138">
        <ele>212.39999389648</ele>
        <time>2019-05-01T07:22:22.000Z</time>
      </trkpt>
      <trkpt lat="50.5314" lon="5.69095">
        <ele>212.39999389648</ele>
        <time>2019-05-01T07:22:27.000Z</time>
      </trkpt>
      <trkpt lat="50.53135" lon="5.69085">
        <ele>212.19999694824</ele>
        <time>2019-05-01T07:22:30.000Z</time>
      </trkpt>
      <trkpt lat="50.53126" lon="5.69067">
        <ele>211.39999389648</ele>
        <time>2019-05-01T07:22:33.000Z</time>
      </trkpt>
      <trkpt lat="50.53121" lon="5.69059">
        <ele>211</ele>
        <time>2019-05-01T07:22:36.000Z</time>
      </trkpt>
      <trkpt lat="50.5311" lon="5.69051">
        <ele>217.5</ele>
        <time>2019-05-01T07:22:37.000Z</time>
      </trkpt>
      <trkpt lat="50.53095" lon="5.69052">
        <ele>217.4</ele>
        <time>2019-05-01T07:22:40.000Z</time>
      </trkpt>
      <trkpt lat="50.53087" lon="5.69056">
        <ele>217.3</ele>
        <time>2019-05-01T07:22:43.000Z</time>
      </trkpt>
      <trkpt lat="50.53076" lon="5.69064">
        <ele>216.5</ele>
        <time>2019-05-01T07:22:44.000Z</time>
      </trkpt>
      <trkpt lat="50.53064" lon="5.69059">
        <ele>216.6</ele>
        <time>2019-05-01T07:22:47.000Z</time>
      </trkpt>
      <trkpt lat="50.5305" lon="5.69048">
        <ele>216.7</ele>
        <time>2019-05-01T07:22:51.000Z</time>
      </trkpt>
      <trkpt lat="50.53038" lon="5.69033">
        <ele>216.8</ele>
        <time>2019-05-01T07:22:54.000Z</time>
      </trkpt>
      <trkpt lat="50.53019" lon="5.69009">
        <ele>216.9</ele>
        <time>2019-05-01T07:22:55.000Z</time>
      </trkpt>
      <trkpt lat="50.53004" lon="5.68989">
        <ele>218.1</ele>
        <time>2019-05-01T07:22:57.000Z</time>
      </trkpt>
      <trkpt lat="50.52989" lon="5.68971">
        <ele>219</ele>
        <time>2019-05-01T07:22:59.000Z</time>
      </trkpt>
      <trkpt lat="50.52974" lon="5.68947">
        <ele>220.4</ele>
        <time>2019-05-01T07:23:02.000Z</time>
      </trkpt>
      <trkpt lat="50.52949" lon="5.68901">
        <ele>223.4</ele>
        <time>2019-05-01T07:23:05.000Z</time>
      </trkpt>
      <trkpt lat="50.52939" lon="5.68881">
        <ele>223.8</ele>
        <time>2019-05-01T07:23:07.000Z</time>
      </trkpt>
      <trkpt lat="50.52928" lon="5.68863">
        <ele>224.4</ele>
        <time>2019-05-01T07:23:12.000Z</time>
      </trkpt>
      <trkpt lat="50.52915" lon="5.68845">
        <ele>225.2</ele>
        <time>2019-05-01T07:23:17.000Z</time>
      </trkpt>
      <trkpt lat="50.52895" lon="5.68826">
        <ele>226.3</ele>
        <time>2019-05-01T07:23:18.000Z</time>
      </trkpt>
      <trkpt lat="50.52876" lon="5.68798">
        <ele>226.6</ele>
        <time>2019-05-01T07:23:23.000Z</time>
      </trkpt>
      <trkpt lat="50.52864" lon="5.68775">
        <ele>227</ele>
        <time>2019-05-01T07:23:28.000Z</time>
      </trkpt>
      <trkpt lat="50.52853" lon="5.68759">
        <ele>221.19999694824</ele>
        <time>2019-05-01T07:23:34.000Z</time>
      </trkpt>
      <trkpt lat="50.52845" lon="5.68748">
        <ele>221.80000305176</ele>
        <time>2019-05-01T07:23:36.000Z</time>
      </trkpt>
      <trkpt lat="50.52833" lon="5.68732">
        <ele>222.19999694824</ele>
        <time>2019-05-01T07:23:40.000Z</time>
      </trkpt>
      <trkpt lat="50.5281" lon="5.68702">
        <ele>223.39999389648</ele>
        <time>2019-05-01T07:23:41.000Z</time>
      </trkpt>
      <trkpt lat="50.52787" lon="5.68673">
        <ele>224.39999389648</ele>
        <time>2019-05-01T07:23:47.000Z</time>
      </trkpt>
      <trkpt lat="50.52768" lon="5.68648">
        <ele>225.39999389648</ele>
        <time>2019-05-01T07:23:51.000Z</time>
      </trkpt>
      <trkpt lat="50.52764" lon="5.68643">
        <ele>225.60000610352</ele>
        <time>2019-05-01T07:23:56.000Z</time>
      </trkpt>
      <trkpt lat="50.52749" lon="5.68622">
        <ele>226.80000305176</ele>
        <time>2019-05-01T07:24:01.000Z</time>
      </trkpt>
      <trkpt lat="50.52734" lon="5.68601">
        <ele>227.80000305176</ele>
        <time>2019-05-01T07:24:03.000Z</time>
      </trkpt>
      <trkpt lat="50.52718" lon="5.6858">
        <ele>228.60000610352</ele>
        <time>2019-05-01T07:24:09.000Z</time>
      </trkpt>
      <trkpt lat="50.52714" lon="5.68575">
        <ele>229</ele>
        <time>2019-05-01T07:24:14.000Z</time>
      </trkpt>
      <trkpt lat="50.52686" lon="5.68541">
        <ele>230</ele>
        <time>2019-05-01T07:24:15.000Z</time>
      </trkpt>
      <trkpt lat="50.52667" lon="5.68515">
        <ele>231.19999694824</ele>
        <time>2019-05-01T07:24:18.000Z</time>
      </trkpt>
      <trkpt lat="50.52652" lon="5.68486">
        <ele>232.39999389648</ele>
        <time>2019-05-01T07:24:21.000Z</time>
      </trkpt>
      <trkpt lat="50.52646" lon="5.68474">
        <ele>232.80000305176</ele>
        <time>2019-05-01T07:24:23.000Z</time>
      </trkpt>
      <trkpt lat="50.5264" lon="5.68463">
        <ele>233.60000610352</ele>
        <time>2019-05-01T07:24:27.000Z</time>
      </trkpt>
      <trkpt lat="50.52636" lon="5.68458">
        <ele>234</ele>
        <time>2019-05-01T07:24:29.000Z</time>
      </trkpt>
      <trkpt lat="50.52628" lon="5.68449">
        <ele>234.60000610352</ele>
        <time>2019-05-01T07:24:31.000Z</time>
      </trkpt>
      <trkpt lat="50.52628" lon="5.68449">
        <ele>234.80000305176</ele>
        <time>2019-05-01T07:24:34.000Z</time>
      </trkpt>
      <trkpt lat="50.52609" lon="5.68437">
        <ele>235.80000305176</ele>
        <time>2019-05-01T07:24:36.000Z</time>
      </trkpt>
      <trkpt lat="50.52587" lon="5.6842">
        <ele>237.19999694824</ele>
        <time>2019-05-01T07:24:41.000Z</time>
      </trkpt>
      <trkpt lat="50.52583" lon="5.68417">
        <ele>237.39999389648</ele>
        <time>2019-05-01T07:24:45.000Z</time>
      </trkpt>
      <trkpt lat="50.52562" lon="5.68399">
        <ele>238.39999389648</ele>
        <time>2019-05-01T07:24:47.000Z</time>
      </trkpt>
      <trkpt lat="50.52558" lon="5.68396">
        <ele>238.60000610352</ele>
        <time>2019-05-01T07:24:54.000Z</time>
      </trkpt>
      <trkpt lat="50.52549" lon="5.68393">
        <ele>239</ele>
        <time>2019-05-01T07:25:00.000Z</time>
      </trkpt>
      <trkpt lat="50.5254" lon="5.68392">
        <ele>239.60000610352</ele>
        <time>2019-05-01T07:25:05.000Z</time>
      </trkpt>
      <trkpt lat="50.52535" lon="5.68392">
        <ele>239.60000610352</ele>
        <time>2019-05-01T07:25:08.000Z</time>
      </trkpt>
      <trkpt lat="50.5252" lon="5.68393">
        <ele>240.60000610352</ele>
        <time>2019-05-01T07:25:09.000Z</time>
      </trkpt>
      <trkpt lat="50.52516" lon="5.68393">
        <ele>241</ele>
        <time>2019-05-01T07:25:13.000Z</time>
      </trkpt>
      <trkpt lat="50.52486" lon="5.68386">
        <ele>241.60000610352</ele>
        <time>2019-05-01T07:25:16.000Z</time>
      </trkpt>
      <trkpt lat="50.52461" lon="5.6838">
        <ele>241.60000610352</ele>
        <time>2019-05-01T07:25:20.000Z</time>
      </trkpt>
      <trkpt lat="50.52456" lon="5.68379">
        <ele>241.60000610352</ele>
        <time>2019-05-01T07:25:27.000Z</time>
      </trkpt>
      <trkpt lat="50.52451" lon="5.68377">
        <ele>241.60000610352</ele>
        <time>2019-05-01T07:25:28.000Z</time>
      </trkpt>
      <trkpt lat="50.52444" lon="5.68361">
        <ele>240.60000610352</ele>
        <time>2019-05-01T07:25:32.000Z</time>
      </trkpt>
      <trkpt lat="50.52446" lon="5.68348">
        <ele>240.19999694824</ele>
        <time>2019-05-01T07:25:34.000Z</time>
      </trkpt>
      <trkpt lat="50.52449" lon="5.6833">
        <ele>240.19999694824</ele>
        <time>2019-05-01T07:25:37.000Z</time>
      </trkpt>
      <trkpt lat="50.52458" lon="5.68274">
        <ele>240.60000610352</ele>
        <time>2019-05-01T07:25:38.000Z</time>
      </trkpt>
      <trkpt lat="50.52466" lon="5.68223">
        <ele>242</ele>
        <time>2019-05-01T07:25:40.000Z</time>
      </trkpt>
      <trkpt lat="50.52469" lon="5.68197">
        <ele>243.39999389648</ele>
        <time>2019-05-01T07:25:43.000Z</time>
      </trkpt>
      <trkpt lat="50.5247" lon="5.68171">
        <ele>244.19999694824</ele>
        <time>2019-05-01T07:25:45.000Z</time>
      </trkpt>
      <trkpt lat="50.5247" lon="5.68164">
        <ele>244.60000610352</ele>
        <time>2019-05-01T07:25:47.000Z</time>
      </trkpt>
      <trkpt lat="50.5247" lon="5.68129">
        <ele>245.80000305176</ele>
        <time>2019-05-01T07:25:49.000Z</time>
      </trkpt>
      <trkpt lat="50.52468" lon="5.68092">
        <ele>247</ele>
        <time>2019-05-01T07:25:50.000Z</time>
      </trkpt>
      <trkpt lat="50.52464" lon="5.68062">
        <ele>248.39999389648</ele>
        <time>2019-05-01T07:25:56.000Z</time>
      </trkpt>
      <trkpt lat="50.52461" lon="5.68033">
        <ele>249.39999389648</ele>
        <time>2019-05-01T07:25:57.000Z</time>
      </trkpt>
      <trkpt lat="50.52453" lon="5.67988">
        <ele>250.39999389648</ele>
        <time>2019-05-01T07:25:59.000Z</time>
      </trkpt>
      <trkpt lat="50.5245" lon="5.67971">
        <ele>250.39999389648</ele>
        <time>2019-05-01T07:26:01.000Z</time>
      </trkpt>
      <trkpt lat="50.52436" lon="5.67909">
        <ele>250.39999389648</ele>
        <time>2019-05-01T07:26:06.000Z</time>
      </trkpt>
      <trkpt lat="50.52433" lon="5.679">
        <ele>250.39999389648</ele>
        <time>2019-05-01T07:26:13.000Z</time>
      </trkpt>
      <trkpt lat="50.52421" lon="5.67865">
        <ele>250.19999694824</ele>
        <time>2019-05-01T07:26:14.000Z</time>
      </trkpt>
      <trkpt lat="50.52414" lon="5.67847">
        <ele>249.39999389648</ele>
        <time>2019-05-01T07:26:20.000Z</time>
      </trkpt>
      <trkpt lat="50.52411" lon="5.67838">
        <ele>249.19999694824</ele>
        <time>2019-05-01T07:26:25.000Z</time>
      </trkpt>
      <trkpt lat="50.52404" lon="5.67822">
        <ele>248.80000305176</ele>
        <time>2019-05-01T07:26:31.000Z</time>
      </trkpt>
      <trkpt lat="50.5239" lon="5.67789">
        <ele>248.39999389648</ele>
        <time>2019-05-01T07:26:38.000Z</time>
      </trkpt>
      <trkpt lat="50.52387" lon="5.67781">
        <ele>248.39999389648</ele>
        <time>2019-05-01T07:26:44.000Z</time>
      </trkpt>
      <trkpt lat="50.5238" lon="5.67765">
        <ele>248.39999389648</ele>
        <time>2019-05-01T07:26:51.000Z</time>
      </trkpt>
      <trkpt lat="50.52357" lon="5.67707">
        <ele>248.39999389648</ele>
        <time>2019-05-01T07:26:58.000Z</time>
      </trkpt>
      <trkpt lat="50.52326" lon="5.67632">
        <ele>249.39999389648</ele>
        <time>2019-05-01T07:27:03.000Z</time>
      </trkpt>
      <trkpt lat="50.52323" lon="5.67625">
        <ele>249.60000610352</ele>
        <time>2019-05-01T07:27:04.000Z</time>
      </trkpt>
      <trkpt lat="50.52308" lon="5.67588">
        <ele>250.60000610352</ele>
        <time>2019-05-01T07:27:08.000Z</time>
      </trkpt>
      <trkpt lat="50.52294" lon="5.67552">
        <ele>251.80000305176</ele>
        <time>2019-05-01T07:27:10.000Z</time>
      </trkpt>
      <trkpt lat="50.52292" lon="5.67545">
        <ele>252</ele>
        <time>2019-05-01T07:27:12.000Z</time>
      </trkpt>
      <trkpt lat="50.52277" lon="5.67509">
        <ele>253</ele>
        <time>2019-05-01T07:27:16.000Z</time>
      </trkpt>
      <trkpt lat="50.52265" lon="5.6748">
        <ele>254</ele>
        <time>2019-05-01T07:27:17.000Z</time>
      </trkpt>
      <trkpt lat="50.52262" lon="5.67473">
        <ele>254.19999694824</ele>
        <time>2019-05-01T07:27:23.000Z</time>
      </trkpt>
      <trkpt lat="50.52248" lon="5.67437">
        <ele>255.19999694824</ele>
        <time>2019-05-01T07:27:26.000Z</time>
      </trkpt>
      <trkpt lat="50.52234" lon="5.674">
        <ele>256.20001220703</ele>
        <time>2019-05-01T07:27:29.000Z</time>
      </trkpt>
      <trkpt lat="50.52231" lon="5.67393">
        <ele>256.39999389648</ele>
        <time>2019-05-01T07:27:32.000Z</time>
      </trkpt>
      <trkpt lat="50.52215" lon="5.67356">
        <ele>257.39999389648</ele>
        <time>2019-05-01T07:27:36.000Z</time>
      </trkpt>
      <trkpt lat="50.522" lon="5.67319">
        <ele>258.20001220703</ele>
        <time>2019-05-01T07:27:39.000Z</time>
      </trkpt>
      <trkpt lat="50.52194" lon="5.67304">
        <ele>258.60000610352</ele>
        <time>2019-05-01T07:27:44.000Z</time>
      </trkpt>
      <trkpt lat="50.52166" lon="5.67233">
        <ele>259.79998779297</ele>
        <time>2019-05-01T07:27:51.000Z</time>
      </trkpt>
      <trkpt lat="50.52143" lon="5.67167">
        <ele>260.60000610352</ele>
        <time>2019-05-01T07:27:59.000Z</time>
      </trkpt>
      <trkpt lat="50.52138" lon="5.67139">
        <ele>260.79998779297</ele>
        <time>2019-05-01T07:28:01.000Z</time>
      </trkpt>
      <trkpt lat="50.52137" lon="5.67111">
        <ele>261.20001220703</ele>
        <time>2019-05-01T07:28:09.000Z</time>
      </trkpt>
      <trkpt lat="50.52132" lon="5.67036">
        <ele>261.60000610352</ele>
        <time>2019-05-01T07:28:17.000Z</time>
      </trkpt>
      <trkpt lat="50.5213" lon="5.67027">
        <ele>261.60000610352</ele>
        <time>2019-05-01T07:28:19.000Z</time>
      </trkpt>
      <trkpt lat="50.52125" lon="5.67005">
        <ele>261.60000610352</ele>
        <time>2019-05-01T07:28:24.000Z</time>
      </trkpt>
      <trkpt lat="50.52122" lon="5.66999">
        <ele>261.60000610352</ele>
        <time>2019-05-01T07:28:30.000Z</time>
      </trkpt>
      <trkpt lat="50.52111" lon="5.66999">
        <ele>261.79998779297</ele>
        <time>2019-05-01T07:28:34.000Z</time>
      </trkpt>
      <trkpt lat="50.52104" lon="5.67009">
        <ele>261.79998779297</ele>
        <time>2019-05-01T07:28:38.000Z</time>
      </trkpt>
      <trkpt lat="50.52096" lon="5.67021">
        <ele>262</ele>
        <time>2019-05-01T07:28:46.000Z</time>
      </trkpt>
      <trkpt lat="50.52088" lon="5.67031">
        <ele>262</ele>
        <time>2019-05-01T07:28:54.000Z</time>
      </trkpt>
      <trkpt lat="50.52065" lon="5.6706">
        <ele>262.20001220703</ele>
        <time>2019-05-01T07:28:55.000Z</time>
      </trkpt>
      <trkpt lat="50.52056" lon="5.67072">
        <ele>262.60000610352</ele>
        <time>2019-05-01T07:29:02.000Z</time>
      </trkpt>
      <trkpt lat="50.52043" lon="5.6709">
        <ele>263.20001220703</ele>
        <time>2019-05-01T07:29:04.000Z</time>
      </trkpt>
      <trkpt lat="50.52022" lon="5.67115">
        <ele>264</ele>
        <time>2019-05-01T07:29:08.000Z</time>
      </trkpt>
      <trkpt lat="50.52013" lon="5.67127">
        <ele>264.20001220703</ele>
        <time>2019-05-01T07:29:14.000Z</time>
      </trkpt>
      <trkpt lat="50.52" lon="5.67146">
        <ele>265.39999389648</ele>
        <time>2019-05-01T07:29:18.000Z</time>
      </trkpt>
      <trkpt lat="50.51993" lon="5.67155">
        <ele>265.79998779297</ele>
        <time>2019-05-01T07:29:19.000Z</time>
      </trkpt>
      <trkpt lat="50.51984" lon="5.67169">
        <ele>266.60000610352</ele>
        <time>2019-05-01T07:29:22.000Z</time>
      </trkpt>
      <trkpt lat="50.5197" lon="5.67189">
        <ele>267.60000610352</ele>
        <time>2019-05-01T07:29:24.000Z</time>
      </trkpt>
      <trkpt lat="50.51964" lon="5.67199">
        <ele>268.39999389648</ele>
        <time>2019-05-01T07:29:25.000Z</time>
      </trkpt>
      <trkpt lat="50.51957" lon="5.67208">
        <ele>269</ele>
        <time>2019-05-01T07:29:32.000Z</time>
      </trkpt>
      <trkpt lat="50.51943" lon="5.67228">
        <ele>270</ele>
        <time>2019-05-01T07:29:38.000Z</time>
      </trkpt>
      <trkpt lat="50.51929" lon="5.67248">
        <ele>271.20001220703</ele>
        <time>2019-05-01T07:29:39.000Z</time>
      </trkpt>
      <trkpt lat="50.5191" lon="5.67275">
        <ele>272.20001220703</ele>
        <time>2019-05-01T07:29:42.000Z</time>
      </trkpt>
      <trkpt lat="50.51896" lon="5.67298">
        <ele>273.20001220703</ele>
        <time>2019-05-01T07:29:48.000Z</time>
      </trkpt>
      <trkpt lat="50.51892" lon="5.67303">
        <ele>273.39999389648</ele>
        <time>2019-05-01T07:29:55.000Z</time>
      </trkpt>
      <trkpt lat="50.51867" lon="5.67344">
        <ele>274.39999389648</ele>
        <time>2019-05-01T07:29:59.000Z</time>
      </trkpt>
      <trkpt lat="50.51855" lon="5.67363">
        <ele>275.60000610352</ele>
        <time>2019-05-01T07:30:01.000Z</time>
      </trkpt>
      <trkpt lat="50.51851" lon="5.67371">
        <ele>276.20001220703</ele>
        <time>2019-05-01T07:30:07.000Z</time>
      </trkpt>
      <trkpt lat="50.51847" lon="5.67379">
        <ele>276.79998779297</ele>
        <time>2019-05-01T07:30:12.000Z</time>
      </trkpt>
      <trkpt lat="50.51841" lon="5.67391">
        <ele>278.20001220703</ele>
        <time>2019-05-01T07:30:17.000Z</time>
      </trkpt>
      <trkpt lat="50.51837" lon="5.67399">
        <ele>279.20001220703</ele>
        <time>2019-05-01T07:30:19.000Z</time>
      </trkpt>
      <trkpt lat="50.51836" lon="5.67403">
        <ele>279.60000610352</ele>
        <time>2019-05-01T07:30:22.000Z</time>
      </trkpt>
      <trkpt lat="50.5183" lon="5.67416">
        <ele>281</ele>
        <time>2019-05-01T07:30:26.000Z</time>
      </trkpt>
      <trkpt lat="50.51824" lon="5.67429">
        <ele>282</ele>
        <time>2019-05-01T07:30:27.000Z</time>
      </trkpt>
      <trkpt lat="50.51817" lon="5.67447">
        <ele>283.39999389648</ele>
        <time>2019-05-01T07:30:34.000Z</time>
      </trkpt>
      <trkpt lat="50.5181" lon="5.67465">
        <ele>284.60000610352</ele>
        <time>2019-05-01T07:30:39.000Z</time>
      </trkpt>
      <trkpt lat="50.51802" lon="5.67483">
        <ele>285.79998779297</ele>
        <time>2019-05-01T07:30:40.000Z</time>
      </trkpt>
      <trkpt lat="50.51793" lon="5.67505">
        <ele>286.79998779297</ele>
        <time>2019-05-01T07:30:44.000Z</time>
      </trkpt>
      <trkpt lat="50.51786" lon="5.67519">
        <ele>288</ele>
        <time>2019-05-01T07:30:47.000Z</time>
      </trkpt>
      <trkpt lat="50.51784" lon="5.67524">
        <ele>288.20001220703</ele>
        <time>2019-05-01T07:30:50.000Z</time>
      </trkpt>
      <trkpt lat="50.51777" lon="5.67538">
        <ele>289.60000610352</ele>
        <time>2019-05-01T07:30:54.000Z</time>
      </trkpt>
      <trkpt lat="50.5177" lon="5.67551">
        <ele>290.60000610352</ele>
        <time>2019-05-01T07:30:55.000Z</time>
      </trkpt>
      <trkpt lat="50.51765" lon="5.6756">
        <ele>291</ele>
        <time>2019-05-01T07:31:00.000Z</time>
      </trkpt>
      <trkpt lat="50.51757" lon="5.67573">
        <ele>291.79998779297</ele>
        <time>2019-05-01T07:31:03.000Z</time>
      </trkpt>
      <trkpt lat="50.5174" lon="5.676">
        <ele>292.39999389648</ele>
        <time>2019-05-01T07:31:06.000Z</time>
      </trkpt>
      <trkpt lat="50.51727" lon="5.67619">
        <ele>292.79998779297</ele>
        <time>2019-05-01T07:31:09.000Z</time>
      </trkpt>
      <trkpt lat="50.51711" lon="5.67642">
        <ele>293.39999389648</ele>
        <time>2019-05-01T07:31:11.000Z</time>
      </trkpt>
      <trkpt lat="50.51681" lon="5.67684">
        <ele>294</ele>
        <time>2019-05-01T07:31:18.000Z</time>
      </trkpt>
      <trkpt lat="50.51678" lon="5.67689">
        <ele>294</ele>
        <time>2019-05-01T07:31:24.000Z</time>
      </trkpt>
      <trkpt lat="50.51642" lon="5.67743">
        <ele>294.79998779297</ele>
        <time>2019-05-01T07:31:25.000Z</time>
      </trkpt>
      <trkpt lat="50.51627" lon="5.67765">
        <ele>294.79998779297</ele>
        <time>2019-05-01T07:31:33.000Z</time>
      </trkpt>
      <trkpt lat="50.51622" lon="5.6778">
        <ele>294.79998779297</ele>
        <time>2019-05-01T07:31:40.000Z</time>
      </trkpt>
      <trkpt lat="50.51621" lon="5.67796">
        <ele>294.79998779297</ele>
        <time>2019-05-01T07:31:41.000Z</time>
      </trkpt>
      <trkpt lat="50.51618" lon="5.67827">
        <ele>294.79998779297</ele>
        <time>2019-05-01T07:31:48.000Z</time>
      </trkpt>
      <trkpt lat="50.51619" lon="5.67837">
        <ele>294.79998779297</ele>
        <time>2019-05-01T07:31:50.000Z</time>
      </trkpt>
      <trkpt lat="50.51621" lon="5.67839">
        <ele>294.60000610352</ele>
        <time>2019-05-01T07:31:57.000Z</time>
      </trkpt>
      <trkpt lat="50.51631" lon="5.67841">
        <ele>294.60000610352</ele>
        <time>2019-05-01T07:31:59.000Z</time>
      </trkpt>
      <trkpt lat="50.51634" lon="5.6784">
        <ele>294.39999389648</ele>
        <time>2019-05-01T07:32:06.000Z</time>
      </trkpt>
      <trkpt lat="50.51649" lon="5.67833">
        <ele>294.39999389648</ele>
        <time>2019-05-01T07:32:09.000Z</time>
      </trkpt>
      <trkpt lat="50.51662" lon="5.67827">
        <ele>294.39999389648</ele>
        <time>2019-05-01T07:32:13.000Z</time>
      </trkpt>
      <trkpt lat="50.51672" lon="5.67824">
        <ele>294.39999389648</ele>
        <time>2019-05-01T07:32:16.000Z</time>
      </trkpt>
      <trkpt lat="50.51686" lon="5.67823">
        <ele>294.20001220703</ele>
        <time>2019-05-01T07:32:20.000Z</time>
      </trkpt>
      <trkpt lat="50.51701" lon="5.67823">
        <ele>293.79998779297</ele>
        <time>2019-05-01T07:32:21.000Z</time>
      </trkpt>
      <trkpt lat="50.51716" lon="5.67823">
        <ele>293.39999389648</ele>
        <time>2019-05-01T07:32:27.000Z</time>
      </trkpt>
      <trkpt lat="50.51721" lon="5.67825">
        <ele>293.39999389648</ele>
        <time>2019-05-01T07:32:33.000Z</time>
      </trkpt>
      <trkpt lat="50.51725" lon="5.67829">
        <ele>293.39999389648</ele>
        <time>2019-05-01T07:32:38.000Z</time>
      </trkpt>
      <trkpt lat="50.51731" lon="5.67843">
        <ele>293.20001220703</ele>
        <time>2019-05-01T07:32:40.000Z</time>
      </trkpt>
      <trkpt lat="50.51731" lon="5.6786">
        <ele>293</ele>
        <time>2019-05-01T07:32:43.000Z</time>
      </trkpt>
      <trkpt lat="50.51731" lon="5.67885">
        <ele>292.60000610352</ele>
        <time>2019-05-01T07:32:47.000Z</time>
      </trkpt>
      <trkpt lat="50.5173" lon="5.67912">
        <ele>292.20001220703</ele>
        <time>2019-05-01T07:32:48.000Z</time>
      </trkpt>
      <trkpt lat="50.5173" lon="5.6794">
        <ele>292.20001220703</ele>
        <time>2019-05-01T07:32:52.000Z</time>
      </trkpt>
      <trkpt lat="50.5173" lon="5.67968">
        <ele>291.79998779297</ele>
        <time>2019-05-01T07:32:55.000Z</time>
      </trkpt>
      <trkpt lat="50.51729" lon="5.68007">
        <ele>291.39999389648</ele>
        <time>2019-05-01T07:32:56.000Z</time>
      </trkpt>
      <trkpt lat="50.51728" lon="5.68049">
        <ele>291</ele>
        <time>2019-05-01T07:33:02.000Z</time>
      </trkpt>
      <trkpt lat="50.51724" lon="5.68094">
        <ele>290.39999389648</ele>
        <time>2019-05-01T07:33:08.000Z</time>
      </trkpt>
      <trkpt lat="50.51723" lon="5.68119">
        <ele>289.79998779297</ele>
        <time>2019-05-01T07:33:14.000Z</time>
      </trkpt>
      <trkpt lat="50.51719" lon="5.68157">
        <ele>289.20001220703</ele>
        <time>2019-05-01T07:33:19.000Z</time>
      </trkpt>
      <trkpt lat="50.51714" lon="5.68197">
        <ele>288</ele>
        <time>2019-05-01T07:33:20.000Z</time>
      </trkpt>
      <trkpt lat="50.51711" lon="5.68223">
        <ele>287.20001220703</ele>
        <time>2019-05-01T07:33:25.000Z</time>
      </trkpt>
      <trkpt lat="50.51705" lon="5.68261">
        <ele>285.79998779297</ele>
        <time>2019-05-01T07:33:30.000Z</time>
      </trkpt>
      <trkpt lat="50.51701" lon="5.68285">
        <ele>284.79998779297</ele>
        <time>2019-05-01T07:33:35.000Z</time>
      </trkpt>
      <trkpt lat="50.51699" lon="5.68296">
        <ele>284.39999389648</ele>
        <time>2019-05-01T07:33:36.000Z</time>
      </trkpt>
      <trkpt lat="50.51689" lon="5.68348">
        <ele>283.79998779297</ele>
        <time>2019-05-01T07:33:39.000Z</time>
      </trkpt>
      <trkpt lat="50.51687" lon="5.68357">
        <ele>283.60000610352</ele>
        <time>2019-05-01T07:33:41.000Z</time>
      </trkpt>
      <trkpt lat="50.51678" lon="5.68391">
        <ele>283.60000610352</ele>
        <time>2019-05-01T07:33:47.000Z</time>
      </trkpt>
      <trkpt lat="50.51674" lon="5.68397">
        <ele>283.60000610352</ele>
        <time>2019-05-01T07:33:49.000Z</time>
      </trkpt>
      <trkpt lat="50.51665" lon="5.68411">
        <ele>283.60000610352</ele>
        <time>2019-05-01T07:33:51.000Z</time>
      </trkpt>
      <trkpt lat="50.51663" lon="5.68421">
        <ele>283.79998779297</ele>
        <time>2019-05-01T07:33:54.000Z</time>
      </trkpt>
      <trkpt lat="50.51664" lon="5.68432">
        <ele>284</ele>
        <time>2019-05-01T07:33:56.000Z</time>
      </trkpt>
      <trkpt lat="50.51664" lon="5.68438">
        <ele>284.39999389648</ele>
        <time>2019-05-01T07:33:57.000Z</time>
      </trkpt>
      <trkpt lat="50.51661" lon="5.6846">
        <ele>284.60000610352</ele>
        <time>2019-05-01T07:33:58.000Z</time>
      </trkpt>
      <trkpt lat="50.51657" lon="5.68482">
        <ele>284.79998779297</ele>
        <time>2019-05-01T07:34:00.000Z</time>
      </trkpt>
      <trkpt lat="50.51647" lon="5.68518">
        <ele>285.20001220703</ele>
        <time>2019-05-01T07:34:01.000Z</time>
      </trkpt>
      <trkpt lat="50.51642" lon="5.68534">
        <ele>285.20001220703</ele>
        <time>2019-05-01T07:34:04.000Z</time>
      </trkpt>
      <trkpt lat="50.51635" lon="5.68557">
        <ele>285.39999389648</ele>
        <time>2019-05-01T07:34:06.000Z</time>
      </trkpt>
      <trkpt lat="50.51626" lon="5.68588">
        <ele>285.79998779297</ele>
        <time>2019-05-01T07:34:12.000Z</time>
      </trkpt>
      <trkpt lat="50.51624" lon="5.68595">
        <ele>286</ele>
        <time>2019-05-01T07:34:20.000Z</time>
      </trkpt>
      <trkpt lat="50.51619" lon="5.68611">
        <ele>286.39999389648</ele>
        <time>2019-05-01T07:34:21.000Z</time>
      </trkpt>
      <trkpt lat="50.51613" lon="5.68634">
        <ele>287.20001220703</ele>
        <time>2019-05-01T07:34:22.000Z</time>
      </trkpt>
      <trkpt lat="50.51608" lon="5.68658">
        <ele>288.20001220703</ele>
        <time>2019-05-01T07:34:29.000Z</time>
      </trkpt>
      <trkpt lat="50.51607" lon="5.68666">
        <ele>288.39999389648</ele>
        <time>2019-05-01T07:34:32.000Z</time>
      </trkpt>
      <trkpt lat="50.51601" lon="5.6869">
        <ele>289.39999389648</ele>
        <time>2019-05-01T07:34:35.000Z</time>
      </trkpt>
      <trkpt lat="50.51592" lon="5.68724">
        <ele>290.20001220703</ele>
        <time>2019-05-01T07:34:42.000Z</time>
      </trkpt>
      <trkpt lat="50.51584" lon="5.68749">
        <ele>290.39999389648</ele>
        <time>2019-05-01T07:34:49.000Z</time>
      </trkpt>
      <trkpt lat="50.51572" lon="5.68774">
        <ele>290.39999389648</ele>
        <time>2019-05-01T07:34:53.000Z</time>
      </trkpt>
      <trkpt lat="50.5156" lon="5.68793">
        <ele>290.39999389648</ele>
        <time>2019-05-01T07:34:58.000Z</time>
      </trkpt>
      <trkpt lat="50.51557" lon="5.68801">
        <ele>290.39999389648</ele>
        <time>2019-05-01T07:35:01.000Z</time>
      </trkpt>
      <trkpt lat="50.51551" lon="5.68835">
        <ele>290.20001220703</ele>
        <time>2019-05-01T07:35:06.000Z</time>
      </trkpt>
      <trkpt lat="50.51548" lon="5.68853">
        <ele>289.79998779297</ele>
        <time>2019-05-01T07:35:09.000Z</time>
      </trkpt>
      <trkpt lat="50.5154" lon="5.68878">
        <ele>289.39999389648</ele>
        <time>2019-05-01T07:35:14.000Z</time>
      </trkpt>
      <trkpt lat="50.51531" lon="5.68903">
        <ele>289.39999389648</ele>
        <time>2019-05-01T07:35:21.000Z</time>
      </trkpt>
      <trkpt lat="50.51513" lon="5.68958">
        <ele>289.39999389648</ele>
        <time>2019-05-01T07:35:22.000Z</time>
      </trkpt>
      <trkpt lat="50.51484" lon="5.69041">
        <ele>289.60000610352</ele>
        <time>2019-05-01T07:35:28.000Z</time>
      </trkpt>
      <trkpt lat="50.51475" lon="5.69069">
        <ele>289.60000610352</ele>
        <time>2019-05-01T07:35:29.000Z</time>
      </trkpt>
      <trkpt lat="50.51472" lon="5.69077">
        <ele>289.60000610352</ele>
        <time>2019-05-01T07:35:30.000Z</time>
      </trkpt>
      <trkpt lat="50.51468" lon="5.69105">
        <ele>289.79998779297</ele>
        <time>2019-05-01T07:35:32.000Z</time>
      </trkpt>
      <trkpt lat="50.51468" lon="5.69114">
        <ele>290</ele>
        <time>2019-05-01T07:35:39.000Z</time>
      </trkpt>
      <trkpt lat="50.51466" lon="5.69139">
        <ele>290.39999389648</ele>
        <time>2019-05-01T07:35:40.000Z</time>
      </trkpt>
      <trkpt lat="50.51465" lon="5.69161">
        <ele>291.39999389648</ele>
        <time>2019-05-01T07:35:47.000Z</time>
      </trkpt>
      <trkpt lat="50.51464" lon="5.69168">
        <ele>291.60000610352</ele>
        <time>2019-05-01T07:35:52.000Z</time>
      </trkpt>
      <trkpt lat="50.51461" lon="5.6918">
        <ele>292.79998779297</ele>
        <time>2019-05-01T07:35:54.000Z</time>
      </trkpt>
      <trkpt lat="50.51458" lon="5.69185">
        <ele>293.20001220703</ele>
        <time>2019-05-01T07:35:57.000Z</time>
      </trkpt>
      <trkpt lat="50.51451" lon="5.6919">
        <ele>294</ele>
        <time>2019-05-01T07:36:04.000Z</time>
      </trkpt>
      <trkpt lat="50.51442" lon="5.69192">
        <ele>294.39999389648</ele>
        <time>2019-05-01T07:36:05.000Z</time>
      </trkpt>
      <trkpt lat="50.51433" lon="5.69198">
        <ele>295</ele>
        <time>2019-05-01T07:36:12.000Z</time>
      </trkpt>
      <trkpt lat="50.51429" lon="5.69205">
        <ele>295.39999389648</ele>
        <time>2019-05-01T07:36:19.000Z</time>
      </trkpt>
      <trkpt lat="50.5143" lon="5.69228">
        <ele>296.20001220703</ele>
        <time>2019-05-01T07:36:25.000Z</time>
      </trkpt>
      <trkpt lat="50.51444" lon="5.69242">
        <ele>296.39999389648</ele>
        <time>2019-05-01T07:36:32.000Z</time>
      </trkpt>
      <trkpt lat="50.51465" lon="5.69262">
        <ele>296.60000610352</ele>
        <time>2019-05-01T07:36:39.000Z</time>
      </trkpt>
      <trkpt lat="50.51475" lon="5.69276">
        <ele>296.60000610352</ele>
        <time>2019-05-01T07:36:45.000Z</time>
      </trkpt>
      <trkpt lat="50.51492" lon="5.69307">
        <ele>296.60000610352</ele>
        <time>2019-05-01T07:36:47.000Z</time>
      </trkpt>
      <trkpt lat="50.51527" lon="5.69371">
        <ele>296.60000610352</ele>
        <time>2019-05-01T07:36:48.000Z</time>
      </trkpt>
      <trkpt lat="50.51531" lon="5.6938">
        <ele>296.60000610352</ele>
        <time>2019-05-01T07:36:55.000Z</time>
      </trkpt>
      <trkpt lat="50.51568" lon="5.6945">
        <ele>296.39999389648</ele>
        <time>2019-05-01T07:37:02.000Z</time>
      </trkpt>
      <trkpt lat="50.51573" lon="5.69458">
        <ele>296.39999389648</ele>
        <time>2019-05-01T07:37:04.000Z</time>
      </trkpt>
      <trkpt lat="50.51602" lon="5.69511">
        <ele>295.79998779297</ele>
        <time>2019-05-01T07:37:11.000Z</time>
      </trkpt>
      <trkpt lat="50.51616" lon="5.69537">
        <ele>295.39999389648</ele>
        <time>2019-05-01T07:37:17.000Z</time>
      </trkpt>
      <trkpt lat="50.51621" lon="5.69546">
        <ele>295.20001220703</ele>
        <time>2019-05-01T07:37:24.000Z</time>
      </trkpt>
      <trkpt lat="50.51635" lon="5.69574">
        <ele>294.79998779297</ele>
        <time>2019-05-01T07:37:31.000Z</time>
      </trkpt>
      <trkpt lat="50.51662" lon="5.69623">
        <ele>294.20001220703</ele>
        <time>2019-05-01T07:37:33.000Z</time>
      </trkpt>
      <trkpt lat="50.51694" lon="5.69684">
        <ele>293.20001220703</ele>
        <time>2019-05-01T07:37:40.000Z</time>
      </trkpt>
      <trkpt lat="50.517" lon="5.69694">
        <ele>293</ele>
        <time>2019-05-01T07:37:44.000Z</time>
      </trkpt>
      <trkpt lat="50.5171" lon="5.69714">
        <ele>292.60000610352</ele>
        <time>2019-05-01T07:37:47.000Z</time>
      </trkpt>
      <trkpt lat="50.51726" lon="5.69745">
        <ele>292.39999389648</ele>
        <time>2019-05-01T07:37:50.000Z</time>
      </trkpt>
      <trkpt lat="50.51737" lon="5.69765">
        <ele>292</ele>
        <time>2019-05-01T07:37:51.000Z</time>
      </trkpt>
      <trkpt lat="50.51763" lon="5.69814">
        <ele>291.60000610352</ele>
        <time>2019-05-01T07:37:54.000Z</time>
      </trkpt>
      <trkpt lat="50.51801" lon="5.69884">
        <ele>291.60000610352</ele>
        <time>2019-05-01T07:37:56.000Z</time>
      </trkpt>
      <trkpt lat="50.5182" lon="5.69918">
        <ele>291.79998779297</ele>
        <time>2019-05-01T07:37:58.000Z</time>
      </trkpt>
      <trkpt lat="50.51842" lon="5.69959">
        <ele>292.60000610352</ele>
        <time>2019-05-01T07:37:59.000Z</time>
      </trkpt>
      <trkpt lat="50.51845" lon="5.69965">
        <ele>292.79998779297</ele>
        <time>2019-05-01T07:38:02.000Z</time>
      </trkpt>
      <trkpt lat="50.51848" lon="5.69972">
        <ele>293</ele>
        <time>2019-05-01T07:38:04.000Z</time>
      </trkpt>
      <trkpt lat="50.51848" lon="5.69978">
        <ele>293.20001220703</ele>
        <time>2019-05-01T07:38:08.000Z</time>
      </trkpt>
      <trkpt lat="50.51846" lon="5.69984">
        <ele>293.39999389648</ele>
        <time>2019-05-01T07:38:13.000Z</time>
      </trkpt>
      <trkpt lat="50.51838" lon="5.69993">
        <ele>293.79998779297</ele>
        <time>2019-05-01T07:39:47.000Z</time>
      </trkpt>
      <trkpt lat="50.51828" lon="5.70003">
        <ele>294.79998779297</ele>
        <time>2019-05-01T07:39:48.000Z</time>
      </trkpt>
      <trkpt lat="50.51795" lon="5.70037">
        <ele>295.20001220703</ele>
        <time>2019-05-01T07:39:50.000Z</time>
      </trkpt>
      <trkpt lat="50.5175" lon="5.70086">
        <ele>294.39999389648</ele>
        <time>2019-05-01T07:39:54.000Z</time>
      </trkpt>
      <trkpt lat="50.51744" lon="5.70093">
        <ele>294.39999389648</ele>
        <time>2019-05-01T07:40:00.000Z</time>
      </trkpt>
      <trkpt lat="50.5171" lon="5.70131">
        <ele>293.39999389648</ele>
        <time>2019-05-01T07:40:05.000Z</time>
      </trkpt>
      <trkpt lat="50.51699" lon="5.70143">
        <ele>292.79998779297</ele>
        <time>2019-05-01T07:40:08.000Z</time>
      </trkpt>
      <trkpt lat="50.51668" lon="5.70178">
        <ele>292.60000610352</ele>
        <time>2019-05-01T07:40:10.000Z</time>
      </trkpt>
      <trkpt lat="50.51644" lon="5.70205">
        <ele>293.20001220703</ele>
        <time>2019-05-01T07:40:15.000Z</time>
      </trkpt>
      <trkpt lat="50.51629" lon="5.70219">
        <ele>294</ele>
        <time>2019-05-01T07:40:18.000Z</time>
      </trkpt>
      <trkpt lat="50.51618" lon="5.70228">
        <ele>295.20001220703</ele>
        <time>2019-05-01T07:40:19.000Z</time>
      </trkpt>
      <trkpt lat="50.51593" lon="5.7025">
        <ele>296.39999389648</ele>
        <time>2019-05-01T07:40:24.000Z</time>
      </trkpt>
      <trkpt lat="50.51557" lon="5.7028">
        <ele>296.79998779297</ele>
        <time>2019-05-01T07:40:26.000Z</time>
      </trkpt>
      <trkpt lat="50.51508" lon="5.70319">
        <ele>296.60000610352</ele>
        <time>2019-05-01T07:40:30.000Z</time>
      </trkpt>
      <trkpt lat="50.515" lon="5.70325">
        <ele>296.39999389648</ele>
        <time>2019-05-01T07:40:32.000Z</time>
      </trkpt>
      <trkpt lat="50.51475" lon="5.70345">
        <ele>295.60000610352</ele>
        <time>2019-05-01T07:40:34.000Z</time>
      </trkpt>
      <trkpt lat="50.51451" lon="5.70366">
        <ele>294.20001220703</ele>
        <time>2019-05-01T07:40:39.000Z</time>
      </trkpt>
      <trkpt lat="50.51436" lon="5.70379">
        <ele>293</ele>
        <time>2019-05-01T07:40:44.000Z</time>
      </trkpt>
      <trkpt lat="50.51421" lon="5.70389">
        <ele>291.79998779297</ele>
        <time>2019-05-01T07:40:45.000Z</time>
      </trkpt>
      <trkpt lat="50.51399" lon="5.70403">
        <ele>290.79998779297</ele>
        <time>2019-05-01T07:40:47.000Z</time>
      </trkpt>
      <trkpt lat="50.51374" lon="5.70413">
        <ele>289.20001220703</ele>
        <time>2019-05-01T07:40:49.000Z</time>
      </trkpt>
      <trkpt lat="50.51349" lon="5.7042">
        <ele>287.79998779297</ele>
        <time>2019-05-01T07:40:51.000Z</time>
      </trkpt>
      <trkpt lat="50.51324" lon="5.70427">
        <ele>286.60000610352</ele>
        <time>2019-05-01T07:40:54.000Z</time>
      </trkpt>
      <trkpt lat="50.51302" lon="5.70436">
        <ele>285.79998779297</ele>
        <time>2019-05-01T07:40:56.000Z</time>
      </trkpt>
      <trkpt lat="50.51289" lon="5.70444">
        <ele>285.79998779297</ele>
        <time>2019-05-01T07:40:57.000Z</time>
      </trkpt>
      <trkpt lat="50.51277" lon="5.70456">
        <ele>286</ele>
        <time>2019-05-01T07:41:01.000Z</time>
      </trkpt>
      <trkpt lat="50.51268" lon="5.7047">
        <ele>285.79998779297</ele>
        <time>2019-05-01T07:41:03.000Z</time>
      </trkpt>
      <trkpt lat="50.51263" lon="5.70478">
        <ele>285.79998779297</ele>
        <time>2019-05-01T07:41:04.000Z</time>
      </trkpt>
      <trkpt lat="50.51255" lon="5.70494">
        <ele>286.20001220703</ele>
        <time>2019-05-01T07:41:09.000Z</time>
      </trkpt>
      <trkpt lat="50.51236" lon="5.70524">
        <ele>288</ele>
        <time>2019-05-01T07:41:10.000Z</time>
      </trkpt>
      <trkpt lat="50.51226" lon="5.70538">
        <ele>288.60000610352</ele>
        <time>2019-05-01T07:41:16.000Z</time>
      </trkpt>
      <trkpt lat="50.51199" lon="5.70558">
        <ele>288.60000610352</ele>
        <time>2019-05-01T07:41:17.000Z</time>
      </trkpt>
      <trkpt lat="50.51174" lon="5.70566">
        <ele>288.60000610352</ele>
        <time>2019-05-01T07:41:22.000Z</time>
      </trkpt>
      <trkpt lat="50.51164" lon="5.70566">
        <ele>288.60000610352</ele>
        <time>2019-05-01T07:41:24.000Z</time>
      </trkpt>
      <trkpt lat="50.51113" lon="5.70561">
        <ele>286.39999389648</ele>
        <time>2019-05-01T07:41:28.000Z</time>
      </trkpt>
      <trkpt lat="50.51092" lon="5.70558">
        <ele>285</ele>
        <time>2019-05-01T07:41:29.000Z</time>
      </trkpt>
      <trkpt lat="50.51059" lon="5.70553">
        <ele>283.39999389648</ele>
        <time>2019-05-01T07:41:31.000Z</time>
      </trkpt>
      <trkpt lat="50.51049" lon="5.70551">
        <ele>282.39999389648</ele>
        <time>2019-05-01T07:41:33.000Z</time>
      </trkpt>
      <trkpt lat="50.51039" lon="5.70548">
        <ele>281.39999389648</ele>
        <time>2019-05-01T07:41:34.000Z</time>
      </trkpt>
      <trkpt lat="50.51028" lon="5.70544">
        <ele>280.79998779297</ele>
        <time>2019-05-01T07:41:37.000Z</time>
      </trkpt>
      <trkpt lat="50.51018" lon="5.70539">
        <ele>279.79998779297</ele>
        <time>2019-05-01T07:41:38.000Z</time>
      </trkpt>
      <trkpt lat="50.51008" lon="5.70532">
        <ele>278.79998779297</ele>
        <time>2019-05-01T07:41:43.000Z</time>
      </trkpt>
      <trkpt lat="50.50998" lon="5.70526">
        <ele>277.79998779297</ele>
        <time>2019-05-01T07:41:45.000Z</time>
      </trkpt>
      <trkpt lat="50.50989" lon="5.70519">
        <ele>277</ele>
        <time>2019-05-01T07:41:51.000Z</time>
      </trkpt>
      <trkpt lat="50.50979" lon="5.70513">
        <ele>276.20001220703</ele>
        <time>2019-05-01T07:41:55.000Z</time>
      </trkpt>
      <trkpt lat="50.50968" lon="5.70509">
        <ele>275.60000610352</ele>
        <time>2019-05-01T07:41:57.000Z</time>
      </trkpt>
      <trkpt lat="50.50957" lon="5.70506">
        <ele>274.39999389648</ele>
        <time>2019-05-01T07:42:01.000Z</time>
      </trkpt>
      <trkpt lat="50.50934" lon="5.70504">
        <ele>273</ele>
        <time>2019-05-01T07:42:02.000Z</time>
      </trkpt>
      <trkpt lat="50.50923" lon="5.70504">
        <ele>272.20001220703</ele>
        <time>2019-05-01T07:42:07.000Z</time>
      </trkpt>
      <trkpt lat="50.50911" lon="5.70505">
        <ele>271.39999389648</ele>
        <time>2019-05-01T07:42:12.000Z</time>
      </trkpt>
      <trkpt lat="50.509" lon="5.70505">
        <ele>270.20001220703</ele>
        <time>2019-05-01T07:42:14.000Z</time>
      </trkpt>
      <trkpt lat="50.50878" lon="5.70506">
        <ele>268.60000610352</ele>
        <time>2019-05-01T07:42:17.000Z</time>
      </trkpt>
      <trkpt lat="50.50857" lon="5.70506">
        <ele>267</ele>
        <time>2019-05-01T07:42:21.000Z</time>
      </trkpt>
      <trkpt lat="50.50846" lon="5.70506">
        <ele>266.20001220703</ele>
        <time>2019-05-01T07:42:24.000Z</time>
      </trkpt>
      <trkpt lat="50.50836" lon="5.70506">
        <ele>265.39999389648</ele>
        <time>2019-05-01T07:42:27.000Z</time>
      </trkpt>
      <trkpt lat="50.50814" lon="5.70507">
        <ele>263.79998779297</ele>
        <time>2019-05-01T07:42:29.000Z</time>
      </trkpt>
      <trkpt lat="50.50802" lon="5.70507">
        <ele>262.79998779297</ele>
        <time>2019-05-01T07:42:34.000Z</time>
      </trkpt>
      <trkpt lat="50.5078" lon="5.70508">
        <ele>261.60000610352</ele>
        <time>2019-05-01T07:42:36.000Z</time>
      </trkpt>
      <trkpt lat="50.50749" lon="5.7051">
        <ele>260.39999389648</ele>
        <time>2019-05-01T07:42:40.000Z</time>
      </trkpt>
      <trkpt lat="50.50729" lon="5.7051">
        <ele>259</ele>
        <time>2019-05-01T07:42:41.000Z</time>
      </trkpt>
      <trkpt lat="50.5071" lon="5.7051">
        <ele>258</ele>
        <time>2019-05-01T07:42:45.000Z</time>
      </trkpt>
      <trkpt lat="50.50691" lon="5.70511">
        <ele>256.39999389648</ele>
        <time>2019-05-01T07:42:46.000Z</time>
      </trkpt>
      <trkpt lat="50.5067" lon="5.7051">
        <ele>255.19999694824</ele>
        <time>2019-05-01T07:42:47.000Z</time>
      </trkpt>
      <trkpt lat="50.5065" lon="5.70511">
        <ele>253.39999389648</ele>
        <time>2019-05-01T07:42:49.000Z</time>
      </trkpt>
      <trkpt lat="50.50639" lon="5.70513">
        <ele>253</ele>
        <time>2019-05-01T07:42:51.000Z</time>
      </trkpt>
      <trkpt lat="50.50619" lon="5.70521">
        <ele>251.80000305176</ele>
        <time>2019-05-01T07:42:52.000Z</time>
      </trkpt>
      <trkpt lat="50.50609" lon="5.70529">
        <ele>250.80000305176</ele>
        <time>2019-05-01T07:42:55.000Z</time>
      </trkpt>
      <trkpt lat="50.50592" lon="5.70552">
        <ele>249.39999389648</ele>
        <time>2019-05-01T07:42:57.000Z</time>
      </trkpt>
      <trkpt lat="50.50584" lon="5.70567">
        <ele>248.80000305176</ele>
        <time>2019-05-01T07:42:58.000Z</time>
      </trkpt>
      <trkpt lat="50.50577" lon="5.70582">
        <ele>248</ele>
        <time>2019-05-01T07:43:03.000Z</time>
      </trkpt>
      <trkpt lat="50.50562" lon="5.70613">
        <ele>246.80000305176</ele>
        <time>2019-05-01T07:43:04.000Z</time>
      </trkpt>
      <trkpt lat="50.50549" lon="5.70643">
        <ele>245</ele>
        <time>2019-05-01T07:43:06.000Z</time>
      </trkpt>
      <trkpt lat="50.50534" lon="5.70672">
        <ele>243.60000610352</ele>
        <time>2019-05-01T07:43:09.000Z</time>
      </trkpt>
      <trkpt lat="50.50521" lon="5.70701">
        <ele>241.80000305176</ele>
        <time>2019-05-01T07:43:10.000Z</time>
      </trkpt>
      <trkpt lat="50.50515" lon="5.70715">
        <ele>241.19999694824</ele>
        <time>2019-05-01T07:43:14.000Z</time>
      </trkpt>
      <trkpt lat="50.50508" lon="5.7073">
        <ele>240.80000305176</ele>
        <time>2019-05-01T07:43:16.000Z</time>
      </trkpt>
      <trkpt lat="50.50501" lon="5.70743">
        <ele>239.60000610352</ele>
        <time>2019-05-01T07:43:20.000Z</time>
      </trkpt>
      <trkpt lat="50.50487" lon="5.70772">
        <ele>238</ele>
        <time>2019-05-01T07:43:22.000Z</time>
      </trkpt>
      <trkpt lat="50.5048" lon="5.70786">
        <ele>237.19999694824</ele>
        <time>2019-05-01T07:43:24.000Z</time>
      </trkpt>
      <trkpt lat="50.50473" lon="5.70799">
        <ele>236.60000610352</ele>
        <time>2019-05-01T07:43:25.000Z</time>
      </trkpt>
      <trkpt lat="50.50461" lon="5.70825">
        <ele>235</ele>
        <time>2019-05-01T07:43:29.000Z</time>
      </trkpt>
      <trkpt lat="50.50449" lon="5.7085">
        <ele>233.39999389648</ele>
        <time>2019-05-01T07:43:32.000Z</time>
      </trkpt>
      <trkpt lat="50.50434" lon="5.70872">
        <ele>231</ele>
        <time>2019-05-01T07:43:33.000Z</time>
      </trkpt>
      <trkpt lat="50.50418" lon="5.70891">
        <ele>229.80000305176</ele>
        <time>2019-05-01T07:43:39.000Z</time>
      </trkpt>
      <trkpt lat="50.50401" lon="5.70902">
        <ele>228.19999694824</ele>
        <time>2019-05-01T07:43:41.000Z</time>
      </trkpt>
      <trkpt lat="50.5038" lon="5.70913">
        <ele>227</ele>
        <time>2019-05-01T07:43:44.000Z</time>
      </trkpt>
      <trkpt lat="50.5036" lon="5.70924">
        <ele>225.80000305176</ele>
        <time>2019-05-01T07:43:45.000Z</time>
      </trkpt>
      <trkpt lat="50.50338" lon="5.70936">
        <ele>224.19999694824</ele>
        <time>2019-05-01T07:43:47.000Z</time>
      </trkpt>
      <trkpt lat="50.50318" lon="5.70947">
        <ele>223.19999694824</ele>
        <time>2019-05-01T07:43:49.000Z</time>
      </trkpt>
      <trkpt lat="50.50307" lon="5.70954">
        <ele>222.60000610352</ele>
        <time>2019-05-01T07:43:53.000Z</time>
      </trkpt>
      <trkpt lat="50.50297" lon="5.7096">
        <ele>221.60000610352</ele>
        <time>2019-05-01T07:43:54.000Z</time>
      </trkpt>
      <trkpt lat="50.50276" lon="5.70973">
        <ele>220.19999694824</ele>
        <time>2019-05-01T07:43:59.000Z</time>
      </trkpt>
      <trkpt lat="50.50256" lon="5.70983">
        <ele>219</ele>
        <time>2019-05-01T07:44:02.000Z</time>
      </trkpt>
      <trkpt lat="50.50218" lon="5.71004">
        <ele>217.80000305176</ele>
        <time>2019-05-01T07:44:05.000Z</time>
      </trkpt>
      <trkpt lat="50.502" lon="5.71011">
        <ele>217.39999389648</ele>
        <time>2019-05-01T07:44:08.000Z</time>
      </trkpt>
      <trkpt lat="50.50181" lon="5.71011">
        <ele>216.80000305176</ele>
        <time>2019-05-01T07:44:09.000Z</time>
      </trkpt>
      <trkpt lat="50.50173" lon="5.71009">
        <ele>216.80000305176</ele>
        <time>2019-05-01T07:44:12.000Z</time>
      </trkpt>
      <trkpt lat="50.50149" lon="5.70998">
        <ele>216.60000610352</ele>
        <time>2019-05-01T07:44:14.000Z</time>
      </trkpt>
      <trkpt lat="50.50141" lon="5.70994">
        <ele>216.60000610352</ele>
        <time>2019-05-01T07:44:15.000Z</time>
      </trkpt>
      <trkpt lat="50.50111" lon="5.70981">
        <ele>216.80000305176</ele>
        <time>2019-05-01T07:44:17.000Z</time>
      </trkpt>
      <trkpt lat="50.50103" lon="5.7098">
        <ele>216.80000305176</ele>
        <time>2019-05-01T07:44:18.000Z</time>
      </trkpt>
      <trkpt lat="50.50079" lon="5.70979">
        <ele>217</ele>
        <time>2019-05-01T07:44:19.000Z</time>
      </trkpt>
      <trkpt lat="50.50064" lon="5.70987">
        <ele>217.19999694824</ele>
        <time>2019-05-01T07:44:21.000Z</time>
      </trkpt>
      <trkpt lat="50.50045" lon="5.71016">
        <ele>217.19999694824</ele>
        <time>2019-05-01T07:44:24.000Z</time>
      </trkpt>
      <trkpt lat="50.50039" lon="5.71047">
        <ele>217</ele>
        <time>2019-05-01T07:44:25.000Z</time>
      </trkpt>
      <trkpt lat="50.50037" lon="5.71059">
        <ele>216.80000305176</ele>
        <time>2019-05-01T07:44:26.000Z</time>
      </trkpt>
      <trkpt lat="50.50033" lon="5.71102">
        <ele>216.19999694824</ele>
        <time>2019-05-01T07:44:27.000Z</time>
      </trkpt>
      <trkpt lat="50.50033" lon="5.71117">
        <ele>215.80000305176</ele>
        <time>2019-05-01T07:44:31.000Z</time>
      </trkpt>
      <trkpt lat="50.50038" lon="5.71164">
        <ele>214.60000610352</ele>
        <time>2019-05-01T07:44:34.000Z</time>
      </trkpt>
      <trkpt lat="50.50042" lon="5.71195">
        <ele>212.60000610352</ele>
        <time>2019-05-01T07:44:36.000Z</time>
      </trkpt>
      <trkpt lat="50.50044" lon="5.7124">
        <ele>210.80000305176</ele>
        <time>2019-05-01T07:44:37.000Z</time>
      </trkpt>
      <trkpt lat="50.50043" lon="5.71256">
        <ele>210</ele>
        <time>2019-05-01T07:44:43.000Z</time>
      </trkpt>
      <trkpt lat="50.50042" lon="5.71273">
        <ele>209.39999389648</ele>
        <time>2019-05-01T07:44:48.000Z</time>
      </trkpt>
      <trkpt lat="50.5004" lon="5.71309">
        <ele>208.19999694824</ele>
        <time>2019-05-01T07:44:52.000Z</time>
      </trkpt>
      <trkpt lat="50.50037" lon="5.71348">
        <ele>207.39999389648</ele>
        <time>2019-05-01T07:44:55.000Z</time>
      </trkpt>
      <trkpt lat="50.50036" lon="5.71367">
        <ele>206.80000305176</ele>
        <time>2019-05-01T07:44:57.000Z</time>
      </trkpt>
      <trkpt lat="50.50033" lon="5.71421">
        <ele>205.19999694824</ele>
        <time>2019-05-01T07:45:00.000Z</time>
      </trkpt>
      <trkpt lat="50.50032" lon="5.71439">
        <ele>204.19999694824</ele>
        <time>2019-05-01T07:45:06.000Z</time>
      </trkpt>
      <trkpt lat="50.50031" lon="5.71456">
        <ele>203</ele>
        <time>2019-05-01T07:45:09.000Z</time>
      </trkpt>
      <trkpt lat="50.5003" lon="5.71473">
        <ele>201.80000305176</ele>
        <time>2019-05-01T07:45:12.000Z</time>
      </trkpt>
      <trkpt lat="50.50029" lon="5.7149">
        <ele>200.60000610352</ele>
        <time>2019-05-01T07:45:13.000Z</time>
      </trkpt>
      <trkpt lat="50.50025" lon="5.71521">
        <ele>199.39999389648</ele>
        <time>2019-05-01T07:45:16.000Z</time>
      </trkpt>
      <trkpt lat="50.50022" lon="5.71536">
        <ele>199</ele>
        <time>2019-05-01T07:45:17.000Z</time>
      </trkpt>
      <trkpt lat="50.50012" lon="5.71564">
        <ele>197.80000305176</ele>
        <time>2019-05-01T07:45:18.000Z</time>
      </trkpt>
      <trkpt lat="50.49999" lon="5.7159">
        <ele>196.60000610352</ele>
        <time>2019-05-01T07:45:22.000Z</time>
      </trkpt>
      <trkpt lat="50.49977" lon="5.71625">
        <ele>195.60000610352</ele>
        <time>2019-05-01T07:45:23.000Z</time>
      </trkpt>
      <trkpt lat="50.4997" lon="5.71636">
        <ele>195.39999389648</ele>
        <time>2019-05-01T07:45:25.000Z</time>
      </trkpt>
      <trkpt lat="50.49964" lon="5.7165">
        <ele>194.80000305176</ele>
        <time>2019-05-01T07:45:30.000Z</time>
      </trkpt>
      <trkpt lat="50.49958" lon="5.71664">
        <ele>193.80000305176</ele>
        <time>2019-05-01T07:45:32.000Z</time>
      </trkpt>
      <trkpt lat="50.49943" lon="5.71729">
        <ele>192.80000305176</ele>
        <time>2019-05-01T07:45:33.000Z</time>
      </trkpt>
      <trkpt lat="50.49939" lon="5.71746">
        <ele>192.39999389648</ele>
        <time>2019-05-01T07:45:35.000Z</time>
      </trkpt>
      <trkpt lat="50.49926" lon="5.71796">
        <ele>191.19999694824</ele>
        <time>2019-05-01T07:45:36.000Z</time>
      </trkpt>
      <trkpt lat="50.49921" lon="5.71811">
        <ele>190.80000305176</ele>
        <time>2019-05-01T07:45:41.000Z</time>
      </trkpt>
      <trkpt lat="50.49915" lon="5.71827">
        <ele>190.39999389648</ele>
        <time>2019-05-01T07:45:45.000Z</time>
      </trkpt>
      <trkpt lat="50.49901" lon="5.71855">
        <ele>189.60000610352</ele>
        <time>2019-05-01T07:45:46.000Z</time>
      </trkpt>
      <trkpt lat="50.49887" lon="5.71882">
        <ele>188.39999389648</ele>
        <time>2019-05-01T07:45:47.000Z</time>
      </trkpt>
      <trkpt lat="50.49879" lon="5.71896">
        <ele>188</ele>
        <time>2019-05-01T07:45:51.000Z</time>
      </trkpt>
      <trkpt lat="50.49864" lon="5.71921">
        <ele>187.19999694824</ele>
        <time>2019-05-01T07:45:55.000Z</time>
      </trkpt>
      <trkpt lat="50.4985" lon="5.71946">
        <ele>186.19999694824</ele>
        <time>2019-05-01T07:45:56.000Z</time>
      </trkpt>
      <trkpt lat="50.49838" lon="5.71972">
        <ele>185</ele>
        <time>2019-05-01T07:45:58.000Z</time>
      </trkpt>
      <trkpt lat="50.49828" lon="5.71997">
        <ele>183.80000305176</ele>
        <time>2019-05-01T07:46:00.000Z</time>
      </trkpt>
      <trkpt lat="50.49811" lon="5.72033">
        <ele>182.60000610352</ele>
        <time>2019-05-01T07:46:04.000Z</time>
      </trkpt>
      <trkpt lat="50.49806" lon="5.72043">
        <ele>182.19999694824</ele>
        <time>2019-05-01T07:46:06.000Z</time>
      </trkpt>
      <trkpt lat="50.49802" lon="5.72052">
        <ele>181.80000305176</ele>
        <time>2019-05-01T07:46:10.000Z</time>
      </trkpt>
      <trkpt lat="50.49799" lon="5.72061">
        <ele>181</ele>
        <time>2019-05-01T07:46:15.000Z</time>
      </trkpt>
      <trkpt lat="50.49797" lon="5.72068">
        <ele>180.80000305176</ele>
        <time>2019-05-01T07:46:16.000Z</time>
      </trkpt>
      <trkpt lat="50.49783" lon="5.72074">
        <ele>179.80000305176</ele>
        <time>2019-05-01T07:46:19.000Z</time>
      </trkpt>
      <trkpt lat="50.4977" lon="5.72067">
        <ele>179.19999694824</ele>
        <time>2019-05-01T07:46:21.000Z</time>
      </trkpt>
      <trkpt lat="50.49755" lon="5.72063">
        <ele>178.60000610352</ele>
        <time>2019-05-01T07:46:22.000Z</time>
      </trkpt>
      <trkpt lat="50.49739" lon="5.72061">
        <ele>178</ele>
        <time>2019-05-01T07:46:23.000Z</time>
      </trkpt>
      <trkpt lat="50.49721" lon="5.72058">
        <ele>177.39999389648</ele>
        <time>2019-05-01T07:46:24.000Z</time>
      </trkpt>
      <trkpt lat="50.49712" lon="5.72057">
        <ele>177</ele>
        <time>2019-05-01T07:46:27.000Z</time>
      </trkpt>
      <trkpt lat="50.49693" lon="5.72055">
        <ele>176.39999389648</ele>
        <time>2019-05-01T07:46:28.000Z</time>
      </trkpt>
      <trkpt lat="50.49638" lon="5.72051">
        <ele>175.19999694824</ele>
        <time>2019-05-01T07:46:30.000Z</time>
      </trkpt>
      <trkpt lat="50.49582" lon="5.72045">
        <ele>174.19999694824</ele>
        <time>2019-05-01T07:46:32.000Z</time>
      </trkpt>
      <trkpt lat="50.49564" lon="5.72042">
        <ele>173.60000610352</ele>
        <time>2019-05-01T07:46:36.000Z</time>
      </trkpt>
      <trkpt lat="50.49537" lon="5.7204">
        <ele>173.19999694824</ele>
        <time>2019-05-01T07:46:37.000Z</time>
      </trkpt>
      <trkpt lat="50.4948" lon="5.72037">
        <ele>172.39999389648</ele>
        <time>2019-05-01T07:46:41.000Z</time>
      </trkpt>
      <trkpt lat="50.4947" lon="5.72037">
        <ele>172</ele>
        <time>2019-05-01T07:46:42.000Z</time>
      </trkpt>
      <trkpt lat="50.49423" lon="5.72032">
        <ele>171.19999694824</ele>
        <time>2019-05-01T07:46:43.000Z</time>
      </trkpt>
      <trkpt lat="50.49414" lon="5.72032">
        <ele>171</ele>
        <time>2019-05-01T07:46:44.000Z</time>
      </trkpt>
      <trkpt lat="50.49395" lon="5.72031">
        <ele>170.60000610352</ele>
        <time>2019-05-01T07:46:45.000Z</time>
      </trkpt>
      <trkpt lat="50.49367" lon="5.72029">
        <ele>169.80000305176</ele>
        <time>2019-05-01T07:46:47.000Z</time>
      </trkpt>
      <trkpt lat="50.49339" lon="5.72026">
        <ele>169.39999389648</ele>
        <time>2019-05-01T07:46:53.000Z</time>
      </trkpt>
      <trkpt lat="50.49321" lon="5.72025">
        <ele>169</ele>
        <time>2019-05-01T07:46:56.000Z</time>
      </trkpt>
      <trkpt lat="50.49302" lon="5.72025">
        <ele>168.60000610352</ele>
        <time>2019-05-01T07:46:58.000Z</time>
      </trkpt>
      <trkpt lat="50.49254" lon="5.72022">
        <ele>167.60000610352</ele>
        <time>2019-05-01T07:47:01.000Z</time>
      </trkpt>
      <trkpt lat="50.49234" lon="5.72019">
        <ele>167.19999694824</ele>
        <time>2019-05-01T07:47:02.000Z</time>
      </trkpt>
      <trkpt lat="50.49195" lon="5.72016">
        <ele>166.60000610352</ele>
        <time>2019-05-01T07:47:07.000Z</time>
      </trkpt>
      <trkpt lat="50.49185" lon="5.72015">
        <ele>166.60000610352</ele>
        <time>2019-05-01T07:47:08.000Z</time>
      </trkpt>
      <trkpt lat="50.49136" lon="5.72009">
        <ele>165.19999694824</ele>
        <time>2019-05-01T07:47:09.000Z</time>
      </trkpt>
      <trkpt lat="50.4908" lon="5.71993">
        <ele>164.19999694824</ele>
        <time>2019-05-01T07:47:14.000Z</time>
      </trkpt>
      <trkpt lat="50.49071" lon="5.71989">
        <ele>164.19999694824</ele>
        <time>2019-05-01T07:47:17.000Z</time>
      </trkpt>
      <trkpt lat="50.49054" lon="5.71981">
        <ele>163.60000610352</ele>
        <time>2019-05-01T07:47:18.000Z</time>
      </trkpt>
      <trkpt lat="50.49028" lon="5.71968">
        <ele>163.19999694824</ele>
        <time>2019-05-01T07:47:20.000Z</time>
      </trkpt>
      <trkpt lat="50.4898" lon="5.71944">
        <ele>161.80000305176</ele>
        <time>2019-05-01T07:47:22.000Z</time>
      </trkpt>
      <trkpt lat="50.48972" lon="5.7194">
        <ele>161.60000610352</ele>
        <time>2019-05-01T07:47:23.000Z</time>
      </trkpt>
      <trkpt lat="50.48948" lon="5.71928">
        <ele>161.19999694824</ele>
        <time>2019-05-01T07:47:24.000Z</time>
      </trkpt>
      <trkpt lat="50.4892" lon="5.71918">
        <ele>160.80000305176</ele>
        <time>2019-05-01T07:47:27.000Z</time>
      </trkpt>
      <trkpt lat="50.48872" lon="5.71913">
        <ele>160.19999694824</ele>
        <time>2019-05-01T07:47:31.000Z</time>
      </trkpt>
      <trkpt lat="50.48851" lon="5.71915">
        <ele>159.60000610352</ele>
        <time>2019-05-01T07:47:33.000Z</time>
      </trkpt>
      <trkpt lat="50.4882" lon="5.71922">
        <ele>158.60000610352</ele>
        <time>2019-05-01T07:47:36.000Z</time>
      </trkpt>
      <trkpt lat="50.48809" lon="5.71924">
        <ele>158.39999389648</ele>
        <time>2019-05-01T07:47:38.000Z</time>
      </trkpt>
      <trkpt lat="50.48771" lon="5.71935">
        <ele>157.19999694824</ele>
        <time>2019-05-01T07:47:39.000Z</time>
      </trkpt>
      <trkpt lat="50.48761" lon="5.71937">
        <ele>156.80000305176</ele>
        <time>2019-05-01T07:47:41.000Z</time>
      </trkpt>
      <trkpt lat="50.48742" lon="5.71943">
        <ele>156</ele>
        <time>2019-05-01T07:47:43.000Z</time>
      </trkpt>
      <trkpt lat="50.48697" lon="5.71958">
        <ele>154.80000305176</ele>
        <time>2019-05-01T07:47:46.000Z</time>
      </trkpt>
      <trkpt lat="50.48688" lon="5.71961">
        <ele>154.60000610352</ele>
        <time>2019-05-01T07:47:47.000Z</time>
      </trkpt>
      <trkpt lat="50.4866" lon="5.71968">
        <ele>153.60000610352</ele>
        <time>2019-05-01T07:47:50.000Z</time>
      </trkpt>
      <trkpt lat="50.48634" lon="5.71974">
        <ele>153.19999694824</ele>
        <time>2019-05-01T07:47:52.000Z</time>
      </trkpt>
      <trkpt lat="50.48608" lon="5.71978">
        <ele>152.80000305176</ele>
        <time>2019-05-01T07:47:56.000Z</time>
      </trkpt>
      <trkpt lat="50.48598" lon="5.71978">
        <ele>152.60000610352</ele>
        <time>2019-05-01T07:47:57.000Z</time>
      </trkpt>
      <trkpt lat="50.48589" lon="5.71975">
        <ele>152.60000610352</ele>
        <time>2019-05-01T07:48:00.000Z</time>
      </trkpt>
      <trkpt lat="50.48563" lon="5.71959">
        <ele>151.80000305176</ele>
        <time>2019-05-01T07:48:02.000Z</time>
      </trkpt>
      <trkpt lat="50.48547" lon="5.71941">
        <ele>151.39999389648</ele>
        <time>2019-05-01T07:48:03.000Z</time>
      </trkpt>
      <trkpt lat="50.48525" lon="5.71914">
        <ele>151</ele>
        <time>2019-05-01T07:48:05.000Z</time>
      </trkpt>
      <trkpt lat="50.48502" lon="5.71887">
        <ele>150</ele>
        <time>2019-05-01T07:48:06.000Z</time>
      </trkpt>
      <trkpt lat="50.48472" lon="5.71849">
        <ele>148.80000305176</ele>
        <time>2019-05-01T07:48:08.000Z</time>
      </trkpt>
      <trkpt lat="50.4843" lon="5.718">
        <ele>147.80000305176</ele>
        <time>2019-05-01T07:48:09.000Z</time>
      </trkpt>
      <trkpt lat="50.48421" lon="5.7179">
        <ele>147.60000610352</ele>
        <time>2019-05-01T07:48:10.000Z</time>
      </trkpt>
      <trkpt lat="50.48386" lon="5.71749">
        <ele>146.60000610352</ele>
        <time>2019-05-01T07:48:11.000Z</time>
      </trkpt>
      <trkpt lat="50.48368" lon="5.71729">
        <ele>145.19999694824</ele>
        <time>2019-05-01T07:48:14.000Z</time>
      </trkpt>
      <trkpt lat="50.4836" lon="5.71719">
        <ele>144.39999389648</ele>
        <time>2019-05-01T07:48:15.000Z</time>
      </trkpt>
      <trkpt lat="50.48351" lon="5.71709">
        <ele>143.80000305176</ele>
        <time>2019-05-01T07:48:19.000Z</time>
      </trkpt>
      <trkpt lat="50.48334" lon="5.71689">
        <ele>142.80000305176</ele>
        <time>2019-05-01T07:48:21.000Z</time>
      </trkpt>
      <trkpt lat="50.4831" lon="5.71658">
        <ele>141.39999389648</ele>
        <time>2019-05-01T07:48:23.000Z</time>
      </trkpt>
      <trkpt lat="50.48301" lon="5.71646">
        <ele>141</ele>
        <time>2019-05-01T07:48:26.000Z</time>
      </trkpt>
      <trkpt lat="50.48287" lon="5.7162">
        <ele>140.19999694824</ele>
        <time>2019-05-01T07:48:27.000Z</time>
      </trkpt>
      <trkpt lat="50.48281" lon="5.71607">
        <ele>139.80000305176</ele>
        <time>2019-05-01T07:48:29.000Z</time>
      </trkpt>
      <trkpt lat="50.48275" lon="5.71593">
        <ele>139.60000610352</ele>
        <time>2019-05-01T07:48:30.000Z</time>
      </trkpt>
      <trkpt lat="50.48259" lon="5.71551">
        <ele>138.80000305176</ele>
        <time>2019-05-01T07:48:32.000Z</time>
      </trkpt>
      <trkpt lat="50.48253" lon="5.71537">
        <ele>138.19999694824</ele>
        <time>2019-05-01T07:48:33.000Z</time>
      </trkpt>
      <trkpt lat="50.48247" lon="5.71522">
        <ele>137.80000305176</ele>
        <time>2019-05-01T07:48:37.000Z</time>
      </trkpt>
      <trkpt lat="50.4824" lon="5.7151">
        <ele>137.39999389648</ele>
        <time>2019-05-01T07:48:39.000Z</time>
      </trkpt>
      <trkpt lat="50.48224" lon="5.71488">
        <ele>136.60000610352</ele>
        <time>2019-05-01T07:48:40.000Z</time>
      </trkpt>
      <trkpt lat="50.48205" lon="5.71471">
        <ele>135.60000610352</ele>
        <time>2019-05-01T07:48:44.000Z</time>
      </trkpt>
      <trkpt lat="50.48196" lon="5.71464">
        <ele>135</ele>
        <time>2019-05-01T07:48:45.000Z</time>
      </trkpt>
      <trkpt lat="50.48176" lon="5.71453">
        <ele>134</ele>
        <time>2019-05-01T07:48:49.000Z</time>
      </trkpt>
      <trkpt lat="50.48156" lon="5.71443">
        <ele>132.80000305176</ele>
        <time>2019-05-01T07:48:55.000Z</time>
      </trkpt>
      <trkpt lat="50.48147" lon="5.71438">
        <ele>132.60000610352</ele>
        <time>2019-05-01T07:49:02.000Z</time>
      </trkpt>
      <trkpt lat="50.48117" lon="5.71422">
        <ele>131.80000305176</ele>
        <time>2019-05-01T07:49:08.000Z</time>
      </trkpt>
      <trkpt lat="50.48087" lon="5.71401">
        <ele>130.80000305176</ele>
        <time>2019-05-01T07:49:09.000Z</time>
      </trkpt>
      <trkpt lat="50.48077" lon="5.71393">
        <ele>130.60000610352</ele>
        <time>2019-05-01T07:49:15.000Z</time>
      </trkpt>
      <trkpt lat="50.48051" lon="5.7136">
        <ele>129</ele>
        <time>2019-05-01T07:49:16.000Z</time>
      </trkpt>
      <trkpt lat="50.4803" lon="5.71323">
        <ele>127.80000305176</ele>
        <time>2019-05-01T07:49:17.000Z</time>
      </trkpt>
      <trkpt lat="50.48023" lon="5.71309">
        <ele>127.19999694824</ele>
        <time>2019-05-01T07:49:19.000Z</time>
      </trkpt>
      <trkpt lat="50.48017" lon="5.71295">
        <ele>126.59999847412</ele>
        <time>2019-05-01T07:49:20.000Z</time>
      </trkpt>
      <trkpt lat="50.48012" lon="5.7128">
        <ele>126.19999694824</ele>
        <time>2019-05-01T07:49:21.000Z</time>
      </trkpt>
      <trkpt lat="50.48005" lon="5.71252">
        <ele>125.59999847412</ele>
        <time>2019-05-01T07:49:25.000Z</time>
      </trkpt>
      <trkpt lat="50.48003" lon="5.71238">
        <ele>125.40000152588</ele>
        <time>2019-05-01T07:49:27.000Z</time>
      </trkpt>
      <trkpt lat="50.47997" lon="5.71199">
        <ele>124</ele>
        <time>2019-05-01T07:49:30.000Z</time>
      </trkpt>
      <trkpt lat="50.47989" lon="5.71161">
        <ele>123</ele>
        <time>2019-05-01T07:49:32.000Z</time>
      </trkpt>
      <trkpt lat="50.47986" lon="5.71148">
        <ele>122.59999847412</ele>
        <time>2019-05-01T07:49:36.000Z</time>
      </trkpt>
      <trkpt lat="50.47977" lon="5.71131">
        <ele>122</ele>
        <time>2019-05-01T07:49:41.000Z</time>
      </trkpt>
      <trkpt lat="50.47965" lon="5.7113">
        <ele>121.59999847412</ele>
        <time>2019-05-01T07:49:45.000Z</time>
      </trkpt>
      <trkpt lat="50.47954" lon="5.7114">
        <ele>121.19999694824</ele>
        <time>2019-05-01T07:49:48.000Z</time>
      </trkpt>
      <trkpt lat="50.47938" lon="5.71156">
        <ele>121</ele>
        <time>2019-05-01T07:49:49.000Z</time>
      </trkpt>
      <trkpt lat="50.47927" lon="5.71167">
        <ele>120.80000305176</ele>
        <time>2019-05-01T07:49:51.000Z</time>
      </trkpt>
      <trkpt lat="50.4792" lon="5.71171">
        <ele>120.80000305176</ele>
        <time>2019-05-01T07:49:54.000Z</time>
      </trkpt>
      <trkpt lat="50.47907" lon="5.71178">
        <ele>120.80000305176</ele>
        <time>2019-05-01T07:49:55.000Z</time>
      </trkpt>
      <trkpt lat="50.47886" lon="5.71185">
        <ele>120.80000305176</ele>
        <time>2019-05-01T07:49:59.000Z</time>
      </trkpt>
      <trkpt lat="50.47858" lon="5.71199">
        <ele>121</ele>
        <time>2019-05-01T07:50:01.000Z</time>
      </trkpt>
      <trkpt lat="50.47844" lon="5.71208">
        <ele>121</ele>
        <time>2019-05-01T07:50:03.000Z</time>
      </trkpt>
      <trkpt lat="50.4782" lon="5.71228">
        <ele>121.19999694824</ele>
        <time>2019-05-01T07:50:07.000Z</time>
      </trkpt>
      <trkpt lat="50.47803" lon="5.71243">
        <ele>121.19999694824</ele>
        <time>2019-05-01T07:50:08.000Z</time>
      </trkpt>
      <trkpt lat="50.47793" lon="5.71253">
        <ele>121.59999847412</ele>
        <time>2019-05-01T07:50:12.000Z</time>
      </trkpt>
      <trkpt lat="50.47782" lon="5.71262">
        <ele>122</ele>
        <time>2019-05-01T07:50:13.000Z</time>
      </trkpt>
      <trkpt lat="50.47764" lon="5.71274">
        <ele>122.59999847412</ele>
        <time>2019-05-01T07:50:14.000Z</time>
      </trkpt>
      <trkpt lat="50.4775" lon="5.7128">
        <ele>123.19999694824</ele>
        <time>2019-05-01T07:50:16.000Z</time>
      </trkpt>
      <trkpt lat="50.47728" lon="5.71284">
        <ele>123.59999847412</ele>
        <time>2019-05-01T07:50:20.000Z</time>
      </trkpt>
      <trkpt lat="50.47705" lon="5.71283">
        <ele>123.59999847412</ele>
        <time>2019-05-01T07:50:22.000Z</time>
      </trkpt>
      <trkpt lat="50.47691" lon="5.71274">
        <ele>123.59999847412</ele>
        <time>2019-05-01T07:50:25.000Z</time>
      </trkpt>
      <trkpt lat="50.47672" lon="5.71265">
        <ele>123.40000152588</ele>
        <time>2019-05-01T07:50:26.000Z</time>
      </trkpt>
      <trkpt lat="50.47653" lon="5.71272">
        <ele>123.19999694824</ele>
        <time>2019-05-01T07:50:27.000Z</time>
      </trkpt>
      <trkpt lat="50.47617" lon="5.713">
        <ele>123.19999694824</ele>
        <time>2019-05-01T07:50:29.000Z</time>
      </trkpt>
      <trkpt lat="50.47586" lon="5.71327">
        <ele>123.80000305176</ele>
        <time>2019-05-01T07:50:30.000Z</time>
      </trkpt>
      <trkpt lat="50.47575" lon="5.71347">
        <ele>124.40000152588</ele>
        <time>2019-05-01T07:50:33.000Z</time>
      </trkpt>
      <trkpt lat="50.47569" lon="5.71362">
        <ele>124.80000305176</ele>
        <time>2019-05-01T07:50:35.000Z</time>
      </trkpt>
      <trkpt lat="50.4756" lon="5.71384">
        <ele>125.59999847412</ele>
        <time>2019-05-01T07:50:37.000Z</time>
      </trkpt>
      <trkpt lat="50.47552" lon="5.71399">
        <ele>126.59999847412</ele>
        <time>2019-05-01T07:50:39.000Z</time>
      </trkpt>
      <trkpt lat="50.47549" lon="5.71407">
        <ele>127.19999694824</ele>
        <time>2019-05-01T07:50:41.000Z</time>
      </trkpt>
      <trkpt lat="50.47542" lon="5.71424">
        <ele>127.80000305176</ele>
        <time>2019-05-01T07:50:42.000Z</time>
      </trkpt>
      <trkpt lat="50.47526" lon="5.71458">
        <ele>128.39999389648</ele>
        <time>2019-05-01T07:50:44.000Z</time>
      </trkpt>
      <trkpt lat="50.47517" lon="5.71474">
        <ele>128.60000610352</ele>
        <time>2019-05-01T07:50:45.000Z</time>
      </trkpt>
      <trkpt lat="50.47506" lon="5.71487">
        <ele>128.60000610352</ele>
        <time>2019-05-01T07:50:46.000Z</time>
      </trkpt>
      <trkpt lat="50.47471" lon="5.71521">
        <ele>128</ele>
        <time>2019-05-01T07:50:49.000Z</time>
      </trkpt>
      <trkpt lat="50.47436" lon="5.7156">
        <ele>127.40000152588</ele>
        <time>2019-05-01T07:50:50.000Z</time>
      </trkpt>
      <trkpt lat="50.47416" lon="5.71579">
        <ele>127</ele>
        <time>2019-05-01T07:50:54.000Z</time>
      </trkpt>
      <trkpt lat="50.47396" lon="5.71596">
        <ele>126.80000305176</ele>
        <time>2019-05-01T07:50:57.000Z</time>
      </trkpt>
      <trkpt lat="50.47362" lon="5.71631">
        <ele>126.59999847412</ele>
        <time>2019-05-01T07:50:59.000Z</time>
      </trkpt>
      <trkpt lat="50.47337" lon="5.71654">
        <ele>126.59999847412</ele>
        <time>2019-05-01T07:51:00.000Z</time>
      </trkpt>
      <trkpt lat="50.4733" lon="5.7166">
        <ele>126.40000152588</ele>
        <time>2019-05-01T07:51:03.000Z</time>
      </trkpt>
      <trkpt lat="50.47311" lon="5.7168">
        <ele>126.19999694824</ele>
        <time>2019-05-01T07:51:06.000Z</time>
      </trkpt>
      <trkpt lat="50.47298" lon="5.71696">
        <ele>126</ele>
        <time>2019-05-01T07:51:09.000Z</time>
      </trkpt>
      <trkpt lat="50.47269" lon="5.7173">
        <ele>125.80000305176</ele>
        <time>2019-05-01T07:51:11.000Z</time>
      </trkpt>
      <trkpt lat="50.47255" lon="5.71745">
        <ele>125.59999847412</ele>
        <time>2019-05-01T07:51:15.000Z</time>
      </trkpt>
      <trkpt lat="50.47248" lon="5.71752">
        <ele>125.40000152588</ele>
        <time>2019-05-01T07:51:16.000Z</time>
      </trkpt>
      <trkpt lat="50.47239" lon="5.71757">
        <ele>125.40000152588</ele>
        <time>2019-05-01T07:51:20.000Z</time>
      </trkpt>
      <trkpt lat="50.472" lon="5.71776">
        <ele>125.19999694824</ele>
        <time>2019-05-01T07:51:21.000Z</time>
      </trkpt>
      <trkpt lat="50.47185" lon="5.71781">
        <ele>125</ele>
        <time>2019-05-01T07:51:26.000Z</time>
      </trkpt>
      <trkpt lat="50.4717" lon="5.71787">
        <ele>124.80000305176</ele>
        <time>2019-05-01T07:51:31.000Z</time>
      </trkpt>
      <trkpt lat="50.47135" lon="5.718">
        <ele>124.40000152588</ele>
        <time>2019-05-01T07:51:32.000Z</time>
      </trkpt>
      <trkpt lat="50.47099" lon="5.71811">
        <ele>125.19999694824</ele>
        <time>2019-05-01T07:51:37.000Z</time>
      </trkpt>
      <trkpt lat="50.47069" lon="5.71812">
        <ele>126.40000152588</ele>
        <time>2019-05-01T07:51:38.000Z</time>
      </trkpt>
      <trkpt lat="50.47048" lon="5.71807">
        <ele>127.40000152588</ele>
        <time>2019-05-01T07:51:44.000Z</time>
      </trkpt>
      <trkpt lat="50.47042" lon="5.71806">
        <ele>127.80000305176</ele>
        <time>2019-05-01T07:51:45.000Z</time>
      </trkpt>
      <trkpt lat="50.47036" lon="5.71803">
        <ele>128</ele>
        <time>2019-05-01T07:51:49.000Z</time>
      </trkpt>
      <trkpt lat="50.47024" lon="5.71796">
        <ele>128.80000305176</ele>
        <time>2019-05-01T07:51:51.000Z</time>
      </trkpt>
      <trkpt lat="50.47003" lon="5.71784">
        <ele>130</ele>
        <time>2019-05-01T07:51:53.000Z</time>
      </trkpt>
      <trkpt lat="50.46971" lon="5.71769">
        <ele>131</ele>
        <time>2019-05-01T07:51:55.000Z</time>
      </trkpt>
      <trkpt lat="50.46964" lon="5.71766">
        <ele>131</ele>
        <time>2019-05-01T07:51:57.000Z</time>
      </trkpt>
      <trkpt lat="50.46917" lon="5.7174">
        <ele>131.19999694824</ele>
        <time>2019-05-01T07:51:59.000Z</time>
      </trkpt>
      <trkpt lat="50.46886" lon="5.71721">
        <ele>131.39999389648</ele>
        <time>2019-05-01T07:52:00.000Z</time>
      </trkpt>
      <trkpt lat="50.46867" lon="5.71712">
        <ele>131.80000305176</ele>
        <time>2019-05-01T07:52:03.000Z</time>
      </trkpt>
      <trkpt lat="50.46834" lon="5.71698">
        <ele>133</ele>
        <time>2019-05-01T07:52:05.000Z</time>
      </trkpt>
      <trkpt lat="50.46807" lon="5.71688">
        <ele>134</ele>
        <time>2019-05-01T07:52:09.000Z</time>
      </trkpt>
      <trkpt lat="50.46773" lon="5.71673">
        <ele>135</ele>
        <time>2019-05-01T07:52:10.000Z</time>
      </trkpt>
      <trkpt lat="50.46725" lon="5.71651">
        <ele>136</ele>
        <time>2019-05-01T07:52:11.000Z</time>
      </trkpt>
      <trkpt lat="50.46706" lon="5.71642">
        <ele>136</ele>
        <time>2019-05-01T07:52:13.000Z</time>
      </trkpt>
      <trkpt lat="50.46686" lon="5.71632">
        <ele>136.19999694824</ele>
        <time>2019-05-01T07:52:14.000Z</time>
      </trkpt>
      <trkpt lat="50.46629" lon="5.71605">
        <ele>136.80000305176</ele>
        <time>2019-05-01T07:52:15.000Z</time>
      </trkpt>
      <trkpt lat="50.46571" lon="5.71577">
        <ele>136.60000610352</ele>
        <time>2019-05-01T07:52:17.000Z</time>
      </trkpt>
      <trkpt lat="50.46521" lon="5.7155">
        <ele>136.60000610352</ele>
        <time>2019-05-01T07:52:19.000Z</time>
      </trkpt>
      <trkpt lat="50.46473" lon="5.71526">
        <ele>136.60000610352</ele>
        <time>2019-05-01T07:52:20.000Z</time>
      </trkpt>
      <trkpt lat="50.46446" lon="5.71513">
        <ele>137</ele>
        <time>2019-05-01T07:52:21.000Z</time>
      </trkpt>
      <trkpt lat="50.46424" lon="5.71503">
        <ele>137.19999694824</ele>
        <time>2019-05-01T07:52:26.000Z</time>
      </trkpt>
      <trkpt lat="50.46371" lon="5.71478">
        <ele>137.19999694824</ele>
        <time>2019-05-01T07:52:28.000Z</time>
      </trkpt>
      <trkpt lat="50.46322" lon="5.71454">
        <ele>137.19999694824</ele>
        <time>2019-05-01T07:52:30.000Z</time>
      </trkpt>
      <trkpt lat="50.46305" lon="5.71446">
        <ele>136.80000305176</ele>
        <time>2019-05-01T07:52:31.000Z</time>
      </trkpt>
      <trkpt lat="50.46272" lon="5.71431">
        <ele>135.80000305176</ele>
        <time>2019-05-01T07:52:32.000Z</time>
      </trkpt>
      <trkpt lat="50.46255" lon="5.71427">
        <ele>135.19999694824</ele>
        <time>2019-05-01T07:52:33.000Z</time>
      </trkpt>
      <trkpt lat="50.46229" lon="5.71424">
        <ele>134.80000305176</ele>
        <time>2019-05-01T07:52:35.000Z</time>
      </trkpt>
      <trkpt lat="50.46212" lon="5.71426">
        <ele>134.19999694824</ele>
        <time>2019-05-01T07:52:37.000Z</time>
      </trkpt>
      <trkpt lat="50.46196" lon="5.71429">
        <ele>133.60000610352</ele>
        <time>2019-05-01T07:52:39.000Z</time>
      </trkpt>
      <trkpt lat="50.46166" lon="5.71441">
        <ele>132.80000305176</ele>
        <time>2019-05-01T07:52:40.000Z</time>
      </trkpt>
      <trkpt lat="50.4611" lon="5.71475">
        <ele>133</ele>
        <time>2019-05-01T07:52:42.000Z</time>
      </trkpt>
      <trkpt lat="50.46103" lon="5.71479">
        <ele>133.19999694824</ele>
        <time>2019-05-01T07:52:44.000Z</time>
      </trkpt>
      <trkpt lat="50.46055" lon="5.7151">
        <ele>134</ele>
        <time>2019-05-01T07:52:45.000Z</time>
      </trkpt>
      <trkpt lat="50.46006" lon="5.71543">
        <ele>134.19999694824</ele>
        <time>2019-05-01T07:52:49.000Z</time>
      </trkpt>
      <trkpt lat="50.45956" lon="5.71581">
        <ele>134.60000610352</ele>
        <time>2019-05-01T07:52:54.000Z</time>
      </trkpt>
      <trkpt lat="50.45949" lon="5.71587">
        <ele>134.60000610352</ele>
        <time>2019-05-01T07:52:57.000Z</time>
      </trkpt>
      <trkpt lat="50.459" lon="5.71631">
        <ele>134.80000305176</ele>
        <time>2019-05-01T07:52:58.000Z</time>
      </trkpt>
      <trkpt lat="50.45886" lon="5.71644">
        <ele>134.80000305176</ele>
        <time>2019-05-01T07:52:59.000Z</time>
      </trkpt>
      <trkpt lat="50.4584" lon="5.71691">
        <ele>134.60000610352</ele>
        <time>2019-05-01T07:53:02.000Z</time>
      </trkpt>
      <trkpt lat="50.45828" lon="5.71706">
        <ele>134.60000610352</ele>
        <time>2019-05-01T07:53:03.000Z</time>
      </trkpt>
      <trkpt lat="50.45803" lon="5.71748">
        <ele>134.60000610352</ele>
        <time>2019-05-01T07:53:05.000Z</time>
      </trkpt>
      <trkpt lat="50.4578" lon="5.71806">
        <ele>134.80000305176</ele>
        <time>2019-05-01T07:53:07.000Z</time>
      </trkpt>
      <trkpt lat="50.45766" lon="5.71869">
        <ele>135.39999389648</ele>
        <time>2019-05-01T07:53:08.000Z</time>
      </trkpt>
      <trkpt lat="50.45762" lon="5.71913">
        <ele>135.80000305176</ele>
        <time>2019-05-01T07:53:09.000Z</time>
      </trkpt>
      <trkpt lat="50.45762" lon="5.71924">
        <ele>136</ele>
        <time>2019-05-01T07:53:12.000Z</time>
      </trkpt>
      <trkpt lat="50.45762" lon="5.71935">
        <ele>136</ele>
        <time>2019-05-01T07:53:13.000Z</time>
      </trkpt>
      <trkpt lat="50.4577" lon="5.72002">
        <ele>136.60000610352</ele>
        <time>2019-05-01T07:53:14.000Z</time>
      </trkpt>
      <trkpt lat="50.45775" lon="5.72024">
        <ele>136.80000305176</ele>
        <time>2019-05-01T07:53:17.000Z</time>
      </trkpt>
      <trkpt lat="50.45791" lon="5.72076">
        <ele>137.60000610352</ele>
        <time>2019-05-01T07:53:19.000Z</time>
      </trkpt>
      <trkpt lat="50.45801" lon="5.72107">
        <ele>138</ele>
        <time>2019-05-01T07:53:21.000Z</time>
      </trkpt>
      <trkpt lat="50.45817" lon="5.7216">
        <ele>138.19999694824</ele>
        <time>2019-05-01T07:53:22.000Z</time>
      </trkpt>
      <trkpt lat="50.45838" lon="5.72216">
        <ele>138.19999694824</ele>
        <time>2019-05-01T07:53:24.000Z</time>
      </trkpt>
      <trkpt lat="50.45858" lon="5.72257">
        <ele>137.39999389648</ele>
        <time>2019-05-01T07:53:25.000Z</time>
      </trkpt>
      <trkpt lat="50.45869" lon="5.72275">
        <ele>136.80000305176</ele>
        <time>2019-05-01T07:53:29.000Z</time>
      </trkpt>
      <trkpt lat="50.45893" lon="5.72308">
        <ele>135.80000305176</ele>
        <time>2019-05-01T07:53:30.000Z</time>
      </trkpt>
      <trkpt lat="50.45904" lon="5.72322">
        <ele>135.60000610352</ele>
        <time>2019-05-01T07:53:33.000Z</time>
      </trkpt>
      <trkpt lat="50.45942" lon="5.72352">
        <ele>135.60000610352</ele>
        <time>2019-05-01T07:53:38.000Z</time>
      </trkpt>
      <trkpt lat="50.45977" lon="5.7237">
        <ele>136.19999694824</ele>
        <time>2019-05-01T07:53:39.000Z</time>
      </trkpt>
      <trkpt lat="50.46017" lon="5.72383">
        <ele>136.19999694824</ele>
        <time>2019-05-01T07:53:42.000Z</time>
      </trkpt>
      <trkpt lat="50.46025" lon="5.72384">
        <ele>136.19999694824</ele>
        <time>2019-05-01T07:53:45.000Z</time>
      </trkpt>
      <trkpt lat="50.46042" lon="5.7238">
        <ele>136.19999694824</ele>
        <time>2019-05-01T07:53:48.000Z</time>
      </trkpt>
      <trkpt lat="50.46067" lon="5.72367">
        <ele>136.19999694824</ele>
        <time>2019-05-01T07:53:51.000Z</time>
      </trkpt>
      <trkpt lat="50.46074" lon="5.72362">
        <ele>136</ele>
        <time>2019-05-01T07:53:53.000Z</time>
      </trkpt>
      <trkpt lat="50.46082" lon="5.72359">
        <ele>136</ele>
        <time>2019-05-01T07:53:57.000Z</time>
      </trkpt>
      <trkpt lat="50.46102" lon="5.72346">
        <ele>136</ele>
        <time>2019-05-01T07:54:00.000Z</time>
      </trkpt>
      <trkpt lat="50.46136" lon="5.72321">
        <ele>136</ele>
        <time>2019-05-01T07:54:01.000Z</time>
      </trkpt>
      <trkpt lat="50.46179" lon="5.72293">
        <ele>136.60000610352</ele>
        <time>2019-05-01T07:54:05.000Z</time>
      </trkpt>
      <trkpt lat="50.46194" lon="5.72285">
        <ele>136.60000610352</ele>
        <time>2019-05-01T07:54:06.000Z</time>
      </trkpt>
      <trkpt lat="50.46225" lon="5.72274">
        <ele>136.80000305176</ele>
        <time>2019-05-01T07:54:09.000Z</time>
      </trkpt>
      <trkpt lat="50.46265" lon="5.72266">
        <ele>136.80000305176</ele>
        <time>2019-05-01T07:54:12.000Z</time>
      </trkpt>
      <trkpt lat="50.46311" lon="5.72261">
        <ele>136.60000610352</ele>
        <time>2019-05-01T07:54:14.000Z</time>
      </trkpt>
      <trkpt lat="50.46348" lon="5.7226">
        <ele>136.19999694824</ele>
        <time>2019-05-01T07:54:19.000Z</time>
      </trkpt>
      <trkpt lat="50.46393" lon="5.72267">
        <ele>136.39999389648</ele>
        <time>2019-05-01T07:54:24.000Z</time>
      </trkpt>
      <trkpt lat="50.46422" lon="5.72273">
        <ele>137.60000610352</ele>
        <time>2019-05-01T07:54:26.000Z</time>
      </trkpt>
      <trkpt lat="50.46439" lon="5.72278">
        <ele>138.60000610352</ele>
        <time>2019-05-01T07:54:29.000Z</time>
      </trkpt>
      <trkpt lat="50.46455" lon="5.72283">
        <ele>139.80000305176</ele>
        <time>2019-05-01T07:54:33.000Z</time>
      </trkpt>
      <trkpt lat="50.46472" lon="5.72288">
        <ele>141</ele>
        <time>2019-05-01T07:54:34.000Z</time>
      </trkpt>
      <trkpt lat="50.46478" lon="5.7229">
        <ele>141</ele>
        <time>2019-05-01T07:54:37.000Z</time>
      </trkpt>
      <trkpt lat="50.46493" lon="5.72295">
        <ele>142</ele>
        <time>2019-05-01T07:54:40.000Z</time>
      </trkpt>
      <trkpt lat="50.4651" lon="5.723">
        <ele>143.39999389648</ele>
        <time>2019-05-01T07:54:41.000Z</time>
      </trkpt>
      <trkpt lat="50.46516" lon="5.72301">
        <ele>143.80000305176</ele>
        <time>2019-05-01T07:54:46.000Z</time>
      </trkpt>
      <trkpt lat="50.46534" lon="5.72308">
        <ele>144.60000610352</ele>
        <time>2019-05-01T07:54:47.000Z</time>
      </trkpt>
      <trkpt lat="50.46558" lon="5.72316">
        <ele>145.80000305176</ele>
        <time>2019-05-01T07:54:52.000Z</time>
      </trkpt>
      <trkpt lat="50.46575" lon="5.72322">
        <ele>146.60000610352</ele>
        <time>2019-05-01T07:54:57.000Z</time>
      </trkpt>
      <trkpt lat="50.46582" lon="5.72324">
        <ele>147</ele>
        <time>2019-05-01T07:55:01.000Z</time>
      </trkpt>
      <trkpt lat="50.46594" lon="5.72328">
        <ele>147.80000305176</ele>
        <time>2019-05-01T07:55:04.000Z</time>
      </trkpt>
      <trkpt lat="50.46606" lon="5.72332">
        <ele>148.19999694824</ele>
        <time>2019-05-01T07:55:06.000Z</time>
      </trkpt>
      <trkpt lat="50.46623" lon="5.72339">
        <ele>149.39999389648</ele>
        <time>2019-05-01T07:55:09.000Z</time>
      </trkpt>
      <trkpt lat="50.46641" lon="5.72345">
        <ele>149.80000305176</ele>
        <time>2019-05-01T07:55:10.000Z</time>
      </trkpt>
      <trkpt lat="50.46652" lon="5.72349">
        <ele>150.39999389648</ele>
        <time>2019-05-01T07:55:12.000Z</time>
      </trkpt>
      <trkpt lat="50.46679" lon="5.72362">
        <ele>151.60000610352</ele>
        <time>2019-05-01T07:55:13.000Z</time>
      </trkpt>
      <trkpt lat="50.46702" lon="5.72385">
        <ele>152.80000305176</ele>
        <time>2019-05-01T07:55:14.000Z</time>
      </trkpt>
      <trkpt lat="50.46707" lon="5.7239">
        <ele>152.80000305176</ele>
        <time>2019-05-01T07:55:17.000Z</time>
      </trkpt>
      <trkpt lat="50.46732" lon="5.72424">
        <ele>153.60000610352</ele>
        <time>2019-05-01T07:55:19.000Z</time>
      </trkpt>
      <trkpt lat="50.46759" lon="5.72464">
        <ele>153.60000610352</ele>
        <time>2019-05-01T07:55:21.000Z</time>
      </trkpt>
      <trkpt lat="50.46796" lon="5.72519">
        <ele>152.19999694824</ele>
        <time>2019-05-01T07:55:23.000Z</time>
      </trkpt>
      <trkpt lat="50.46807" lon="5.72538">
        <ele>151.39999389648</ele>
        <time>2019-05-01T07:55:25.000Z</time>
      </trkpt>
      <trkpt lat="50.46831" lon="5.72572">
        <ele>150.39999389648</ele>
        <time>2019-05-01T07:55:28.000Z</time>
      </trkpt>
      <trkpt lat="50.46837" lon="5.7258">
        <ele>150.19999694824</ele>
        <time>2019-05-01T07:55:29.000Z</time>
      </trkpt>
      <trkpt lat="50.46873" lon="5.72623">
        <ele>150.19999694824</ele>
        <time>2019-05-01T07:55:33.000Z</time>
      </trkpt>
      <trkpt lat="50.46894" lon="5.72657">
        <ele>150.19999694824</ele>
        <time>2019-05-01T07:55:34.000Z</time>
      </trkpt>
      <trkpt lat="50.46913" lon="5.72704">
        <ele>150.80000305176</ele>
        <time>2019-05-01T07:55:37.000Z</time>
      </trkpt>
      <trkpt lat="50.46927" lon="5.72755">
        <ele>151.60000610352</ele>
        <time>2019-05-01T07:55:38.000Z</time>
      </trkpt>
      <trkpt lat="50.46932" lon="5.72775">
        <ele>152</ele>
        <time>2019-05-01T07:55:39.000Z</time>
      </trkpt>
      <trkpt lat="50.46946" lon="5.72843">
        <ele>152.19999694824</ele>
        <time>2019-05-01T07:55:40.000Z</time>
      </trkpt>
      <trkpt lat="50.46957" lon="5.72905">
        <ele>152.19999694824</ele>
        <time>2019-05-01T07:55:41.000Z</time>
      </trkpt>
      <trkpt lat="50.46959" lon="5.72918">
        <ele>152</ele>
        <time>2019-05-01T07:55:43.000Z</time>
      </trkpt>
      <trkpt lat="50.46963" lon="5.72956">
        <ele>151.60000610352</ele>
        <time>2019-05-01T07:55:46.000Z</time>
      </trkpt>
      <trkpt lat="50.46968" lon="5.72996">
        <ele>151</ele>
        <time>2019-05-01T07:55:47.000Z</time>
      </trkpt>
      <trkpt lat="50.46972" lon="5.73024">
        <ele>150.19999694824</ele>
        <time>2019-05-01T07:55:52.000Z</time>
      </trkpt>
      <trkpt lat="50.46978" lon="5.73084">
        <ele>149.39999389648</ele>
        <time>2019-05-01T07:55:53.000Z</time>
      </trkpt>
      <trkpt lat="50.46981" lon="5.73114">
        <ele>149</ele>
        <time>2019-05-01T07:55:57.000Z</time>
      </trkpt>
      <trkpt lat="50.46984" lon="5.73143">
        <ele>148</ele>
        <time>2019-05-01T07:56:00.000Z</time>
      </trkpt>
      <trkpt lat="50.46988" lon="5.73184">
        <ele>147.39999389648</ele>
        <time>2019-05-01T07:56:02.000Z</time>
      </trkpt>
      <trkpt lat="50.46991" lon="5.73208">
        <ele>147</ele>
        <time>2019-05-01T07:56:07.000Z</time>
      </trkpt>
      <trkpt lat="50.46994" lon="5.73269">
        <ele>146.60000610352</ele>
        <time>2019-05-01T07:56:08.000Z</time>
      </trkpt>
      <trkpt lat="50.46999" lon="5.73316">
        <ele>146.60000610352</ele>
        <time>2019-05-01T07:56:12.000Z</time>
      </trkpt>
      <trkpt lat="50.47001" lon="5.7334">
        <ele>146.60000610352</ele>
        <time>2019-05-01T07:56:13.000Z</time>
      </trkpt>
      <trkpt lat="50.47009" lon="5.73427">
        <ele>147.19999694824</ele>
        <time>2019-05-01T07:56:16.000Z</time>
      </trkpt>
      <trkpt lat="50.47015" lon="5.73506">
        <ele>147.19999694824</ele>
        <time>2019-05-01T07:56:18.000Z</time>
      </trkpt>
      <trkpt lat="50.47022" lon="5.73576">
        <ele>147.19999694824</ele>
        <time>2019-05-01T07:56:20.000Z</time>
      </trkpt>
      <trkpt lat="50.47027" lon="5.73615">
        <ele>146.19999694824</ele>
        <time>2019-05-01T07:56:21.000Z</time>
      </trkpt>
      <trkpt lat="50.47029" lon="5.73627">
        <ele>146</ele>
        <time>2019-05-01T07:56:24.000Z</time>
      </trkpt>
      <trkpt lat="50.47034" lon="5.73679">
        <ele>145.19999694824</ele>
        <time>2019-05-01T07:56:27.000Z</time>
      </trkpt>
      <trkpt lat="50.47036" lon="5.73717">
        <ele>145</ele>
        <time>2019-05-01T07:56:31.000Z</time>
      </trkpt>
      <trkpt lat="50.47039" lon="5.73767">
        <ele>144.60000610352</ele>
        <time>2019-05-01T07:56:32.000Z</time>
      </trkpt>
      <trkpt lat="50.47046" lon="5.73852">
        <ele>144.60000610352</ele>
        <time>2019-05-01T07:56:35.000Z</time>
      </trkpt>
      <trkpt lat="50.47047" lon="5.73864">
        <ele>144.80000305176</ele>
        <time>2019-05-01T07:56:38.000Z</time>
      </trkpt>
      <trkpt lat="50.47048" lon="5.7391">
        <ele>145</ele>
        <time>2019-05-01T07:56:42.000Z</time>
      </trkpt>
      <trkpt lat="50.47047" lon="5.73932">
        <ele>145.19999694824</ele>
        <time>2019-05-01T07:56:46.000Z</time>
      </trkpt>
      <trkpt lat="50.47045" lon="5.73964">
        <ele>145.80000305176</ele>
        <time>2019-05-01T07:56:49.000Z</time>
      </trkpt>
      <trkpt lat="50.47044" lon="5.73975">
        <ele>146.19999694824</ele>
        <time>2019-05-01T07:56:51.000Z</time>
      </trkpt>
      <trkpt lat="50.4704" lon="5.73997">
        <ele>147.19999694824</ele>
        <time>2019-05-01T07:56:52.000Z</time>
      </trkpt>
      <trkpt lat="50.47032" lon="5.74027">
        <ele>148.39999389648</ele>
        <time>2019-05-01T07:56:56.000Z</time>
      </trkpt>
      <trkpt lat="50.47026" lon="5.74049">
        <ele>148.80000305176</ele>
        <time>2019-05-01T07:56:57.000Z</time>
      </trkpt>
      <trkpt lat="50.47018" lon="5.74071">
        <ele>148.80000305176</ele>
        <time>2019-05-01T07:56:58.000Z</time>
      </trkpt>
      <trkpt lat="50.47008" lon="5.74091">
        <ele>149</ele>
        <time>2019-05-01T07:57:01.000Z</time>
      </trkpt>
      <trkpt lat="50.47003" lon="5.741">
        <ele>149</ele>
        <time>2019-05-01T07:57:04.000Z</time>
      </trkpt>
      <trkpt lat="50.46973" lon="5.74153">
        <ele>147.80000305176</ele>
        <time>2019-05-01T07:57:05.000Z</time>
      </trkpt>
      <trkpt lat="50.46968" lon="5.7416">
        <ele>147.19999694824</ele>
        <time>2019-05-01T07:57:07.000Z</time>
      </trkpt>
      <trkpt lat="50.46958" lon="5.74175">
        <ele>146.60000610352</ele>
        <time>2019-05-01T07:57:09.000Z</time>
      </trkpt>
      <trkpt lat="50.46947" lon="5.74193">
        <ele>146</ele>
        <time>2019-05-01T07:57:14.000Z</time>
      </trkpt>
      <trkpt lat="50.46919" lon="5.74236">
        <ele>145.80000305176</ele>
        <time>2019-05-01T07:57:15.000Z</time>
      </trkpt>
      <trkpt lat="50.46878" lon="5.74295">
        <ele>146.80000305176</ele>
        <time>2019-05-01T07:57:19.000Z</time>
      </trkpt>
      <trkpt lat="50.46872" lon="5.74303">
        <ele>147</ele>
        <time>2019-05-01T07:57:20.000Z</time>
      </trkpt>
      <trkpt lat="50.46832" lon="5.74343">
        <ele>147.60000610352</ele>
        <time>2019-05-01T07:57:26.000Z</time>
      </trkpt>
      <trkpt lat="50.46796" lon="5.74365">
        <ele>147.80000305176</ele>
        <time>2019-05-01T07:57:29.000Z</time>
      </trkpt>
      <trkpt lat="50.46749" lon="5.74374">
        <ele>148</ele>
        <time>2019-05-01T07:57:32.000Z</time>
      </trkpt>
      <trkpt lat="50.46692" lon="5.74368">
        <ele>147.80000305176</ele>
        <time>2019-05-01T07:57:39.000Z</time>
      </trkpt>
      <trkpt lat="50.46645" lon="5.74359">
        <ele>147.39999389648</ele>
        <time>2019-05-01T07:57:40.000Z</time>
      </trkpt>
      <trkpt lat="50.46599" lon="5.74349">
        <ele>147.39999389648</ele>
        <time>2019-05-01T07:57:42.000Z</time>
      </trkpt>
      <trkpt lat="50.46542" lon="5.74332">
        <ele>147.60000610352</ele>
        <time>2019-05-01T07:57:44.000Z</time>
      </trkpt>
      <trkpt lat="50.46509" lon="5.74319">
        <ele>148.19999694824</ele>
        <time>2019-05-01T07:57:46.000Z</time>
      </trkpt>
      <trkpt lat="50.46503" lon="5.74316">
        <ele>148.60000610352</ele>
        <time>2019-05-01T07:57:47.000Z</time>
      </trkpt>
      <trkpt lat="50.4648" lon="5.74305">
        <ele>149.39999389648</ele>
        <time>2019-05-01T07:57:49.000Z</time>
      </trkpt>
      <trkpt lat="50.46468" lon="5.74298">
        <ele>150</ele>
        <time>2019-05-01T07:57:52.000Z</time>
      </trkpt>
      <trkpt lat="50.46456" lon="5.7429">
        <ele>150.39999389648</ele>
        <time>2019-05-01T07:57:54.000Z</time>
      </trkpt>
      <trkpt lat="50.46433" lon="5.74274">
        <ele>151.39999389648</ele>
        <time>2019-05-01T07:57:58.000Z</time>
      </trkpt>
      <trkpt lat="50.46427" lon="5.7427">
        <ele>151.60000610352</ele>
        <time>2019-05-01T07:58:00.000Z</time>
      </trkpt>
      <trkpt lat="50.46391" lon="5.74243">
        <ele>152.39999389648</ele>
        <time>2019-05-01T07:58:03.000Z</time>
      </trkpt>
      <trkpt lat="50.46374" lon="5.74231">
        <ele>152.80000305176</ele>
        <time>2019-05-01T07:58:06.000Z</time>
      </trkpt>
      <trkpt lat="50.46356" lon="5.7422">
        <ele>153.19999694824</ele>
        <time>2019-05-01T07:58:09.000Z</time>
      </trkpt>
      <trkpt lat="50.46338" lon="5.7421">
        <ele>154</ele>
        <time>2019-05-01T07:58:12.000Z</time>
      </trkpt>
      <trkpt lat="50.46312" lon="5.74198">
        <ele>154.80000305176</ele>
        <time>2019-05-01T07:58:14.000Z</time>
      </trkpt>
      <trkpt lat="50.46293" lon="5.74187">
        <ele>155.19999694824</ele>
        <time>2019-05-01T07:58:18.000Z</time>
      </trkpt>
      <trkpt lat="50.46259" lon="5.74167">
        <ele>155.60000610352</ele>
        <time>2019-05-01T07:58:22.000Z</time>
      </trkpt>
      <trkpt lat="50.46211" lon="5.74135">
        <ele>155.60000610352</ele>
        <time>2019-05-01T07:58:24.000Z</time>
      </trkpt>
      <trkpt lat="50.46155" lon="5.74101">
        <ele>155.60000610352</ele>
        <time>2019-05-01T07:58:25.000Z</time>
      </trkpt>
      <trkpt lat="50.46141" lon="5.74095">
        <ele>155.39999389648</ele>
        <time>2019-05-01T07:58:27.000Z</time>
      </trkpt>
      <trkpt lat="50.4608" lon="5.74077">
        <ele>155.39999389648</ele>
        <time>2019-05-01T07:58:28.000Z</time>
      </trkpt>
      <trkpt lat="50.46021" lon="5.7406">
        <ele>156</ele>
        <time>2019-05-01T07:58:29.000Z</time>
      </trkpt>
      <trkpt lat="50.46007" lon="5.74056">
        <ele>156.19999694824</ele>
        <time>2019-05-01T07:58:32.000Z</time>
      </trkpt>
      <trkpt lat="50.45971" lon="5.74046">
        <ele>156.39999389648</ele>
        <time>2019-05-01T07:58:38.000Z</time>
      </trkpt>
      <trkpt lat="50.45927" lon="5.74037">
        <ele>157</ele>
        <time>2019-05-01T07:58:44.000Z</time>
      </trkpt>
      <trkpt lat="50.45897" lon="5.74032">
        <ele>157.39999389648</ele>
        <time>2019-05-01T07:58:45.000Z</time>
      </trkpt>
      <trkpt lat="50.45867" lon="5.7403">
        <ele>157.80000305176</ele>
        <time>2019-05-01T07:58:50.000Z</time>
      </trkpt>
      <trkpt lat="50.45806" lon="5.74032">
        <ele>158</ele>
        <time>2019-05-01T07:58:52.000Z</time>
      </trkpt>
      <trkpt lat="50.45747" lon="5.74046">
        <ele>158.39999389648</ele>
        <time>2019-05-01T07:58:58.000Z</time>
      </trkpt>
      <trkpt lat="50.45739" lon="5.74048">
        <ele>158.60000610352</ele>
        <time>2019-05-01T07:58:59.000Z</time>
      </trkpt>
      <trkpt lat="50.45687" lon="5.74064">
        <ele>159.39999389648</ele>
        <time>2019-05-01T07:59:00.000Z</time>
      </trkpt>
      <trkpt lat="50.45673" lon="5.74069">
        <ele>159.60000610352</ele>
        <time>2019-05-01T07:59:05.000Z</time>
      </trkpt>
      <trkpt lat="50.45643" lon="5.74082">
        <ele>160.19999694824</ele>
        <time>2019-05-01T07:59:06.000Z</time>
      </trkpt>
      <trkpt lat="50.45593" lon="5.74103">
        <ele>160.39999389648</ele>
        <time>2019-05-01T07:59:09.000Z</time>
      </trkpt>
      <trkpt lat="50.45558" lon="5.74118">
        <ele>160.19999694824</ele>
        <time>2019-05-01T07:59:11.000Z</time>
      </trkpt>
      <trkpt lat="50.4555" lon="5.74121">
        <ele>160</ele>
        <time>2019-05-01T07:59:12.000Z</time>
      </trkpt>
      <trkpt lat="50.45524" lon="5.74132">
        <ele>159.39999389648</ele>
        <time>2019-05-01T07:59:17.000Z</time>
      </trkpt>
      <trkpt lat="50.45509" lon="5.74139">
        <ele>158.39999389648</ele>
        <time>2019-05-01T07:59:19.000Z</time>
      </trkpt>
      <trkpt lat="50.45502" lon="5.74142">
        <ele>158</ele>
        <time>2019-05-01T07:59:21.000Z</time>
      </trkpt>
      <trkpt lat="50.45451" lon="5.74159">
        <ele>157.80000305176</ele>
        <time>2019-05-01T07:59:24.000Z</time>
      </trkpt>
      <trkpt lat="50.45405" lon="5.74164">
        <ele>158.60000610352</ele>
        <time>2019-05-01T07:59:26.000Z</time>
      </trkpt>
      <trkpt lat="50.45397" lon="5.74164">
        <ele>158.80000305176</ele>
        <time>2019-05-01T07:59:30.000Z</time>
      </trkpt>
      <trkpt lat="50.45374" lon="5.74163">
        <ele>159.60000610352</ele>
        <time>2019-05-01T07:59:31.000Z</time>
      </trkpt>
      <trkpt lat="50.45328" lon="5.74159">
        <ele>160.39999389648</ele>
        <time>2019-05-01T07:59:32.000Z</time>
      </trkpt>
      <trkpt lat="50.45275" lon="5.74151">
        <ele>161.39999389648</ele>
        <time>2019-05-01T07:59:33.000Z</time>
      </trkpt>
      <trkpt lat="50.45245" lon="5.74138">
        <ele>162.60000610352</ele>
        <time>2019-05-01T07:59:36.000Z</time>
      </trkpt>
      <trkpt lat="50.4523" lon="5.74131">
        <ele>162.60000610352</ele>
        <time>2019-05-01T07:59:37.000Z</time>
      </trkpt>
      <trkpt lat="50.45185" lon="5.74101">
        <ele>162.60000610352</ele>
        <time>2019-05-01T07:59:42.000Z</time>
      </trkpt>
      <trkpt lat="50.45148" lon="5.74065">
        <ele>162</ele>
        <time>2019-05-01T07:59:43.000Z</time>
      </trkpt>
      <trkpt lat="50.45111" lon="5.74025">
        <ele>161.39999389648</ele>
        <time>2019-05-01T07:59:46.000Z</time>
      </trkpt>
      <trkpt lat="50.45097" lon="5.74009">
        <ele>160.80000305176</ele>
        <time>2019-05-01T07:59:48.000Z</time>
      </trkpt>
      <trkpt lat="50.45075" lon="5.73984">
        <ele>160.19999694824</ele>
        <time>2019-05-01T07:59:51.000Z</time>
      </trkpt>
      <trkpt lat="50.45047" lon="5.7395">
        <ele>159.19999694824</ele>
        <time>2019-05-01T07:59:53.000Z</time>
      </trkpt>
      <trkpt lat="50.4504" lon="5.73942">
        <ele>159</ele>
        <time>2019-05-01T07:59:54.000Z</time>
      </trkpt>
      <trkpt lat="50.44991" lon="5.7389">
        <ele>159</ele>
        <time>2019-05-01T07:59:56.000Z</time>
      </trkpt>
      <trkpt lat="50.44955" lon="5.73865">
        <ele>159.19999694824</ele>
        <time>2019-05-01T07:59:58.000Z</time>
      </trkpt>
      <trkpt lat="50.44948" lon="5.73862">
        <ele>159.39999389648</ele>
        <time>2019-05-01T08:00:00.000Z</time>
      </trkpt>
      <trkpt lat="50.44917" lon="5.7385">
        <ele>160.39999389648</ele>
        <time>2019-05-01T08:00:01.000Z</time>
      </trkpt>
      <trkpt lat="50.44895" lon="5.73845">
        <ele>161</ele>
        <time>2019-05-01T08:00:03.000Z</time>
      </trkpt>
      <trkpt lat="50.44872" lon="5.73843">
        <ele>161.39999389648</ele>
        <time>2019-05-01T08:00:07.000Z</time>
      </trkpt>
      <trkpt lat="50.44843" lon="5.73843">
        <ele>162</ele>
        <time>2019-05-01T08:00:08.000Z</time>
      </trkpt>
      <trkpt lat="50.44836" lon="5.73844">
        <ele>162.39999389648</ele>
        <time>2019-05-01T08:00:12.000Z</time>
      </trkpt>
      <trkpt lat="50.44802" lon="5.73857">
        <ele>163.60000610352</ele>
        <time>2019-05-01T08:00:13.000Z</time>
      </trkpt>
      <trkpt lat="50.44782" lon="5.73869">
        <ele>164.60000610352</ele>
        <time>2019-05-01T08:00:14.000Z</time>
      </trkpt>
      <trkpt lat="50.44761" lon="5.73879">
        <ele>165.39999389648</ele>
        <time>2019-05-01T08:00:15.000Z</time>
      </trkpt>
      <trkpt lat="50.44741" lon="5.73885">
        <ele>165.60000610352</ele>
        <time>2019-05-01T08:00:19.000Z</time>
      </trkpt>
      <trkpt lat="50.44727" lon="5.73887">
        <ele>166</ele>
        <time>2019-05-01T08:00:20.000Z</time>
      </trkpt>
      <trkpt lat="50.44678" lon="5.73887">
        <ele>166.39999389648</ele>
        <time>2019-05-01T08:00:24.000Z</time>
      </trkpt>
      <trkpt lat="50.44633" lon="5.7388">
        <ele>166.60000610352</ele>
        <time>2019-05-01T08:00:25.000Z</time>
      </trkpt>
      <trkpt lat="50.44626" lon="5.73879">
        <ele>166.80000305176</ele>
        <time>2019-05-01T08:00:29.000Z</time>
      </trkpt>
      <trkpt lat="50.44564" lon="5.73867">
        <ele>167</ele>
        <time>2019-05-01T08:00:33.000Z</time>
      </trkpt>
      <trkpt lat="50.44507" lon="5.73854">
        <ele>167.19999694824</ele>
        <time>2019-05-01T08:00:35.000Z</time>
      </trkpt>
      <trkpt lat="50.44499" lon="5.73852">
        <ele>167.19999694824</ele>
        <time>2019-05-01T08:00:36.000Z</time>
      </trkpt>
      <trkpt lat="50.44441" lon="5.73839">
        <ele>167.19999694824</ele>
        <time>2019-05-01T08:00:37.000Z</time>
      </trkpt>
      <trkpt lat="50.44424" lon="5.73835">
        <ele>167.19999694824</ele>
        <time>2019-05-01T08:00:39.000Z</time>
      </trkpt>
      <trkpt lat="50.44368" lon="5.73825">
        <ele>167</ele>
        <time>2019-05-01T08:00:42.000Z</time>
      </trkpt>
      <trkpt lat="50.44353" lon="5.73822">
        <ele>167.19999694824</ele>
        <time>2019-05-01T08:00:45.000Z</time>
      </trkpt>
      <trkpt lat="50.44302" lon="5.73802">
        <ele>167.60000610352</ele>
        <time>2019-05-01T08:00:47.000Z</time>
      </trkpt>
      <trkpt lat="50.44281" lon="5.73791">
        <ele>168</ele>
        <time>2019-05-01T08:00:50.000Z</time>
      </trkpt>
      <trkpt lat="50.44254" lon="5.73774">
        <ele>168.60000610352</ele>
        <time>2019-05-01T08:00:52.000Z</time>
      </trkpt>
      <trkpt lat="50.44234" lon="5.73762">
        <ele>169.19999694824</ele>
        <time>2019-05-01T08:00:55.000Z</time>
      </trkpt>
      <trkpt lat="50.44208" lon="5.73743">
        <ele>170.19999694824</ele>
        <time>2019-05-01T08:00:56.000Z</time>
      </trkpt>
      <trkpt lat="50.44201" lon="5.73737">
        <ele>170.39999389648</ele>
        <time>2019-05-01T08:00:57.000Z</time>
      </trkpt>
      <trkpt lat="50.44159" lon="5.73706">
        <ele>170.39999389648</ele>
        <time>2019-05-01T08:00:58.000Z</time>
      </trkpt>
      <trkpt lat="50.44115" lon="5.73669">
        <ele>169.80000305176</ele>
        <time>2019-05-01T08:01:02.000Z</time>
      </trkpt>
      <trkpt lat="50.44078" lon="5.73638">
        <ele>169.19999694824</ele>
        <time>2019-05-01T08:01:03.000Z</time>
      </trkpt>
      <trkpt lat="50.44063" lon="5.73627">
        <ele>169</ele>
        <time>2019-05-01T08:01:07.000Z</time>
      </trkpt>
      <trkpt lat="50.44039" lon="5.73612">
        <ele>168.60000610352</ele>
        <time>2019-05-01T08:01:09.000Z</time>
      </trkpt>
      <trkpt lat="50.44008" lon="5.73595">
        <ele>168.19999694824</ele>
        <time>2019-05-01T08:01:11.000Z</time>
      </trkpt>
      <trkpt lat="50.43999" lon="5.73591">
        <ele>168</ele>
        <time>2019-05-01T08:01:12.000Z</time>
      </trkpt>
      <trkpt lat="50.43966" lon="5.73571">
        <ele>167</ele>
        <time>2019-05-01T08:01:15.000Z</time>
      </trkpt>
      <trkpt lat="50.43942" lon="5.73557">
        <ele>166.19999694824</ele>
        <time>2019-05-01T08:01:16.000Z</time>
      </trkpt>
      <trkpt lat="50.43934" lon="5.73553">
        <ele>165.80000305176</ele>
        <time>2019-05-01T08:01:20.000Z</time>
      </trkpt>
      <trkpt lat="50.43888" lon="5.73527">
        <ele>165</ele>
        <time>2019-05-01T08:01:22.000Z</time>
      </trkpt>
      <trkpt lat="50.43844" lon="5.73501">
        <ele>165</ele>
        <time>2019-05-01T08:01:24.000Z</time>
      </trkpt>
      <trkpt lat="50.43799" lon="5.73487">
        <ele>165.39999389648</ele>
        <time>2019-05-01T08:01:25.000Z</time>
      </trkpt>
      <trkpt lat="50.4376" lon="5.73491">
        <ele>166.60000610352</ele>
        <time>2019-05-01T08:01:26.000Z</time>
      </trkpt>
      <trkpt lat="50.43752" lon="5.73494">
        <ele>167</ele>
        <time>2019-05-01T08:01:29.000Z</time>
      </trkpt>
      <trkpt lat="50.43712" lon="5.73514">
        <ele>167.39999389648</ele>
        <time>2019-05-01T08:01:30.000Z</time>
      </trkpt>
      <trkpt lat="50.43674" lon="5.73534">
        <ele>167.80000305176</ele>
        <time>2019-05-01T08:01:34.000Z</time>
      </trkpt>
      <trkpt lat="50.43636" lon="5.73547">
        <ele>168</ele>
        <time>2019-05-01T08:01:36.000Z</time>
      </trkpt>
      <trkpt lat="50.43629" lon="5.73549">
        <ele>168</ele>
        <time>2019-05-01T08:01:37.000Z</time>
      </trkpt>
      <trkpt lat="50.43607" lon="5.73552">
        <ele>168.19999694824</ele>
        <time>2019-05-01T08:01:40.000Z</time>
      </trkpt>
      <trkpt lat="50.43593" lon="5.73553">
        <ele>168.19999694824</ele>
        <time>2019-05-01T08:01:45.000Z</time>
      </trkpt>
      <trkpt lat="50.43549" lon="5.73547">
        <ele>168.19999694824</ele>
        <time>2019-05-01T08:01:46.000Z</time>
      </trkpt>
      <trkpt lat="50.43533" lon="5.73543">
        <ele>168.39999389648</ele>
        <time>2019-05-01T08:01:51.000Z</time>
      </trkpt>
      <trkpt lat="50.43518" lon="5.73537">
        <ele>168.60000610352</ele>
        <time>2019-05-01T08:01:52.000Z</time>
      </trkpt>
      <trkpt lat="50.43496" lon="5.73524">
        <ele>168.60000610352</ele>
        <time>2019-05-01T08:01:56.000Z</time>
      </trkpt>
      <trkpt lat="50.43483" lon="5.73513">
        <ele>169</ele>
        <time>2019-05-01T08:01:58.000Z</time>
      </trkpt>
      <trkpt lat="50.43477" lon="5.73508">
        <ele>168.80000305176</ele>
        <time>2019-05-01T08:02:01.000Z</time>
      </trkpt>
      <trkpt lat="50.43472" lon="5.73503">
        <ele>169</ele>
        <time>2019-05-01T08:02:04.000Z</time>
      </trkpt>
      <trkpt lat="50.43461" lon="5.7349">
        <ele>169.39999389648</ele>
        <time>2019-05-01T08:02:05.000Z</time>
      </trkpt>
      <trkpt lat="50.43454" lon="5.73482">
        <ele>169.60000610352</ele>
        <time>2019-05-01T08:02:09.000Z</time>
      </trkpt>
      <trkpt lat="50.43432" lon="5.73463">
        <ele>169.80000305176</ele>
        <time>2019-05-01T08:02:12.000Z</time>
      </trkpt>
      <trkpt lat="50.43416" lon="5.7345">
        <ele>170</ele>
        <time>2019-05-01T08:02:13.000Z</time>
      </trkpt>
      <trkpt lat="50.43373" lon="5.73419">
        <ele>170.39999389648</ele>
        <time>2019-05-01T08:02:15.000Z</time>
      </trkpt>
      <trkpt lat="50.43317" lon="5.73378">
        <ele>170.80000305176</ele>
        <time>2019-05-01T08:02:19.000Z</time>
      </trkpt>
      <trkpt lat="50.4331" lon="5.73373">
        <ele>170.80000305176</ele>
        <time>2019-05-01T08:02:20.000Z</time>
      </trkpt>
      <trkpt lat="50.43303" lon="5.73368">
        <ele>171</ele>
        <time>2019-05-01T08:02:24.000Z</time>
      </trkpt>
      <trkpt lat="50.43252" lon="5.73338">
        <ele>171.39999389648</ele>
        <time>2019-05-01T08:02:26.000Z</time>
      </trkpt>
      <trkpt lat="50.4323" lon="5.73329">
        <ele>172</ele>
        <time>2019-05-01T08:02:29.000Z</time>
      </trkpt>
      <trkpt lat="50.43207" lon="5.73321">
        <ele>172.19999694824</ele>
        <time>2019-05-01T08:02:34.000Z</time>
      </trkpt>
      <trkpt lat="50.43155" lon="5.73305">
        <ele>173</ele>
        <time>2019-05-01T08:02:35.000Z</time>
      </trkpt>
      <trkpt lat="50.43101" lon="5.73291">
        <ele>173.39999389648</ele>
        <time>2019-05-01T08:02:38.000Z</time>
      </trkpt>
      <trkpt lat="50.43071" lon="5.73283">
        <ele>174.19999694824</ele>
        <time>2019-05-01T08:02:40.000Z</time>
      </trkpt>
      <trkpt lat="50.43033" lon="5.73275">
        <ele>174.80000305176</ele>
        <time>2019-05-01T08:02:43.000Z</time>
      </trkpt>
      <trkpt lat="50.43011" lon="5.7327">
        <ele>175.19999694824</ele>
        <time>2019-05-01T08:02:47.000Z</time>
      </trkpt>
      <trkpt lat="50.42974" lon="5.73265">
        <ele>175.80000305176</ele>
        <time>2019-05-01T08:02:48.000Z</time>
      </trkpt>
      <trkpt lat="50.42952" lon="5.73265">
        <ele>176.19999694824</ele>
        <time>2019-05-01T08:02:53.000Z</time>
      </trkpt>
      <trkpt lat="50.42915" lon="5.73268">
        <ele>176.39999389648</ele>
        <time>2019-05-01T08:02:58.000Z</time>
      </trkpt>
      <trkpt lat="50.42862" lon="5.73284">
        <ele>177.19999694824</ele>
        <time>2019-05-01T08:03:00.000Z</time>
      </trkpt>
      <trkpt lat="50.42854" lon="5.73287">
        <ele>177.19999694824</ele>
        <time>2019-05-01T08:03:03.000Z</time>
      </trkpt>
      <trkpt lat="50.42812" lon="5.7331">
        <ele>178</ele>
        <time>2019-05-01T08:03:06.000Z</time>
      </trkpt>
      <trkpt lat="50.42805" lon="5.73316">
        <ele>178.19999694824</ele>
        <time>2019-05-01T08:03:12.000Z</time>
      </trkpt>
      <trkpt lat="50.42798" lon="5.73321">
        <ele>178.19999694824</ele>
        <time>2019-05-01T08:03:14.000Z</time>
      </trkpt>
      <trkpt lat="50.42785" lon="5.73333">
        <ele>178.39999389648</ele>
        <time>2019-05-01T08:03:19.000Z</time>
      </trkpt>
      <trkpt lat="50.42738" lon="5.7338">
        <ele>179</ele>
        <time>2019-05-01T08:03:27.000Z</time>
      </trkpt>
      <trkpt lat="50.42731" lon="5.73387">
        <ele>179</ele>
        <time>2019-05-01T08:03:29.000Z</time>
      </trkpt>
      <trkpt lat="50.42685" lon="5.73438">
        <ele>179.19999694824</ele>
        <time>2019-05-01T08:03:32.000Z</time>
      </trkpt>
      <trkpt lat="50.42656" lon="5.73481">
        <ele>179.19999694824</ele>
        <time>2019-05-01T08:03:36.000Z</time>
      </trkpt>
      <trkpt lat="50.42645" lon="5.73498">
        <ele>179.39999389648</ele>
        <time>2019-05-01T08:03:40.000Z</time>
      </trkpt>
      <trkpt lat="50.42628" lon="5.73526">
        <ele>179.39999389648</ele>
        <time>2019-05-01T08:03:42.000Z</time>
      </trkpt>
      <trkpt lat="50.42589" lon="5.73589">
        <ele>179.39999389648</ele>
        <time>2019-05-01T08:03:44.000Z</time>
      </trkpt>
      <trkpt lat="50.42583" lon="5.73598">
        <ele>179.39999389648</ele>
        <time>2019-05-01T08:03:45.000Z</time>
      </trkpt>
      <trkpt lat="50.42544" lon="5.73664">
        <ele>179.19999694824</ele>
        <time>2019-05-01T08:03:46.000Z</time>
      </trkpt>
      <trkpt lat="50.42504" lon="5.73733">
        <ele>179</ele>
        <time>2019-05-01T08:03:50.000Z</time>
      </trkpt>
      <trkpt lat="50.42473" lon="5.73795">
        <ele>178.80000305176</ele>
        <time>2019-05-01T08:03:53.000Z</time>
      </trkpt>
      <trkpt lat="50.42444" lon="5.73879">
        <ele>178.19999694824</ele>
        <time>2019-05-01T08:03:57.000Z</time>
      </trkpt>
      <trkpt lat="50.42423" lon="5.73966">
        <ele>177.80000305176</ele>
        <time>2019-05-01T08:03:58.000Z</time>
      </trkpt>
      <trkpt lat="50.42404" lon="5.74042">
        <ele>177.60000610352</ele>
        <time>2019-05-01T08:05:49.000Z</time>
      </trkpt>
      <trkpt lat="50.42399" lon="5.74068">
        <ele>177.39999389648</ele>
        <time>2019-05-01T08:05:50.000Z</time>
      </trkpt>
      <trkpt lat="50.42396" lon="5.7408">
        <ele>177.39999389648</ele>
        <time>2019-05-01T08:05:52.000Z</time>
      </trkpt>
      <trkpt lat="50.42381" lon="5.74169">
        <ele>177.39999389648</ele>
        <time>2019-05-01T08:05:53.000Z</time>
      </trkpt>
      <trkpt lat="50.42372" lon="5.74261">
        <ele>176.60000610352</ele>
        <time>2019-05-01T08:05:58.000Z</time>
      </trkpt>
      <trkpt lat="50.4237" lon="5.74287">
        <ele>176.39999389648</ele>
        <time>2019-05-01T08:06:03.000Z</time>
      </trkpt>
      <trkpt lat="50.42359" lon="5.74378">
        <ele>176</ele>
        <time>2019-05-01T08:06:04.000Z</time>
      </trkpt>
      <trkpt lat="50.42348" lon="5.74459">
        <ele>175.80000305176</ele>
        <time>2019-05-01T08:06:07.000Z</time>
      </trkpt>
      <trkpt lat="50.42332" lon="5.74548">
        <ele>175.60000610352</ele>
        <time>2019-05-01T08:06:09.000Z</time>
      </trkpt>
      <trkpt lat="50.42317" lon="5.74629">
        <ele>175.80000305176</ele>
        <time>2019-05-01T08:06:11.000Z</time>
      </trkpt>
      <trkpt lat="50.42313" lon="5.74651">
        <ele>176</ele>
        <time>2019-05-01T08:06:13.000Z</time>
      </trkpt>
      <trkpt lat="50.423" lon="5.74724">
        <ele>176.80000305176</ele>
        <time>2019-05-01T08:06:15.000Z</time>
      </trkpt>
      <trkpt lat="50.42293" lon="5.74762">
        <ele>177.19999694824</ele>
        <time>2019-05-01T08:06:16.000Z</time>
      </trkpt>
      <trkpt lat="50.42289" lon="5.7479">
        <ele>177.39999389648</ele>
        <time>2019-05-01T08:06:17.000Z</time>
      </trkpt>
      <trkpt lat="50.42285" lon="5.74812">
        <ele>177.39999389648</ele>
        <time>2019-05-01T08:06:19.000Z</time>
      </trkpt>
      <trkpt lat="50.42282" lon="5.74816">
        <ele>177.39999389648</ele>
        <time>2019-05-01T08:06:22.000Z</time>
      </trkpt>
      <trkpt lat="50.42272" lon="5.74818">
        <ele>176.80000305176</ele>
        <time>2019-05-01T08:06:23.000Z</time>
      </trkpt>
      <trkpt lat="50.42266" lon="5.74809">
        <ele>176</ele>
        <time>2019-05-01T08:06:24.000Z</time>
      </trkpt>
      <trkpt lat="50.42266" lon="5.74794">
        <ele>175.39999389648</ele>
        <time>2019-05-01T08:06:26.000Z</time>
      </trkpt>
      <trkpt lat="50.42267" lon="5.74786">
        <ele>175</ele>
        <time>2019-05-01T08:06:28.000Z</time>
      </trkpt>
      <trkpt lat="50.42272" lon="5.74764">
        <ele>174.19999694824</ele>
        <time>2019-05-01T08:06:30.000Z</time>
      </trkpt>
      <trkpt lat="50.42275" lon="5.74749">
        <ele>174</ele>
        <time>2019-05-01T08:06:33.000Z</time>
      </trkpt>
      <trkpt lat="50.42277" lon="5.7473">
        <ele>174</ele>
        <time>2019-05-01T08:06:34.000Z</time>
      </trkpt>
      <trkpt lat="50.42273" lon="5.74719">
        <ele>174.19999694824</ele>
        <time>2019-05-01T08:06:35.000Z</time>
      </trkpt>
      <trkpt lat="50.42268" lon="5.74714">
        <ele>175</ele>
        <time>2019-05-01T08:06:37.000Z</time>
      </trkpt>
      <trkpt lat="50.42266" lon="5.74713">
        <ele>175</ele>
        <time>2019-05-01T08:06:39.000Z</time>
      </trkpt>
      <trkpt lat="50.42264" lon="5.74711">
        <ele>175</ele>
        <time>2019-05-01T08:06:40.000Z</time>
      </trkpt>
      <trkpt lat="50.42257" lon="5.74706">
        <ele>175</ele>
        <time>2019-05-01T08:06:42.000Z</time>
      </trkpt>
      <trkpt lat="50.42238" lon="5.74696">
        <ele>175</ele>
        <time>2019-05-01T08:06:44.000Z</time>
      </trkpt>
      <trkpt lat="50.42214" lon="5.74685">
        <ele>175</ele>
        <time>2019-05-01T08:06:46.000Z</time>
      </trkpt>
      <trkpt lat="50.422" lon="5.74678">
        <ele>175.19999694824</ele>
        <time>2019-05-01T08:06:48.000Z</time>
      </trkpt>
      <trkpt lat="50.42192" lon="5.74672">
        <ele>175.19999694824</ele>
        <time>2019-05-01T08:06:49.000Z</time>
      </trkpt>
      <trkpt lat="50.42171" lon="5.74663">
        <ele>175.19999694824</ele>
        <time>2019-05-01T08:06:50.000Z</time>
      </trkpt>
      <trkpt lat="50.42158" lon="5.74659">
        <ele>175.19999694824</ele>
        <time>2019-05-01T08:06:52.000Z</time>
      </trkpt>
      <trkpt lat="50.42153" lon="5.74658">
        <ele>175.39999389648</ele>
        <time>2019-05-01T08:06:53.000Z</time>
      </trkpt>
      <trkpt lat="50.42133" lon="5.74657">
        <ele>176.19999694824</ele>
        <time>2019-05-01T08:06:54.000Z</time>
      </trkpt>
      <trkpt lat="50.42125" lon="5.74658">
        <ele>176.39999389648</ele>
        <time>2019-05-01T08:06:55.000Z</time>
      </trkpt>
      <trkpt lat="50.42108" lon="5.74662">
        <ele>177.19999694824</ele>
        <time>2019-05-01T08:06:57.000Z</time>
      </trkpt>
      <trkpt lat="50.421" lon="5.74667">
        <ele>177.39999389648</ele>
        <time>2019-05-01T08:06:59.000Z</time>
      </trkpt>
      <trkpt lat="50.42091" lon="5.74673">
        <ele>177.60000610352</ele>
        <time>2019-05-01T08:07:00.000Z</time>
      </trkpt>
      <trkpt lat="50.42068" lon="5.74691">
        <ele>178</ele>
        <time>2019-05-01T08:07:01.000Z</time>
      </trkpt>
      <trkpt lat="50.42046" lon="5.7471">
        <ele>178.19999694824</ele>
        <time>2019-05-01T08:07:02.000Z</time>
      </trkpt>
      <trkpt lat="50.42042" lon="5.74711">
        <ele>178.19999694824</ele>
        <time>2019-05-01T08:07:04.000Z</time>
      </trkpt>
      <trkpt lat="50.42033" lon="5.74717">
        <ele>178.80000305176</ele>
        <time>2019-05-01T08:07:06.000Z</time>
      </trkpt>
      <trkpt lat="50.42025" lon="5.74727">
        <ele>179</ele>
        <time>2019-05-01T08:07:08.000Z</time>
      </trkpt>
      <trkpt lat="50.42017" lon="5.74738">
        <ele>179.39999389648</ele>
        <time>2019-05-01T08:07:15.000Z</time>
      </trkpt>
      <trkpt lat="50.42003" lon="5.74752">
        <ele>179.60000610352</ele>
        <time>2019-05-01T08:07:18.000Z</time>
      </trkpt>
      <trkpt lat="50.41993" lon="5.7476">
        <ele>179.80000305176</ele>
        <time>2019-05-01T08:07:22.000Z</time>
      </trkpt>
      <trkpt lat="50.41988" lon="5.74764">
        <ele>180</ele>
        <time>2019-05-01T08:07:24.000Z</time>
      </trkpt>
      <trkpt lat="50.41968" lon="5.74777">
        <ele>180.39999389648</ele>
        <time>2019-05-01T08:07:28.000Z</time>
      </trkpt>
      <trkpt lat="50.41957" lon="5.74782">
        <ele>180.80000305176</ele>
        <time>2019-05-01T08:07:29.000Z</time>
      </trkpt>
      <trkpt lat="50.41952" lon="5.74785">
        <ele>180.80000305176</ele>
        <time>2019-05-01T08:07:31.000Z</time>
      </trkpt>
      <trkpt lat="50.41924" lon="5.74791">
        <ele>181.80000305176</ele>
        <time>2019-05-01T08:07:34.000Z</time>
      </trkpt>
      <trkpt lat="50.41919" lon="5.74792">
        <ele>182</ele>
        <time>2019-05-01T08:07:35.000Z</time>
      </trkpt>
      <trkpt lat="50.41887" lon="5.74794">
        <ele>183</ele>
        <time>2019-05-01T08:07:36.000Z</time>
      </trkpt>
      <trkpt lat="50.41882" lon="5.74794">
        <ele>183</ele>
        <time>2019-05-01T08:07:38.000Z</time>
      </trkpt>
      <trkpt lat="50.41856" lon="5.74792">
        <ele>184</ele>
        <time>2019-05-01T08:07:40.000Z</time>
      </trkpt>
      <trkpt lat="50.41846" lon="5.7479">
        <ele>184.19999694824</ele>
        <time>2019-05-01T08:07:42.000Z</time>
      </trkpt>
      <trkpt lat="50.41826" lon="5.74784">
        <ele>185</ele>
        <time>2019-05-01T08:07:44.000Z</time>
      </trkpt>
      <trkpt lat="50.41821" lon="5.74781">
        <ele>185.19999694824</ele>
        <time>2019-05-01T08:07:46.000Z</time>
      </trkpt>
      <trkpt lat="50.41812" lon="5.74776">
        <ele>185.80000305176</ele>
        <time>2019-05-01T08:07:48.000Z</time>
      </trkpt>
      <trkpt lat="50.41803" lon="5.7477">
        <ele>186.19999694824</ele>
        <time>2019-05-01T08:07:49.000Z</time>
      </trkpt>
      <trkpt lat="50.41798" lon="5.74767">
        <ele>186.39999389648</ele>
        <time>2019-05-01T08:07:50.000Z</time>
      </trkpt>
      <trkpt lat="50.41786" lon="5.74756">
        <ele>187</ele>
        <time>2019-05-01T08:07:53.000Z</time>
      </trkpt>
      <trkpt lat="50.41782" lon="5.74752">
        <ele>187.19999694824</ele>
        <time>2019-05-01T08:07:54.000Z</time>
      </trkpt>
      <trkpt lat="50.41762" lon="5.74727">
        <ele>187.80000305176</ele>
        <time>2019-05-01T08:07:55.000Z</time>
      </trkpt>
      <trkpt lat="50.41754" lon="5.74716">
        <ele>188.19999694824</ele>
        <time>2019-05-01T08:07:56.000Z</time>
      </trkpt>
      <trkpt lat="50.41731" lon="5.74679">
        <ele>189</ele>
        <time>2019-05-01T08:07:58.000Z</time>
      </trkpt>
      <trkpt lat="50.41716" lon="5.74657">
        <ele>189.19999694824</ele>
        <time>2019-05-01T08:08:00.000Z</time>
      </trkpt>
      <trkpt lat="50.41708" lon="5.74646">
        <ele>189.39999389648</ele>
        <time>2019-05-01T08:08:02.000Z</time>
      </trkpt>
      <trkpt lat="50.41692" lon="5.74628">
        <ele>190</ele>
        <time>2019-05-01T08:08:04.000Z</time>
      </trkpt>
      <trkpt lat="50.41688" lon="5.74624">
        <ele>190.19999694824</ele>
        <time>2019-05-01T08:08:05.000Z</time>
      </trkpt>
      <trkpt lat="50.41664" lon="5.74609">
        <ele>190.39999389648</ele>
        <time>2019-05-01T08:08:06.000Z</time>
      </trkpt>
      <trkpt lat="50.41641" lon="5.74594">
        <ele>191.19999694824</ele>
        <time>2019-05-01T08:08:09.000Z</time>
      </trkpt>
      <trkpt lat="50.41632" lon="5.74591">
        <ele>191.60000610352</ele>
        <time>2019-05-01T08:08:11.000Z</time>
      </trkpt>
      <trkpt lat="50.41618" lon="5.74586">
        <ele>192.19999694824</ele>
        <time>2019-05-01T08:08:12.000Z</time>
      </trkpt>
      <trkpt lat="50.416" lon="5.7458">
        <ele>193</ele>
        <time>2019-05-01T08:08:14.000Z</time>
      </trkpt>
      <trkpt lat="50.41586" lon="5.74577">
        <ele>193.60000610352</ele>
        <time>2019-05-01T08:08:18.000Z</time>
      </trkpt>
      <trkpt lat="50.41572" lon="5.74575">
        <ele>194.19999694824</ele>
        <time>2019-05-01T08:08:20.000Z</time>
      </trkpt>
      <trkpt lat="50.41564" lon="5.74576">
        <ele>194.80000305176</ele>
        <time>2019-05-01T08:08:22.000Z</time>
      </trkpt>
      <trkpt lat="50.41542" lon="5.74575">
        <ele>195.60000610352</ele>
        <time>2019-05-01T08:08:24.000Z</time>
      </trkpt>
      <trkpt lat="50.41534" lon="5.74575">
        <ele>196</ele>
        <time>2019-05-01T08:08:26.000Z</time>
      </trkpt>
      <trkpt lat="50.41517" lon="5.74578">
        <ele>196.80000305176</ele>
        <time>2019-05-01T08:08:30.000Z</time>
      </trkpt>
      <trkpt lat="50.41513" lon="5.74579">
        <ele>196.80000305176</ele>
        <time>2019-05-01T08:08:35.000Z</time>
      </trkpt>
      <trkpt lat="50.41495" lon="5.74585">
        <ele>197.80000305176</ele>
        <time>2019-05-01T08:08:36.000Z</time>
      </trkpt>
      <trkpt lat="50.41491" lon="5.74586">
        <ele>198</ele>
        <time>2019-05-01T08:08:37.000Z</time>
      </trkpt>
      <trkpt lat="50.41487" lon="5.74588">
        <ele>198.19999694824</ele>
        <time>2019-05-01T08:08:38.000Z</time>
      </trkpt>
      <trkpt lat="50.41479" lon="5.74592">
        <ele>198.39999389648</ele>
        <time>2019-05-01T08:08:40.000Z</time>
      </trkpt>
      <trkpt lat="50.4147" lon="5.74596">
        <ele>198.60000610352</ele>
        <time>2019-05-01T08:08:41.000Z</time>
      </trkpt>
      <trkpt lat="50.41466" lon="5.74598">
        <ele>198.80000305176</ele>
        <time>2019-05-01T08:08:44.000Z</time>
      </trkpt>
      <trkpt lat="50.41452" lon="5.74603">
        <ele>199.39999389648</ele>
        <time>2019-05-01T08:08:45.000Z</time>
      </trkpt>
      <trkpt lat="50.41443" lon="5.74606">
        <ele>199.60000610352</ele>
        <time>2019-05-01T08:08:46.000Z</time>
      </trkpt>
      <trkpt lat="50.41438" lon="5.74608">
        <ele>200</ele>
        <time>2019-05-01T08:08:50.000Z</time>
      </trkpt>
      <trkpt lat="50.41415" lon="5.74615">
        <ele>200.80000305176</ele>
        <time>2019-05-01T08:08:51.000Z</time>
      </trkpt>
      <trkpt lat="50.41411" lon="5.74617">
        <ele>201</ele>
        <time>2019-05-01T08:09:00.000Z</time>
      </trkpt>
      <trkpt lat="50.41403" lon="5.74618">
        <ele>201.19999694824</ele>
        <time>2019-05-01T08:09:06.000Z</time>
      </trkpt>
      <trkpt lat="50.41391" lon="5.74619">
        <ele>201.60000610352</ele>
        <time>2019-05-01T08:09:10.000Z</time>
      </trkpt>
      <trkpt lat="50.41387" lon="5.74619">
        <ele>201.80000305176</ele>
        <time>2019-05-01T08:09:13.000Z</time>
      </trkpt>
      <trkpt lat="50.4137" lon="5.74616">
        <ele>202.39999389648</ele>
        <time>2019-05-01T08:09:17.000Z</time>
      </trkpt>
      <trkpt lat="50.41361" lon="5.74613">
        <ele>203</ele>
        <time>2019-05-01T08:09:18.000Z</time>
      </trkpt>
      <trkpt lat="50.41344" lon="5.74608">
        <ele>203.60000610352</ele>
        <time>2019-05-01T08:09:23.000Z</time>
      </trkpt>
      <trkpt lat="50.41336" lon="5.74605">
        <ele>203.80000305176</ele>
        <time>2019-05-01T08:09:24.000Z</time>
      </trkpt>
      <trkpt lat="50.41328" lon="5.74601">
        <ele>204</ele>
        <time>2019-05-01T08:09:27.000Z</time>
      </trkpt>
      <trkpt lat="50.41324" lon="5.74598">
        <ele>204.19999694824</ele>
        <time>2019-05-01T08:09:34.000Z</time>
      </trkpt>
      <trkpt lat="50.41308" lon="5.74585">
        <ele>205.19999694824</ele>
        <time>2019-05-01T08:09:42.000Z</time>
      </trkpt>
      <trkpt lat="50.41298" lon="5.74573">
        <ele>206</ele>
        <time>2019-05-01T08:09:44.000Z</time>
      </trkpt>
      <trkpt lat="50.41295" lon="5.74569">
        <ele>206.19999694824</ele>
        <time>2019-05-01T08:09:50.000Z</time>
      </trkpt>
      <trkpt lat="50.41276" lon="5.74537">
        <ele>207.19999694824</ele>
        <time>2019-05-01T08:09:52.000Z</time>
      </trkpt>
      <trkpt lat="50.4127" lon="5.74527">
        <ele>207.39999389648</ele>
        <time>2019-05-01T08:09:55.000Z</time>
      </trkpt>
      <trkpt lat="50.41266" lon="5.74505">
        <ele>208</ele>
        <time>2019-05-01T08:10:02.000Z</time>
      </trkpt>
      <trkpt lat="50.41265" lon="5.74497">
        <ele>208</ele>
        <time>2019-05-01T08:10:08.000Z</time>
      </trkpt>
      <trkpt lat="50.41265" lon="5.74481">
        <ele>208.39999389648</ele>
        <time>2019-05-01T08:10:11.000Z</time>
      </trkpt>
      <trkpt lat="50.41265" lon="5.74465">
        <ele>208.80000305176</ele>
        <time>2019-05-01T08:10:14.000Z</time>
      </trkpt>
      <trkpt lat="50.4126" lon="5.74437">
        <ele>209</ele>
        <time>2019-05-01T08:10:17.000Z</time>
      </trkpt>
      <trkpt lat="50.41258" lon="5.74431">
        <ele>209.19999694824</ele>
        <time>2019-05-01T08:10:18.000Z</time>
      </trkpt>
      <trkpt lat="50.41251" lon="5.74408">
        <ele>209.80000305176</ele>
        <time>2019-05-01T08:10:19.000Z</time>
      </trkpt>
      <trkpt lat="50.41247" lon="5.74397">
        <ele>210.19999694824</ele>
        <time>2019-05-01T08:17:46.000Z</time>
      </trkpt>
      <trkpt lat="50.41243" lon="5.74389">
        <ele>211.39999389648</ele>
        <time>2019-05-01T08:17:47.000Z</time>
      </trkpt>
      <trkpt lat="50.41239" lon="5.7438">
        <ele>212.39999389648</ele>
        <time>2019-05-01T08:17:48.000Z</time>
      </trkpt>
      <trkpt lat="50.41237" lon="5.74377">
        <ele>212.60000610352</ele>
        <time>2019-05-01T08:17:50.000Z</time>
      </trkpt>
      <trkpt lat="50.41231" lon="5.74364">
        <ele>213.80000305176</ele>
        <time>2019-05-01T08:17:51.000Z</time>
      </trkpt>
      <trkpt lat="50.41227" lon="5.74356">
        <ele>214.60000610352</ele>
        <time>2019-05-01T08:17:54.000Z</time>
      </trkpt>
      <trkpt lat="50.41224" lon="5.74352">
        <ele>215</ele>
        <time>2019-05-01T08:17:56.000Z</time>
      </trkpt>
      <trkpt lat="50.41221" lon="5.74344">
        <ele>215.80000305176</ele>
        <time>2019-05-01T08:18:01.000Z</time>
      </trkpt>
      <trkpt lat="50.41219" lon="5.74338">
        <ele>216.19999694824</ele>
        <time>2019-05-01T08:18:08.000Z</time>
      </trkpt>
      <trkpt lat="50.41216" lon="5.74334">
        <ele>216.60000610352</ele>
        <time>2019-05-01T08:18:14.000Z</time>
      </trkpt>
      <trkpt lat="50.41212" lon="5.74327">
        <ele>217.39999389648</ele>
        <time>2019-05-01T08:18:16.000Z</time>
      </trkpt>
      <trkpt lat="50.41207" lon="5.74316">
        <ele>219</ele>
        <time>2019-05-01T08:18:22.000Z</time>
      </trkpt>
      <trkpt lat="50.41205" lon="5.74311">
        <ele>219.39999389648</ele>
        <time>2019-05-01T08:18:23.000Z</time>
      </trkpt>
      <trkpt lat="50.41202" lon="5.74305">
        <ele>219.80000305176</ele>
        <time>2019-05-01T08:18:24.000Z</time>
      </trkpt>
      <trkpt lat="50.412" lon="5.743">
        <ele>220.19999694824</ele>
        <time>2019-05-01T08:18:27.000Z</time>
      </trkpt>
      <trkpt lat="50.4119" lon="5.74272">
        <ele>220.80000305176</ele>
        <time>2019-05-01T08:18:28.000Z</time>
      </trkpt>
      <trkpt lat="50.41183" lon="5.74248">
        <ele>220.80000305176</ele>
        <time>2019-05-01T08:18:32.000Z</time>
      </trkpt>
      <trkpt lat="50.41178" lon="5.74232">
        <ele>220.80000305176</ele>
        <time>2019-05-01T08:18:34.000Z</time>
      </trkpt>
      <trkpt lat="50.41175" lon="5.74224">
        <ele>220.80000305176</ele>
        <time>2019-05-01T08:18:38.000Z</time>
      </trkpt>
      <trkpt lat="50.41164" lon="5.74185">
        <ele>220.60000610352</ele>
        <time>2019-05-01T08:18:42.000Z</time>
      </trkpt>
      <trkpt lat="50.4115" lon="5.74129">
        <ele>220.39999389648</ele>
        <time>2019-05-01T08:18:47.000Z</time>
      </trkpt>
      <trkpt lat="50.41142" lon="5.74092">
        <ele>220.39999389648</ele>
        <time>2019-05-01T08:18:50.000Z</time>
      </trkpt>
      <trkpt lat="50.41136" lon="5.74065">
        <ele>220.39999389648</ele>
        <time>2019-05-01T08:18:56.000Z</time>
      </trkpt>
      <trkpt lat="50.41132" lon="5.74047">
        <ele>220.39999389648</ele>
        <time>2019-05-01T08:19:00.000Z</time>
      </trkpt>
      <trkpt lat="50.41126" lon="5.7402">
        <ele>220.60000610352</ele>
        <time>2019-05-01T08:19:04.000Z</time>
      </trkpt>
      <trkpt lat="50.4112" lon="5.73973">
        <ele>220.60000610352</ele>
        <time>2019-05-01T08:19:11.000Z</time>
      </trkpt>
      <trkpt lat="50.41115" lon="5.7395">
        <ele>221.19999694824</ele>
        <time>2019-05-01T08:19:17.000Z</time>
      </trkpt>
      <trkpt lat="50.41111" lon="5.73927">
        <ele>221.39999389648</ele>
        <time>2019-05-01T08:19:19.000Z</time>
      </trkpt>
      <trkpt lat="50.4111" lon="5.73919">
        <ele>221.60000610352</ele>
        <time>2019-05-01T08:19:26.000Z</time>
      </trkpt>
      <trkpt lat="50.41105" lon="5.73895">
        <ele>222.19999694824</ele>
        <time>2019-05-01T08:19:35.000Z</time>
      </trkpt>
      <trkpt lat="50.41103" lon="5.73888">
        <ele>222.39999389648</ele>
        <time>2019-05-01T08:19:43.000Z</time>
      </trkpt>
      <trkpt lat="50.41101" lon="5.73881">
        <ele>222.60000610352</ele>
        <time>2019-05-01T08:19:45.000Z</time>
      </trkpt>
      <trkpt lat="50.41096" lon="5.73851">
        <ele>223.19999694824</ele>
        <time>2019-05-01T08:19:52.000Z</time>
      </trkpt>
      <trkpt lat="50.41094" lon="5.73843">
        <ele>223.39999389648</ele>
        <time>2019-05-01T08:19:54.000Z</time>
      </trkpt>
      <trkpt lat="50.41091" lon="5.73829">
        <ele>224</ele>
        <time>2019-05-01T08:20:00.000Z</time>
      </trkpt>
      <trkpt lat="50.4108" lon="5.73793">
        <ele>225</ele>
        <time>2019-05-01T08:20:04.000Z</time>
      </trkpt>
      <trkpt lat="50.41074" lon="5.7378">
        <ele>225.80000305176</ele>
        <time>2019-05-01T08:20:06.000Z</time>
      </trkpt>
      <trkpt lat="50.41072" lon="5.73773">
        <ele>226.19999694824</ele>
        <time>2019-05-01T08:20:12.000Z</time>
      </trkpt>
      <trkpt lat="50.41066" lon="5.7376">
        <ele>226.39999389648</ele>
        <time>2019-05-01T08:20:16.000Z</time>
      </trkpt>
      <trkpt lat="50.41064" lon="5.73754">
        <ele>226.60000610352</ele>
        <time>2019-05-01T08:20:20.000Z</time>
      </trkpt>
      <trkpt lat="50.41054" lon="5.73723">
        <ele>227.39999389648</ele>
        <time>2019-05-01T08:20:22.000Z</time>
      </trkpt>
      <trkpt lat="50.41045" lon="5.73698">
        <ele>228.19999694824</ele>
        <time>2019-05-01T08:20:24.000Z</time>
      </trkpt>
      <trkpt lat="50.41043" lon="5.73692">
        <ele>228.39999389648</ele>
        <time>2019-05-01T08:20:27.000Z</time>
      </trkpt>
      <trkpt lat="50.41041" lon="5.73685">
        <ele>228.60000610352</ele>
        <time>2019-05-01T08:20:30.000Z</time>
      </trkpt>
      <trkpt lat="50.41033" lon="5.73661">
        <ele>230</ele>
        <time>2019-05-01T08:20:31.000Z</time>
      </trkpt>
      <trkpt lat="50.41028" lon="5.73634">
        <ele>230.60000610352</ele>
        <time>2019-05-01T08:20:33.000Z</time>
      </trkpt>
      <trkpt lat="50.41028" lon="5.73628">
        <ele>230.60000610352</ele>
        <time>2019-05-01T08:20:36.000Z</time>
      </trkpt>
      <trkpt lat="50.41027" lon="5.73616">
        <ele>231.19999694824</ele>
        <time>2019-05-01T08:20:37.000Z</time>
      </trkpt>
      <trkpt lat="50.41024" lon="5.73602">
        <ele>231.60000610352</ele>
        <time>2019-05-01T08:20:40.000Z</time>
      </trkpt>
      <trkpt lat="50.4102" lon="5.73575">
        <ele>232.19999694824</ele>
        <time>2019-05-01T08:20:41.000Z</time>
      </trkpt>
      <trkpt lat="50.41019" lon="5.73564">
        <ele>232.80000305176</ele>
        <time>2019-05-01T08:20:43.000Z</time>
      </trkpt>
      <trkpt lat="50.41016" lon="5.73538">
        <ele>233.19999694824</ele>
        <time>2019-05-01T08:20:45.000Z</time>
      </trkpt>
      <trkpt lat="50.41012" lon="5.73508">
        <ele>234.19999694824</ele>
        <time>2019-05-01T08:20:46.000Z</time>
      </trkpt>
      <trkpt lat="50.41012" lon="5.73503">
        <ele>234.39999389648</ele>
        <time>2019-05-01T08:20:49.000Z</time>
      </trkpt>
      <trkpt lat="50.41011" lon="5.73487">
        <ele>235.39999389648</ele>
        <time>2019-05-01T08:20:50.000Z</time>
      </trkpt>
      <trkpt lat="50.4101" lon="5.73475">
        <ele>235.80000305176</ele>
        <time>2019-05-01T08:20:52.000Z</time>
      </trkpt>
      <trkpt lat="50.4101" lon="5.7347">
        <ele>236.39999389648</ele>
        <time>2019-05-01T08:20:54.000Z</time>
      </trkpt>
      <trkpt lat="50.41009" lon="5.73465">
        <ele>236.60000610352</ele>
        <time>2019-05-01T08:20:55.000Z</time>
      </trkpt>
      <trkpt lat="50.41008" lon="5.73459">
        <ele>237</ele>
        <time>2019-05-01T08:20:58.000Z</time>
      </trkpt>
      <trkpt lat="50.41002" lon="5.7344">
        <ele>237.80000305176</ele>
        <time>2019-05-01T08:21:00.000Z</time>
      </trkpt>
      <trkpt lat="50.41" lon="5.73434">
        <ele>238.19999694824</ele>
        <time>2019-05-01T08:21:01.000Z</time>
      </trkpt>
      <trkpt lat="50.40996" lon="5.73424">
        <ele>238.39999389648</ele>
        <time>2019-05-01T08:21:04.000Z</time>
      </trkpt>
      <trkpt lat="50.40992" lon="5.73412">
        <ele>239.19999694824</ele>
        <time>2019-05-01T08:21:07.000Z</time>
      </trkpt>
      <trkpt lat="50.40988" lon="5.73386">
        <ele>240</ele>
        <time>2019-05-01T08:21:09.000Z</time>
      </trkpt>
      <trkpt lat="50.40986" lon="5.73378">
        <ele>240.19999694824</ele>
        <time>2019-05-01T08:21:10.000Z</time>
      </trkpt>
      <trkpt lat="50.40981" lon="5.73349">
        <ele>240.80000305176</ele>
        <time>2019-05-01T08:21:11.000Z</time>
      </trkpt>
      <trkpt lat="50.4098" lon="5.73341">
        <ele>241</ele>
        <time>2019-05-01T08:21:12.000Z</time>
      </trkpt>
      <trkpt lat="50.4098" lon="5.73333">
        <ele>241</ele>
        <time>2019-05-01T08:21:13.000Z</time>
      </trkpt>
      <trkpt lat="50.40979" lon="5.73325">
        <ele>241.19999694824</ele>
        <time>2019-05-01T08:21:14.000Z</time>
      </trkpt>
      <trkpt lat="50.40978" lon="5.73316">
        <ele>241.19999694824</ele>
        <time>2019-05-01T08:21:15.000Z</time>
      </trkpt>
      <trkpt lat="50.40977" lon="5.73299">
        <ele>241.39999389648</ele>
        <time>2019-05-01T08:21:16.000Z</time>
      </trkpt>
      <trkpt lat="50.40975" lon="5.73243">
        <ele>241.80000305176</ele>
        <time>2019-05-01T08:21:18.000Z</time>
      </trkpt>
      <trkpt lat="50.40972" lon="5.73214">
        <ele>241.80000305176</ele>
        <time>2019-05-01T08:21:20.000Z</time>
      </trkpt>
      <trkpt lat="50.40968" lon="5.73195">
        <ele>241.80000305176</ele>
        <time>2019-05-01T08:21:22.000Z</time>
      </trkpt>
      <trkpt lat="50.40963" lon="5.73168">
        <ele>242</ele>
        <time>2019-05-01T08:21:23.000Z</time>
      </trkpt>
      <trkpt lat="50.4096" lon="5.73159">
        <ele>242</ele>
        <time>2019-05-01T08:21:25.000Z</time>
      </trkpt>
      <trkpt lat="50.40947" lon="5.73116">
        <ele>242</ele>
        <time>2019-05-01T08:21:27.000Z</time>
      </trkpt>
      <trkpt lat="50.40943" lon="5.73108">
        <ele>242.19999694824</ele>
        <time>2019-05-01T08:21:29.000Z</time>
      </trkpt>
      <trkpt lat="50.4094" lon="5.731">
        <ele>242.19999694824</ele>
        <time>2019-05-01T08:21:31.000Z</time>
      </trkpt>
      <trkpt lat="50.40926" lon="5.7306">
        <ele>243</ele>
        <time>2019-05-01T08:21:33.000Z</time>
      </trkpt>
      <trkpt lat="50.40916" lon="5.73037">
        <ele>243.39999389648</ele>
        <time>2019-05-01T08:21:36.000Z</time>
      </trkpt>
      <trkpt lat="50.40912" lon="5.73029">
        <ele>243.60000610352</ele>
        <time>2019-05-01T08:21:37.000Z</time>
      </trkpt>
      <trkpt lat="50.40905" lon="5.73014">
        <ele>244.19999694824</ele>
        <time>2019-05-01T08:21:38.000Z</time>
      </trkpt>
      <trkpt lat="50.40899" lon="5.73">
        <ele>244.39999389648</ele>
        <time>2019-05-01T08:21:39.000Z</time>
      </trkpt>
      <trkpt lat="50.40897" lon="5.72994">
        <ele>244.60000610352</ele>
        <time>2019-05-01T08:21:42.000Z</time>
      </trkpt>
      <trkpt lat="50.40895" lon="5.72988">
        <ele>244.80000305176</ele>
        <time>2019-05-01T08:21:45.000Z</time>
      </trkpt>
      <trkpt lat="50.40889" lon="5.72972">
        <ele>245.39999389648</ele>
        <time>2019-05-01T08:21:48.000Z</time>
      </trkpt>
      <trkpt lat="50.4088" lon="5.72953">
        <ele>246.60000610352</ele>
        <time>2019-05-01T08:22:25.000Z</time>
      </trkpt>
      <trkpt lat="50.40875" lon="5.72941">
        <ele>246.80000305176</ele>
        <time>2019-05-01T08:22:29.000Z</time>
      </trkpt>
      <trkpt lat="50.40866" lon="5.72923">
        <ele>247.39999389648</ele>
        <time>2019-05-01T08:22:35.000Z</time>
      </trkpt>
      <trkpt lat="50.4086" lon="5.7291">
        <ele>248.19999694824</ele>
        <time>2019-05-01T08:22:41.000Z</time>
      </trkpt>
      <trkpt lat="50.40857" lon="5.72903">
        <ele>248.60000610352</ele>
        <time>2019-05-01T08:22:42.000Z</time>
      </trkpt>
      <trkpt lat="50.4085" lon="5.7289">
        <ele>249</ele>
        <time>2019-05-01T08:22:45.000Z</time>
      </trkpt>
      <trkpt lat="50.40844" lon="5.72876">
        <ele>249.60000610352</ele>
        <time>2019-05-01T08:22:46.000Z</time>
      </trkpt>
      <trkpt lat="50.40835" lon="5.72856">
        <ele>250.39999389648</ele>
        <time>2019-05-01T08:22:47.000Z</time>
      </trkpt>
      <trkpt lat="50.40832" lon="5.72849">
        <ele>250.80000305176</ele>
        <time>2019-05-01T08:22:50.000Z</time>
      </trkpt>
      <trkpt lat="50.40825" lon="5.72832">
        <ele>251.19999694824</ele>
        <time>2019-05-01T08:22:51.000Z</time>
      </trkpt>
      <trkpt lat="50.40823" lon="5.72823">
        <ele>251.80000305176</ele>
        <time>2019-05-01T08:22:53.000Z</time>
      </trkpt>
      <trkpt lat="50.40816" lon="5.72801">
        <ele>252.80000305176</ele>
        <time>2019-05-01T08:22:55.000Z</time>
      </trkpt>
      <trkpt lat="50.40813" lon="5.72794">
        <ele>253</ele>
        <time>2019-05-01T08:22:57.000Z</time>
      </trkpt>
      <trkpt lat="50.40806" lon="5.72775">
        <ele>253.60000610352</ele>
        <time>2019-05-01T08:22:58.000Z</time>
      </trkpt>
      <trkpt lat="50.40802" lon="5.72761">
        <ele>254.19999694824</ele>
        <time>2019-05-01T08:22:59.000Z</time>
      </trkpt>
      <trkpt lat="50.408" lon="5.72754">
        <ele>254.39999389648</ele>
        <time>2019-05-01T08:23:01.000Z</time>
      </trkpt>
      <trkpt lat="50.40796" lon="5.72739">
        <ele>255</ele>
        <time>2019-05-01T08:23:02.000Z</time>
      </trkpt>
      <trkpt lat="50.40795" lon="5.72732">
        <ele>255.39999389648</ele>
        <time>2019-05-01T08:23:03.000Z</time>
      </trkpt>
      <trkpt lat="50.40791" lon="5.7272">
        <ele>255.80000305176</ele>
        <time>2019-05-01T08:23:05.000Z</time>
      </trkpt>
      <trkpt lat="50.40789" lon="5.72714">
        <ele>256</ele>
        <time>2019-05-01T08:23:07.000Z</time>
      </trkpt>
      <trkpt lat="50.40787" lon="5.72708">
        <ele>256.39999389648</ele>
        <time>2019-05-01T08:23:08.000Z</time>
      </trkpt>
      <trkpt lat="50.40785" lon="5.72702">
        <ele>256.60000610352</ele>
        <time>2019-05-01T08:23:10.000Z</time>
      </trkpt>
      <trkpt lat="50.40777" lon="5.72681">
        <ele>257.60000610352</ele>
        <time>2019-05-01T08:23:11.000Z</time>
      </trkpt>
      <trkpt lat="50.40775" lon="5.72674">
        <ele>257.79998779297</ele>
        <time>2019-05-01T08:23:12.000Z</time>
      </trkpt>
      <trkpt lat="50.40765" lon="5.72647">
        <ele>258.60000610352</ele>
        <time>2019-05-01T08:23:14.000Z</time>
      </trkpt>
      <trkpt lat="50.4076" lon="5.72634">
        <ele>259.20001220703</ele>
        <time>2019-05-01T08:23:16.000Z</time>
      </trkpt>
      <trkpt lat="50.40754" lon="5.72622">
        <ele>259.60000610352</ele>
        <time>2019-05-01T08:23:17.000Z</time>
      </trkpt>
      <trkpt lat="50.40747" lon="5.72603">
        <ele>260.20001220703</ele>
        <time>2019-05-01T08:23:19.000Z</time>
      </trkpt>
      <trkpt lat="50.40744" lon="5.72597">
        <ele>260.20001220703</ele>
        <time>2019-05-01T08:23:22.000Z</time>
      </trkpt>
      <trkpt lat="50.40738" lon="5.72583">
        <ele>260.60000610352</ele>
        <time>2019-05-01T08:23:25.000Z</time>
      </trkpt>
      <trkpt lat="50.40736" lon="5.72575">
        <ele>261</ele>
        <time>2019-05-01T08:23:28.000Z</time>
      </trkpt>
      <trkpt lat="50.40732" lon="5.7256">
        <ele>261.39999389648</ele>
        <time>2019-05-01T08:23:29.000Z</time>
      </trkpt>
      <trkpt lat="50.4073" lon="5.72552">
        <ele>261.60000610352</ele>
        <time>2019-05-01T08:23:34.000Z</time>
      </trkpt>
      <trkpt lat="50.40721" lon="5.72522">
        <ele>262.79998779297</ele>
        <time>2019-05-01T08:23:37.000Z</time>
      </trkpt>
      <trkpt lat="50.40716" lon="5.7251">
        <ele>263.39999389648</ele>
        <time>2019-05-01T08:23:43.000Z</time>
      </trkpt>
      <trkpt lat="50.40713" lon="5.72504">
        <ele>263.79998779297</ele>
        <time>2019-05-01T08:23:45.000Z</time>
      </trkpt>
      <trkpt lat="50.40701" lon="5.7248">
        <ele>265</ele>
        <time>2019-05-01T08:23:49.000Z</time>
      </trkpt>
      <trkpt lat="50.40698" lon="5.72474">
        <ele>265.39999389648</ele>
        <time>2019-05-01T08:23:52.000Z</time>
      </trkpt>
      <trkpt lat="50.40684" lon="5.72449">
        <ele>266.20001220703</ele>
        <time>2019-05-01T08:23:55.000Z</time>
      </trkpt>
      <trkpt lat="50.40663" lon="5.72414">
        <ele>266.60000610352</ele>
        <time>2019-05-01T08:23:58.000Z</time>
      </trkpt>
      <trkpt lat="50.40641" lon="5.72376">
        <ele>267</ele>
        <time>2019-05-01T08:24:03.000Z</time>
      </trkpt>
      <trkpt lat="50.40622" lon="5.72344">
        <ele>268</ele>
        <time>2019-05-01T08:24:07.000Z</time>
      </trkpt>
      <trkpt lat="50.40618" lon="5.72339">
        <ele>268.20001220703</ele>
        <time>2019-05-01T08:24:09.000Z</time>
      </trkpt>
      <trkpt lat="50.40597" lon="5.72314">
        <ele>269.39999389648</ele>
        <time>2019-05-01T08:24:11.000Z</time>
      </trkpt>
      <trkpt lat="50.40593" lon="5.72311">
        <ele>269.39999389648</ele>
        <time>2019-05-01T08:24:12.000Z</time>
      </trkpt>
      <trkpt lat="50.40589" lon="5.72308">
        <ele>269.79998779297</ele>
        <time>2019-05-01T08:24:15.000Z</time>
      </trkpt>
      <trkpt lat="50.4058" lon="5.72303">
        <ele>270.20001220703</ele>
        <time>2019-05-01T08:24:16.000Z</time>
      </trkpt>
      <trkpt lat="50.40576" lon="5.72302">
        <ele>270.39999389648</ele>
        <time>2019-05-01T08:24:21.000Z</time>
      </trkpt>
      <trkpt lat="50.40572" lon="5.72301">
        <ele>270.60000610352</ele>
        <time>2019-05-01T08:24:26.000Z</time>
      </trkpt>
      <trkpt lat="50.40554" lon="5.72301">
        <ele>271.60000610352</ele>
        <time>2019-05-01T08:24:27.000Z</time>
      </trkpt>
      <trkpt lat="50.40545" lon="5.72301">
        <ele>272</ele>
        <time>2019-05-01T08:24:28.000Z</time>
      </trkpt>
      <trkpt lat="50.40535" lon="5.72305">
        <ele>272.60000610352</ele>
        <time>2019-05-01T08:24:32.000Z</time>
      </trkpt>
      <trkpt lat="50.40527" lon="5.72308">
        <ele>273</ele>
        <time>2019-05-01T08:24:34.000Z</time>
      </trkpt>
      <trkpt lat="50.40512" lon="5.72317">
        <ele>274</ele>
        <time>2019-05-01T08:24:36.000Z</time>
      </trkpt>
      <trkpt lat="50.40494" lon="5.72318">
        <ele>275.60000610352</ele>
        <time>2019-05-01T08:24:38.000Z</time>
      </trkpt>
      <trkpt lat="50.4048" lon="5.72314">
        <ele>276.79998779297</ele>
        <time>2019-05-01T08:24:41.000Z</time>
      </trkpt>
      <trkpt lat="50.40471" lon="5.72311">
        <ele>277.79998779297</ele>
        <time>2019-05-01T08:24:43.000Z</time>
      </trkpt>
      <trkpt lat="50.40468" lon="5.72311">
        <ele>278.20001220703</ele>
        <time>2019-05-01T08:24:49.000Z</time>
      </trkpt>
      <trkpt lat="50.40462" lon="5.72307">
        <ele>279.20001220703</ele>
        <time>2019-05-01T08:24:56.000Z</time>
      </trkpt>
      <trkpt lat="50.40453" lon="5.72303">
        <ele>280</ele>
        <time>2019-05-01T08:24:57.000Z</time>
      </trkpt>
      <trkpt lat="50.40449" lon="5.72301">
        <ele>280.39999389648</ele>
        <time>2019-05-01T08:25:04.000Z</time>
      </trkpt>
      <trkpt lat="50.40435" lon="5.72297">
        <ele>281.39999389648</ele>
        <time>2019-05-01T08:25:06.000Z</time>
      </trkpt>
      <trkpt lat="50.4043" lon="5.72296">
        <ele>282</ele>
        <time>2019-05-01T08:25:08.000Z</time>
      </trkpt>
      <trkpt lat="50.40425" lon="5.72296">
        <ele>282.79998779297</ele>
        <time>2019-05-01T08:25:10.000Z</time>
      </trkpt>
      <trkpt lat="50.40413" lon="5.72294">
        <ele>283.60000610352</ele>
        <time>2019-05-01T08:25:14.000Z</time>
      </trkpt>
      <trkpt lat="50.40409" lon="5.72293">
        <ele>283.79998779297</ele>
        <time>2019-05-01T08:25:16.000Z</time>
      </trkpt>
      <trkpt lat="50.40393" lon="5.72291">
        <ele>285.20001220703</ele>
        <time>2019-05-01T08:25:18.000Z</time>
      </trkpt>
      <trkpt lat="50.40389" lon="5.72291">
        <ele>285.39999389648</ele>
        <time>2019-05-01T08:25:21.000Z</time>
      </trkpt>
      <trkpt lat="50.40386" lon="5.7229">
        <ele>285.79998779297</ele>
        <time>2019-05-01T08:25:24.000Z</time>
      </trkpt>
      <trkpt lat="50.40378" lon="5.72287">
        <ele>286.39999389648</ele>
        <time>2019-05-01T08:25:26.000Z</time>
      </trkpt>
      <trkpt lat="50.40364" lon="5.72285">
        <ele>287.60000610352</ele>
        <time>2019-05-01T08:25:28.000Z</time>
      </trkpt>
      <trkpt lat="50.40357" lon="5.72283">
        <ele>288</ele>
        <time>2019-05-01T08:25:29.000Z</time>
      </trkpt>
      <trkpt lat="50.40347" lon="5.72279">
        <ele>288.79998779297</ele>
        <time>2019-05-01T08:25:30.000Z</time>
      </trkpt>
      <trkpt lat="50.40344" lon="5.72278">
        <ele>289</ele>
        <time>2019-05-01T08:25:34.000Z</time>
      </trkpt>
      <trkpt lat="50.40341" lon="5.72277">
        <ele>289.39999389648</ele>
        <time>2019-05-01T08:25:36.000Z</time>
      </trkpt>
      <trkpt lat="50.40335" lon="5.72273">
        <ele>290</ele>
        <time>2019-05-01T08:25:37.000Z</time>
      </trkpt>
      <trkpt lat="50.40332" lon="5.72272">
        <ele>290.39999389648</ele>
        <time>2019-05-01T08:25:40.000Z</time>
      </trkpt>
      <trkpt lat="50.40322" lon="5.7227">
        <ele>291</ele>
        <time>2019-05-01T08:25:41.000Z</time>
      </trkpt>
      <trkpt lat="50.40314" lon="5.72268">
        <ele>291.60000610352</ele>
        <time>2019-05-01T08:25:42.000Z</time>
      </trkpt>
      <trkpt lat="50.40307" lon="5.72267">
        <ele>292</ele>
        <time>2019-05-01T08:25:44.000Z</time>
      </trkpt>
      <trkpt lat="50.40299" lon="5.72266">
        <ele>292.60000610352</ele>
        <time>2019-05-01T08:25:45.000Z</time>
      </trkpt>
      <trkpt lat="50.4029" lon="5.72265">
        <ele>293</ele>
        <time>2019-05-01T08:25:46.000Z</time>
      </trkpt>
      <trkpt lat="50.40286" lon="5.72265">
        <ele>293.20001220703</ele>
        <time>2019-05-01T08:25:48.000Z</time>
      </trkpt>
      <trkpt lat="50.40277" lon="5.72261">
        <ele>293.60000610352</ele>
        <time>2019-05-01T08:25:49.000Z</time>
      </trkpt>
      <trkpt lat="50.40274" lon="5.72259">
        <ele>293.79998779297</ele>
        <time>2019-05-01T08:25:50.000Z</time>
      </trkpt>
      <trkpt lat="50.4027" lon="5.72258">
        <ele>293.79998779297</ele>
        <time>2019-05-01T08:25:52.000Z</time>
      </trkpt>
      <trkpt lat="50.40259" lon="5.72255">
        <ele>294.20001220703</ele>
        <time>2019-05-01T08:25:53.000Z</time>
      </trkpt>
      <trkpt lat="50.40255" lon="5.72254">
        <ele>294.39999389648</ele>
        <time>2019-05-01T08:25:54.000Z</time>
      </trkpt>
      <trkpt lat="50.40236" lon="5.72247">
        <ele>295</ele>
        <time>2019-05-01T08:25:55.000Z</time>
      </trkpt>
      <trkpt lat="50.40222" lon="5.72243">
        <ele>295</ele>
        <time>2019-05-01T08:25:56.000Z</time>
      </trkpt>
      <trkpt lat="50.40213" lon="5.72239">
        <ele>295.20001220703</ele>
        <time>2019-05-01T08:25:58.000Z</time>
      </trkpt>
      <trkpt lat="50.40208" lon="5.72236">
        <ele>295.20001220703</ele>
        <time>2019-05-01T08:25:59.000Z</time>
      </trkpt>
      <trkpt lat="50.40196" lon="5.72229">
        <ele>295.39999389648</ele>
        <time>2019-05-01T08:26:00.000Z</time>
      </trkpt>
      <trkpt lat="50.40183" lon="5.7222">
        <ele>295.60000610352</ele>
        <time>2019-05-01T08:26:02.000Z</time>
      </trkpt>
      <trkpt lat="50.40169" lon="5.72209">
        <ele>295.60000610352</ele>
        <time>2019-05-01T08:26:04.000Z</time>
      </trkpt>
      <trkpt lat="50.4016" lon="5.72202">
        <ele>295.79998779297</ele>
        <time>2019-05-01T08:26:06.000Z</time>
      </trkpt>
      <trkpt lat="50.40141" lon="5.72187">
        <ele>296.20001220703</ele>
        <time>2019-05-01T08:26:07.000Z</time>
      </trkpt>
      <trkpt lat="50.40137" lon="5.72183">
        <ele>296.39999389648</ele>
        <time>2019-05-01T08:26:08.000Z</time>
      </trkpt>
      <trkpt lat="50.40121" lon="5.72164">
        <ele>297</ele>
        <time>2019-05-01T08:26:09.000Z</time>
      </trkpt>
      <trkpt lat="50.40117" lon="5.72159">
        <ele>297</ele>
        <time>2019-05-01T08:26:11.000Z</time>
      </trkpt>
      <trkpt lat="50.401" lon="5.72127">
        <ele>297.39999389648</ele>
        <time>2019-05-01T08:26:12.000Z</time>
      </trkpt>
      <trkpt lat="50.40082" lon="5.72096">
        <ele>298.39999389648</ele>
        <time>2019-05-01T08:26:13.000Z</time>
      </trkpt>
      <trkpt lat="50.40079" lon="5.7209">
        <ele>298.60000610352</ele>
        <time>2019-05-01T08:26:15.000Z</time>
      </trkpt>
      <trkpt lat="50.40063" lon="5.7206">
        <ele>299.60000610352</ele>
        <time>2019-05-01T08:26:16.000Z</time>
      </trkpt>
      <trkpt lat="50.4006" lon="5.72054">
        <ele>299.79998779297</ele>
        <time>2019-05-01T08:26:17.000Z</time>
      </trkpt>
      <trkpt lat="50.40043" lon="5.72018">
        <ele>301</ele>
        <time>2019-05-01T08:26:19.000Z</time>
      </trkpt>
      <trkpt lat="50.4004" lon="5.72012">
        <ele>301.20001220703</ele>
        <time>2019-05-01T08:26:20.000Z</time>
      </trkpt>
      <trkpt lat="50.40032" lon="5.71995">
        <ele>302.20001220703</ele>
        <time>2019-05-01T08:26:21.000Z</time>
      </trkpt>
      <trkpt lat="50.40025" lon="5.7198">
        <ele>302.60000610352</ele>
        <time>2019-05-01T08:26:22.000Z</time>
      </trkpt>
      <trkpt lat="50.40021" lon="5.7197">
        <ele>303.20001220703</ele>
        <time>2019-05-01T08:26:23.000Z</time>
      </trkpt>
      <trkpt lat="50.40016" lon="5.71962">
        <ele>303.79998779297</ele>
        <time>2019-05-01T08:26:24.000Z</time>
      </trkpt>
      <trkpt lat="50.40011" lon="5.71954">
        <ele>304.60000610352</ele>
        <time>2019-05-01T08:26:25.000Z</time>
      </trkpt>
      <trkpt lat="50.40006" lon="5.71947">
        <ele>305.20001220703</ele>
        <time>2019-05-01T08:26:27.000Z</time>
      </trkpt>
      <trkpt lat="50.40003" lon="5.71942">
        <ele>305.79998779297</ele>
        <time>2019-05-01T08:26:30.000Z</time>
      </trkpt>
      <trkpt lat="50.39994" lon="5.7193">
        <ele>307</ele>
        <time>2019-05-01T08:26:34.000Z</time>
      </trkpt>
      <trkpt lat="50.39988" lon="5.71921">
        <ele>308.20001220703</ele>
        <time>2019-05-01T08:26:36.000Z</time>
      </trkpt>
      <trkpt lat="50.39974" lon="5.71904">
        <ele>309.39999389648</ele>
        <time>2019-05-01T08:26:38.000Z</time>
      </trkpt>
      <trkpt lat="50.39971" lon="5.71899">
        <ele>309.60000610352</ele>
        <time>2019-05-01T08:26:39.000Z</time>
      </trkpt>
      <trkpt lat="50.39968" lon="5.71896">
        <ele>309.79998779297</ele>
        <time>2019-05-01T08:26:40.000Z</time>
      </trkpt>
      <trkpt lat="50.39962" lon="5.71889">
        <ele>310.60000610352</ele>
        <time>2019-05-01T08:26:42.000Z</time>
      </trkpt>
      <trkpt lat="50.39959" lon="5.71884">
        <ele>311</ele>
        <time>2019-05-01T08:26:44.000Z</time>
      </trkpt>
      <trkpt lat="50.39955" lon="5.71881">
        <ele>311.60000610352</ele>
        <time>2019-05-01T08:26:47.000Z</time>
      </trkpt>
      <trkpt lat="50.39949" lon="5.71873">
        <ele>312.20001220703</ele>
        <time>2019-05-01T08:26:51.000Z</time>
      </trkpt>
      <trkpt lat="50.39942" lon="5.71866">
        <ele>312.39999389648</ele>
        <time>2019-05-01T08:26:53.000Z</time>
      </trkpt>
      <trkpt lat="50.39939" lon="5.71862">
        <ele>312.79998779297</ele>
        <time>2019-05-01T08:26:54.000Z</time>
      </trkpt>
      <trkpt lat="50.39936" lon="5.71858">
        <ele>313.20001220703</ele>
        <time>2019-05-01T08:26:56.000Z</time>
      </trkpt>
      <trkpt lat="50.39921" lon="5.7184">
        <ele>314.39999389648</ele>
        <time>2019-05-01T08:26:57.000Z</time>
      </trkpt>
      <trkpt lat="50.39914" lon="5.71832">
        <ele>314.79998779297</ele>
        <time>2019-05-01T08:27:01.000Z</time>
      </trkpt>
      <trkpt lat="50.39907" lon="5.71826">
        <ele>315.39999389648</ele>
        <time>2019-05-01T08:27:02.000Z</time>
      </trkpt>
      <trkpt lat="50.39904" lon="5.71822">
        <ele>315.60000610352</ele>
        <time>2019-05-01T08:27:03.000Z</time>
      </trkpt>
      <trkpt lat="50.399" lon="5.71819">
        <ele>315.79998779297</ele>
        <time>2019-05-01T08:27:05.000Z</time>
      </trkpt>
      <trkpt lat="50.39896" lon="5.71815">
        <ele>316</ele>
        <time>2019-05-01T08:27:08.000Z</time>
      </trkpt>
      <trkpt lat="50.39889" lon="5.71807">
        <ele>316.79998779297</ele>
        <time>2019-05-01T08:27:09.000Z</time>
      </trkpt>
      <trkpt lat="50.39882" lon="5.71798">
        <ele>317.39999389648</ele>
        <time>2019-05-01T08:27:13.000Z</time>
      </trkpt>
      <trkpt lat="50.39875" lon="5.71791">
        <ele>318</ele>
        <time>2019-05-01T08:27:14.000Z</time>
      </trkpt>
      <trkpt lat="50.39872" lon="5.71788">
        <ele>318.20001220703</ele>
        <time>2019-05-01T08:27:16.000Z</time>
      </trkpt>
      <trkpt lat="50.39864" lon="5.7178">
        <ele>318.60000610352</ele>
        <time>2019-05-01T08:27:18.000Z</time>
      </trkpt>
      <trkpt lat="50.39856" lon="5.71772">
        <ele>319.20001220703</ele>
        <time>2019-05-01T08:27:21.000Z</time>
      </trkpt>
      <trkpt lat="50.39853" lon="5.71769">
        <ele>319.39999389648</ele>
        <time>2019-05-01T08:27:26.000Z</time>
      </trkpt>
      <trkpt lat="50.39841" lon="5.71754">
        <ele>320.39999389648</ele>
        <time>2019-05-01T08:27:28.000Z</time>
      </trkpt>
      <trkpt lat="50.39823" lon="5.71734">
        <ele>322</ele>
        <time>2019-05-01T08:27:30.000Z</time>
      </trkpt>
      <trkpt lat="50.3981" lon="5.71727">
        <ele>322.79998779297</ele>
        <time>2019-05-01T08:27:32.000Z</time>
      </trkpt>
      <trkpt lat="50.39806" lon="5.71726">
        <ele>323.20001220703</ele>
        <time>2019-05-01T08:27:33.000Z</time>
      </trkpt>
      <trkpt lat="50.39801" lon="5.71726">
        <ele>323.60000610352</ele>
        <time>2019-05-01T08:27:35.000Z</time>
      </trkpt>
      <trkpt lat="50.39787" lon="5.71731">
        <ele>324.20001220703</ele>
        <time>2019-05-01T08:27:39.000Z</time>
      </trkpt>
      <trkpt lat="50.39783" lon="5.71734">
        <ele>324.79998779297</ele>
        <time>2019-05-01T08:27:43.000Z</time>
      </trkpt>
      <trkpt lat="50.39776" lon="5.71742">
        <ele>325.20001220703</ele>
        <time>2019-05-01T08:27:47.000Z</time>
      </trkpt>
      <trkpt lat="50.39771" lon="5.71752">
        <ele>325.60000610352</ele>
        <time>2019-05-01T08:27:49.000Z</time>
      </trkpt>
      <trkpt lat="50.39768" lon="5.71757">
        <ele>325.79998779297</ele>
        <time>2019-05-01T08:27:50.000Z</time>
      </trkpt>
      <trkpt lat="50.39766" lon="5.71761">
        <ele>326</ele>
        <time>2019-05-01T08:27:53.000Z</time>
      </trkpt>
      <trkpt lat="50.39764" lon="5.71777">
        <ele>326.39999389648</ele>
        <time>2019-05-01T08:27:56.000Z</time>
      </trkpt>
      <trkpt lat="50.39765" lon="5.71783">
        <ele>326.60000610352</ele>
        <time>2019-05-01T08:27:57.000Z</time>
      </trkpt>
      <trkpt lat="50.39765" lon="5.71789">
        <ele>326.79998779297</ele>
        <time>2019-05-01T08:27:59.000Z</time>
      </trkpt>
      <trkpt lat="50.39766" lon="5.71806">
        <ele>327.60000610352</ele>
        <time>2019-05-01T08:28:00.000Z</time>
      </trkpt>
      <trkpt lat="50.39768" lon="5.71814">
        <ele>328</ele>
        <time>2019-05-01T08:28:02.000Z</time>
      </trkpt>
      <trkpt lat="50.39769" lon="5.71823">
        <ele>328.60000610352</ele>
        <time>2019-05-01T08:28:03.000Z</time>
      </trkpt>
      <trkpt lat="50.3977" lon="5.71828">
        <ele>328.79998779297</ele>
        <time>2019-05-01T08:28:06.000Z</time>
      </trkpt>
      <trkpt lat="50.39771" lon="5.71839">
        <ele>329.39999389648</ele>
        <time>2019-05-01T08:28:07.000Z</time>
      </trkpt>
      <trkpt lat="50.39772" lon="5.71845">
        <ele>329.79998779297</ele>
        <time>2019-05-01T08:28:08.000Z</time>
      </trkpt>
      <trkpt lat="50.39774" lon="5.71868">
        <ele>330.79998779297</ele>
        <time>2019-05-01T08:28:09.000Z</time>
      </trkpt>
      <trkpt lat="50.39775" lon="5.71875">
        <ele>331</ele>
        <time>2019-05-01T08:28:12.000Z</time>
      </trkpt>
      <trkpt lat="50.39777" lon="5.71893">
        <ele>332</ele>
        <time>2019-05-01T08:28:13.000Z</time>
      </trkpt>
      <trkpt lat="50.39781" lon="5.71923">
        <ele>333.20001220703</ele>
        <time>2019-05-01T08:28:17.000Z</time>
      </trkpt>
      <trkpt lat="50.39782" lon="5.71929">
        <ele>333.39999389648</ele>
        <time>2019-05-01T08:28:20.000Z</time>
      </trkpt>
      <trkpt lat="50.39784" lon="5.71946">
        <ele>334.20001220703</ele>
        <time>2019-05-01T08:28:22.000Z</time>
      </trkpt>
      <trkpt lat="50.39786" lon="5.71962">
        <ele>334.79998779297</ele>
        <time>2019-05-01T08:28:24.000Z</time>
      </trkpt>
      <trkpt lat="50.39789" lon="5.71978">
        <ele>335.39999389648</ele>
        <time>2019-05-01T08:28:26.000Z</time>
      </trkpt>
      <trkpt lat="50.39792" lon="5.71996">
        <ele>336.60000610352</ele>
        <time>2019-05-01T08:28:31.000Z</time>
      </trkpt>
      <trkpt lat="50.39794" lon="5.72007">
        <ele>336.79998779297</ele>
        <time>2019-05-01T08:28:32.000Z</time>
      </trkpt>
      <trkpt lat="50.39798" lon="5.7203">
        <ele>337.79998779297</ele>
        <time>2019-05-01T08:28:41.000Z</time>
      </trkpt>
      <trkpt lat="50.39802" lon="5.72045">
        <ele>338.39999389648</ele>
        <time>2019-05-01T08:28:51.000Z</time>
      </trkpt>
      <trkpt lat="50.39803" lon="5.72051">
        <ele>339</ele>
        <time>2019-05-01T08:28:56.000Z</time>
      </trkpt>
      <trkpt lat="50.39808" lon="5.72076">
        <ele>340.20001220703</ele>
        <time>2019-05-01T08:28:59.000Z</time>
      </trkpt>
      <trkpt lat="50.3981" lon="5.72082">
        <ele>340.60000610352</ele>
        <time>2019-05-01T08:29:03.000Z</time>
      </trkpt>
      <trkpt lat="50.39815" lon="5.72099">
        <ele>341.39999389648</ele>
        <time>2019-05-01T08:29:05.000Z</time>
      </trkpt>
      <trkpt lat="50.3982" lon="5.72114">
        <ele>342</ele>
        <time>2019-05-01T08:29:06.000Z</time>
      </trkpt>
      <trkpt lat="50.39825" lon="5.72125">
        <ele>342.39999389648</ele>
        <time>2019-05-01T08:29:08.000Z</time>
      </trkpt>
      <trkpt lat="50.39834" lon="5.72151">
        <ele>343.79998779297</ele>
        <time>2019-05-01T08:29:11.000Z</time>
      </trkpt>
      <trkpt lat="50.39844" lon="5.72176">
        <ele>344.79998779297</ele>
        <time>2019-05-01T08:29:12.000Z</time>
      </trkpt>
      <trkpt lat="50.39848" lon="5.72187">
        <ele>345.20001220703</ele>
        <time>2019-05-01T08:29:17.000Z</time>
      </trkpt>
      <trkpt lat="50.39856" lon="5.72202">
        <ele>346</ele>
        <time>2019-05-01T08:29:22.000Z</time>
      </trkpt>
      <trkpt lat="50.39865" lon="5.72221">
        <ele>347.20001220703</ele>
        <time>2019-05-01T08:29:24.000Z</time>
      </trkpt>
      <trkpt lat="50.39867" lon="5.72226">
        <ele>347.39999389648</ele>
        <time>2019-05-01T08:29:30.000Z</time>
      </trkpt>
      <trkpt lat="50.39874" lon="5.72242">
        <ele>348.20001220703</ele>
        <time>2019-05-01T08:29:33.000Z</time>
      </trkpt>
      <trkpt lat="50.3988" lon="5.72256">
        <ele>349.20001220703</ele>
        <time>2019-05-01T08:29:38.000Z</time>
      </trkpt>
      <trkpt lat="50.39882" lon="5.7226">
        <ele>349.39999389648</ele>
        <time>2019-05-01T08:29:41.000Z</time>
      </trkpt>
      <trkpt lat="50.39891" lon="5.72281">
        <ele>350.60000610352</ele>
        <time>2019-05-01T08:29:43.000Z</time>
      </trkpt>
      <trkpt lat="50.39893" lon="5.72286">
        <ele>351</ele>
        <time>2019-05-01T08:29:48.000Z</time>
      </trkpt>
      <trkpt lat="50.39904" lon="5.72307">
        <ele>352.20001220703</ele>
        <time>2019-05-01T08:29:49.000Z</time>
      </trkpt>
      <trkpt lat="50.39915" lon="5.72327">
        <ele>353.20001220703</ele>
        <time>2019-05-01T08:29:58.000Z</time>
      </trkpt>
      <trkpt lat="50.39923" lon="5.72343">
        <ele>354.39999389648</ele>
        <time>2019-05-01T08:30:00.000Z</time>
      </trkpt>
      <trkpt lat="50.3993" lon="5.72353">
        <ele>355</ele>
        <time>2019-05-01T08:30:03.000Z</time>
      </trkpt>
      <trkpt lat="50.39934" lon="5.72361">
        <ele>355.39999389648</ele>
        <time>2019-05-01T08:30:08.000Z</time>
      </trkpt>
      <trkpt lat="50.39939" lon="5.72373">
        <ele>356.20001220703</ele>
        <time>2019-05-01T08:30:10.000Z</time>
      </trkpt>
      <trkpt lat="50.39942" lon="5.72377">
        <ele>356.60000610352</ele>
        <time>2019-05-01T08:30:14.000Z</time>
      </trkpt>
      <trkpt lat="50.39946" lon="5.72383">
        <ele>357.20001220703</ele>
        <time>2019-05-01T08:30:16.000Z</time>
      </trkpt>
      <trkpt lat="50.39947" lon="5.72386">
        <ele>357.39999389648</ele>
        <time>2019-05-01T08:30:17.000Z</time>
      </trkpt>
      <trkpt lat="50.39949" lon="5.72389">
        <ele>357.60000610352</ele>
        <time>2019-05-01T08:30:20.000Z</time>
      </trkpt>
      <trkpt lat="50.39958" lon="5.72401">
        <ele>358.20001220703</ele>
        <time>2019-05-01T08:30:23.000Z</time>
      </trkpt>
      <trkpt lat="50.39964" lon="5.72408">
        <ele>358.79998779297</ele>
        <time>2019-05-01T08:30:24.000Z</time>
      </trkpt>
      <trkpt lat="50.39969" lon="5.72416">
        <ele>359.39999389648</ele>
        <time>2019-05-01T08:30:27.000Z</time>
      </trkpt>
      <trkpt lat="50.39976" lon="5.72421">
        <ele>360</ele>
        <time>2019-05-01T08:30:33.000Z</time>
      </trkpt>
      <trkpt lat="50.39983" lon="5.72428">
        <ele>360.20001220703</ele>
        <time>2019-05-01T08:30:34.000Z</time>
      </trkpt>
      <trkpt lat="50.39991" lon="5.7244">
        <ele>361.20001220703</ele>
        <time>2019-05-01T08:30:38.000Z</time>
      </trkpt>
      <trkpt lat="50.39993" lon="5.72446">
        <ele>361.39999389648</ele>
        <time>2019-05-01T08:30:41.000Z</time>
      </trkpt>
      <trkpt lat="50.39995" lon="5.7247">
        <ele>362.20001220703</ele>
        <time>2019-05-01T08:30:44.000Z</time>
      </trkpt>
      <trkpt lat="50.39994" lon="5.72477">
        <ele>362.60000610352</ele>
        <time>2019-05-01T08:30:53.000Z</time>
      </trkpt>
      <trkpt lat="50.39985" lon="5.72491">
        <ele>362.79998779297</ele>
        <time>2019-05-01T08:30:54.000Z</time>
      </trkpt>
      <trkpt lat="50.39982" lon="5.72494">
        <ele>363.20001220703</ele>
        <time>2019-05-01T08:31:02.000Z</time>
      </trkpt>
      <trkpt lat="50.39978" lon="5.72495">
        <ele>363.39999389648</ele>
        <time>2019-05-01T08:31:04.000Z</time>
      </trkpt>
      <trkpt lat="50.39975" lon="5.72495">
        <ele>363.60000610352</ele>
        <time>2019-05-01T08:31:10.000Z</time>
      </trkpt>
      <trkpt lat="50.39972" lon="5.72493">
        <ele>363.79998779297</ele>
        <time>2019-05-01T08:31:14.000Z</time>
      </trkpt>
      <trkpt lat="50.39967" lon="5.7249">
        <ele>364.20001220703</ele>
        <time>2019-05-01T08:31:16.000Z</time>
      </trkpt>
      <trkpt lat="50.39958" lon="5.72482">
        <ele>364.79998779297</ele>
        <time>2019-05-01T08:31:17.000Z</time>
      </trkpt>
      <trkpt lat="50.39956" lon="5.72479">
        <ele>365</ele>
        <time>2019-05-01T08:31:19.000Z</time>
      </trkpt>
      <trkpt lat="50.39941" lon="5.72465">
        <ele>366</ele>
        <time>2019-05-01T08:31:20.000Z</time>
      </trkpt>
      <trkpt lat="50.39938" lon="5.72463">
        <ele>366.20001220703</ele>
        <time>2019-05-01T08:31:22.000Z</time>
      </trkpt>
      <trkpt lat="50.39925" lon="5.72454">
        <ele>367.39999389648</ele>
        <time>2019-05-01T08:31:25.000Z</time>
      </trkpt>
      <trkpt lat="50.39914" lon="5.72448">
        <ele>368</ele>
        <time>2019-05-01T08:31:29.000Z</time>
      </trkpt>
      <trkpt lat="50.39906" lon="5.72446">
        <ele>368.60000610352</ele>
        <time>2019-05-01T08:31:32.000Z</time>
      </trkpt>
      <trkpt lat="50.39887" lon="5.72439">
        <ele>369.79998779297</ele>
        <time>2019-05-01T08:31:36.000Z</time>
      </trkpt>
      <trkpt lat="50.39884" lon="5.72438">
        <ele>370</ele>
        <time>2019-05-01T08:31:38.000Z</time>
      </trkpt>
      <trkpt lat="50.39869" lon="5.72435">
        <ele>370.79998779297</ele>
        <time>2019-05-01T08:31:39.000Z</time>
      </trkpt>
      <trkpt lat="50.39866" lon="5.72434">
        <ele>371.20001220703</ele>
        <time>2019-05-01T08:31:44.000Z</time>
      </trkpt>
      <trkpt lat="50.39855" lon="5.72431">
        <ele>372</ele>
        <time>2019-05-01T08:31:45.000Z</time>
      </trkpt>
      <trkpt lat="50.39848" lon="5.72429">
        <ele>372.39999389648</ele>
        <time>2019-05-01T08:31:48.000Z</time>
      </trkpt>
      <trkpt lat="50.3984" lon="5.72427">
        <ele>373</ele>
        <time>2019-05-01T08:31:49.000Z</time>
      </trkpt>
      <trkpt lat="50.39836" lon="5.72426">
        <ele>373</ele>
        <time>2019-05-01T08:31:52.000Z</time>
      </trkpt>
      <trkpt lat="50.39823" lon="5.72422">
        <ele>373.60000610352</ele>
        <time>2019-05-01T08:31:54.000Z</time>
      </trkpt>
      <trkpt lat="50.39811" lon="5.72419">
        <ele>374.20001220703</ele>
        <time>2019-05-01T08:31:55.000Z</time>
      </trkpt>
      <trkpt lat="50.39794" lon="5.72414">
        <ele>375</ele>
        <time>2019-05-01T08:31:57.000Z</time>
      </trkpt>
      <trkpt lat="50.3979" lon="5.72412">
        <ele>375.20001220703</ele>
        <time>2019-05-01T08:31:59.000Z</time>
      </trkpt>
      <trkpt lat="50.39778" lon="5.72408">
        <ele>375.60000610352</ele>
        <time>2019-05-01T08:32:01.000Z</time>
      </trkpt>
      <trkpt lat="50.39767" lon="5.72403">
        <ele>376.20001220703</ele>
        <time>2019-05-01T08:32:03.000Z</time>
      </trkpt>
      <trkpt lat="50.39753" lon="5.72393">
        <ele>377.60000610352</ele>
        <time>2019-05-01T08:32:04.000Z</time>
      </trkpt>
      <trkpt lat="50.39741" lon="5.72383">
        <ele>378.60000610352</ele>
        <time>2019-05-01T08:32:06.000Z</time>
      </trkpt>
      <trkpt lat="50.39732" lon="5.72375">
        <ele>379.20001220703</ele>
        <time>2019-05-01T08:32:07.000Z</time>
      </trkpt>
      <trkpt lat="50.39726" lon="5.72366">
        <ele>379.79998779297</ele>
        <time>2019-05-01T08:32:08.000Z</time>
      </trkpt>
      <trkpt lat="50.39723" lon="5.72361">
        <ele>379.79998779297</ele>
        <time>2019-05-01T08:32:10.000Z</time>
      </trkpt>
      <trkpt lat="50.39711" lon="5.72341">
        <ele>380.79998779297</ele>
        <time>2019-05-01T08:32:11.000Z</time>
      </trkpt>
      <trkpt lat="50.39708" lon="5.72336">
        <ele>381.20001220703</ele>
        <time>2019-05-01T08:32:12.000Z</time>
      </trkpt>
      <trkpt lat="50.39704" lon="5.72332">
        <ele>381.39999389648</ele>
        <time>2019-05-01T08:32:13.000Z</time>
      </trkpt>
      <trkpt lat="50.39696" lon="5.7232">
        <ele>382</ele>
        <time>2019-05-01T08:32:14.000Z</time>
      </trkpt>
      <trkpt lat="50.3969" lon="5.72311">
        <ele>382.79998779297</ele>
        <time>2019-05-01T08:32:15.000Z</time>
      </trkpt>
      <trkpt lat="50.39688" lon="5.72308">
        <ele>383</ele>
        <time>2019-05-01T08:32:16.000Z</time>
      </trkpt>
      <trkpt lat="50.39682" lon="5.72299">
        <ele>383.39999389648</ele>
        <time>2019-05-01T08:32:17.000Z</time>
      </trkpt>
      <trkpt lat="50.39676" lon="5.72292">
        <ele>383.60000610352</ele>
        <time>2019-05-01T08:32:19.000Z</time>
      </trkpt>
      <trkpt lat="50.3966" lon="5.7227">
        <ele>384</ele>
        <time>2019-05-01T08:32:21.000Z</time>
      </trkpt>
      <trkpt lat="50.39658" lon="5.72266">
        <ele>384</ele>
        <time>2019-05-01T08:32:22.000Z</time>
      </trkpt>
      <trkpt lat="50.39644" lon="5.72246">
        <ele>384.39999389648</ele>
        <time>2019-05-01T08:32:23.000Z</time>
      </trkpt>
      <trkpt lat="50.39641" lon="5.72238">
        <ele>384.39999389648</ele>
        <time>2019-05-01T08:32:25.000Z</time>
      </trkpt>
      <trkpt lat="50.39617" lon="5.72204">
        <ele>384.79998779297</ele>
        <time>2019-05-01T08:32:26.000Z</time>
      </trkpt>
      <trkpt lat="50.39604" lon="5.72185">
        <ele>385.20001220703</ele>
        <time>2019-05-01T08:32:27.000Z</time>
      </trkpt>
      <trkpt lat="50.39591" lon="5.72168">
        <ele>385.60000610352</ele>
        <time>2019-05-01T08:32:28.000Z</time>
      </trkpt>
      <trkpt lat="50.39564" lon="5.72129">
        <ele>386.20001220703</ele>
        <time>2019-05-01T08:32:29.000Z</time>
      </trkpt>
      <trkpt lat="50.39559" lon="5.72122">
        <ele>386.39999389648</ele>
        <time>2019-05-01T08:32:30.000Z</time>
      </trkpt>
      <trkpt lat="50.39548" lon="5.72106">
        <ele>386.60000610352</ele>
        <time>2019-05-01T08:32:31.000Z</time>
      </trkpt>
      <trkpt lat="50.39539" lon="5.7209">
        <ele>386.79998779297</ele>
        <time>2019-05-01T08:32:32.000Z</time>
      </trkpt>
      <trkpt lat="50.3953" lon="5.72076">
        <ele>387.20001220703</ele>
        <time>2019-05-01T08:32:33.000Z</time>
      </trkpt>
      <trkpt lat="50.39526" lon="5.72071">
        <ele>387.39999389648</ele>
        <time>2019-05-01T08:32:34.000Z</time>
      </trkpt>
      <trkpt lat="50.39519" lon="5.72063">
        <ele>387.79998779297</ele>
        <time>2019-05-01T08:32:35.000Z</time>
      </trkpt>
      <trkpt lat="50.39506" lon="5.72046">
        <ele>388.60000610352</ele>
        <time>2019-05-01T08:32:36.000Z</time>
      </trkpt>
      <trkpt lat="50.39498" lon="5.72033">
        <ele>389</ele>
        <time>2019-05-01T08:32:37.000Z</time>
      </trkpt>
      <trkpt lat="50.39483" lon="5.72011">
        <ele>389.60000610352</ele>
        <time>2019-05-01T08:32:38.000Z</time>
      </trkpt>
      <trkpt lat="50.39476" lon="5.72003">
        <ele>390</ele>
        <time>2019-05-01T08:32:39.000Z</time>
      </trkpt>
      <trkpt lat="50.39463" lon="5.71987">
        <ele>391</ele>
        <time>2019-05-01T08:32:40.000Z</time>
      </trkpt>
      <trkpt lat="50.39451" lon="5.71973">
        <ele>391.39999389648</ele>
        <time>2019-05-01T08:32:41.000Z</time>
      </trkpt>
      <trkpt lat="50.39439" lon="5.7196">
        <ele>392</ele>
        <time>2019-05-01T08:32:42.000Z</time>
      </trkpt>
      <trkpt lat="50.39425" lon="5.71943">
        <ele>392.60000610352</ele>
        <time>2019-05-01T08:32:43.000Z</time>
      </trkpt>
      <trkpt lat="50.39415" lon="5.71931">
        <ele>393.20001220703</ele>
        <time>2019-05-01T08:32:44.000Z</time>
      </trkpt>
      <trkpt lat="50.39397" lon="5.71904">
        <ele>393.79998779297</ele>
        <time>2019-05-01T08:32:45.000Z</time>
      </trkpt>
      <trkpt lat="50.39377" lon="5.71871">
        <ele>394.60000610352</ele>
        <time>2019-05-01T08:32:46.000Z</time>
      </trkpt>
      <trkpt lat="50.39373" lon="5.71863">
        <ele>395.20001220703</ele>
        <time>2019-05-01T08:32:47.000Z</time>
      </trkpt>
      <trkpt lat="50.39364" lon="5.71849">
        <ele>395.39999389648</ele>
        <time>2019-05-01T08:32:48.000Z</time>
      </trkpt>
      <trkpt lat="50.39354" lon="5.71831">
        <ele>396</ele>
        <time>2019-05-01T08:32:49.000Z</time>
      </trkpt>
      <trkpt lat="50.39349" lon="5.71824">
        <ele>396.20001220703</ele>
        <time>2019-05-01T08:32:50.000Z</time>
      </trkpt>
      <trkpt lat="50.39344" lon="5.71817">
        <ele>396.20001220703</ele>
        <time>2019-05-01T08:32:51.000Z</time>
      </trkpt>
      <trkpt lat="50.39331" lon="5.71795">
        <ele>397.20001220703</ele>
        <time>2019-05-01T08:32:52.000Z</time>
      </trkpt>
      <trkpt lat="50.39305" lon="5.71751">
        <ele>398.20001220703</ele>
        <time>2019-05-01T08:32:53.000Z</time>
      </trkpt>
      <trkpt lat="50.39282" lon="5.71714">
        <ele>399</ele>
        <time>2019-05-01T08:32:54.000Z</time>
      </trkpt>
      <trkpt lat="50.39278" lon="5.71707">
        <ele>399.39999389648</ele>
        <time>2019-05-01T08:32:55.000Z</time>
      </trkpt>
      <trkpt lat="50.3926" lon="5.71675">
        <ele>400.60000610352</ele>
        <time>2019-05-01T08:32:56.000Z</time>
      </trkpt>
      <trkpt lat="50.39253" lon="5.71661">
        <ele>400.79998779297</ele>
        <time>2019-05-01T08:32:57.000Z</time>
      </trkpt>
      <trkpt lat="50.39234" lon="5.71624">
        <ele>401.79998779297</ele>
        <time>2019-05-01T08:32:58.000Z</time>
      </trkpt>
      <trkpt lat="50.39231" lon="5.71619">
        <ele>401.79998779297</ele>
        <time>2019-05-01T08:32:59.000Z</time>
      </trkpt>
      <trkpt lat="50.39228" lon="5.71613">
        <ele>402</ele>
        <time>2019-05-01T08:33:00.000Z</time>
      </trkpt>
      <trkpt lat="50.39211" lon="5.71584">
        <ele>402.79998779297</ele>
        <time>2019-05-01T08:33:01.000Z</time>
      </trkpt>
      <trkpt lat="50.39208" lon="5.71578">
        <ele>403</ele>
        <time>2019-05-01T08:33:02.000Z</time>
      </trkpt>
      <trkpt lat="50.39198" lon="5.7156">
        <ele>403.60000610352</ele>
        <time>2019-05-01T08:33:03.000Z</time>
      </trkpt>
      <trkpt lat="50.39191" lon="5.71544">
        <ele>403.79998779297</ele>
        <time>2019-05-01T08:33:04.000Z</time>
      </trkpt>
      <trkpt lat="50.39187" lon="5.71536">
        <ele>403.79998779297</ele>
        <time>2019-05-01T08:33:06.000Z</time>
      </trkpt>
      <trkpt lat="50.39167" lon="5.71499">
        <ele>404.60000610352</ele>
        <time>2019-05-01T08:33:07.000Z</time>
      </trkpt>
      <trkpt lat="50.39161" lon="5.71485">
        <ele>405</ele>
        <time>2019-05-01T08:33:09.000Z</time>
      </trkpt>
      <trkpt lat="50.39155" lon="5.71471">
        <ele>405.20001220703</ele>
        <time>2019-05-01T08:33:10.000Z</time>
      </trkpt>
      <trkpt lat="50.39146" lon="5.71452">
        <ele>405.79998779297</ele>
        <time>2019-05-01T08:33:13.000Z</time>
      </trkpt>
      <trkpt lat="50.3914" lon="5.71438">
        <ele>406</ele>
        <time>2019-05-01T08:33:16.000Z</time>
      </trkpt>
      <trkpt lat="50.39129" lon="5.71411">
        <ele>407.20001220703</ele>
        <time>2019-05-01T08:33:17.000Z</time>
      </trkpt>
      <trkpt lat="50.39126" lon="5.71405">
        <ele>407.79998779297</ele>
        <time>2019-05-01T08:33:20.000Z</time>
      </trkpt>
      <trkpt lat="50.39124" lon="5.71398">
        <ele>408.39999389648</ele>
        <time>2019-05-01T08:33:21.000Z</time>
      </trkpt>
      <trkpt lat="50.39121" lon="5.71392">
        <ele>408.79998779297</ele>
        <time>2019-05-01T08:33:22.000Z</time>
      </trkpt>
      <trkpt lat="50.39111" lon="5.71374">
        <ele>409.39999389648</ele>
        <time>2019-05-01T08:33:24.000Z</time>
      </trkpt>
      <trkpt lat="50.39109" lon="5.7137">
        <ele>409.79998779297</ele>
        <time>2019-05-01T08:33:25.000Z</time>
      </trkpt>
      <trkpt lat="50.39096" lon="5.71346">
        <ele>410.60000610352</ele>
        <time>2019-05-01T08:33:26.000Z</time>
      </trkpt>
      <trkpt lat="50.39093" lon="5.71341">
        <ele>410.79998779297</ele>
        <time>2019-05-01T08:33:28.000Z</time>
      </trkpt>
      <trkpt lat="50.39085" lon="5.71326">
        <ele>411.20001220703</ele>
        <time>2019-05-01T08:33:29.000Z</time>
      </trkpt>
      <trkpt lat="50.39078" lon="5.71313">
        <ele>411.39999389648</ele>
        <time>2019-05-01T08:33:31.000Z</time>
      </trkpt>
      <trkpt lat="50.39068" lon="5.71295">
        <ele>411.79998779297</ele>
        <time>2019-05-01T08:33:34.000Z</time>
      </trkpt>
      <trkpt lat="50.39061" lon="5.71283">
        <ele>412</ele>
        <time>2019-05-01T08:33:38.000Z</time>
      </trkpt>
      <trkpt lat="50.39058" lon="5.71277">
        <ele>412</ele>
        <time>2019-05-01T08:33:42.000Z</time>
      </trkpt>
      <trkpt lat="50.39051" lon="5.71264">
        <ele>412.20001220703</ele>
        <time>2019-05-01T08:33:43.000Z</time>
      </trkpt>
      <trkpt lat="50.39043" lon="5.71252">
        <ele>412.39999389648</ele>
        <time>2019-05-01T08:33:46.000Z</time>
      </trkpt>
      <trkpt lat="50.39037" lon="5.7124">
        <ele>412.79998779297</ele>
        <time>2019-05-01T08:33:49.000Z</time>
      </trkpt>
      <trkpt lat="50.39033" lon="5.71234">
        <ele>412.79998779297</ele>
        <time>2019-05-01T08:33:54.000Z</time>
      </trkpt>
      <trkpt lat="50.39028" lon="5.71225">
        <ele>413</ele>
        <time>2019-05-01T08:33:58.000Z</time>
      </trkpt>
      <trkpt lat="50.39017" lon="5.71203">
        <ele>413.60000610352</ele>
        <time>2019-05-01T08:34:03.000Z</time>
      </trkpt>
      <trkpt lat="50.39014" lon="5.71198">
        <ele>413.60000610352</ele>
        <time>2019-05-01T08:34:09.000Z</time>
      </trkpt>
      <trkpt lat="50.39002" lon="5.71174">
        <ele>414.20001220703</ele>
        <time>2019-05-01T08:34:14.000Z</time>
      </trkpt>
      <trkpt lat="50.39" lon="5.71169">
        <ele>414.39999389648</ele>
        <time>2019-05-01T08:34:20.000Z</time>
      </trkpt>
      <trkpt lat="50.38997" lon="5.71165">
        <ele>414.79998779297</ele>
        <time>2019-05-01T08:34:25.000Z</time>
      </trkpt>
      <trkpt lat="50.38995" lon="5.71159">
        <ele>415.20001220703</ele>
        <time>2019-05-01T08:34:27.000Z</time>
      </trkpt>
      <trkpt lat="50.38985" lon="5.71132">
        <ele>416.39999389648</ele>
        <time>2019-05-01T08:34:28.000Z</time>
      </trkpt>
      <trkpt lat="50.38982" lon="5.71124">
        <ele>416.79998779297</ele>
        <time>2019-05-01T08:34:29.000Z</time>
      </trkpt>
      <trkpt lat="50.38971" lon="5.71094">
        <ele>417.39999389648</ele>
        <time>2019-05-01T08:34:32.000Z</time>
      </trkpt>
      <trkpt lat="50.38969" lon="5.71088">
        <ele>417.79998779297</ele>
        <time>2019-05-01T08:34:35.000Z</time>
      </trkpt>
      <trkpt lat="50.38961" lon="5.7106">
        <ele>419</ele>
        <time>2019-05-01T08:34:42.000Z</time>
      </trkpt>
      <trkpt lat="50.38954" lon="5.71032">
        <ele>420</ele>
        <time>2019-05-01T08:34:50.000Z</time>
      </trkpt>
      <trkpt lat="50.38951" lon="5.71018">
        <ele>420.60000610352</ele>
        <time>2019-05-01T08:34:52.000Z</time>
      </trkpt>
      <trkpt lat="50.3895" lon="5.71011">
        <ele>421</ele>
        <time>2019-05-01T08:34:55.000Z</time>
      </trkpt>
      <trkpt lat="50.38948" lon="5.71004">
        <ele>421.20001220703</ele>
        <time>2019-05-01T08:34:56.000Z</time>
      </trkpt>
      <trkpt lat="50.38946" lon="5.70991">
        <ele>421.60000610352</ele>
        <time>2019-05-01T08:34:57.000Z</time>
      </trkpt>
      <trkpt lat="50.38945" lon="5.70973">
        <ele>422.39999389648</ele>
        <time>2019-05-01T08:34:59.000Z</time>
      </trkpt>
      <trkpt lat="50.38944" lon="5.70957">
        <ele>423</ele>
        <time>2019-05-01T08:35:02.000Z</time>
      </trkpt>
      <trkpt lat="50.38945" lon="5.70944">
        <ele>423.79998779297</ele>
        <time>2019-05-01T08:35:04.000Z</time>
      </trkpt>
      <trkpt lat="50.38946" lon="5.70926">
        <ele>425</ele>
        <time>2019-05-01T08:35:07.000Z</time>
      </trkpt>
      <trkpt lat="50.38946" lon="5.70914">
        <ele>425.60000610352</ele>
        <time>2019-05-01T08:35:09.000Z</time>
      </trkpt>
      <trkpt lat="50.38944" lon="5.70897">
        <ele>426</ele>
        <time>2019-05-01T08:35:10.000Z</time>
      </trkpt>
      <trkpt lat="50.38945" lon="5.70892">
        <ele>426.39999389648</ele>
        <time>2019-05-01T08:35:11.000Z</time>
      </trkpt>
      <trkpt lat="50.38945" lon="5.70886">
        <ele>426.79998779297</ele>
        <time>2019-05-01T08:35:13.000Z</time>
      </trkpt>
      <trkpt lat="50.38945" lon="5.7088">
        <ele>427.20001220703</ele>
        <time>2019-05-01T08:35:14.000Z</time>
      </trkpt>
      <trkpt lat="50.38946" lon="5.70859">
        <ele>428.20001220703</ele>
        <time>2019-05-01T08:35:19.000Z</time>
      </trkpt>
      <trkpt lat="50.38946" lon="5.70853">
        <ele>428.39999389648</ele>
        <time>2019-05-01T08:35:25.000Z</time>
      </trkpt>
      <trkpt lat="50.38947" lon="5.70833">
        <ele>429.39999389648</ele>
        <time>2019-05-01T08:35:26.000Z</time>
      </trkpt>
      <trkpt lat="50.38948" lon="5.70824">
        <ele>429.79998779297</ele>
        <time>2019-05-01T08:35:30.000Z</time>
      </trkpt>
      <trkpt lat="50.38949" lon="5.70813">
        <ele>430.20001220703</ele>
        <time>2019-05-01T08:35:32.000Z</time>
      </trkpt>
      <trkpt lat="50.3895" lon="5.70808">
        <ele>430.39999389648</ele>
        <time>2019-05-01T08:35:33.000Z</time>
      </trkpt>
      <trkpt lat="50.38952" lon="5.70792">
        <ele>431.39999389648</ele>
        <time>2019-05-01T08:35:37.000Z</time>
      </trkpt>
      <trkpt lat="50.38953" lon="5.70788">
        <ele>431.60000610352</ele>
        <time>2019-05-01T08:35:38.000Z</time>
      </trkpt>
      <trkpt lat="50.38957" lon="5.70774">
        <ele>432.39999389648</ele>
        <time>2019-05-01T08:35:45.000Z</time>
      </trkpt>
      <trkpt lat="50.38959" lon="5.70766">
        <ele>432.79998779297</ele>
        <time>2019-05-01T08:35:47.000Z</time>
      </trkpt>
      <trkpt lat="50.38959" lon="5.70758">
        <ele>433.39999389648</ele>
        <time>2019-05-01T08:35:55.000Z</time>
      </trkpt>
      <trkpt lat="50.38959" lon="5.70753">
        <ele>433.39999389648</ele>
        <time>2019-05-01T08:35:57.000Z</time>
      </trkpt>
      <trkpt lat="50.38959" lon="5.70748">
        <ele>433.60000610352</ele>
        <time>2019-05-01T08:36:04.000Z</time>
      </trkpt>
      <trkpt lat="50.38961" lon="5.70737">
        <ele>434.20001220703</ele>
        <time>2019-05-01T08:36:12.000Z</time>
      </trkpt>
      <trkpt lat="50.38962" lon="5.70733">
        <ele>434.60000610352</ele>
        <time>2019-05-01T08:36:13.000Z</time>
      </trkpt>
      <trkpt lat="50.38964" lon="5.70716">
        <ele>435.79998779297</ele>
        <time>2019-05-01T08:36:20.000Z</time>
      </trkpt>
      <trkpt lat="50.38965" lon="5.70707">
        <ele>436.20001220703</ele>
        <time>2019-05-01T08:36:21.000Z</time>
      </trkpt>
      <trkpt lat="50.38966" lon="5.70702">
        <ele>436.39999389648</ele>
        <time>2019-05-01T08:36:27.000Z</time>
      </trkpt>
      <trkpt lat="50.38969" lon="5.70688">
        <ele>437</ele>
        <time>2019-05-01T08:36:30.000Z</time>
      </trkpt>
      <trkpt lat="50.3897" lon="5.7066">
        <ele>438</ele>
        <time>2019-05-01T08:36:31.000Z</time>
      </trkpt>
      <trkpt lat="50.38969" lon="5.70655">
        <ele>438.60000610352</ele>
        <time>2019-05-01T08:36:35.000Z</time>
      </trkpt>
      <trkpt lat="50.38967" lon="5.70629">
        <ele>439.60000610352</ele>
        <time>2019-05-01T08:36:36.000Z</time>
      </trkpt>
      <trkpt lat="50.38967" lon="5.70624">
        <ele>439.60000610352</ele>
        <time>2019-05-01T08:36:41.000Z</time>
      </trkpt>
      <trkpt lat="50.38962" lon="5.70604">
        <ele>440.79998779297</ele>
        <time>2019-05-01T08:36:47.000Z</time>
      </trkpt>
      <trkpt lat="50.3896" lon="5.70594">
        <ele>441.39999389648</ele>
        <time>2019-05-01T08:36:49.000Z</time>
      </trkpt>
      <trkpt lat="50.38956" lon="5.7058">
        <ele>442</ele>
        <time>2019-05-01T08:36:52.000Z</time>
      </trkpt>
      <trkpt lat="50.38952" lon="5.70567">
        <ele>442.79998779297</ele>
        <time>2019-05-01T08:36:55.000Z</time>
      </trkpt>
      <trkpt lat="50.3895" lon="5.70562">
        <ele>443</ele>
        <time>2019-05-01T08:36:56.000Z</time>
      </trkpt>
      <trkpt lat="50.38945" lon="5.70545">
        <ele>444</ele>
        <time>2019-05-01T08:37:00.000Z</time>
      </trkpt>
      <trkpt lat="50.3894" lon="5.70532">
        <ele>444.79998779297</ele>
        <time>2019-05-01T08:37:04.000Z</time>
      </trkpt>
      <trkpt lat="50.38939" lon="5.70528">
        <ele>445.20001220703</ele>
        <time>2019-05-01T08:37:05.000Z</time>
      </trkpt>
      <trkpt lat="50.38937" lon="5.7052">
        <ele>446.20001220703</ele>
        <time>2019-05-01T08:37:08.000Z</time>
      </trkpt>
      <trkpt lat="50.3893" lon="5.70504">
        <ele>447.20001220703</ele>
        <time>2019-05-01T08:37:09.000Z</time>
      </trkpt>
      <trkpt lat="50.38929" lon="5.705">
        <ele>447.39999389648</ele>
        <time>2019-05-01T08:37:11.000Z</time>
      </trkpt>
      <trkpt lat="50.38923" lon="5.70484">
        <ele>448.60000610352</ele>
        <time>2019-05-01T08:37:13.000Z</time>
      </trkpt>
      <trkpt lat="50.3892" lon="5.70476">
        <ele>449</ele>
        <time>2019-05-01T08:37:17.000Z</time>
      </trkpt>
      <trkpt lat="50.38915" lon="5.70464">
        <ele>449.79998779297</ele>
        <time>2019-05-01T08:37:19.000Z</time>
      </trkpt>
      <trkpt lat="50.38906" lon="5.70447">
        <ele>451.20001220703</ele>
        <time>2019-05-01T08:37:20.000Z</time>
      </trkpt>
      <trkpt lat="50.38904" lon="5.70444">
        <ele>451.39999389648</ele>
        <time>2019-05-01T08:37:22.000Z</time>
      </trkpt>
      <trkpt lat="50.38899" lon="5.70434">
        <ele>452.20001220703</ele>
        <time>2019-05-01T08:37:25.000Z</time>
      </trkpt>
      <trkpt lat="50.38896" lon="5.70426">
        <ele>452.60000610352</ele>
        <time>2019-05-01T08:37:28.000Z</time>
      </trkpt>
      <trkpt lat="50.38892" lon="5.70413">
        <ele>453.39999389648</ele>
        <time>2019-05-01T08:37:29.000Z</time>
      </trkpt>
      <trkpt lat="50.38886" lon="5.70395">
        <ele>454.20001220703</ele>
        <time>2019-05-01T08:37:32.000Z</time>
      </trkpt>
      <trkpt lat="50.38885" lon="5.7039">
        <ele>454.39999389648</ele>
        <time>2019-05-01T08:37:36.000Z</time>
      </trkpt>
      <trkpt lat="50.3888" lon="5.70367">
        <ele>455.60000610352</ele>
        <time>2019-05-01T08:37:38.000Z</time>
      </trkpt>
      <trkpt lat="50.38875" lon="5.70341">
        <ele>457</ele>
        <time>2019-05-01T08:37:40.000Z</time>
      </trkpt>
      <trkpt lat="50.38871" lon="5.7033">
        <ele>457.60000610352</ele>
        <time>2019-05-01T08:37:43.000Z</time>
      </trkpt>
      <trkpt lat="50.38864" lon="5.70313">
        <ele>458.20001220703</ele>
        <time>2019-05-01T08:37:47.000Z</time>
      </trkpt>
      <trkpt lat="50.38855" lon="5.70297">
        <ele>459</ele>
        <time>2019-05-01T08:37:49.000Z</time>
      </trkpt>
      <trkpt lat="50.38832" lon="5.70269">
        <ele>459.39999389648</ele>
        <time>2019-05-01T08:37:50.000Z</time>
      </trkpt>
      <trkpt lat="50.38824" lon="5.70259">
        <ele>459.39999389648</ele>
        <time>2019-05-01T08:37:53.000Z</time>
      </trkpt>
      <trkpt lat="50.38804" lon="5.70233">
        <ele>459.60000610352</ele>
        <time>2019-05-01T08:37:55.000Z</time>
      </trkpt>
      <trkpt lat="50.38772" lon="5.70197">
        <ele>459.60000610352</ele>
        <time>2019-05-01T08:37:57.000Z</time>
      </trkpt>
      <trkpt lat="50.38765" lon="5.70189">
        <ele>459.79998779297</ele>
        <time>2019-05-01T08:38:02.000Z</time>
      </trkpt>
      <trkpt lat="50.38753" lon="5.70178">
        <ele>460</ele>
        <time>2019-05-01T08:38:08.000Z</time>
      </trkpt>
      <trkpt lat="50.38741" lon="5.70162">
        <ele>460.20001220703</ele>
        <time>2019-05-01T08:38:12.000Z</time>
      </trkpt>
      <trkpt lat="50.38732" lon="5.70147">
        <ele>461</ele>
        <time>2019-05-01T08:38:15.000Z</time>
      </trkpt>
      <trkpt lat="50.38729" lon="5.70142">
        <ele>461.60000610352</ele>
        <time>2019-05-01T08:38:20.000Z</time>
      </trkpt>
      <trkpt lat="50.38726" lon="5.70137">
        <ele>462</ele>
        <time>2019-05-01T08:38:22.000Z</time>
      </trkpt>
      <trkpt lat="50.38725" lon="5.70135">
        <ele>462.20001220703</ele>
        <time>2019-05-01T08:38:25.000Z</time>
      </trkpt>
      <trkpt lat="50.38725" lon="5.70133">
        <ele>462.20001220703</ele>
        <time>2019-05-01T08:38:30.000Z</time>
      </trkpt>
      <trkpt lat="50.38721" lon="5.70125">
        <ele>462.79998779297</ele>
        <time>2019-05-01T08:38:31.000Z</time>
      </trkpt>
      <trkpt lat="50.38717" lon="5.7012">
        <ele>463</ele>
        <time>2019-05-01T08:38:35.000Z</time>
      </trkpt>
      <trkpt lat="50.38712" lon="5.70119">
        <ele>463.20001220703</ele>
        <time>2019-05-01T08:38:38.000Z</time>
      </trkpt>
      <trkpt lat="50.38711" lon="5.7012">
        <ele>463.20001220703</ele>
        <time>2019-05-01T08:38:39.000Z</time>
      </trkpt>
      <trkpt lat="50.38712" lon="5.7012">
        <ele>463.60000610352</ele>
        <time>2019-05-01T08:38:45.000Z</time>
      </trkpt>
      <trkpt lat="50.38713" lon="5.7012">
        <ele>463.60000610352</ele>
        <time>2019-05-01T08:38:47.000Z</time>
      </trkpt>
      <trkpt lat="50.38714" lon="5.70117">
        <ele>463.60000610352</ele>
        <time>2019-05-01T08:38:52.000Z</time>
      </trkpt>
      <trkpt lat="50.38715" lon="5.70115">
        <ele>463.60000610352</ele>
        <time>2019-05-01T08:38:56.000Z</time>
      </trkpt>
      <trkpt lat="50.38725" lon="5.70099">
        <ele>463.39999389648</ele>
        <time>2019-05-01T08:39:04.000Z</time>
      </trkpt>
      <trkpt lat="50.38746" lon="5.70073">
        <ele>463.20001220703</ele>
        <time>2019-05-01T08:39:08.000Z</time>
      </trkpt>
      <trkpt lat="50.38751" lon="5.70067">
        <ele>463.20001220703</ele>
        <time>2019-05-01T08:39:14.000Z</time>
      </trkpt>
      <trkpt lat="50.38763" lon="5.70042">
        <ele>462.60000610352</ele>
        <time>2019-05-01T08:39:15.000Z</time>
      </trkpt>
      <trkpt lat="50.3877" lon="5.70018">
        <ele>461.79998779297</ele>
        <time>2019-05-01T08:39:16.000Z</time>
      </trkpt>
      <trkpt lat="50.3878" lon="5.69994">
        <ele>461.39999389648</ele>
        <time>2019-05-01T08:39:20.000Z</time>
      </trkpt>
      <trkpt lat="50.38791" lon="5.69969">
        <ele>460.60000610352</ele>
        <time>2019-05-01T08:39:22.000Z</time>
      </trkpt>
      <trkpt lat="50.38803" lon="5.69941">
        <ele>459.39999389648</ele>
        <time>2019-05-01T08:39:27.000Z</time>
      </trkpt>
      <trkpt lat="50.38808" lon="5.69924">
        <ele>458.60000610352</ele>
        <time>2019-05-01T08:39:28.000Z</time>
      </trkpt>
      <trkpt lat="50.38814" lon="5.69909">
        <ele>458</ele>
        <time>2019-05-01T08:39:30.000Z</time>
      </trkpt>
      <trkpt lat="50.38827" lon="5.69879">
        <ele>456.39999389648</ele>
        <time>2019-05-01T08:39:33.000Z</time>
      </trkpt>
      <trkpt lat="50.38845" lon="5.69836">
        <ele>454.79998779297</ele>
        <time>2019-05-01T08:39:38.000Z</time>
      </trkpt>
      <trkpt lat="50.3885" lon="5.69822">
        <ele>454.20001220703</ele>
        <time>2019-05-01T08:39:39.000Z</time>
      </trkpt>
      <trkpt lat="50.38856" lon="5.69808">
        <ele>453.39999389648</ele>
        <time>2019-05-01T08:39:42.000Z</time>
      </trkpt>
      <trkpt lat="50.38867" lon="5.69779">
        <ele>452.20001220703</ele>
        <time>2019-05-01T08:39:43.000Z</time>
      </trkpt>
      <trkpt lat="50.38877" lon="5.69751">
        <ele>450.79998779297</ele>
        <time>2019-05-01T08:39:44.000Z</time>
      </trkpt>
      <trkpt lat="50.38887" lon="5.69722">
        <ele>449.39999389648</ele>
        <time>2019-05-01T08:39:48.000Z</time>
      </trkpt>
      <trkpt lat="50.38898" lon="5.69672">
        <ele>447.79998779297</ele>
        <time>2019-05-01T08:39:49.000Z</time>
      </trkpt>
      <trkpt lat="50.38901" lon="5.69655">
        <ele>447</ele>
        <time>2019-05-01T08:39:51.000Z</time>
      </trkpt>
      <trkpt lat="50.38904" lon="5.6964">
        <ele>446.20001220703</ele>
        <time>2019-05-01T08:39:52.000Z</time>
      </trkpt>
      <trkpt lat="50.38909" lon="5.69612">
        <ele>445.20001220703</ele>
        <time>2019-05-01T08:39:55.000Z</time>
      </trkpt>
      <trkpt lat="50.38914" lon="5.69583">
        <ele>444.20001220703</ele>
        <time>2019-05-01T08:39:57.000Z</time>
      </trkpt>
      <trkpt lat="50.38916" lon="5.69567">
        <ele>443.60000610352</ele>
        <time>2019-05-01T08:40:00.000Z</time>
      </trkpt>
      <trkpt lat="50.38923" lon="5.69536">
        <ele>442.60000610352</ele>
        <time>2019-05-01T08:40:03.000Z</time>
      </trkpt>
      <trkpt lat="50.38932" lon="5.6951">
        <ele>442.20001220703</ele>
        <time>2019-05-01T08:40:05.000Z</time>
      </trkpt>
      <trkpt lat="50.3894" lon="5.69481">
        <ele>441.20001220703</ele>
        <time>2019-05-01T08:40:08.000Z</time>
      </trkpt>
      <trkpt lat="50.38947" lon="5.69451">
        <ele>440.20001220703</ele>
        <time>2019-05-01T08:40:10.000Z</time>
      </trkpt>
      <trkpt lat="50.38948" lon="5.69436">
        <ele>439.39999389648</ele>
        <time>2019-05-01T08:40:12.000Z</time>
      </trkpt>
      <trkpt lat="50.38949" lon="5.6942">
        <ele>438.79998779297</ele>
        <time>2019-05-01T08:40:15.000Z</time>
      </trkpt>
      <trkpt lat="50.38951" lon="5.69389">
        <ele>438</ele>
        <time>2019-05-01T08:40:17.000Z</time>
      </trkpt>
      <trkpt lat="50.38952" lon="5.69374">
        <ele>437.39999389648</ele>
        <time>2019-05-01T08:40:18.000Z</time>
      </trkpt>
      <trkpt lat="50.38953" lon="5.69359">
        <ele>436.79998779297</ele>
        <time>2019-05-01T08:40:21.000Z</time>
      </trkpt>
      <trkpt lat="50.38954" lon="5.69343">
        <ele>436.20001220703</ele>
        <time>2019-05-01T08:40:22.000Z</time>
      </trkpt>
      <trkpt lat="50.38952" lon="5.69312">
        <ele>435.39999389648</ele>
        <time>2019-05-01T08:40:23.000Z</time>
      </trkpt>
      <trkpt lat="50.38945" lon="5.69286">
        <ele>435</ele>
        <time>2019-05-01T08:40:25.000Z</time>
      </trkpt>
      <trkpt lat="50.38939" lon="5.69275">
        <ele>434.39999389648</ele>
        <time>2019-05-01T08:40:26.000Z</time>
      </trkpt>
      <trkpt lat="50.38933" lon="5.69263">
        <ele>434.20001220703</ele>
        <time>2019-05-01T08:40:27.000Z</time>
      </trkpt>
      <trkpt lat="50.38927" lon="5.69253">
        <ele>434</ele>
        <time>2019-05-01T08:40:28.000Z</time>
      </trkpt>
      <trkpt lat="50.38914" lon="5.69232">
        <ele>432.60000610352</ele>
        <time>2019-05-01T08:40:29.000Z</time>
      </trkpt>
      <trkpt lat="50.38902" lon="5.69212">
        <ele>432</ele>
        <time>2019-05-01T08:40:30.000Z</time>
      </trkpt>
      <trkpt lat="50.3889" lon="5.69191">
        <ele>431.60000610352</ele>
        <time>2019-05-01T08:40:31.000Z</time>
      </trkpt>
      <trkpt lat="50.38851" lon="5.6912">
        <ele>431</ele>
        <time>2019-05-01T08:40:32.000Z</time>
      </trkpt>
      <trkpt lat="50.38836" lon="5.69086">
        <ele>430.60000610352</ele>
        <time>2019-05-01T08:40:33.000Z</time>
      </trkpt>
      <trkpt lat="50.38815" lon="5.6904">
        <ele>430</ele>
        <time>2019-05-01T08:40:34.000Z</time>
      </trkpt>
      <trkpt lat="50.38804" lon="5.69015">
        <ele>429.79998779297</ele>
        <time>2019-05-01T08:40:35.000Z</time>
      </trkpt>
      <trkpt lat="50.38779" lon="5.68962">
        <ele>429</ele>
        <time>2019-05-01T08:40:36.000Z</time>
      </trkpt>
      <trkpt lat="50.38773" lon="5.68948">
        <ele>428.60000610352</ele>
        <time>2019-05-01T08:40:37.000Z</time>
      </trkpt>
      <trkpt lat="50.3876" lon="5.68919">
        <ele>427</ele>
        <time>2019-05-01T08:40:38.000Z</time>
      </trkpt>
      <trkpt lat="50.38741" lon="5.68874">
        <ele>426</ele>
        <time>2019-05-01T08:40:39.000Z</time>
      </trkpt>
      <trkpt lat="50.38735" lon="5.68859">
        <ele>425.39999389648</ele>
        <time>2019-05-01T08:40:40.000Z</time>
      </trkpt>
      <trkpt lat="50.38729" lon="5.68845">
        <ele>424.79998779297</ele>
        <time>2019-05-01T08:40:41.000Z</time>
      </trkpt>
      <trkpt lat="50.38717" lon="5.68817">
        <ele>423.39999389648</ele>
        <time>2019-05-01T08:40:42.000Z</time>
      </trkpt>
      <trkpt lat="50.38705" lon="5.68789">
        <ele>422</ele>
        <time>2019-05-01T08:40:44.000Z</time>
      </trkpt>
      <trkpt lat="50.38694" lon="5.68761">
        <ele>420.79998779297</ele>
        <time>2019-05-01T08:40:45.000Z</time>
      </trkpt>
      <trkpt lat="50.38686" lon="5.68732">
        <ele>419.60000610352</ele>
        <time>2019-05-01T08:40:46.000Z</time>
      </trkpt>
      <trkpt lat="50.3868" lon="5.68703">
        <ele>418</ele>
        <time>2019-05-01T08:40:47.000Z</time>
      </trkpt>
      <trkpt lat="50.38676" lon="5.68675">
        <ele>416.60000610352</ele>
        <time>2019-05-01T08:40:48.000Z</time>
      </trkpt>
      <trkpt lat="50.38674" lon="5.68661">
        <ele>416</ele>
        <time>2019-05-01T08:40:50.000Z</time>
      </trkpt>
      <trkpt lat="50.38671" lon="5.68649">
        <ele>415.39999389648</ele>
        <time>2019-05-01T08:40:52.000Z</time>
      </trkpt>
      <trkpt lat="50.38652" lon="5.6862">
        <ele>414.79998779297</ele>
        <time>2019-05-01T08:40:53.000Z</time>
      </trkpt>
      <trkpt lat="50.38645" lon="5.68614">
        <ele>414.60000610352</ele>
        <time>2019-05-01T08:40:54.000Z</time>
      </trkpt>
      <trkpt lat="50.38637" lon="5.68608">
        <ele>414.20001220703</ele>
        <time>2019-05-01T08:40:55.000Z</time>
      </trkpt>
      <trkpt lat="50.38629" lon="5.68603">
        <ele>414.20001220703</ele>
        <time>2019-05-01T08:40:56.000Z</time>
      </trkpt>
      <trkpt lat="50.38612" lon="5.68596">
        <ele>414</ele>
        <time>2019-05-01T08:40:57.000Z</time>
      </trkpt>
      <trkpt lat="50.38596" lon="5.68586">
        <ele>414</ele>
        <time>2019-05-01T08:40:58.000Z</time>
      </trkpt>
      <trkpt lat="50.38584" lon="5.68573">
        <ele>414</ele>
        <time>2019-05-01T08:40:59.000Z</time>
      </trkpt>
      <trkpt lat="50.38576" lon="5.68557">
        <ele>414</ele>
        <time>2019-05-01T08:41:00.000Z</time>
      </trkpt>
      <trkpt lat="50.38574" lon="5.68548">
        <ele>414</ele>
        <time>2019-05-01T08:41:01.000Z</time>
      </trkpt>
      <trkpt lat="50.38571" lon="5.68539">
        <ele>414.20001220703</ele>
        <time>2019-05-01T08:41:02.000Z</time>
      </trkpt>
      <trkpt lat="50.38564" lon="5.68514">
        <ele>416</ele>
        <time>2019-05-01T08:41:03.000Z</time>
      </trkpt>
      <trkpt lat="50.38559" lon="5.68499">
        <ele>417.20001220703</ele>
        <time>2019-05-01T08:41:04.000Z</time>
      </trkpt>
      <trkpt lat="50.38555" lon="5.68492">
        <ele>417.39999389648</ele>
        <time>2019-05-01T08:41:05.000Z</time>
      </trkpt>
      <trkpt lat="50.38549" lon="5.68479">
        <ele>418.20001220703</ele>
        <time>2019-05-01T08:41:06.000Z</time>
      </trkpt>
      <trkpt lat="50.38535" lon="5.68458">
        <ele>419.60000610352</ele>
        <time>2019-05-01T08:41:07.000Z</time>
      </trkpt>
      <trkpt lat="50.38527" lon="5.68447">
        <ele>420.20001220703</ele>
        <time>2019-05-01T08:41:08.000Z</time>
      </trkpt>
      <trkpt lat="50.38519" lon="5.68435">
        <ele>420.79998779297</ele>
        <time>2019-05-01T08:41:09.000Z</time>
      </trkpt>
      <trkpt lat="50.38511" lon="5.68424">
        <ele>421.39999389648</ele>
        <time>2019-05-01T08:41:10.000Z</time>
      </trkpt>
      <trkpt lat="50.38504" lon="5.68413">
        <ele>422</ele>
        <time>2019-05-01T08:41:12.000Z</time>
      </trkpt>
      <trkpt lat="50.38491" lon="5.68396">
        <ele>423</ele>
        <time>2019-05-01T08:41:13.000Z</time>
      </trkpt>
      <trkpt lat="50.38481" lon="5.68382">
        <ele>424</ele>
        <time>2019-05-01T08:41:15.000Z</time>
      </trkpt>
      <trkpt lat="50.38481" lon="5.68381">
        <ele>424.39999389648</ele>
        <time>2019-05-01T08:41:16.000Z</time>
      </trkpt>
      <trkpt lat="50.38481" lon="5.68381">
        <ele>424.60000610352</ele>
        <time>2019-05-01T08:41:20.000Z</time>
      </trkpt>
      <trkpt lat="50.3848" lon="5.68381">
        <ele>425</ele>
        <time>2019-05-01T08:41:24.000Z</time>
      </trkpt>
      <trkpt lat="50.3848" lon="5.6838">
        <ele>425.79998779297</ele>
        <time>2019-05-01T08:41:25.000Z</time>
      </trkpt>
      <trkpt lat="50.38479" lon="5.68379">
        <ele>426.20001220703</ele>
        <time>2019-05-01T08:41:27.000Z</time>
      </trkpt>
      <trkpt lat="50.38478" lon="5.68374">
        <ele>426.79998779297</ele>
        <time>2019-05-01T08:41:29.000Z</time>
      </trkpt>
      <trkpt lat="50.38477" lon="5.68371">
        <ele>426.79998779297</ele>
        <time>2019-05-01T08:41:30.000Z</time>
      </trkpt>
      <trkpt lat="50.38474" lon="5.68369">
        <ele>427</ele>
        <time>2019-05-01T08:41:31.000Z</time>
      </trkpt>
      <trkpt lat="50.38466" lon="5.68355">
        <ele>427</ele>
        <time>2019-05-01T08:41:36.000Z</time>
      </trkpt>
      <trkpt lat="50.38464" lon="5.6835">
        <ele>427</ele>
        <time>2019-05-01T08:41:39.000Z</time>
      </trkpt>
      <trkpt lat="50.38444" lon="5.68309">
        <ele>427.60000610352</ele>
        <time>2019-05-01T08:41:41.000Z</time>
      </trkpt>
      <trkpt lat="50.3843" lon="5.6828">
        <ele>428.20001220703</ele>
        <time>2019-05-01T08:41:44.000Z</time>
      </trkpt>
      <trkpt lat="50.38421" lon="5.68261">
        <ele>428.79998779297</ele>
        <time>2019-05-01T08:41:45.000Z</time>
      </trkpt>
      <trkpt lat="50.38413" lon="5.68248">
        <ele>429.39999389648</ele>
        <time>2019-05-01T08:41:47.000Z</time>
      </trkpt>
      <trkpt lat="50.38401" lon="5.68233">
        <ele>430.20001220703</ele>
        <time>2019-05-01T08:41:48.000Z</time>
      </trkpt>
      <trkpt lat="50.38397" lon="5.6823">
        <ele>430.60000610352</ele>
        <time>2019-05-01T08:41:50.000Z</time>
      </trkpt>
      <trkpt lat="50.38384" lon="5.68213">
        <ele>431.79998779297</ele>
        <time>2019-05-01T08:41:53.000Z</time>
      </trkpt>
      <trkpt lat="50.38382" lon="5.6821">
        <ele>432</ele>
        <time>2019-05-01T08:41:55.000Z</time>
      </trkpt>
      <trkpt lat="50.38375" lon="5.68198">
        <ele>433</ele>
        <time>2019-05-01T08:42:00.000Z</time>
      </trkpt>
      <trkpt lat="50.38358" lon="5.68168">
        <ele>434</ele>
        <time>2019-05-01T08:42:01.000Z</time>
      </trkpt>
      <trkpt lat="50.38338" lon="5.68131">
        <ele>435.20001220703</ele>
        <time>2019-05-01T08:42:06.000Z</time>
      </trkpt>
      <trkpt lat="50.38333" lon="5.68123">
        <ele>435.39999389648</ele>
        <time>2019-05-01T08:42:12.000Z</time>
      </trkpt>
      <trkpt lat="50.38318" lon="5.68097">
        <ele>436.20001220703</ele>
        <time>2019-05-01T08:42:19.000Z</time>
      </trkpt>
      <trkpt lat="50.38315" lon="5.68088">
        <ele>436.39999389648</ele>
        <time>2019-05-01T08:42:20.000Z</time>
      </trkpt>
      <trkpt lat="50.3831" lon="5.68076">
        <ele>436.60000610352</ele>
        <time>2019-05-01T08:42:25.000Z</time>
      </trkpt>
      <trkpt lat="50.383" lon="5.68039">
        <ele>437.20001220703</ele>
        <time>2019-05-01T08:42:30.000Z</time>
      </trkpt>
      <trkpt lat="50.38292" lon="5.68014">
        <ele>437.20001220703</ele>
        <time>2019-05-01T08:42:31.000Z</time>
      </trkpt>
      <trkpt lat="50.38288" lon="5.68006">
        <ele>437</ele>
        <time>2019-05-01T08:42:32.000Z</time>
      </trkpt>
      <trkpt lat="50.38282" lon="5.68">
        <ele>437.20001220703</ele>
        <time>2019-05-01T08:42:34.000Z</time>
      </trkpt>
      <trkpt lat="50.3828" lon="5.67992">
        <ele>437</ele>
        <time>2019-05-01T08:42:36.000Z</time>
      </trkpt>
      <trkpt lat="50.3828" lon="5.67992">
        <ele>436.79998779297</ele>
        <time>2019-05-01T08:42:38.000Z</time>
      </trkpt>
      <trkpt lat="50.3828" lon="5.6799">
        <ele>436.79998779297</ele>
        <time>2019-05-01T08:42:39.000Z</time>
      </trkpt>
      <trkpt lat="50.38273" lon="5.67984">
        <ele>436.60000610352</ele>
        <time>2019-05-01T08:42:40.000Z</time>
      </trkpt>
      <trkpt lat="50.38272" lon="5.67983">
        <ele>436.60000610352</ele>
        <time>2019-05-01T08:42:41.000Z</time>
      </trkpt>
      <trkpt lat="50.38271" lon="5.67981">
        <ele>436.79998779297</ele>
        <time>2019-05-01T08:42:42.000Z</time>
      </trkpt>
      <trkpt lat="50.38271" lon="5.67978">
        <ele>436.79998779297</ele>
        <time>2019-05-01T08:42:44.000Z</time>
      </trkpt>
      <trkpt lat="50.3827" lon="5.67976">
        <ele>436.79998779297</ele>
        <time>2019-05-01T08:42:46.000Z</time>
      </trkpt>
      <trkpt lat="50.38264" lon="5.67968">
        <ele>436.79998779297</ele>
        <time>2019-05-01T08:42:47.000Z</time>
      </trkpt>
      <trkpt lat="50.3826" lon="5.67961">
        <ele>436.79998779297</ele>
        <time>2019-05-01T08:42:48.000Z</time>
      </trkpt>
      <trkpt lat="50.38246" lon="5.67938">
        <ele>436.79998779297</ele>
        <time>2019-05-01T08:42:50.000Z</time>
      </trkpt>
      <trkpt lat="50.38223" lon="5.67899">
        <ele>436.39999389648</ele>
        <time>2019-05-01T08:42:51.000Z</time>
      </trkpt>
      <trkpt lat="50.382" lon="5.67866">
        <ele>435.79998779297</ele>
        <time>2019-05-01T08:42:52.000Z</time>
      </trkpt>
      <trkpt lat="50.38192" lon="5.67855">
        <ele>435.60000610352</ele>
        <time>2019-05-01T08:42:54.000Z</time>
      </trkpt>
      <trkpt lat="50.38169" lon="5.67825">
        <ele>434.79998779297</ele>
        <time>2019-05-01T08:42:55.000Z</time>
      </trkpt>
      <trkpt lat="50.38167" lon="5.6782">
        <ele>434.79998779297</ele>
        <time>2019-05-01T08:42:57.000Z</time>
      </trkpt>
      <trkpt lat="50.38167" lon="5.67816">
        <ele>434.79998779297</ele>
        <time>2019-05-01T08:42:59.000Z</time>
      </trkpt>
      <trkpt lat="50.38171" lon="5.678">
        <ele>434.20001220703</ele>
        <time>2019-05-01T08:43:00.000Z</time>
      </trkpt>
      <trkpt lat="50.38173" lon="5.67793">
        <ele>434.20001220703</ele>
        <time>2019-05-01T08:43:01.000Z</time>
      </trkpt>
      <trkpt lat="50.38179" lon="5.67764">
        <ele>434.20001220703</ele>
        <time>2019-05-01T08:43:02.000Z</time>
      </trkpt>
      <trkpt lat="50.38183" lon="5.67749">
        <ele>434.20001220703</ele>
        <time>2019-05-01T08:43:03.000Z</time>
      </trkpt>
      <trkpt lat="50.3819" lon="5.67716">
        <ele>434.20001220703</ele>
        <time>2019-05-01T08:43:04.000Z</time>
      </trkpt>
      <trkpt lat="50.38198" lon="5.67684">
        <ele>434.20001220703</ele>
        <time>2019-05-01T08:43:05.000Z</time>
      </trkpt>
      <trkpt lat="50.38206" lon="5.67645">
        <ele>434.20001220703</ele>
        <time>2019-05-01T08:43:06.000Z</time>
      </trkpt>
      <trkpt lat="50.38212" lon="5.67621">
        <ele>434.39999389648</ele>
        <time>2019-05-01T08:43:07.000Z</time>
      </trkpt>
      <trkpt lat="50.38223" lon="5.67571">
        <ele>434.79998779297</ele>
        <time>2019-05-01T08:43:08.000Z</time>
      </trkpt>
      <trkpt lat="50.38231" lon="5.67538">
        <ele>435</ele>
        <time>2019-05-01T08:43:09.000Z</time>
      </trkpt>
      <trkpt lat="50.38238" lon="5.67504">
        <ele>435.20001220703</ele>
        <time>2019-05-01T08:43:10.000Z</time>
      </trkpt>
      <trkpt lat="50.38252" lon="5.67443">
        <ele>435.79998779297</ele>
        <time>2019-05-01T08:43:11.000Z</time>
      </trkpt>
      <trkpt lat="50.38263" lon="5.6739">
        <ele>436.20001220703</ele>
        <time>2019-05-01T08:43:13.000Z</time>
      </trkpt>
      <trkpt lat="50.38266" lon="5.67373">
        <ele>436.39999389648</ele>
        <time>2019-05-01T08:43:14.000Z</time>
      </trkpt>
      <trkpt lat="50.3828" lon="5.6731">
        <ele>436.39999389648</ele>
        <time>2019-05-01T08:43:15.000Z</time>
      </trkpt>
      <trkpt lat="50.383" lon="5.67226">
        <ele>436.60000610352</ele>
        <time>2019-05-01T08:43:16.000Z</time>
      </trkpt>
      <trkpt lat="50.38318" lon="5.67145">
        <ele>436.20001220703</ele>
        <time>2019-05-01T08:43:17.000Z</time>
      </trkpt>
      <trkpt lat="50.38323" lon="5.67125">
        <ele>436</ele>
        <time>2019-05-01T08:43:18.000Z</time>
      </trkpt>
      <trkpt lat="50.3834" lon="5.67051">
        <ele>435.20001220703</ele>
        <time>2019-05-01T08:43:19.000Z</time>
      </trkpt>
      <trkpt lat="50.38345" lon="5.67029">
        <ele>435</ele>
        <time>2019-05-01T08:43:20.000Z</time>
      </trkpt>
      <trkpt lat="50.38361" lon="5.6696">
        <ele>434.20001220703</ele>
        <time>2019-05-01T08:43:21.000Z</time>
      </trkpt>
      <trkpt lat="50.38371" lon="5.66914">
        <ele>433.39999389648</ele>
        <time>2019-05-01T08:43:22.000Z</time>
      </trkpt>
      <trkpt lat="50.38376" lon="5.66891">
        <ele>433</ele>
        <time>2019-05-01T08:43:23.000Z</time>
      </trkpt>
      <trkpt lat="50.38393" lon="5.66814">
        <ele>431.79998779297</ele>
        <time>2019-05-01T08:43:24.000Z</time>
      </trkpt>
      <trkpt lat="50.38405" lon="5.66761">
        <ele>430.79998779297</ele>
        <time>2019-05-01T08:43:25.000Z</time>
      </trkpt>
      <trkpt lat="50.38417" lon="5.66706">
        <ele>429.60000610352</ele>
        <time>2019-05-01T08:43:26.000Z</time>
      </trkpt>
      <trkpt lat="50.38424" lon="5.66678">
        <ele>429</ele>
        <time>2019-05-01T08:43:27.000Z</time>
      </trkpt>
      <trkpt lat="50.3843" lon="5.66649">
        <ele>428.39999389648</ele>
        <time>2019-05-01T08:43:28.000Z</time>
      </trkpt>
      <trkpt lat="50.3844" lon="5.66605">
        <ele>427.20001220703</ele>
        <time>2019-05-01T08:43:29.000Z</time>
      </trkpt>
      <trkpt lat="50.3845" lon="5.66559">
        <ele>426</ele>
        <time>2019-05-01T08:43:30.000Z</time>
      </trkpt>
      <trkpt lat="50.38454" lon="5.66544">
        <ele>425.60000610352</ele>
        <time>2019-05-01T08:43:31.000Z</time>
      </trkpt>
      <trkpt lat="50.3846" lon="5.66514">
        <ele>425</ele>
        <time>2019-05-01T08:43:32.000Z</time>
      </trkpt>
      <trkpt lat="50.38474" lon="5.66469">
        <ele>423.79998779297</ele>
        <time>2019-05-01T08:43:33.000Z</time>
      </trkpt>
      <trkpt lat="50.38479" lon="5.66455">
        <ele>423.60000610352</ele>
        <time>2019-05-01T08:43:34.000Z</time>
      </trkpt>
      <trkpt lat="50.38499" lon="5.66415">
        <ele>422.39999389648</ele>
        <time>2019-05-01T08:43:35.000Z</time>
      </trkpt>
      <trkpt lat="50.38506" lon="5.66403">
        <ele>422</ele>
        <time>2019-05-01T08:43:36.000Z</time>
      </trkpt>
      <trkpt lat="50.38523" lon="5.6638">
        <ele>421</ele>
        <time>2019-05-01T08:43:38.000Z</time>
      </trkpt>
      <trkpt lat="50.38541" lon="5.66361">
        <ele>420</ele>
        <time>2019-05-01T08:43:39.000Z</time>
      </trkpt>
      <trkpt lat="50.3855" lon="5.66352">
        <ele>419.60000610352</ele>
        <time>2019-05-01T08:43:40.000Z</time>
      </trkpt>
      <trkpt lat="50.38581" lon="5.66331">
        <ele>418.39999389648</ele>
        <time>2019-05-01T08:43:41.000Z</time>
      </trkpt>
      <trkpt lat="50.38592" lon="5.66326">
        <ele>418</ele>
        <time>2019-05-01T08:43:42.000Z</time>
      </trkpt>
      <trkpt lat="50.38612" lon="5.66318">
        <ele>417</ele>
        <time>2019-05-01T08:43:44.000Z</time>
      </trkpt>
      <trkpt lat="50.38633" lon="5.66312">
        <ele>416.20001220703</ele>
        <time>2019-05-01T08:43:45.000Z</time>
      </trkpt>
      <trkpt lat="50.38644" lon="5.66309">
        <ele>415.79998779297</ele>
        <time>2019-05-01T08:43:47.000Z</time>
      </trkpt>
      <trkpt lat="50.38675" lon="5.66301">
        <ele>414</ele>
        <time>2019-05-01T08:43:48.000Z</time>
      </trkpt>
      <trkpt lat="50.38694" lon="5.66295">
        <ele>413.39999389648</ele>
        <time>2019-05-01T08:43:50.000Z</time>
      </trkpt>
      <trkpt lat="50.38704" lon="5.66292">
        <ele>412.79998779297</ele>
        <time>2019-05-01T08:43:52.000Z</time>
      </trkpt>
      <trkpt lat="50.38735" lon="5.66282">
        <ele>411.20001220703</ele>
        <time>2019-05-01T08:43:53.000Z</time>
      </trkpt>
      <trkpt lat="50.38762" lon="5.66275">
        <ele>409.79998779297</ele>
        <time>2019-05-01T08:43:54.000Z</time>
      </trkpt>
      <trkpt lat="50.38774" lon="5.66271">
        <ele>408.20001220703</ele>
        <time>2019-05-01T08:44:01.000Z</time>
      </trkpt>
      <trkpt lat="50.38778" lon="5.66266">
        <ele>407.79998779297</ele>
        <time>2019-05-01T08:44:02.000Z</time>
      </trkpt>
      <trkpt lat="50.3878" lon="5.66259">
        <ele>407</ele>
        <time>2019-05-01T08:44:04.000Z</time>
      </trkpt>
      <trkpt lat="50.38778" lon="5.66251">
        <ele>406.39999389648</ele>
        <time>2019-05-01T08:44:06.000Z</time>
      </trkpt>
      <trkpt lat="50.38775" lon="5.66244">
        <ele>405.39999389648</ele>
        <time>2019-05-01T08:44:07.000Z</time>
      </trkpt>
      <trkpt lat="50.38771" lon="5.66236">
        <ele>404.79998779297</ele>
        <time>2019-05-01T08:44:13.000Z</time>
      </trkpt>
      <trkpt lat="50.38767" lon="5.66228">
        <ele>404.39999389648</ele>
        <time>2019-05-01T08:44:18.000Z</time>
      </trkpt>
      <trkpt lat="50.38763" lon="5.6622">
        <ele>404</ele>
        <time>2019-05-01T08:44:21.000Z</time>
      </trkpt>
      <trkpt lat="50.38755" lon="5.66203">
        <ele>403.20001220703</ele>
        <time>2019-05-01T08:44:28.000Z</time>
      </trkpt>
      <trkpt lat="50.38747" lon="5.66187">
        <ele>402.79998779297</ele>
        <time>2019-05-01T08:44:29.000Z</time>
      </trkpt>
      <trkpt lat="50.38741" lon="5.66172">
        <ele>402</ele>
        <time>2019-05-01T08:44:35.000Z</time>
      </trkpt>
      <trkpt lat="50.38738" lon="5.66165">
        <ele>401.79998779297</ele>
        <time>2019-05-01T08:44:41.000Z</time>
      </trkpt>
      <trkpt lat="50.38731" lon="5.66151">
        <ele>401.60000610352</ele>
        <time>2019-05-01T08:44:48.000Z</time>
      </trkpt>
      <trkpt lat="50.38726" lon="5.66135">
        <ele>401</ele>
        <time>2019-05-01T08:44:50.000Z</time>
      </trkpt>
      <trkpt lat="50.38722" lon="5.6612">
        <ele>400.79998779297</ele>
        <time>2019-05-01T08:44:54.000Z</time>
      </trkpt>
      <trkpt lat="50.38718" lon="5.66106">
        <ele>400.60000610352</ele>
        <time>2019-05-01T08:45:01.000Z</time>
      </trkpt>
      <trkpt lat="50.38717" lon="5.66097">
        <ele>400.39999389648</ele>
        <time>2019-05-01T08:45:04.000Z</time>
      </trkpt>
      <trkpt lat="50.38717" lon="5.6609">
        <ele>399.79998779297</ele>
        <time>2019-05-01T08:45:07.000Z</time>
      </trkpt>
      <trkpt lat="50.38716" lon="5.6609">
        <ele>399.60000610352</ele>
        <time>2019-05-01T08:45:09.000Z</time>
      </trkpt>
      <trkpt lat="50.38716" lon="5.66089">
        <ele>399.39999389648</ele>
        <time>2019-05-01T08:45:11.000Z</time>
      </trkpt>
      <trkpt lat="50.38716" lon="5.66089">
        <ele>399.20001220703</ele>
        <time>2019-05-01T08:45:12.000Z</time>
      </trkpt>
      <trkpt lat="50.38715" lon="5.66089">
        <ele>399</ele>
        <time>2019-05-01T08:45:13.000Z</time>
      </trkpt>
      <trkpt lat="50.38714" lon="5.66085">
        <ele>399</ele>
        <time>2019-05-01T08:45:18.000Z</time>
      </trkpt>
      <trkpt lat="50.38713" lon="5.6608">
        <ele>399.20001220703</ele>
        <time>2019-05-01T08:45:22.000Z</time>
      </trkpt>
      <trkpt lat="50.3871" lon="5.66069">
        <ele>398.60000610352</ele>
        <time>2019-05-01T08:45:24.000Z</time>
      </trkpt>
      <trkpt lat="50.38704" lon="5.66048">
        <ele>398.39999389648</ele>
        <time>2019-05-01T08:45:29.000Z</time>
      </trkpt>
      <trkpt lat="50.38692" lon="5.66002">
        <ele>398.60000610352</ele>
        <time>2019-05-01T08:45:35.000Z</time>
      </trkpt>
      <trkpt lat="50.38675" lon="5.65942">
        <ele>397.79998779297</ele>
        <time>2019-05-01T08:45:39.000Z</time>
      </trkpt>
      <trkpt lat="50.38672" lon="5.6593">
        <ele>397.60000610352</ele>
        <time>2019-05-01T08:45:42.000Z</time>
      </trkpt>
      <trkpt lat="50.38666" lon="5.65893">
        <ele>397</ele>
        <time>2019-05-01T08:45:49.000Z</time>
      </trkpt>
      <trkpt lat="50.38664" lon="5.65878">
        <ele>396.60000610352</ele>
        <time>2019-05-01T08:45:55.000Z</time>
      </trkpt>
      <trkpt lat="50.38663" lon="5.65863">
        <ele>396.20001220703</ele>
        <time>2019-05-01T08:45:57.000Z</time>
      </trkpt>
      <trkpt lat="50.38658" lon="5.65816">
        <ele>395</ele>
        <time>2019-05-01T08:46:00.000Z</time>
      </trkpt>
      <trkpt lat="50.38656" lon="5.65798">
        <ele>394.60000610352</ele>
        <time>2019-05-01T08:46:01.000Z</time>
      </trkpt>
      <trkpt lat="50.38653" lon="5.65762">
        <ele>393.20001220703</ele>
        <time>2019-05-01T08:46:04.000Z</time>
      </trkpt>
      <trkpt lat="50.3865" lon="5.65725">
        <ele>392</ele>
        <time>2019-05-01T08:46:09.000Z</time>
      </trkpt>
      <trkpt lat="50.38646" lon="5.65687">
        <ele>390.79998779297</ele>
        <time>2019-05-01T08:46:13.000Z</time>
      </trkpt>
      <trkpt lat="50.38644" lon="5.65667">
        <ele>389.79998779297</ele>
        <time>2019-05-01T08:46:18.000Z</time>
      </trkpt>
      <trkpt lat="50.38642" lon="5.65648">
        <ele>388.79998779297</ele>
        <time>2019-05-01T08:46:23.000Z</time>
      </trkpt>
      <trkpt lat="50.38639" lon="5.65611">
        <ele>387.39999389648</ele>
        <time>2019-05-01T08:46:26.000Z</time>
      </trkpt>
      <trkpt lat="50.38636" lon="5.65594">
        <ele>386.79998779297</ele>
        <time>2019-05-01T08:46:28.000Z</time>
      </trkpt>
      <trkpt lat="50.38633" lon="5.6558">
        <ele>385.79998779297</ele>
        <time>2019-05-01T08:46:30.000Z</time>
      </trkpt>
      <trkpt lat="50.38622" lon="5.6556">
        <ele>384.20001220703</ele>
        <time>2019-05-01T08:46:33.000Z</time>
      </trkpt>
      <trkpt lat="50.38606" lon="5.65549">
        <ele>382.39999389648</ele>
        <time>2019-05-01T08:46:38.000Z</time>
      </trkpt>
      <trkpt lat="50.38597" lon="5.65548">
        <ele>381.20001220703</ele>
        <time>2019-05-01T08:46:39.000Z</time>
      </trkpt>
      <trkpt lat="50.38579" lon="5.65547">
        <ele>379.60000610352</ele>
        <time>2019-05-01T08:46:46.000Z</time>
      </trkpt>
      <trkpt lat="50.3857" lon="5.65543">
        <ele>378.79998779297</ele>
        <time>2019-05-01T08:46:52.000Z</time>
      </trkpt>
      <trkpt lat="50.38563" lon="5.65536">
        <ele>378.20001220703</ele>
        <time>2019-05-01T08:46:55.000Z</time>
      </trkpt>
      <trkpt lat="50.38553" lon="5.65518">
        <ele>377.20001220703</ele>
        <time>2019-05-01T08:47:02.000Z</time>
      </trkpt>
      <trkpt lat="50.38551" lon="5.65498">
        <ele>375.60000610352</ele>
        <time>2019-05-01T08:47:04.000Z</time>
      </trkpt>
      <trkpt lat="50.3855" lon="5.65487">
        <ele>375</ele>
        <time>2019-05-01T08:47:05.000Z</time>
      </trkpt>
      <trkpt lat="50.38548" lon="5.65462">
        <ele>374.60000610352</ele>
        <time>2019-05-01T08:47:12.000Z</time>
      </trkpt>
      <trkpt lat="50.38545" lon="5.65422">
        <ele>374.39999389648</ele>
        <time>2019-05-01T08:47:13.000Z</time>
      </trkpt>
      <trkpt lat="50.38543" lon="5.6538">
        <ele>374.39999389648</ele>
        <time>2019-05-01T08:47:20.000Z</time>
      </trkpt>
      <trkpt lat="50.38541" lon="5.65338">
        <ele>374.39999389648</ele>
        <time>2019-05-01T08:47:22.000Z</time>
      </trkpt>
      <trkpt lat="50.3854" lon="5.65324">
        <ele>374.39999389648</ele>
        <time>2019-05-01T08:47:29.000Z</time>
      </trkpt>
      <trkpt lat="50.38536" lon="5.65252">
        <ele>374.39999389648</ele>
        <time>2019-05-01T08:47:30.000Z</time>
      </trkpt>
      <trkpt lat="50.38533" lon="5.65209">
        <ele>374.39999389648</ele>
        <time>2019-05-01T08:47:35.000Z</time>
      </trkpt>
      <trkpt lat="50.38527" lon="5.65124">
        <ele>373.79998779297</ele>
        <time>2019-05-01T08:47:37.000Z</time>
      </trkpt>
      <trkpt lat="50.38525" lon="5.65095">
        <ele>373.39999389648</ele>
        <time>2019-05-01T08:47:44.000Z</time>
      </trkpt>
      <trkpt lat="50.3852" lon="5.65037">
        <ele>373</ele>
        <time>2019-05-01T08:47:48.000Z</time>
      </trkpt>
      <trkpt lat="50.38513" lon="5.64993">
        <ele>372.39999389648</ele>
        <time>2019-05-01T08:47:50.000Z</time>
      </trkpt>
      <trkpt lat="50.38504" lon="5.6495">
        <ele>371.79998779297</ele>
        <time>2019-05-01T08:47:55.000Z</time>
      </trkpt>
      <trkpt lat="50.38493" lon="5.64907">
        <ele>371.39999389648</ele>
        <time>2019-05-01T08:48:00.000Z</time>
      </trkpt>
      <trkpt lat="50.38474" lon="5.64833">
        <ele>370.39999389648</ele>
        <time>2019-05-01T08:48:02.000Z</time>
      </trkpt>
      <trkpt lat="50.38459" lon="5.64774">
        <ele>369.20001220703</ele>
        <time>2019-05-01T08:48:09.000Z</time>
      </trkpt>
      <trkpt lat="50.38451" lon="5.64745">
        <ele>368.20001220703</ele>
        <time>2019-05-01T08:48:14.000Z</time>
      </trkpt>
      <trkpt lat="50.38443" lon="5.64716">
        <ele>367.39999389648</ele>
        <time>2019-05-01T08:48:19.000Z</time>
      </trkpt>
      <trkpt lat="50.38439" lon="5.64702">
        <ele>367</ele>
        <time>2019-05-01T08:48:26.000Z</time>
      </trkpt>
      <trkpt lat="50.38428" lon="5.64659">
        <ele>366.39999389648</ele>
        <time>2019-05-01T08:48:32.000Z</time>
      </trkpt>
      <trkpt lat="50.38422" lon="5.64645">
        <ele>366</ele>
        <time>2019-05-01T08:48:33.000Z</time>
      </trkpt>
      <trkpt lat="50.3839" lon="5.64586">
        <ele>364.79998779297</ele>
        <time>2019-05-01T08:48:36.000Z</time>
      </trkpt>
      <trkpt lat="50.38355" lon="5.64528">
        <ele>364</ele>
        <time>2019-05-01T08:48:38.000Z</time>
      </trkpt>
      <trkpt lat="50.38348" lon="5.64516">
        <ele>363.79998779297</ele>
        <time>2019-05-01T08:48:43.000Z</time>
      </trkpt>
      <trkpt lat="50.38341" lon="5.64505">
        <ele>363.79998779297</ele>
        <time>2019-05-01T08:48:48.000Z</time>
      </trkpt>
      <trkpt lat="50.38314" lon="5.64461">
        <ele>362.79998779297</ele>
        <time>2019-05-01T08:48:53.000Z</time>
      </trkpt>
      <trkpt lat="50.38302" lon="5.64442">
        <ele>362.20001220703</ele>
        <time>2019-05-01T08:48:59.000Z</time>
      </trkpt>
      <trkpt lat="50.38291" lon="5.64421">
        <ele>361.79998779297</ele>
        <time>2019-05-01T08:49:04.000Z</time>
      </trkpt>
      <trkpt lat="50.38283" lon="5.64399">
        <ele>361.20001220703</ele>
        <time>2019-05-01T08:49:09.000Z</time>
      </trkpt>
      <trkpt lat="50.38274" lon="5.64367">
        <ele>360.79998779297</ele>
        <time>2019-05-01T08:49:16.000Z</time>
      </trkpt>
      <trkpt lat="50.38267" lon="5.64349">
        <ele>360.79998779297</ele>
        <time>2019-05-01T08:49:17.000Z</time>
      </trkpt>
      <trkpt lat="50.38239" lon="5.64299">
        <ele>360.79998779297</ele>
        <time>2019-05-01T08:49:20.000Z</time>
      </trkpt>
      <trkpt lat="50.38201" lon="5.64239">
        <ele>361.60000610352</ele>
        <time>2019-05-01T08:49:22.000Z</time>
      </trkpt>
      <trkpt lat="50.38196" lon="5.64231">
        <ele>361.60000610352</ele>
        <time>2019-05-01T08:49:24.000Z</time>
      </trkpt>
      <trkpt lat="50.38153" lon="5.64175">
        <ele>361.60000610352</ele>
        <time>2019-05-01T08:49:26.000Z</time>
      </trkpt>
      <trkpt lat="50.3814" lon="5.64161">
        <ele>361.60000610352</ele>
        <time>2019-05-01T08:49:31.000Z</time>
      </trkpt>
      <trkpt lat="50.38125" lon="5.6415">
        <ele>361.39999389648</ele>
        <time>2019-05-01T08:49:33.000Z</time>
      </trkpt>
      <trkpt lat="50.3811" lon="5.64142">
        <ele>361.20001220703</ele>
        <time>2019-05-01T08:49:37.000Z</time>
      </trkpt>
      <trkpt lat="50.3808" lon="5.64124">
        <ele>360.79998779297</ele>
        <time>2019-05-01T08:49:42.000Z</time>
      </trkpt>
      <trkpt lat="50.38066" lon="5.64112">
        <ele>360.60000610352</ele>
        <time>2019-05-01T08:49:48.000Z</time>
      </trkpt>
      <trkpt lat="50.38052" lon="5.641">
        <ele>360.39999389648</ele>
        <time>2019-05-01T08:49:53.000Z</time>
      </trkpt>
      <trkpt lat="50.38032" lon="5.64081">
        <ele>360</ele>
        <time>2019-05-01T08:49:54.000Z</time>
      </trkpt>
      <trkpt lat="50.38011" lon="5.64062">
        <ele>359.79998779297</ele>
        <time>2019-05-01T08:49:56.000Z</time>
      </trkpt>
      <trkpt lat="50.37999" lon="5.64044">
        <ele>359.79998779297</ele>
        <time>2019-05-01T08:49:57.000Z</time>
      </trkpt>
      <trkpt lat="50.37986" lon="5.64026">
        <ele>359.79998779297</ele>
        <time>2019-05-01T08:49:58.000Z</time>
      </trkpt>
      <trkpt lat="50.37978" lon="5.64019">
        <ele>359.60000610352</ele>
        <time>2019-05-01T08:50:01.000Z</time>
      </trkpt>
      <trkpt lat="50.3797" lon="5.64013">
        <ele>359.39999389648</ele>
        <time>2019-05-01T08:50:07.000Z</time>
      </trkpt>
      <trkpt lat="50.37933" lon="5.63988">
        <ele>358.20001220703</ele>
        <time>2019-05-01T08:50:11.000Z</time>
      </trkpt>
      <trkpt lat="50.37916" lon="5.63976">
        <ele>357.60000610352</ele>
        <time>2019-05-01T08:50:17.000Z</time>
      </trkpt>
      <trkpt lat="50.37907" lon="5.63969">
        <ele>357</ele>
        <time>2019-05-01T08:50:18.000Z</time>
      </trkpt>
      <trkpt lat="50.3788" lon="5.63947">
        <ele>355.39999389648</ele>
        <time>2019-05-01T08:50:20.000Z</time>
      </trkpt>
      <trkpt lat="50.37871" lon="5.63937">
        <ele>354.60000610352</ele>
        <time>2019-05-01T08:50:26.000Z</time>
      </trkpt>
      <trkpt lat="50.37863" lon="5.63926">
        <ele>354</ele>
        <time>2019-05-01T08:50:27.000Z</time>
      </trkpt>
      <trkpt lat="50.37844" lon="5.63904">
        <ele>352.60000610352</ele>
        <time>2019-05-01T08:50:29.000Z</time>
      </trkpt>
      <trkpt lat="50.37834" lon="5.63895">
        <ele>352</ele>
        <time>2019-05-01T08:50:31.000Z</time>
      </trkpt>
      <trkpt lat="50.37824" lon="5.63886">
        <ele>350.39999389648</ele>
        <time>2019-05-01T08:50:34.000Z</time>
      </trkpt>
      <trkpt lat="50.37801" lon="5.63872">
        <ele>348.60000610352</ele>
        <time>2019-05-01T08:50:35.000Z</time>
      </trkpt>
      <trkpt lat="50.37789" lon="5.63867">
        <ele>347.79998779297</ele>
        <time>2019-05-01T08:50:40.000Z</time>
      </trkpt>
      <trkpt lat="50.37776" lon="5.63862">
        <ele>347.20001220703</ele>
        <time>2019-05-01T08:50:41.000Z</time>
      </trkpt>
      <trkpt lat="50.37752" lon="5.63852">
        <ele>345.60000610352</ele>
        <time>2019-05-01T08:50:47.000Z</time>
      </trkpt>
      <trkpt lat="50.37739" lon="5.63848">
        <ele>344.39999389648</ele>
        <time>2019-05-01T08:50:53.000Z</time>
      </trkpt>
      <trkpt lat="50.37727" lon="5.63844">
        <ele>343.39999389648</ele>
        <time>2019-05-01T08:50:54.000Z</time>
      </trkpt>
      <trkpt lat="50.37716" lon="5.63841">
        <ele>342.39999389648</ele>
        <time>2019-05-01T08:50:58.000Z</time>
      </trkpt>
      <trkpt lat="50.37706" lon="5.63837">
        <ele>341.79998779297</ele>
        <time>2019-05-01T08:51:03.000Z</time>
      </trkpt>
      <trkpt lat="50.37687" lon="5.6383">
        <ele>339.79998779297</ele>
        <time>2019-05-01T08:51:09.000Z</time>
      </trkpt>
      <trkpt lat="50.37679" lon="5.63827">
        <ele>339</ele>
        <time>2019-05-01T08:51:14.000Z</time>
      </trkpt>
      <trkpt lat="50.37671" lon="5.63826">
        <ele>338.20001220703</ele>
        <time>2019-05-01T08:51:18.000Z</time>
      </trkpt>
      <trkpt lat="50.37657" lon="5.6383">
        <ele>337</ele>
        <time>2019-05-01T08:51:19.000Z</time>
      </trkpt>
      <trkpt lat="50.37647" lon="5.63847">
        <ele>335.60000610352</ele>
        <time>2019-05-01T08:51:22.000Z</time>
      </trkpt>
      <trkpt lat="50.37638" lon="5.63872">
        <ele>334.20001220703</ele>
        <time>2019-05-01T08:51:25.000Z</time>
      </trkpt>
      <trkpt lat="50.37633" lon="5.63887">
        <ele>333.79998779297</ele>
        <time>2019-05-01T08:51:26.000Z</time>
      </trkpt>
      <trkpt lat="50.37629" lon="5.63902">
        <ele>333.39999389648</ele>
        <time>2019-05-01T08:51:31.000Z</time>
      </trkpt>
      <trkpt lat="50.37625" lon="5.63917">
        <ele>333</ele>
        <time>2019-05-01T08:51:33.000Z</time>
      </trkpt>
      <trkpt lat="50.37615" lon="5.63947">
        <ele>332</ele>
        <time>2019-05-01T08:51:38.000Z</time>
      </trkpt>
      <trkpt lat="50.37607" lon="5.6396">
        <ele>331.39999389648</ele>
        <time>2019-05-01T08:51:44.000Z</time>
      </trkpt>
      <trkpt lat="50.37599" lon="5.63972">
        <ele>330.60000610352</ele>
        <time>2019-05-01T08:51:50.000Z</time>
      </trkpt>
      <trkpt lat="50.37581" lon="5.63996">
        <ele>328.20001220703</ele>
        <time>2019-05-01T08:51:51.000Z</time>
      </trkpt>
      <trkpt lat="50.37571" lon="5.64006">
        <ele>327.20001220703</ele>
        <time>2019-05-01T08:51:57.000Z</time>
      </trkpt>
      <trkpt lat="50.37562" lon="5.64017">
        <ele>326.39999389648</ele>
        <time>2019-05-01T08:51:58.000Z</time>
      </trkpt>
      <trkpt lat="50.37544" lon="5.64039">
        <ele>324.39999389648</ele>
        <time>2019-05-01T08:52:00.000Z</time>
      </trkpt>
      <trkpt lat="50.37535" lon="5.64049">
        <ele>323.39999389648</ele>
        <time>2019-05-01T08:52:06.000Z</time>
      </trkpt>
      <trkpt lat="50.37526" lon="5.64058">
        <ele>322.20001220703</ele>
        <time>2019-05-01T08:52:08.000Z</time>
      </trkpt>
      <trkpt lat="50.37517" lon="5.64065">
        <ele>321.20001220703</ele>
        <time>2019-05-01T08:52:10.000Z</time>
      </trkpt>
      <trkpt lat="50.37508" lon="5.64071">
        <ele>320.60000610352</ele>
        <time>2019-05-01T08:52:14.000Z</time>
      </trkpt>
      <trkpt lat="50.37499" lon="5.64074">
        <ele>320.39999389648</ele>
        <time>2019-05-01T08:52:18.000Z</time>
      </trkpt>
      <trkpt lat="50.3749" lon="5.64075">
        <ele>320.20001220703</ele>
        <time>2019-05-01T08:52:21.000Z</time>
      </trkpt>
      <trkpt lat="50.37475" lon="5.64065">
        <ele>320.20001220703</ele>
        <time>2019-05-01T08:52:24.000Z</time>
      </trkpt>
      <trkpt lat="50.37464" lon="5.64036">
        <ele>320.20001220703</ele>
        <time>2019-05-01T08:52:27.000Z</time>
      </trkpt>
      <trkpt lat="50.3745" lon="5.64002">
        <ele>320.60000610352</ele>
        <time>2019-05-01T08:52:28.000Z</time>
      </trkpt>
      <trkpt lat="50.37442" lon="5.63984">
        <ele>322</ele>
        <time>2019-05-01T08:52:31.000Z</time>
      </trkpt>
      <trkpt lat="50.37433" lon="5.63967">
        <ele>322.79998779297</ele>
        <time>2019-05-01T08:52:34.000Z</time>
      </trkpt>
      <trkpt lat="50.37426" lon="5.63959">
        <ele>323</ele>
        <time>2019-05-01T08:52:35.000Z</time>
      </trkpt>
      <trkpt lat="50.37419" lon="5.63954">
        <ele>323.60000610352</ele>
        <time>2019-05-01T08:52:41.000Z</time>
      </trkpt>
      <trkpt lat="50.37404" lon="5.63946">
        <ele>324.20001220703</ele>
        <time>2019-05-01T08:52:45.000Z</time>
      </trkpt>
      <trkpt lat="50.37389" lon="5.63942">
        <ele>324.60000610352</ele>
        <time>2019-05-01T08:52:46.000Z</time>
      </trkpt>
      <trkpt lat="50.37367" lon="5.63937">
        <ele>324.79998779297</ele>
        <time>2019-05-01T08:52:49.000Z</time>
      </trkpt>
      <trkpt lat="50.37338" lon="5.6393">
        <ele>325</ele>
        <time>2019-05-01T08:52:54.000Z</time>
      </trkpt>
      <trkpt lat="50.37326" lon="5.63928">
        <ele>325.20001220703</ele>
        <time>2019-05-01T08:52:56.000Z</time>
      </trkpt>
      <trkpt lat="50.3732" lon="5.63927">
        <ele>325.39999389648</ele>
        <time>2019-05-01T08:53:00.000Z</time>
      </trkpt>
      <trkpt lat="50.37311" lon="5.63925">
        <ele>325.60000610352</ele>
        <time>2019-05-01T08:53:01.000Z</time>
      </trkpt>
      <trkpt lat="50.37307" lon="5.63926">
        <ele>325.60000610352</ele>
        <time>2019-05-01T08:53:04.000Z</time>
      </trkpt>
      <trkpt lat="50.37288" lon="5.6393">
        <ele>326.39999389648</ele>
        <time>2019-05-01T08:53:05.000Z</time>
      </trkpt>
      <trkpt lat="50.37282" lon="5.63933">
        <ele>326.60000610352</ele>
        <time>2019-05-01T08:53:06.000Z</time>
      </trkpt>
      <trkpt lat="50.37276" lon="5.63934">
        <ele>327</ele>
        <time>2019-05-01T08:53:07.000Z</time>
      </trkpt>
      <trkpt lat="50.37265" lon="5.63932">
        <ele>327.60000610352</ele>
        <time>2019-05-01T08:53:09.000Z</time>
      </trkpt>
      <trkpt lat="50.37252" lon="5.63917">
        <ele>328.39999389648</ele>
        <time>2019-05-01T08:53:13.000Z</time>
      </trkpt>
      <trkpt lat="50.37248" lon="5.6391">
        <ele>328.60000610352</ele>
        <time>2019-05-01T08:53:14.000Z</time>
      </trkpt>
      <trkpt lat="50.37235" lon="5.63879">
        <ele>330</ele>
        <time>2019-05-01T08:53:19.000Z</time>
      </trkpt>
      <trkpt lat="50.37232" lon="5.63871">
        <ele>330.20001220703</ele>
        <time>2019-05-01T08:53:23.000Z</time>
      </trkpt>
      <trkpt lat="50.37224" lon="5.63855">
        <ele>330.39999389648</ele>
        <time>2019-05-01T08:53:25.000Z</time>
      </trkpt>
      <trkpt lat="50.37213" lon="5.63845">
        <ele>330.39999389648</ele>
        <time>2019-05-01T08:53:28.000Z</time>
      </trkpt>
      <trkpt lat="50.37197" lon="5.63846">
        <ele>330.60000610352</ele>
        <time>2019-05-01T08:53:33.000Z</time>
      </trkpt>
      <trkpt lat="50.37178" lon="5.63858">
        <ele>330.79998779297</ele>
        <time>2019-05-01T08:53:35.000Z</time>
      </trkpt>
      <trkpt lat="50.3717" lon="5.63857">
        <ele>331.20001220703</ele>
        <time>2019-05-01T08:53:41.000Z</time>
      </trkpt>
      <trkpt lat="50.37162" lon="5.63851">
        <ele>331.79998779297</ele>
        <time>2019-05-01T08:53:47.000Z</time>
      </trkpt>
      <trkpt lat="50.37154" lon="5.63842">
        <ele>332.39999389648</ele>
        <time>2019-05-01T08:53:49.000Z</time>
      </trkpt>
      <trkpt lat="50.3715" lon="5.63837">
        <ele>332.60000610352</ele>
        <time>2019-05-01T08:53:55.000Z</time>
      </trkpt>
      <trkpt lat="50.37143" lon="5.63827">
        <ele>333.39999389648</ele>
        <time>2019-05-01T08:53:56.000Z</time>
      </trkpt>
      <trkpt lat="50.37125" lon="5.63816">
        <ele>334.60000610352</ele>
        <time>2019-05-01T08:53:58.000Z</time>
      </trkpt>
      <trkpt lat="50.37108" lon="5.63822">
        <ele>335.20001220703</ele>
        <time>2019-05-01T08:54:04.000Z</time>
      </trkpt>
      <trkpt lat="50.37094" lon="5.63835">
        <ele>335.60000610352</ele>
        <time>2019-05-01T08:54:11.000Z</time>
      </trkpt>
      <trkpt lat="50.37087" lon="5.63845">
        <ele>336</ele>
        <time>2019-05-01T08:54:18.000Z</time>
      </trkpt>
      <trkpt lat="50.37084" lon="5.63851">
        <ele>336.20001220703</ele>
        <time>2019-05-01T08:54:23.000Z</time>
      </trkpt>
      <trkpt lat="50.37076" lon="5.63867">
        <ele>337</ele>
        <time>2019-05-01T08:54:25.000Z</time>
      </trkpt>
      <trkpt lat="50.37069" lon="5.63884">
        <ele>338</ele>
        <time>2019-05-01T08:54:27.000Z</time>
      </trkpt>
      <trkpt lat="50.37067" lon="5.6389">
        <ele>338.39999389648</ele>
        <time>2019-05-01T08:54:30.000Z</time>
      </trkpt>
      <trkpt lat="50.37064" lon="5.63895">
        <ele>339</ele>
        <time>2019-05-01T08:54:35.000Z</time>
      </trkpt>
      <trkpt lat="50.37058" lon="5.63904">
        <ele>339.39999389648</ele>
        <time>2019-05-01T08:54:40.000Z</time>
      </trkpt>
      <trkpt lat="50.37052" lon="5.63912">
        <ele>340</ele>
        <time>2019-05-01T08:54:46.000Z</time>
      </trkpt>
      <trkpt lat="50.37049" lon="5.63915">
        <ele>340.20001220703</ele>
        <time>2019-05-01T08:54:54.000Z</time>
      </trkpt>
      <trkpt lat="50.37037" lon="5.6392">
        <ele>341.20001220703</ele>
        <time>2019-05-01T08:55:02.000Z</time>
      </trkpt>
      <trkpt lat="50.37032" lon="5.6392">
        <ele>341.60000610352</ele>
        <time>2019-05-01T08:55:03.000Z</time>
      </trkpt>
      <trkpt lat="50.37028" lon="5.6392">
        <ele>342</ele>
        <time>2019-05-01T08:55:12.000Z</time>
      </trkpt>
      <trkpt lat="50.37024" lon="5.6392">
        <ele>342.20001220703</ele>
        <time>2019-05-01T08:55:13.000Z</time>
      </trkpt>
      <trkpt lat="50.3701" lon="5.63918">
        <ele>343.20001220703</ele>
        <time>2019-05-01T08:55:20.000Z</time>
      </trkpt>
      <trkpt lat="50.37006" lon="5.63917">
        <ele>343.60000610352</ele>
        <time>2019-05-01T08:55:24.000Z</time>
      </trkpt>
      <trkpt lat="50.36986" lon="5.63915">
        <ele>344.39999389648</ele>
        <time>2019-05-01T08:55:31.000Z</time>
      </trkpt>
      <trkpt lat="50.36972" lon="5.63913">
        <ele>344.79998779297</ele>
        <time>2019-05-01T08:55:37.000Z</time>
      </trkpt>
      <trkpt lat="50.36963" lon="5.63911">
        <ele>345.20001220703</ele>
        <time>2019-05-01T08:55:46.000Z</time>
      </trkpt>
      <trkpt lat="50.36954" lon="5.63909">
        <ele>345.39999389648</ele>
        <time>2019-05-01T08:55:47.000Z</time>
      </trkpt>
      <trkpt lat="50.36946" lon="5.63908">
        <ele>345.79998779297</ele>
        <time>2019-05-01T08:55:49.000Z</time>
      </trkpt>
      <trkpt lat="50.36918" lon="5.63901">
        <ele>346.39999389648</ele>
        <time>2019-05-01T08:55:51.000Z</time>
      </trkpt>
      <trkpt lat="50.36912" lon="5.63899">
        <ele>346.60000610352</ele>
        <time>2019-05-01T08:55:52.000Z</time>
      </trkpt>
      <trkpt lat="50.36866" lon="5.63877">
        <ele>347</ele>
        <time>2019-05-01T08:55:54.000Z</time>
      </trkpt>
      <trkpt lat="50.36807" lon="5.63848">
        <ele>347.60000610352</ele>
        <time>2019-05-01T08:55:57.000Z</time>
      </trkpt>
      <trkpt lat="50.3678" lon="5.63833">
        <ele>348.79998779297</ele>
        <time>2019-05-01T08:56:01.000Z</time>
      </trkpt>
      <trkpt lat="50.36764" lon="5.63825">
        <ele>349.20001220703</ele>
        <time>2019-05-01T08:56:05.000Z</time>
      </trkpt>
      <trkpt lat="50.36744" lon="5.63812">
        <ele>349.39999389648</ele>
        <time>2019-05-01T08:56:09.000Z</time>
      </trkpt>
      <trkpt lat="50.36736" lon="5.63805">
        <ele>349.79998779297</ele>
        <time>2019-05-01T08:56:11.000Z</time>
      </trkpt>
      <trkpt lat="50.36736" lon="5.63805">
        <ele>349.79998779297</ele>
        <time>2019-05-01T08:56:14.000Z</time>
      </trkpt>
      <trkpt lat="50.36724" lon="5.63791">
        <ele>349.79998779297</ele>
        <time>2019-05-01T08:56:18.000Z</time>
      </trkpt>
      <trkpt lat="50.36711" lon="5.63775">
        <ele>350.60000610352</ele>
        <time>2019-05-01T08:56:24.000Z</time>
      </trkpt>
      <trkpt lat="50.36707" lon="5.6377">
        <ele>350.60000610352</ele>
        <time>2019-05-01T08:56:29.000Z</time>
      </trkpt>
      <trkpt lat="50.36686" lon="5.63746">
        <ele>351.39999389648</ele>
        <time>2019-05-01T08:56:35.000Z</time>
      </trkpt>
      <trkpt lat="50.36659" lon="5.63717">
        <ele>351.79998779297</ele>
        <time>2019-05-01T08:56:39.000Z</time>
      </trkpt>
      <trkpt lat="50.36648" lon="5.63705">
        <ele>352</ele>
        <time>2019-05-01T08:56:43.000Z</time>
      </trkpt>
      <trkpt lat="50.36617" lon="5.63669">
        <ele>352.79998779297</ele>
        <time>2019-05-01T08:56:48.000Z</time>
      </trkpt>
      <trkpt lat="50.36602" lon="5.63651">
        <ele>353</ele>
        <time>2019-05-01T08:56:52.000Z</time>
      </trkpt>
      <trkpt lat="50.36579" lon="5.63618">
        <ele>353.79998779297</ele>
        <time>2019-05-01T08:56:55.000Z</time>
      </trkpt>
      <trkpt lat="50.36565" lon="5.63598">
        <ele>354.60000610352</ele>
        <time>2019-05-01T08:56:57.000Z</time>
      </trkpt>
      <trkpt lat="50.36556" lon="5.63584">
        <ele>355</ele>
        <time>2019-05-01T08:57:01.000Z</time>
      </trkpt>
      <trkpt lat="50.36532" lon="5.63552">
        <ele>356.20001220703</ele>
        <time>2019-05-01T08:57:05.000Z</time>
      </trkpt>
      <trkpt lat="50.36527" lon="5.63546">
        <ele>356.39999389648</ele>
        <time>2019-05-01T08:57:06.000Z</time>
      </trkpt>
      <trkpt lat="50.36481" lon="5.63496">
        <ele>357</ele>
        <time>2019-05-01T08:57:11.000Z</time>
      </trkpt>
      <trkpt lat="50.3647" lon="5.63486">
        <ele>357</ele>
        <time>2019-05-01T08:57:14.000Z</time>
      </trkpt>
      <trkpt lat="50.36455" lon="5.63472">
        <ele>357.20001220703</ele>
        <time>2019-05-01T08:57:16.000Z</time>
      </trkpt>
      <trkpt lat="50.36431" lon="5.63451">
        <ele>357.79998779297</ele>
        <time>2019-05-01T08:57:21.000Z</time>
      </trkpt>
      <trkpt lat="50.3642" lon="5.63443">
        <ele>358.20001220703</ele>
        <time>2019-05-01T08:57:22.000Z</time>
      </trkpt>
      <trkpt lat="50.364" lon="5.63427">
        <ele>359.39999389648</ele>
        <time>2019-05-01T08:57:24.000Z</time>
      </trkpt>
      <trkpt lat="50.3639" lon="5.63418">
        <ele>360.20001220703</ele>
        <time>2019-05-01T08:57:26.000Z</time>
      </trkpt>
      <trkpt lat="50.36385" lon="5.63413">
        <ele>360.60000610352</ele>
        <time>2019-05-01T08:57:28.000Z</time>
      </trkpt>
      <trkpt lat="50.36372" lon="5.63397">
        <ele>361.79998779297</ele>
        <time>2019-05-01T08:57:29.000Z</time>
      </trkpt>
      <trkpt lat="50.36359" lon="5.6338">
        <ele>363</ele>
        <time>2019-05-01T08:57:31.000Z</time>
      </trkpt>
      <trkpt lat="50.36354" lon="5.63375">
        <ele>363.20001220703</ele>
        <time>2019-05-01T08:57:34.000Z</time>
      </trkpt>
      <trkpt lat="50.36341" lon="5.63357">
        <ele>364</ele>
        <time>2019-05-01T08:57:36.000Z</time>
      </trkpt>
      <trkpt lat="50.36314" lon="5.63323">
        <ele>365.39999389648</ele>
        <time>2019-05-01T08:57:40.000Z</time>
      </trkpt>
      <trkpt lat="50.36309" lon="5.63318">
        <ele>365.60000610352</ele>
        <time>2019-05-01T08:57:42.000Z</time>
      </trkpt>
      <trkpt lat="50.36288" lon="5.633">
        <ele>366.79998779297</ele>
        <time>2019-05-01T08:57:48.000Z</time>
      </trkpt>
      <trkpt lat="50.36272" lon="5.63288">
        <ele>367.39999389648</ele>
        <time>2019-05-01T08:57:49.000Z</time>
      </trkpt>
      <trkpt lat="50.36255" lon="5.63276">
        <ele>368</ele>
        <time>2019-05-01T08:57:54.000Z</time>
      </trkpt>
      <trkpt lat="50.36202" lon="5.63238">
        <ele>368.60000610352</ele>
        <time>2019-05-01T08:57:56.000Z</time>
      </trkpt>
      <trkpt lat="50.36196" lon="5.63234">
        <ele>368.60000610352</ele>
        <time>2019-05-01T08:57:59.000Z</time>
      </trkpt>
      <trkpt lat="50.36148" lon="5.63203">
        <ele>369</ele>
        <time>2019-05-01T08:58:02.000Z</time>
      </trkpt>
      <trkpt lat="50.36135" lon="5.63196">
        <ele>369.20001220703</ele>
        <time>2019-05-01T08:58:03.000Z</time>
      </trkpt>
      <trkpt lat="50.36098" lon="5.63182">
        <ele>369.39999389648</ele>
        <time>2019-05-01T08:58:08.000Z</time>
      </trkpt>
      <trkpt lat="50.36074" lon="5.63178">
        <ele>369.79998779297</ele>
        <time>2019-05-01T08:58:10.000Z</time>
      </trkpt>
      <trkpt lat="50.36067" lon="5.63175">
        <ele>369.79998779297</ele>
        <time>2019-05-01T08:58:14.000Z</time>
      </trkpt>
      <trkpt lat="50.36055" lon="5.63166">
        <ele>369.79998779297</ele>
        <time>2019-05-01T08:58:18.000Z</time>
      </trkpt>
      <trkpt lat="50.36045" lon="5.63155">
        <ele>369.79998779297</ele>
        <time>2019-05-01T08:58:19.000Z</time>
      </trkpt>
      <trkpt lat="50.36042" lon="5.63149">
        <ele>369.79998779297</ele>
        <time>2019-05-01T08:58:20.000Z</time>
      </trkpt>
      <trkpt lat="50.36041" lon="5.63135">
        <ele>369.79998779297</ele>
        <time>2019-05-01T08:58:25.000Z</time>
      </trkpt>
      <trkpt lat="50.36053" lon="5.63121">
        <ele>369.20001220703</ele>
        <time>2019-05-01T08:58:26.000Z</time>
      </trkpt>
      <trkpt lat="50.36071" lon="5.63105">
        <ele>368</ele>
        <time>2019-05-01T08:58:30.000Z</time>
      </trkpt>
      <trkpt lat="50.36085" lon="5.6309">
        <ele>367.60000610352</ele>
        <time>2019-05-01T08:58:33.000Z</time>
      </trkpt>
      <trkpt lat="50.36106" lon="5.63065">
        <ele>367.39999389648</ele>
        <time>2019-05-01T08:58:35.000Z</time>
      </trkpt>
      <trkpt lat="50.36112" lon="5.63058">
        <ele>367</ele>
        <time>2019-05-01T08:58:38.000Z</time>
      </trkpt>
      <trkpt lat="50.36122" lon="5.63043">
        <ele>367</ele>
        <time>2019-05-01T08:58:39.000Z</time>
      </trkpt>
      <trkpt lat="50.36152" lon="5.63">
        <ele>366.20001220703</ele>
        <time>2019-05-01T08:58:40.000Z</time>
      </trkpt>
      <trkpt lat="50.36157" lon="5.62989">
        <ele>365.79998779297</ele>
        <time>2019-05-01T08:58:44.000Z</time>
      </trkpt>
      <trkpt lat="50.36176" lon="5.62957">
        <ele>365.20001220703</ele>
        <time>2019-05-01T08:58:50.000Z</time>
      </trkpt>
      <trkpt lat="50.36183" lon="5.62947">
        <ele>364.60000610352</ele>
        <time>2019-05-01T08:58:51.000Z</time>
      </trkpt>
      <trkpt lat="50.36205" lon="5.62918">
        <ele>363.60000610352</ele>
        <time>2019-05-01T08:58:56.000Z</time>
      </trkpt>
      <trkpt lat="50.36221" lon="5.62899">
        <ele>362.39999389648</ele>
        <time>2019-05-01T08:58:58.000Z</time>
      </trkpt>
      <trkpt lat="50.36228" lon="5.62891">
        <ele>362</ele>
        <time>2019-05-01T08:59:00.000Z</time>
      </trkpt>
      <trkpt lat="50.36244" lon="5.62874">
        <ele>361</ele>
        <time>2019-05-01T08:59:04.000Z</time>
      </trkpt>
      <trkpt lat="50.36261" lon="5.62857">
        <ele>359.39999389648</ele>
        <time>2019-05-01T08:59:09.000Z</time>
      </trkpt>
      <trkpt lat="50.36279" lon="5.62837">
        <ele>358.20001220703</ele>
        <time>2019-05-01T08:59:13.000Z</time>
      </trkpt>
      <trkpt lat="50.36296" lon="5.62815">
        <ele>356.60000610352</ele>
        <time>2019-05-01T08:59:14.000Z</time>
      </trkpt>
      <trkpt lat="50.36305" lon="5.62804">
        <ele>355</ele>
        <time>2019-05-01T08:59:15.000Z</time>
      </trkpt>
      <trkpt lat="50.36322" lon="5.62779">
        <ele>353.79998779297</ele>
        <time>2019-05-01T08:59:17.000Z</time>
      </trkpt>
      <trkpt lat="50.3633" lon="5.62766">
        <ele>353.20001220703</ele>
        <time>2019-05-01T08:59:19.000Z</time>
      </trkpt>
      <trkpt lat="50.36338" lon="5.62754">
        <ele>352.60000610352</ele>
        <time>2019-05-01T08:59:21.000Z</time>
      </trkpt>
      <trkpt lat="50.36354" lon="5.62728">
        <ele>350.79998779297</ele>
        <time>2019-05-01T08:59:23.000Z</time>
      </trkpt>
      <trkpt lat="50.36361" lon="5.62715">
        <ele>349.60000610352</ele>
        <time>2019-05-01T08:59:26.000Z</time>
      </trkpt>
      <trkpt lat="50.36368" lon="5.62702">
        <ele>348.60000610352</ele>
        <time>2019-05-01T08:59:31.000Z</time>
      </trkpt>
      <trkpt lat="50.36374" lon="5.6269">
        <ele>347.60000610352</ele>
        <time>2019-05-01T08:59:35.000Z</time>
      </trkpt>
      <trkpt lat="50.36381" lon="5.62679">
        <ele>346.39999389648</ele>
        <time>2019-05-01T08:59:38.000Z</time>
      </trkpt>
      <trkpt lat="50.36387" lon="5.62669">
        <ele>345.20001220703</ele>
        <time>2019-05-01T08:59:40.000Z</time>
      </trkpt>
      <trkpt lat="50.36395" lon="5.6266">
        <ele>344.39999389648</ele>
        <time>2019-05-01T08:59:41.000Z</time>
      </trkpt>
      <trkpt lat="50.36404" lon="5.62652">
        <ele>343.39999389648</ele>
        <time>2019-05-01T08:59:43.000Z</time>
      </trkpt>
      <trkpt lat="50.36422" lon="5.62634">
        <ele>341.60000610352</ele>
        <time>2019-05-01T08:59:44.000Z</time>
      </trkpt>
      <trkpt lat="50.36442" lon="5.62616">
        <ele>340.60000610352</ele>
        <time>2019-05-01T08:59:47.000Z</time>
      </trkpt>
      <trkpt lat="50.36452" lon="5.62606">
        <ele>340.20001220703</ele>
        <time>2019-05-01T08:59:48.000Z</time>
      </trkpt>
      <trkpt lat="50.36463" lon="5.62595">
        <ele>339.60000610352</ele>
        <time>2019-05-01T08:59:49.000Z</time>
      </trkpt>
      <trkpt lat="50.36483" lon="5.62572">
        <ele>338</ele>
        <time>2019-05-01T08:59:50.000Z</time>
      </trkpt>
      <trkpt lat="50.36492" lon="5.6256">
        <ele>337.20001220703</ele>
        <time>2019-05-01T08:59:52.000Z</time>
      </trkpt>
      <trkpt lat="50.36502" lon="5.62552">
        <ele>336.20001220703</ele>
        <time>2019-05-01T08:59:53.000Z</time>
      </trkpt>
      <trkpt lat="50.36514" lon="5.62546">
        <ele>335.39999389648</ele>
        <time>2019-05-01T08:59:56.000Z</time>
      </trkpt>
      <trkpt lat="50.36526" lon="5.62543">
        <ele>334.20001220703</ele>
        <time>2019-05-01T08:59:57.000Z</time>
      </trkpt>
      <trkpt lat="50.3654" lon="5.62541">
        <ele>333.20001220703</ele>
        <time>2019-05-01T09:00:01.000Z</time>
      </trkpt>
      <trkpt lat="50.36554" lon="5.6254">
        <ele>332</ele>
        <time>2019-05-01T09:00:02.000Z</time>
      </trkpt>
      <trkpt lat="50.36568" lon="5.62537">
        <ele>330.60000610352</ele>
        <time>2019-05-01T09:00:06.000Z</time>
      </trkpt>
      <trkpt lat="50.36581" lon="5.62533">
        <ele>328</ele>
        <time>2019-05-01T09:00:07.000Z</time>
      </trkpt>
      <trkpt lat="50.36594" lon="5.62529">
        <ele>326.79998779297</ele>
        <time>2019-05-01T09:00:09.000Z</time>
      </trkpt>
      <trkpt lat="50.36606" lon="5.62522">
        <ele>325.39999389648</ele>
        <time>2019-05-01T09:00:12.000Z</time>
      </trkpt>
      <trkpt lat="50.36618" lon="5.62513">
        <ele>323.79998779297</ele>
        <time>2019-05-01T09:00:16.000Z</time>
      </trkpt>
      <trkpt lat="50.36629" lon="5.62501">
        <ele>321.79998779297</ele>
        <time>2019-05-01T09:00:21.000Z</time>
      </trkpt>
      <trkpt lat="50.3664" lon="5.62488">
        <ele>320</ele>
        <time>2019-05-01T09:00:24.000Z</time>
      </trkpt>
      <trkpt lat="50.3665" lon="5.62473">
        <ele>318.39999389648</ele>
        <time>2019-05-01T09:00:27.000Z</time>
      </trkpt>
      <trkpt lat="50.36661" lon="5.62458">
        <ele>316.60000610352</ele>
        <time>2019-05-01T09:00:31.000Z</time>
      </trkpt>
      <trkpt lat="50.36672" lon="5.62442">
        <ele>314.60000610352</ele>
        <time>2019-05-01T09:00:36.000Z</time>
      </trkpt>
      <trkpt lat="50.36683" lon="5.62426">
        <ele>313.20001220703</ele>
        <time>2019-05-01T09:00:37.000Z</time>
      </trkpt>
      <trkpt lat="50.36693" lon="5.6241">
        <ele>311.79998779297</ele>
        <time>2019-05-01T09:00:40.000Z</time>
      </trkpt>
      <trkpt lat="50.36704" lon="5.62394">
        <ele>310.60000610352</ele>
        <time>2019-05-01T09:00:45.000Z</time>
      </trkpt>
      <trkpt lat="50.36714" lon="5.62377">
        <ele>309.20001220703</ele>
        <time>2019-05-01T09:00:49.000Z</time>
      </trkpt>
      <trkpt lat="50.36723" lon="5.62361">
        <ele>307.79998779297</ele>
        <time>2019-05-01T09:00:55.000Z</time>
      </trkpt>
      <trkpt lat="50.36732" lon="5.62344">
        <ele>306</ele>
        <time>2019-05-01T09:00:57.000Z</time>
      </trkpt>
      <trkpt lat="50.36741" lon="5.62327">
        <ele>304.79998779297</ele>
        <time>2019-05-01T09:00:58.000Z</time>
      </trkpt>
      <trkpt lat="50.36749" lon="5.62309">
        <ele>303.39999389648</ele>
        <time>2019-05-01T09:01:02.000Z</time>
      </trkpt>
      <trkpt lat="50.36756" lon="5.62289">
        <ele>301.60000610352</ele>
        <time>2019-05-01T09:01:06.000Z</time>
      </trkpt>
      <trkpt lat="50.36762" lon="5.62267">
        <ele>299.79998779297</ele>
        <time>2019-05-01T09:01:10.000Z</time>
      </trkpt>
      <trkpt lat="50.36768" lon="5.62244">
        <ele>297.60000610352</ele>
        <time>2019-05-01T09:01:15.000Z</time>
      </trkpt>
      <trkpt lat="50.36774" lon="5.6222">
        <ele>295.60000610352</ele>
        <time>2019-05-01T09:01:19.000Z</time>
      </trkpt>
      <trkpt lat="50.3678" lon="5.62196">
        <ele>293.79998779297</ele>
        <time>2019-05-01T09:01:23.000Z</time>
      </trkpt>
      <trkpt lat="50.36787" lon="5.62173">
        <ele>292</ele>
        <time>2019-05-01T09:01:27.000Z</time>
      </trkpt>
      <trkpt lat="50.36792" lon="5.62151">
        <ele>290.20001220703</ele>
        <time>2019-05-01T09:01:28.000Z</time>
      </trkpt>
      <trkpt lat="50.36796" lon="5.6213">
        <ele>289</ele>
        <time>2019-05-01T09:01:30.000Z</time>
      </trkpt>
      <trkpt lat="50.36798" lon="5.62108">
        <ele>287.39999389648</ele>
        <time>2019-05-01T09:01:32.000Z</time>
      </trkpt>
      <trkpt lat="50.36798" lon="5.62086">
        <ele>285.20001220703</ele>
        <time>2019-05-01T09:01:34.000Z</time>
      </trkpt>
      <trkpt lat="50.36794" lon="5.62066">
        <ele>284</ele>
        <time>2019-05-01T09:01:38.000Z</time>
      </trkpt>
      <trkpt lat="50.36787" lon="5.62049">
        <ele>282.20001220703</ele>
        <time>2019-05-01T09:01:39.000Z</time>
      </trkpt>
      <trkpt lat="50.36779" lon="5.62033">
        <ele>278.60000610352</ele>
        <time>2019-05-01T09:01:40.000Z</time>
      </trkpt>
      <trkpt lat="50.36772" lon="5.62018">
        <ele>277.20001220703</ele>
        <time>2019-05-01T09:01:42.000Z</time>
      </trkpt>
      <trkpt lat="50.36765" lon="5.62004">
        <ele>276</ele>
        <time>2019-05-01T09:01:43.000Z</time>
      </trkpt>
      <trkpt lat="50.36754" lon="5.61979">
        <ele>274.60000610352</ele>
        <time>2019-05-01T09:01:46.000Z</time>
      </trkpt>
      <trkpt lat="50.36754" lon="5.61979">
        <ele>274.39999389648</ele>
        <time>2019-05-01T09:01:47.000Z</time>
      </trkpt>
      <trkpt lat="50.36742" lon="5.61953">
        <ele>274.39999389648</ele>
        <time>2019-05-01T09:01:48.000Z</time>
      </trkpt>
      <trkpt lat="50.36738" lon="5.61951">
        <ele>274.39999389648</ele>
        <time>2019-05-01T09:01:51.000Z</time>
      </trkpt>
      <trkpt lat="50.36716" lon="5.61953">
        <ele>274.20001220703</ele>
        <time>2019-05-01T09:01:53.000Z</time>
      </trkpt>
      <trkpt lat="50.36688" lon="5.61956">
        <ele>274.20001220703</ele>
        <time>2019-05-01T09:01:57.000Z</time>
      </trkpt>
      <trkpt lat="50.36678" lon="5.61953">
        <ele>274.20001220703</ele>
        <time>2019-05-01T09:01:59.000Z</time>
      </trkpt>
      <trkpt lat="50.36651" lon="5.61933">
        <ele>274</ele>
        <time>2019-05-01T09:02:03.000Z</time>
      </trkpt>
      <trkpt lat="50.36642" lon="5.61925">
        <ele>273.79998779297</ele>
        <time>2019-05-01T09:02:08.000Z</time>
      </trkpt>
      <trkpt lat="50.36633" lon="5.61916">
        <ele>273.39999389648</ele>
        <time>2019-05-01T09:02:16.000Z</time>
      </trkpt>
      <trkpt lat="50.36616" lon="5.61898">
        <ele>272.20001220703</ele>
        <time>2019-05-01T09:02:19.000Z</time>
      </trkpt>
      <trkpt lat="50.36608" lon="5.61887">
        <ele>271.60000610352</ele>
        <time>2019-05-01T09:02:23.000Z</time>
      </trkpt>
      <trkpt lat="50.36602" lon="5.61875">
        <ele>271.20001220703</ele>
        <time>2019-05-01T09:02:30.000Z</time>
      </trkpt>
      <trkpt lat="50.36592" lon="5.61848">
        <ele>270</ele>
        <time>2019-05-01T09:02:32.000Z</time>
      </trkpt>
      <trkpt lat="50.36588" lon="5.61834">
        <ele>269.39999389648</ele>
        <time>2019-05-01T09:02:40.000Z</time>
      </trkpt>
      <trkpt lat="50.36579" lon="5.61808">
        <ele>268.60000610352</ele>
        <time>2019-05-01T09:02:44.000Z</time>
      </trkpt>
      <trkpt lat="50.36564" lon="5.61772">
        <ele>268.39999389648</ele>
        <time>2019-05-01T09:02:50.000Z</time>
      </trkpt>
      <trkpt lat="50.36539" lon="5.61739">
        <ele>268.20001220703</ele>
        <time>2019-05-01T09:02:52.000Z</time>
      </trkpt>
      <trkpt lat="50.36518" lon="5.61708">
        <ele>268.39999389648</ele>
        <time>2019-05-01T09:02:58.000Z</time>
      </trkpt>
      <trkpt lat="50.36514" lon="5.61698">
        <ele>268.60000610352</ele>
        <time>2019-05-01T09:03:00.000Z</time>
      </trkpt>
      <trkpt lat="50.36503" lon="5.61667">
        <ele>269.79998779297</ele>
        <time>2019-05-01T09:03:08.000Z</time>
      </trkpt>
      <trkpt lat="50.36495" lon="5.61633">
        <ele>271</ele>
        <time>2019-05-01T09:03:18.000Z</time>
      </trkpt>
      <trkpt lat="50.36483" lon="5.61572">
        <ele>271.39999389648</ele>
        <time>2019-05-01T09:03:21.000Z</time>
      </trkpt>
      <trkpt lat="50.36474" lon="5.61522">
        <ele>271.39999389648</ele>
        <time>2019-05-01T09:03:29.000Z</time>
      </trkpt>
      <trkpt lat="50.36456" lon="5.61462">
        <ele>270.79998779297</ele>
        <time>2019-05-01T09:03:31.000Z</time>
      </trkpt>
      <trkpt lat="50.36429" lon="5.61387">
        <ele>270</ele>
        <time>2019-05-01T09:03:39.000Z</time>
      </trkpt>
      <trkpt lat="50.36416" lon="5.61327">
        <ele>269.39999389648</ele>
        <time>2019-05-01T09:03:44.000Z</time>
      </trkpt>
      <trkpt lat="50.36397" lon="5.61269">
        <ele>269.39999389648</ele>
        <time>2019-05-01T09:03:54.000Z</time>
      </trkpt>
      <trkpt lat="50.36379" lon="5.61222">
        <ele>271</ele>
        <time>2019-05-01T09:03:57.000Z</time>
      </trkpt>
      <trkpt lat="50.36372" lon="5.61204">
        <ele>272.20001220703</ele>
        <time>2019-05-01T09:04:06.000Z</time>
      </trkpt>
      <trkpt lat="50.3637" lon="5.61195">
        <ele>272.60000610352</ele>
        <time>2019-05-01T09:04:16.000Z</time>
      </trkpt>
      <trkpt lat="50.36367" lon="5.61186">
        <ele>273.39999389648</ele>
        <time>2019-05-01T09:04:19.000Z</time>
      </trkpt>
      <trkpt lat="50.3636" lon="5.61157">
        <ele>274.39999389648</ele>
        <time>2019-05-01T09:04:28.000Z</time>
      </trkpt>
      <trkpt lat="50.36355" lon="5.61127">
        <ele>275</ele>
        <time>2019-05-01T09:04:30.000Z</time>
      </trkpt>
      <trkpt lat="50.36339" lon="5.61051">
        <ele>275.20001220703</ele>
        <time>2019-05-01T09:04:40.000Z</time>
      </trkpt>
      <trkpt lat="50.3632" lon="5.60972">
        <ele>274.60000610352</ele>
        <time>2019-05-01T09:04:41.000Z</time>
      </trkpt>
      <trkpt lat="50.36315" lon="5.60954">
        <ele>274.39999389648</ele>
        <time>2019-05-01T09:04:47.000Z</time>
      </trkpt>
      <trkpt lat="50.3631" lon="5.60926">
        <ele>274.39999389648</ele>
        <time>2019-05-01T09:04:51.000Z</time>
      </trkpt>
      <trkpt lat="50.36308" lon="5.60916">
        <ele>274.39999389648</ele>
        <time>2019-05-01T09:04:52.000Z</time>
      </trkpt>
      <trkpt lat="50.36305" lon="5.60906">
        <ele>274.39999389648</ele>
        <time>2019-05-01T09:04:54.000Z</time>
      </trkpt>
      <trkpt lat="50.36297" lon="5.60887">
        <ele>274.20001220703</ele>
        <time>2019-05-01T09:06:00.000Z</time>
      </trkpt>
      <trkpt lat="50.3628" lon="5.60862">
        <ele>274</ele>
        <time>2019-05-01T09:06:01.000Z</time>
      </trkpt>
      <trkpt lat="50.36269" lon="5.60845">
        <ele>273.79998779297</ele>
        <time>2019-05-01T09:06:07.000Z</time>
      </trkpt>
      <trkpt lat="50.3625" lon="5.6082">
        <ele>273.20001220703</ele>
        <time>2019-05-01T09:06:13.000Z</time>
      </trkpt>
      <trkpt lat="50.36238" lon="5.60803">
        <ele>272.60000610352</ele>
        <time>2019-05-01T09:06:22.000Z</time>
      </trkpt>
      <trkpt lat="50.36233" lon="5.60792">
        <ele>272.39999389648</ele>
        <time>2019-05-01T09:06:27.000Z</time>
      </trkpt>
      <trkpt lat="50.36229" lon="5.60781">
        <ele>272.20001220703</ele>
        <time>2019-05-01T09:06:30.000Z</time>
      </trkpt>
      <trkpt lat="50.36227" lon="5.60757">
        <ele>272</ele>
        <time>2019-05-01T09:06:31.000Z</time>
      </trkpt>
      <trkpt lat="50.36227" lon="5.60746">
        <ele>271.79998779297</ele>
        <time>2019-05-01T09:06:35.000Z</time>
      </trkpt>
      <trkpt lat="50.36227" lon="5.60691">
        <ele>271.60000610352</ele>
        <time>2019-05-01T09:06:39.000Z</time>
      </trkpt>
      <trkpt lat="50.36224" lon="5.60633">
        <ele>271.60000610352</ele>
        <time>2019-05-01T09:06:40.000Z</time>
      </trkpt>
      <trkpt lat="50.36223" lon="5.60625">
        <ele>271.79998779297</ele>
        <time>2019-05-01T09:06:43.000Z</time>
      </trkpt>
      <trkpt lat="50.36215" lon="5.60588">
        <ele>273.60000610352</ele>
        <time>2019-05-01T09:06:47.000Z</time>
      </trkpt>
      <trkpt lat="50.36212" lon="5.60569">
        <ele>274.20001220703</ele>
        <time>2019-05-01T09:06:48.000Z</time>
      </trkpt>
      <trkpt lat="50.36209" lon="5.6056">
        <ele>274.79998779297</ele>
        <time>2019-05-01T09:06:55.000Z</time>
      </trkpt>
      <trkpt lat="50.362" lon="5.60523">
        <ele>275.79998779297</ele>
        <time>2019-05-01T09:06:58.000Z</time>
      </trkpt>
      <trkpt lat="50.36197" lon="5.60513">
        <ele>275.79998779297</ele>
        <time>2019-05-01T09:07:07.000Z</time>
      </trkpt>
      <trkpt lat="50.36179" lon="5.60444">
        <ele>277</ele>
        <time>2019-05-01T09:07:09.000Z</time>
      </trkpt>
      <trkpt lat="50.36174" lon="5.60424">
        <ele>277</ele>
        <time>2019-05-01T09:07:17.000Z</time>
      </trkpt>
      <trkpt lat="50.36153" lon="5.60345">
        <ele>277.20001220703</ele>
        <time>2019-05-01T09:07:23.000Z</time>
      </trkpt>
      <trkpt lat="50.36148" lon="5.60325">
        <ele>277.20001220703</ele>
        <time>2019-05-01T09:07:25.000Z</time>
      </trkpt>
      <trkpt lat="50.36132" lon="5.60255">
        <ele>277.20001220703</ele>
        <time>2019-05-01T09:07:29.000Z</time>
      </trkpt>
      <trkpt lat="50.36118" lon="5.60179">
        <ele>278</ele>
        <time>2019-05-01T09:07:33.000Z</time>
      </trkpt>
      <trkpt lat="50.36116" lon="5.60169">
        <ele>278.20001220703</ele>
        <time>2019-05-01T09:07:36.000Z</time>
      </trkpt>
      <trkpt lat="50.361" lon="5.60098">
        <ele>278.60000610352</ele>
        <time>2019-05-01T09:07:39.000Z</time>
      </trkpt>
      <trkpt lat="50.36096" lon="5.60088">
        <ele>278.60000610352</ele>
        <time>2019-05-01T09:07:42.000Z</time>
      </trkpt>
      <trkpt lat="50.36069" lon="5.60035">
        <ele>278.60000610352</ele>
        <time>2019-05-01T09:07:45.000Z</time>
      </trkpt>
      <trkpt lat="50.36057" lon="5.60007">
        <ele>278.39999389648</ele>
        <time>2019-05-01T09:07:47.000Z</time>
      </trkpt>
      <trkpt lat="50.36055" lon="5.59997">
        <ele>278.20001220703</ele>
        <time>2019-05-01T09:07:49.000Z</time>
      </trkpt>
      <trkpt lat="50.36048" lon="5.59956">
        <ele>277.79998779297</ele>
        <time>2019-05-01T09:07:54.000Z</time>
      </trkpt>
      <trkpt lat="50.36046" lon="5.59947">
        <ele>277.79998779297</ele>
        <time>2019-05-01T09:07:59.000Z</time>
      </trkpt>
      <trkpt lat="50.36031" lon="5.59904">
        <ele>277.79998779297</ele>
        <time>2019-05-01T09:08:02.000Z</time>
      </trkpt>
      <trkpt lat="50.3601" lon="5.59866">
        <ele>278.79998779297</ele>
        <time>2019-05-01T09:08:05.000Z</time>
      </trkpt>
      <trkpt lat="50.36003" lon="5.59856">
        <ele>279.20001220703</ele>
        <time>2019-05-01T09:08:09.000Z</time>
      </trkpt>
      <trkpt lat="50.35991" lon="5.59844">
        <ele>280.39999389648</ele>
        <time>2019-05-01T09:08:11.000Z</time>
      </trkpt>
      <trkpt lat="50.3598" lon="5.59834">
        <ele>281.20001220703</ele>
        <time>2019-05-01T09:08:15.000Z</time>
      </trkpt>
      <trkpt lat="50.35976" lon="5.5983">
        <ele>281.39999389648</ele>
        <time>2019-05-01T09:08:20.000Z</time>
      </trkpt>
      <trkpt lat="50.35961" lon="5.59816">
        <ele>282.60000610352</ele>
        <time>2019-05-01T09:08:21.000Z</time>
      </trkpt>
      <trkpt lat="50.35948" lon="5.598">
        <ele>283.79998779297</ele>
        <time>2019-05-01T09:08:24.000Z</time>
      </trkpt>
      <trkpt lat="50.35945" lon="5.59795">
        <ele>284</ele>
        <time>2019-05-01T09:08:27.000Z</time>
      </trkpt>
      <trkpt lat="50.35938" lon="5.5978">
        <ele>284.79998779297</ele>
        <time>2019-05-01T09:08:29.000Z</time>
      </trkpt>
      <trkpt lat="50.35937" lon="5.59775">
        <ele>285</ele>
        <time>2019-05-01T09:08:32.000Z</time>
      </trkpt>
      <trkpt lat="50.35934" lon="5.59765">
        <ele>285.39999389648</ele>
        <time>2019-05-01T09:08:34.000Z</time>
      </trkpt>
      <trkpt lat="50.35932" lon="5.59755">
        <ele>286</ele>
        <time>2019-05-01T09:08:37.000Z</time>
      </trkpt>
      <trkpt lat="50.3593" lon="5.59737">
        <ele>287.39999389648</ele>
        <time>2019-05-01T09:08:39.000Z</time>
      </trkpt>
      <trkpt lat="50.35928" lon="5.59729">
        <ele>288</ele>
        <time>2019-05-01T09:08:42.000Z</time>
      </trkpt>
      <trkpt lat="50.35927" lon="5.59725">
        <ele>288.39999389648</ele>
        <time>2019-05-01T09:08:44.000Z</time>
      </trkpt>
      <trkpt lat="50.35926" lon="5.59717">
        <ele>289.60000610352</ele>
        <time>2019-05-01T09:08:45.000Z</time>
      </trkpt>
      <trkpt lat="50.35924" lon="5.59705">
        <ele>290.79998779297</ele>
        <time>2019-05-01T09:08:46.000Z</time>
      </trkpt>
      <trkpt lat="50.35922" lon="5.59693">
        <ele>291.79998779297</ele>
        <time>2019-05-01T09:08:48.000Z</time>
      </trkpt>
      <trkpt lat="50.35921" lon="5.59689">
        <ele>292.39999389648</ele>
        <time>2019-05-01T09:08:49.000Z</time>
      </trkpt>
      <trkpt lat="50.35919" lon="5.59677">
        <ele>293.60000610352</ele>
        <time>2019-05-01T09:08:52.000Z</time>
      </trkpt>
      <trkpt lat="50.35916" lon="5.59661">
        <ele>295</ele>
        <time>2019-05-01T09:08:53.000Z</time>
      </trkpt>
      <trkpt lat="50.35915" lon="5.59653">
        <ele>295.60000610352</ele>
        <time>2019-05-01T09:08:54.000Z</time>
      </trkpt>
      <trkpt lat="50.35913" lon="5.59645">
        <ele>296.20001220703</ele>
        <time>2019-05-01T09:08:56.000Z</time>
      </trkpt>
      <trkpt lat="50.35911" lon="5.59633">
        <ele>297.39999389648</ele>
        <time>2019-05-01T09:08:57.000Z</time>
      </trkpt>
      <trkpt lat="50.35907" lon="5.59616">
        <ele>298.60000610352</ele>
        <time>2019-05-01T09:08:58.000Z</time>
      </trkpt>
      <trkpt lat="50.35906" lon="5.59608">
        <ele>299.20001220703</ele>
        <time>2019-05-01T09:09:01.000Z</time>
      </trkpt>
      <trkpt lat="50.35905" lon="5.59603">
        <ele>300.20001220703</ele>
        <time>2019-05-01T09:09:05.000Z</time>
      </trkpt>
      <trkpt lat="50.35906" lon="5.5959">
        <ele>301.20001220703</ele>
        <time>2019-05-01T09:09:07.000Z</time>
      </trkpt>
      <trkpt lat="50.35909" lon="5.59583">
        <ele>302</ele>
        <time>2019-05-01T09:09:10.000Z</time>
      </trkpt>
      <trkpt lat="50.35914" lon="5.59575">
        <ele>302.39999389648</ele>
        <time>2019-05-01T09:09:11.000Z</time>
      </trkpt>
      <trkpt lat="50.35927" lon="5.5956">
        <ele>303.60000610352</ele>
        <time>2019-05-01T09:09:15.000Z</time>
      </trkpt>
      <trkpt lat="50.35943" lon="5.59541">
        <ele>304.79998779297</ele>
        <time>2019-05-01T09:09:18.000Z</time>
      </trkpt>
      <trkpt lat="50.35953" lon="5.59529">
        <ele>305.20001220703</ele>
        <time>2019-05-01T09:09:21.000Z</time>
      </trkpt>
      <trkpt lat="50.35961" lon="5.5952">
        <ele>305.79998779297</ele>
        <time>2019-05-01T09:09:24.000Z</time>
      </trkpt>
      <trkpt lat="50.35975" lon="5.59506">
        <ele>307</ele>
        <time>2019-05-01T09:09:26.000Z</time>
      </trkpt>
      <trkpt lat="50.3598" lon="5.595">
        <ele>307.39999389648</ele>
        <time>2019-05-01T09:09:28.000Z</time>
      </trkpt>
      <trkpt lat="50.35988" lon="5.59491">
        <ele>308.20001220703</ele>
        <time>2019-05-01T09:09:32.000Z</time>
      </trkpt>
      <trkpt lat="50.36002" lon="5.59475">
        <ele>309.20001220703</ele>
        <time>2019-05-01T09:09:33.000Z</time>
      </trkpt>
      <trkpt lat="50.36005" lon="5.59471">
        <ele>309.39999389648</ele>
        <time>2019-05-01T09:09:37.000Z</time>
      </trkpt>
      <trkpt lat="50.36015" lon="5.59456">
        <ele>310.39999389648</ele>
        <time>2019-05-01T09:09:41.000Z</time>
      </trkpt>
      <trkpt lat="50.36023" lon="5.59445">
        <ele>311.20001220703</ele>
        <time>2019-05-01T09:09:42.000Z</time>
      </trkpt>
      <trkpt lat="50.36025" lon="5.59441">
        <ele>311.60000610352</ele>
        <time>2019-05-01T09:09:46.000Z</time>
      </trkpt>
      <trkpt lat="50.36041" lon="5.59415">
        <ele>312.79998779297</ele>
        <time>2019-05-01T09:09:50.000Z</time>
      </trkpt>
      <trkpt lat="50.36046" lon="5.59406">
        <ele>313.20001220703</ele>
        <time>2019-05-01T09:09:54.000Z</time>
      </trkpt>
      <trkpt lat="50.36059" lon="5.59382">
        <ele>313.79998779297</ele>
        <time>2019-05-01T09:09:55.000Z</time>
      </trkpt>
      <trkpt lat="50.3607" lon="5.59361">
        <ele>314</ele>
        <time>2019-05-01T09:09:58.000Z</time>
      </trkpt>
      <trkpt lat="50.3609" lon="5.59318">
        <ele>314.39999389648</ele>
        <time>2019-05-01T09:09:59.000Z</time>
      </trkpt>
      <trkpt lat="50.36099" lon="5.59296">
        <ele>314.79998779297</ele>
        <time>2019-05-01T09:10:00.000Z</time>
      </trkpt>
      <trkpt lat="50.36116" lon="5.59265">
        <ele>315.79998779297</ele>
        <time>2019-05-01T09:10:06.000Z</time>
      </trkpt>
      <trkpt lat="50.3612" lon="5.59261">
        <ele>315.79998779297</ele>
        <time>2019-05-01T09:10:14.000Z</time>
      </trkpt>
      <trkpt lat="50.36124" lon="5.59257">
        <ele>316</ele>
        <time>2019-05-01T09:10:19.000Z</time>
      </trkpt>
      <trkpt lat="50.3614" lon="5.59245">
        <ele>316.60000610352</ele>
        <time>2019-05-01T09:10:22.000Z</time>
      </trkpt>
      <trkpt lat="50.36149" lon="5.59239">
        <ele>317</ele>
        <time>2019-05-01T09:10:27.000Z</time>
      </trkpt>
      <trkpt lat="50.36171" lon="5.59225">
        <ele>317.79998779297</ele>
        <time>2019-05-01T09:10:33.000Z</time>
      </trkpt>
      <trkpt lat="50.36175" lon="5.59222">
        <ele>318</ele>
        <time>2019-05-01T09:10:35.000Z</time>
      </trkpt>
      <trkpt lat="50.36184" lon="5.59217">
        <ele>318.60000610352</ele>
        <time>2019-05-01T09:15:37.000Z</time>
      </trkpt>
      <trkpt lat="50.36196" lon="5.59211">
        <ele>319.20001220703</ele>
        <time>2019-05-01T09:15:38.000Z</time>
      </trkpt>
      <trkpt lat="50.36214" lon="5.59199">
        <ele>320.39999389648</ele>
        <time>2019-05-01T09:15:40.000Z</time>
      </trkpt>
      <trkpt lat="50.36218" lon="5.59197">
        <ele>320.60000610352</ele>
        <time>2019-05-01T09:15:43.000Z</time>
      </trkpt>
      <trkpt lat="50.36229" lon="5.59191">
        <ele>321.39999389648</ele>
        <time>2019-05-01T09:15:57.000Z</time>
      </trkpt>
      <trkpt lat="50.36233" lon="5.59189">
        <ele>321.60000610352</ele>
        <time>2019-05-01T09:15:58.000Z</time>
      </trkpt>
      <trkpt lat="50.36236" lon="5.59186">
        <ele>321.60000610352</ele>
        <time>2019-05-01T09:15:59.000Z</time>
      </trkpt>
      <trkpt lat="50.36253" lon="5.59173">
        <ele>322.20001220703</ele>
        <time>2019-05-01T09:16:00.000Z</time>
      </trkpt>
      <trkpt lat="50.36258" lon="5.59169">
        <ele>322.20001220703</ele>
        <time>2019-05-01T09:16:04.000Z</time>
      </trkpt>
      <trkpt lat="50.36266" lon="5.59163">
        <ele>322.60000610352</ele>
        <time>2019-05-01T09:16:09.000Z</time>
      </trkpt>
      <trkpt lat="50.3627" lon="5.59161">
        <ele>322.79998779297</ele>
        <time>2019-05-01T09:16:10.000Z</time>
      </trkpt>
      <trkpt lat="50.36282" lon="5.59154">
        <ele>323</ele>
        <time>2019-05-01T09:16:17.000Z</time>
      </trkpt>
      <trkpt lat="50.3629" lon="5.59148">
        <ele>323.20001220703</ele>
        <time>2019-05-01T09:16:24.000Z</time>
      </trkpt>
      <trkpt lat="50.36306" lon="5.59136">
        <ele>323.39999389648</ele>
        <time>2019-05-01T09:16:25.000Z</time>
      </trkpt>
      <trkpt lat="50.36321" lon="5.59121">
        <ele>323.39999389648</ele>
        <time>2019-05-01T09:16:26.000Z</time>
      </trkpt>
      <trkpt lat="50.36329" lon="5.59107">
        <ele>323.39999389648</ele>
        <time>2019-05-01T09:16:31.000Z</time>
      </trkpt>
      <trkpt lat="50.36327" lon="5.59078">
        <ele>323.39999389648</ele>
        <time>2019-05-01T09:16:35.000Z</time>
      </trkpt>
      <trkpt lat="50.36321" lon="5.59061">
        <ele>323.20001220703</ele>
        <time>2019-05-01T09:16:36.000Z</time>
      </trkpt>
      <trkpt lat="50.36313" lon="5.59043">
        <ele>322.79998779297</ele>
        <time>2019-05-01T09:16:41.000Z</time>
      </trkpt>
      <trkpt lat="50.36297" lon="5.59012">
        <ele>321.60000610352</ele>
        <time>2019-05-01T09:16:42.000Z</time>
      </trkpt>
      <trkpt lat="50.36284" lon="5.58993">
        <ele>321</ele>
        <time>2019-05-01T09:16:44.000Z</time>
      </trkpt>
      <trkpt lat="50.36277" lon="5.58981">
        <ele>320.39999389648</ele>
        <time>2019-05-01T09:16:47.000Z</time>
      </trkpt>
      <trkpt lat="50.36256" lon="5.58948">
        <ele>319.39999389648</ele>
        <time>2019-05-01T09:16:51.000Z</time>
      </trkpt>
      <trkpt lat="50.3625" lon="5.58935">
        <ele>318.79998779297</ele>
        <time>2019-05-01T09:16:57.000Z</time>
      </trkpt>
      <trkpt lat="50.36246" lon="5.58918">
        <ele>318.20001220703</ele>
        <time>2019-05-01T09:16:59.000Z</time>
      </trkpt>
      <trkpt lat="50.36238" lon="5.58885">
        <ele>316.79998779297</ele>
        <time>2019-05-01T09:17:02.000Z</time>
      </trkpt>
      <trkpt lat="50.36234" lon="5.58871">
        <ele>316.39999389648</ele>
        <time>2019-05-01T09:17:07.000Z</time>
      </trkpt>
      <trkpt lat="50.36228" lon="5.58859">
        <ele>315.79998779297</ele>
        <time>2019-05-01T09:17:11.000Z</time>
      </trkpt>
      <trkpt lat="50.36221" lon="5.58847">
        <ele>315</ele>
        <time>2019-05-01T09:17:13.000Z</time>
      </trkpt>
      <trkpt lat="50.36213" lon="5.58837">
        <ele>314</ele>
        <time>2019-05-01T09:17:17.000Z</time>
      </trkpt>
      <trkpt lat="50.36204" lon="5.58828">
        <ele>313</ele>
        <time>2019-05-01T09:17:21.000Z</time>
      </trkpt>
      <trkpt lat="50.36195" lon="5.58819">
        <ele>312</ele>
        <time>2019-05-01T09:17:23.000Z</time>
      </trkpt>
      <trkpt lat="50.36187" lon="5.5881">
        <ele>311</ele>
        <time>2019-05-01T09:17:25.000Z</time>
      </trkpt>
      <trkpt lat="50.36179" lon="5.58801">
        <ele>310.20001220703</ele>
        <time>2019-05-01T09:17:30.000Z</time>
      </trkpt>
      <trkpt lat="50.36171" lon="5.58792">
        <ele>309.20001220703</ele>
        <time>2019-05-01T09:17:34.000Z</time>
      </trkpt>
      <trkpt lat="50.36166" lon="5.58782">
        <ele>308</ele>
        <time>2019-05-01T09:17:36.000Z</time>
      </trkpt>
      <trkpt lat="50.36161" lon="5.58768">
        <ele>306.20001220703</ele>
        <time>2019-05-01T09:17:40.000Z</time>
      </trkpt>
      <trkpt lat="50.36159" lon="5.58754">
        <ele>305.39999389648</ele>
        <time>2019-05-01T09:17:43.000Z</time>
      </trkpt>
      <trkpt lat="50.36157" lon="5.58738">
        <ele>304.79998779297</ele>
        <time>2019-05-01T09:17:45.000Z</time>
      </trkpt>
      <trkpt lat="50.36156" lon="5.58721">
        <ele>304</ele>
        <time>2019-05-01T09:17:48.000Z</time>
      </trkpt>
      <trkpt lat="50.36155" lon="5.58704">
        <ele>303</ele>
        <time>2019-05-01T09:17:52.000Z</time>
      </trkpt>
      <trkpt lat="50.36154" lon="5.58685">
        <ele>302.20001220703</ele>
        <time>2019-05-01T09:17:58.000Z</time>
      </trkpt>
      <trkpt lat="50.36153" lon="5.58666">
        <ele>301.60000610352</ele>
        <time>2019-05-01T09:17:59.000Z</time>
      </trkpt>
      <trkpt lat="50.36151" lon="5.58628">
        <ele>300</ele>
        <time>2019-05-01T09:18:04.000Z</time>
      </trkpt>
      <trkpt lat="50.36149" lon="5.58609">
        <ele>298.20001220703</ele>
        <time>2019-05-01T09:18:09.000Z</time>
      </trkpt>
      <trkpt lat="50.36148" lon="5.5859">
        <ele>297.20001220703</ele>
        <time>2019-05-01T09:18:14.000Z</time>
      </trkpt>
      <trkpt lat="50.36145" lon="5.5857">
        <ele>296.20001220703</ele>
        <time>2019-05-01T09:18:19.000Z</time>
      </trkpt>
      <trkpt lat="50.36143" lon="5.5855">
        <ele>295.20001220703</ele>
        <time>2019-05-01T09:18:22.000Z</time>
      </trkpt>
      <trkpt lat="50.36138" lon="5.58508">
        <ele>293.20001220703</ele>
        <time>2019-05-01T09:18:26.000Z</time>
      </trkpt>
      <trkpt lat="50.36136" lon="5.58488">
        <ele>291</ele>
        <time>2019-05-01T09:18:30.000Z</time>
      </trkpt>
      <trkpt lat="50.36135" lon="5.58447">
        <ele>289.60000610352</ele>
        <time>2019-05-01T09:18:34.000Z</time>
      </trkpt>
      <trkpt lat="50.36136" lon="5.58427">
        <ele>287.79998779297</ele>
        <time>2019-05-01T09:18:38.000Z</time>
      </trkpt>
      <trkpt lat="50.36138" lon="5.58406">
        <ele>286.20001220703</ele>
        <time>2019-05-01T09:18:39.000Z</time>
      </trkpt>
      <trkpt lat="50.36142" lon="5.58382">
        <ele>284.79998779297</ele>
        <time>2019-05-01T09:18:40.000Z</time>
      </trkpt>
      <trkpt lat="50.36146" lon="5.5836">
        <ele>283</ele>
        <time>2019-05-01T09:18:43.000Z</time>
      </trkpt>
      <trkpt lat="50.3615" lon="5.58337">
        <ele>281.39999389648</ele>
        <time>2019-05-01T09:18:46.000Z</time>
      </trkpt>
      <trkpt lat="50.36153" lon="5.58313">
        <ele>279.79998779297</ele>
        <time>2019-05-01T09:18:52.000Z</time>
      </trkpt>
      <trkpt lat="50.36156" lon="5.58289">
        <ele>278.20001220703</ele>
        <time>2019-05-01T09:18:53.000Z</time>
      </trkpt>
      <trkpt lat="50.36159" lon="5.58267">
        <ele>276.60000610352</ele>
        <time>2019-05-01T09:18:56.000Z</time>
      </trkpt>
      <trkpt lat="50.36163" lon="5.58246">
        <ele>274.79998779297</ele>
        <time>2019-05-01T09:18:58.000Z</time>
      </trkpt>
      <trkpt lat="50.36167" lon="5.58227">
        <ele>272.79998779297</ele>
        <time>2019-05-01T09:19:05.000Z</time>
      </trkpt>
      <trkpt lat="50.36172" lon="5.58207">
        <ele>271</ele>
        <time>2019-05-01T09:19:10.000Z</time>
      </trkpt>
      <trkpt lat="50.36176" lon="5.58186">
        <ele>269.39999389648</ele>
        <time>2019-05-01T09:19:11.000Z</time>
      </trkpt>
      <trkpt lat="50.36181" lon="5.58166">
        <ele>267.60000610352</ele>
        <time>2019-05-01T09:19:14.000Z</time>
      </trkpt>
      <trkpt lat="50.36187" lon="5.58145">
        <ele>266.20001220703</ele>
        <time>2019-05-01T09:19:15.000Z</time>
      </trkpt>
      <trkpt lat="50.36192" lon="5.58127">
        <ele>265.20001220703</ele>
        <time>2019-05-01T09:19:22.000Z</time>
      </trkpt>
      <trkpt lat="50.36196" lon="5.5811">
        <ele>264.39999389648</ele>
        <time>2019-05-01T09:19:25.000Z</time>
      </trkpt>
      <trkpt lat="50.36197" lon="5.58093">
        <ele>263.79998779297</ele>
        <time>2019-05-01T09:19:29.000Z</time>
      </trkpt>
      <trkpt lat="50.36191" lon="5.58061">
        <ele>263</ele>
        <time>2019-05-01T09:19:31.000Z</time>
      </trkpt>
      <trkpt lat="50.36185" lon="5.58048">
        <ele>262.60000610352</ele>
        <time>2019-05-01T09:19:33.000Z</time>
      </trkpt>
      <trkpt lat="50.36174" lon="5.58026">
        <ele>261.39999389648</ele>
        <time>2019-05-01T09:19:36.000Z</time>
      </trkpt>
      <trkpt lat="50.36168" lon="5.58018">
        <ele>261.20001220703</ele>
        <time>2019-05-01T09:19:37.000Z</time>
      </trkpt>
      <trkpt lat="50.36147" lon="5.57989">
        <ele>261.20001220703</ele>
        <time>2019-05-01T09:19:41.000Z</time>
      </trkpt>
      <trkpt lat="50.36127" lon="5.57968">
        <ele>261.20001220703</ele>
        <time>2019-05-01T09:19:42.000Z</time>
      </trkpt>
      <trkpt lat="50.36123" lon="5.57962">
        <ele>261.60000610352</ele>
        <time>2019-05-01T09:19:43.000Z</time>
      </trkpt>
      <trkpt lat="50.36116" lon="5.57952">
        <ele>262.39999389648</ele>
        <time>2019-05-01T09:19:45.000Z</time>
      </trkpt>
      <trkpt lat="50.3611" lon="5.57943">
        <ele>263</ele>
        <time>2019-05-01T09:19:47.000Z</time>
      </trkpt>
      <trkpt lat="50.36106" lon="5.57939">
        <ele>263.39999389648</ele>
        <time>2019-05-01T09:19:48.000Z</time>
      </trkpt>
      <trkpt lat="50.36103" lon="5.57936">
        <ele>263.60000610352</ele>
        <time>2019-05-01T09:19:49.000Z</time>
      </trkpt>
      <trkpt lat="50.36091" lon="5.57915">
        <ele>263.79998779297</ele>
        <time>2019-05-01T09:19:50.000Z</time>
      </trkpt>
      <trkpt lat="50.36085" lon="5.57897">
        <ele>263.79998779297</ele>
        <time>2019-05-01T09:19:52.000Z</time>
      </trkpt>
      <trkpt lat="50.36079" lon="5.5789">
        <ele>263.79998779297</ele>
        <time>2019-05-01T09:19:53.000Z</time>
      </trkpt>
      <trkpt lat="50.36068" lon="5.57891">
        <ele>263.79998779297</ele>
        <time>2019-05-01T09:19:54.000Z</time>
      </trkpt>
      <trkpt lat="50.36063" lon="5.57894">
        <ele>263.39999389648</ele>
        <time>2019-05-01T09:19:55.000Z</time>
      </trkpt>
      <trkpt lat="50.36053" lon="5.57899">
        <ele>262.60000610352</ele>
        <time>2019-05-01T09:19:56.000Z</time>
      </trkpt>
      <trkpt lat="50.36049" lon="5.57902">
        <ele>262.20001220703</ele>
        <time>2019-05-01T09:19:57.000Z</time>
      </trkpt>
      <trkpt lat="50.36039" lon="5.57912">
        <ele>261.60000610352</ele>
        <time>2019-05-01T09:19:58.000Z</time>
      </trkpt>
      <trkpt lat="50.36023" lon="5.57927">
        <ele>260.79998779297</ele>
        <time>2019-05-01T09:19:59.000Z</time>
      </trkpt>
      <trkpt lat="50.36012" lon="5.57936">
        <ele>260.39999389648</ele>
        <time>2019-05-01T09:20:00.000Z</time>
      </trkpt>
      <trkpt lat="50.35983" lon="5.57952">
        <ele>259.60000610352</ele>
        <time>2019-05-01T09:20:01.000Z</time>
      </trkpt>
      <trkpt lat="50.35978" lon="5.57954">
        <ele>259.60000610352</ele>
        <time>2019-05-01T09:20:02.000Z</time>
      </trkpt>
      <trkpt lat="50.35949" lon="5.57959">
        <ele>259.39999389648</ele>
        <time>2019-05-01T09:20:03.000Z</time>
      </trkpt>
      <trkpt lat="50.35916" lon="5.57972">
        <ele>259.79998779297</ele>
        <time>2019-05-01T09:20:04.000Z</time>
      </trkpt>
      <trkpt lat="50.35874" lon="5.57988">
        <ele>260.39999389648</ele>
        <time>2019-05-01T09:20:05.000Z</time>
      </trkpt>
      <trkpt lat="50.35868" lon="5.57991">
        <ele>260.39999389648</ele>
        <time>2019-05-01T09:20:06.000Z</time>
      </trkpt>
      <trkpt lat="50.35828" lon="5.58011">
        <ele>260.39999389648</ele>
        <time>2019-05-01T09:20:07.000Z</time>
      </trkpt>
      <trkpt lat="50.35781" lon="5.5804">
        <ele>259</ele>
        <time>2019-05-01T09:20:08.000Z</time>
      </trkpt>
      <trkpt lat="50.35771" lon="5.58046">
        <ele>258.60000610352</ele>
        <time>2019-05-01T09:20:09.000Z</time>
      </trkpt>
      <trkpt lat="50.35761" lon="5.58053">
        <ele>258</ele>
        <time>2019-05-01T09:20:10.000Z</time>
      </trkpt>
      <trkpt lat="50.35741" lon="5.58068">
        <ele>256.39999389648</ele>
        <time>2019-05-01T09:20:11.000Z</time>
      </trkpt>
      <trkpt lat="50.3572" lon="5.58078">
        <ele>254.80000305176</ele>
        <time>2019-05-01T09:20:12.000Z</time>
      </trkpt>
      <trkpt lat="50.35699" lon="5.58078">
        <ele>253.19999694824</ele>
        <time>2019-05-01T09:20:13.000Z</time>
      </trkpt>
      <trkpt lat="50.35688" lon="5.58075">
        <ele>252.39999389648</ele>
        <time>2019-05-01T09:20:14.000Z</time>
      </trkpt>
      <trkpt lat="50.35678" lon="5.58073">
        <ele>251.60000610352</ele>
        <time>2019-05-01T09:20:15.000Z</time>
      </trkpt>
      <trkpt lat="50.35667" lon="5.58071">
        <ele>250</ele>
        <time>2019-05-01T09:20:16.000Z</time>
      </trkpt>
      <trkpt lat="50.35657" lon="5.58071">
        <ele>249</ele>
        <time>2019-05-01T09:20:17.000Z</time>
      </trkpt>
      <trkpt lat="50.35635" lon="5.58071">
        <ele>246.80000305176</ele>
        <time>2019-05-01T09:20:18.000Z</time>
      </trkpt>
      <trkpt lat="50.35614" lon="5.58074">
        <ele>245.39999389648</ele>
        <time>2019-05-01T09:20:19.000Z</time>
      </trkpt>
      <trkpt lat="50.35604" lon="5.58079">
        <ele>244.60000610352</ele>
        <time>2019-05-01T09:20:20.000Z</time>
      </trkpt>
      <trkpt lat="50.35593" lon="5.58086">
        <ele>243.80000305176</ele>
        <time>2019-05-01T09:20:21.000Z</time>
      </trkpt>
      <trkpt lat="50.3557" lon="5.58104">
        <ele>242.39999389648</ele>
        <time>2019-05-01T09:20:22.000Z</time>
      </trkpt>
      <trkpt lat="50.35558" lon="5.58114">
        <ele>242</ele>
        <time>2019-05-01T09:20:23.000Z</time>
      </trkpt>
      <trkpt lat="50.35547" lon="5.58125">
        <ele>241.39999389648</ele>
        <time>2019-05-01T09:20:24.000Z</time>
      </trkpt>
      <trkpt lat="50.35523" lon="5.58144">
        <ele>239.60000610352</ele>
        <time>2019-05-01T09:20:25.000Z</time>
      </trkpt>
      <trkpt lat="50.35511" lon="5.5815">
        <ele>238.60000610352</ele>
        <time>2019-05-01T09:20:26.000Z</time>
      </trkpt>
      <trkpt lat="50.35489" lon="5.5815">
        <ele>236.80000305176</ele>
        <time>2019-05-01T09:20:27.000Z</time>
      </trkpt>
      <trkpt lat="50.35466" lon="5.58146">
        <ele>235</ele>
        <time>2019-05-01T09:20:28.000Z</time>
      </trkpt>
      <trkpt lat="50.35454" lon="5.58147">
        <ele>234.19999694824</ele>
        <time>2019-05-01T09:20:29.000Z</time>
      </trkpt>
      <trkpt lat="50.35443" lon="5.5815">
        <ele>233</ele>
        <time>2019-05-01T09:20:30.000Z</time>
      </trkpt>
      <trkpt lat="50.35432" lon="5.58159">
        <ele>232</ele>
        <time>2019-05-01T09:20:32.000Z</time>
      </trkpt>
      <trkpt lat="50.35423" lon="5.58169">
        <ele>231</ele>
        <time>2019-05-01T09:20:33.000Z</time>
      </trkpt>
      <trkpt lat="50.35415" lon="5.58179">
        <ele>229.60000610352</ele>
        <time>2019-05-01T09:20:36.000Z</time>
      </trkpt>
      <trkpt lat="50.35406" lon="5.58189">
        <ele>228.60000610352</ele>
        <time>2019-05-01T09:20:37.000Z</time>
      </trkpt>
      <trkpt lat="50.35397" lon="5.58195">
        <ele>227.39999389648</ele>
        <time>2019-05-01T09:20:40.000Z</time>
      </trkpt>
      <trkpt lat="50.35388" lon="5.58196">
        <ele>226.39999389648</ele>
        <time>2019-05-01T09:20:41.000Z</time>
      </trkpt>
      <trkpt lat="50.35378" lon="5.58195">
        <ele>225.39999389648</ele>
        <time>2019-05-01T09:20:43.000Z</time>
      </trkpt>
      <trkpt lat="50.35368" lon="5.58198">
        <ele>224</ele>
        <time>2019-05-01T09:20:45.000Z</time>
      </trkpt>
      <trkpt lat="50.35358" lon="5.58205">
        <ele>221.19999694824</ele>
        <time>2019-05-01T09:20:46.000Z</time>
      </trkpt>
      <trkpt lat="50.35349" lon="5.58217">
        <ele>220.19999694824</ele>
        <time>2019-05-01T09:20:47.000Z</time>
      </trkpt>
      <trkpt lat="50.35329" lon="5.5824">
        <ele>218</ele>
        <time>2019-05-01T09:20:48.000Z</time>
      </trkpt>
      <trkpt lat="50.35318" lon="5.58253">
        <ele>216.60000610352</ele>
        <time>2019-05-01T09:20:49.000Z</time>
      </trkpt>
      <trkpt lat="50.35306" lon="5.58265">
        <ele>215.60000610352</ele>
        <time>2019-05-01T09:20:51.000Z</time>
      </trkpt>
      <trkpt lat="50.35295" lon="5.58277">
        <ele>214.19999694824</ele>
        <time>2019-05-01T09:20:52.000Z</time>
      </trkpt>
      <trkpt lat="50.35282" lon="5.5829">
        <ele>213</ele>
        <time>2019-05-01T09:20:54.000Z</time>
      </trkpt>
      <trkpt lat="50.35268" lon="5.58302">
        <ele>211.80000305176</ele>
        <time>2019-05-01T09:20:56.000Z</time>
      </trkpt>
      <trkpt lat="50.35254" lon="5.58311">
        <ele>210.60000610352</ele>
        <time>2019-05-01T09:20:57.000Z</time>
      </trkpt>
      <trkpt lat="50.3524" lon="5.58318">
        <ele>209.19999694824</ele>
        <time>2019-05-01T09:21:00.000Z</time>
      </trkpt>
      <trkpt lat="50.35225" lon="5.58326">
        <ele>207.39999389648</ele>
        <time>2019-05-01T09:21:02.000Z</time>
      </trkpt>
      <trkpt lat="50.3521" lon="5.58334">
        <ele>206</ele>
        <time>2019-05-01T09:21:03.000Z</time>
      </trkpt>
      <trkpt lat="50.35196" lon="5.58345">
        <ele>204.80000305176</ele>
        <time>2019-05-01T09:21:06.000Z</time>
      </trkpt>
      <trkpt lat="50.35184" lon="5.58355">
        <ele>203.60000610352</ele>
        <time>2019-05-01T09:21:08.000Z</time>
      </trkpt>
      <trkpt lat="50.35173" lon="5.58366">
        <ele>202.19999694824</ele>
        <time>2019-05-01T09:21:09.000Z</time>
      </trkpt>
      <trkpt lat="50.35162" lon="5.58375">
        <ele>200.60000610352</ele>
        <time>2019-05-01T09:21:11.000Z</time>
      </trkpt>
      <trkpt lat="50.35153" lon="5.58385">
        <ele>199</ele>
        <time>2019-05-01T09:21:15.000Z</time>
      </trkpt>
      <trkpt lat="50.35146" lon="5.58392">
        <ele>197.19999694824</ele>
        <time>2019-05-01T09:21:17.000Z</time>
      </trkpt>
      <trkpt lat="50.35139" lon="5.58397">
        <ele>196</ele>
        <time>2019-05-01T09:21:19.000Z</time>
      </trkpt>
      <trkpt lat="50.35133" lon="5.584">
        <ele>194.39999389648</ele>
        <time>2019-05-01T09:21:24.000Z</time>
      </trkpt>
      <trkpt lat="50.35129" lon="5.58397">
        <ele>192.80000305176</ele>
        <time>2019-05-01T09:21:28.000Z</time>
      </trkpt>
      <trkpt lat="50.35127" lon="5.58391">
        <ele>191.60000610352</ele>
        <time>2019-05-01T09:21:32.000Z</time>
      </trkpt>
      <trkpt lat="50.35128" lon="5.58383">
        <ele>190.60000610352</ele>
        <time>2019-05-01T09:21:36.000Z</time>
      </trkpt>
      <trkpt lat="50.3513" lon="5.58371">
        <ele>189.39999389648</ele>
        <time>2019-05-01T09:21:40.000Z</time>
      </trkpt>
      <trkpt lat="50.35133" lon="5.58358">
        <ele>188.39999389648</ele>
        <time>2019-05-01T09:21:43.000Z</time>
      </trkpt>
      <trkpt lat="50.35135" lon="5.58344">
        <ele>187.19999694824</ele>
        <time>2019-05-01T09:21:44.000Z</time>
      </trkpt>
      <trkpt lat="50.3514" lon="5.58314">
        <ele>185.60000610352</ele>
        <time>2019-05-01T09:21:48.000Z</time>
      </trkpt>
      <trkpt lat="50.35144" lon="5.583">
        <ele>184</ele>
        <time>2019-05-01T09:21:53.000Z</time>
      </trkpt>
      <trkpt lat="50.35146" lon="5.58283">
        <ele>183</ele>
        <time>2019-05-01T09:21:58.000Z</time>
      </trkpt>
      <trkpt lat="50.35148" lon="5.58266">
        <ele>181.80000305176</ele>
        <time>2019-05-01T09:22:01.000Z</time>
      </trkpt>
      <trkpt lat="50.35149" lon="5.5825">
        <ele>180.60000610352</ele>
        <time>2019-05-01T09:22:03.000Z</time>
      </trkpt>
      <trkpt lat="50.35151" lon="5.58218">
        <ele>178.80000305176</ele>
        <time>2019-05-01T09:22:07.000Z</time>
      </trkpt>
      <trkpt lat="50.35152" lon="5.58203">
        <ele>177.39999389648</ele>
        <time>2019-05-01T09:22:10.000Z</time>
      </trkpt>
      <trkpt lat="50.35153" lon="5.58175">
        <ele>175.60000610352</ele>
        <time>2019-05-01T09:22:13.000Z</time>
      </trkpt>
      <trkpt lat="50.35154" lon="5.58161">
        <ele>175</ele>
        <time>2019-05-01T09:22:14.000Z</time>
      </trkpt>
      <trkpt lat="50.35159" lon="5.58133">
        <ele>174.19999694824</ele>
        <time>2019-05-01T09:22:16.000Z</time>
      </trkpt>
      <trkpt lat="50.3517" lon="5.58111">
        <ele>173.39999389648</ele>
        <time>2019-05-01T09:22:17.000Z</time>
      </trkpt>
      <trkpt lat="50.35175" lon="5.58102">
        <ele>173</ele>
        <time>2019-05-01T09:22:20.000Z</time>
      </trkpt>
      <trkpt lat="50.35181" lon="5.58092">
        <ele>172.80000305176</ele>
        <time>2019-05-01T09:22:23.000Z</time>
      </trkpt>
      <trkpt lat="50.35223" lon="5.58026">
        <ele>172.39999389648</ele>
        <time>2019-05-01T09:22:24.000Z</time>
      </trkpt>
      <trkpt lat="50.35229" lon="5.58018">
        <ele>172.19999694824</ele>
        <time>2019-05-01T09:22:29.000Z</time>
      </trkpt>
      <trkpt lat="50.3524" lon="5.58001">
        <ele>172</ele>
        <time>2019-05-01T09:22:34.000Z</time>
      </trkpt>
      <trkpt lat="50.3525" lon="5.57984">
        <ele>172</ele>
        <time>2019-05-01T09:22:38.000Z</time>
      </trkpt>
      <trkpt lat="50.35255" lon="5.57975">
        <ele>172</ele>
        <time>2019-05-01T09:22:40.000Z</time>
      </trkpt>
      <trkpt lat="50.35288" lon="5.57927">
        <ele>171.60000610352</ele>
        <time>2019-05-01T09:22:42.000Z</time>
      </trkpt>
      <trkpt lat="50.35316" lon="5.57885">
        <ele>171.39999389648</ele>
        <time>2019-05-01T09:22:45.000Z</time>
      </trkpt>
      <trkpt lat="50.35333" lon="5.5786">
        <ele>171</ele>
        <time>2019-05-01T09:22:46.000Z</time>
      </trkpt>
      <trkpt lat="50.35373" lon="5.57799">
        <ele>170.39999389648</ele>
        <time>2019-05-01T09:22:48.000Z</time>
      </trkpt>
      <trkpt lat="50.35379" lon="5.5779">
        <ele>170.39999389648</ele>
        <time>2019-05-01T09:22:51.000Z</time>
      </trkpt>
      <trkpt lat="50.35413" lon="5.57739">
        <ele>169.80000305176</ele>
        <time>2019-05-01T09:22:52.000Z</time>
      </trkpt>
      <trkpt lat="50.35445" lon="5.57693">
        <ele>169.19999694824</ele>
        <time>2019-05-01T09:22:53.000Z</time>
      </trkpt>
      <trkpt lat="50.35482" lon="5.57635">
        <ele>168.80000305176</ele>
        <time>2019-05-01T09:22:58.000Z</time>
      </trkpt>
      <trkpt lat="50.35491" lon="5.57616">
        <ele>168.60000610352</ele>
        <time>2019-05-01T09:22:59.000Z</time>
      </trkpt>
      <trkpt lat="50.35507" lon="5.57575">
        <ele>168.39999389648</ele>
        <time>2019-05-01T09:23:05.000Z</time>
      </trkpt>
      <trkpt lat="50.35534" lon="5.57501">
        <ele>168</ele>
        <time>2019-05-01T09:23:13.000Z</time>
      </trkpt>
      <trkpt lat="50.35545" lon="5.57471">
        <ele>167.80000305176</ele>
        <time>2019-05-01T09:23:19.000Z</time>
      </trkpt>
      <trkpt lat="50.35555" lon="5.57439">
        <ele>167.60000610352</ele>
        <time>2019-05-01T09:23:25.000Z</time>
      </trkpt>
      <trkpt lat="50.35558" lon="5.57417">
        <ele>167.60000610352</ele>
        <time>2019-05-01T09:23:26.000Z</time>
      </trkpt>
      <trkpt lat="50.35556" lon="5.57395">
        <ele>167.39999389648</ele>
        <time>2019-05-01T09:23:27.000Z</time>
      </trkpt>
      <trkpt lat="50.35554" lon="5.57384">
        <ele>167.19999694824</ele>
        <time>2019-05-01T09:23:28.000Z</time>
      </trkpt>
      <trkpt lat="50.35553" lon="5.57372">
        <ele>167</ele>
        <time>2019-05-01T09:23:30.000Z</time>
      </trkpt>
      <trkpt lat="50.35543" lon="5.57312">
        <ele>166.80000305176</ele>
        <time>2019-05-01T09:23:32.000Z</time>
      </trkpt>
      <trkpt lat="50.35538" lon="5.57264">
        <ele>166.60000610352</ele>
        <time>2019-05-01T09:23:33.000Z</time>
      </trkpt>
      <trkpt lat="50.35536" lon="5.5724">
        <ele>166.19999694824</ele>
        <time>2019-05-01T09:23:35.000Z</time>
      </trkpt>
      <trkpt lat="50.35534" lon="5.57179">
        <ele>165.60000610352</ele>
        <time>2019-05-01T09:23:39.000Z</time>
      </trkpt>
      <trkpt lat="50.35537" lon="5.57112">
        <ele>165.19999694824</ele>
        <time>2019-05-01T09:23:42.000Z</time>
      </trkpt>
      <trkpt lat="50.35539" lon="5.57065">
        <ele>165</ele>
        <time>2019-05-01T09:23:45.000Z</time>
      </trkpt>
      <trkpt lat="50.3554" lon="5.57031">
        <ele>164.80000305176</ele>
        <time>2019-05-01T09:23:49.000Z</time>
      </trkpt>
      <trkpt lat="50.35534" lon="5.5695">
        <ele>164.60000610352</ele>
        <time>2019-05-01T09:23:52.000Z</time>
      </trkpt>
      <trkpt lat="50.3552" lon="5.56878">
        <ele>164.19999694824</ele>
        <time>2019-05-01T09:23:54.000Z</time>
      </trkpt>
      <trkpt lat="50.35514" lon="5.56854">
        <ele>164</ele>
        <time>2019-05-01T09:23:56.000Z</time>
      </trkpt>
      <trkpt lat="50.35506" lon="5.56817">
        <ele>163.80000305176</ele>
        <time>2019-05-01T09:23:59.000Z</time>
      </trkpt>
      <trkpt lat="50.35505" lon="5.56804">
        <ele>163.60000610352</ele>
        <time>2019-05-01T09:24:02.000Z</time>
      </trkpt>
      <trkpt lat="50.35509" lon="5.56766">
        <ele>163.19999694824</ele>
        <time>2019-05-01T09:24:04.000Z</time>
      </trkpt>
      <trkpt lat="50.3552" lon="5.56702">
        <ele>163</ele>
        <time>2019-05-01T09:24:05.000Z</time>
      </trkpt>
      <trkpt lat="50.35529" lon="5.56652">
        <ele>162.60000610352</ele>
        <time>2019-05-01T09:24:10.000Z</time>
      </trkpt>
      <trkpt lat="50.35541" lon="5.56592">
        <ele>162.39999389648</ele>
        <time>2019-05-01T09:24:15.000Z</time>
      </trkpt>
      <trkpt lat="50.35554" lon="5.56533">
        <ele>162.19999694824</ele>
        <time>2019-05-01T09:24:20.000Z</time>
      </trkpt>
      <trkpt lat="50.35564" lon="5.56499">
        <ele>162</ele>
        <time>2019-05-01T09:24:24.000Z</time>
      </trkpt>
      <trkpt lat="50.35574" lon="5.56479">
        <ele>161.80000305176</ele>
        <time>2019-05-01T09:24:26.000Z</time>
      </trkpt>
      <trkpt lat="50.35586" lon="5.56461">
        <ele>161.60000610352</ele>
        <time>2019-05-01T09:24:32.000Z</time>
      </trkpt>
      <trkpt lat="50.35604" lon="5.56438">
        <ele>161.39999389648</ele>
        <time>2019-05-01T09:24:33.000Z</time>
      </trkpt>
      <trkpt lat="50.35635" lon="5.56401">
        <ele>161</ele>
        <time>2019-05-01T09:24:37.000Z</time>
      </trkpt>
      <trkpt lat="50.35641" lon="5.56393">
        <ele>160.80000305176</ele>
        <time>2019-05-01T09:24:43.000Z</time>
      </trkpt>
      <trkpt lat="50.35687" lon="5.56333">
        <ele>160.39999389648</ele>
        <time>2019-05-01T09:24:51.000Z</time>
      </trkpt>
      <trkpt lat="50.35728" lon="5.56283">
        <ele>159.80000305176</ele>
        <time>2019-05-01T09:24:52.000Z</time>
      </trkpt>
      <trkpt lat="50.35749" lon="5.56257">
        <ele>159.60000610352</ele>
        <time>2019-05-01T09:24:59.000Z</time>
      </trkpt>
      <trkpt lat="50.35795" lon="5.56199">
        <ele>159</ele>
        <time>2019-05-01T09:25:05.000Z</time>
      </trkpt>
      <trkpt lat="50.35809" lon="5.56182">
        <ele>158.80000305176</ele>
        <time>2019-05-01T09:25:06.000Z</time>
      </trkpt>
      <trkpt lat="50.35815" lon="5.56174">
        <ele>158.80000305176</ele>
        <time>2019-05-01T09:25:07.000Z</time>
      </trkpt>
      <trkpt lat="50.3586" lon="5.56118">
        <ele>158.39999389648</ele>
        <time>2019-05-01T09:25:09.000Z</time>
      </trkpt>
      <trkpt lat="50.35866" lon="5.5611">
        <ele>158.19999694824</ele>
        <time>2019-05-01T09:25:11.000Z</time>
      </trkpt>
      <trkpt lat="50.35913" lon="5.56053">
        <ele>157.80000305176</ele>
        <time>2019-05-01T09:25:14.000Z</time>
      </trkpt>
      <trkpt lat="50.35926" lon="5.56038">
        <ele>157.60000610352</ele>
        <time>2019-05-01T09:25:17.000Z</time>
      </trkpt>
      <trkpt lat="50.35973" lon="5.5598">
        <ele>157.19999694824</ele>
        <time>2019-05-01T09:25:20.000Z</time>
      </trkpt>
      <trkpt lat="50.3598" lon="5.55972">
        <ele>157</ele>
        <time>2019-05-01T09:25:22.000Z</time>
      </trkpt>
      <trkpt lat="50.36014" lon="5.55931">
        <ele>156.60000610352</ele>
        <time>2019-05-01T09:25:24.000Z</time>
      </trkpt>
      <trkpt lat="50.36028" lon="5.55914">
        <ele>156.60000610352</ele>
        <time>2019-05-01T09:25:29.000Z</time>
      </trkpt>
      <trkpt lat="50.36076" lon="5.55857">
        <ele>155.80000305176</ele>
        <time>2019-05-01T09:25:31.000Z</time>
      </trkpt>
      <trkpt lat="50.36103" lon="5.55828">
        <ele>155.39999389648</ele>
        <time>2019-05-01T09:25:34.000Z</time>
      </trkpt>
      <trkpt lat="50.36117" lon="5.55815">
        <ele>155.19999694824</ele>
        <time>2019-05-01T09:25:35.000Z</time>
      </trkpt>
      <trkpt lat="50.36153" lon="5.55786">
        <ele>155</ele>
        <time>2019-05-01T09:25:37.000Z</time>
      </trkpt>
      <trkpt lat="50.36191" lon="5.55759">
        <ele>154.39999389648</ele>
        <time>2019-05-01T09:25:39.000Z</time>
      </trkpt>
      <trkpt lat="50.36206" lon="5.55749">
        <ele>154.39999389648</ele>
        <time>2019-05-01T09:25:42.000Z</time>
      </trkpt>
      <trkpt lat="50.36259" lon="5.55712">
        <ele>154</ele>
        <time>2019-05-01T09:25:45.000Z</time>
      </trkpt>
      <trkpt lat="50.36293" lon="5.55685">
        <ele>153.39999389648</ele>
        <time>2019-05-01T09:25:46.000Z</time>
      </trkpt>
      <trkpt lat="50.36329" lon="5.55648">
        <ele>153.19999694824</ele>
        <time>2019-05-01T09:25:49.000Z</time>
      </trkpt>
      <trkpt lat="50.36383" lon="5.55618">
        <ele>152.60000610352</ele>
        <time>2019-05-01T09:25:50.000Z</time>
      </trkpt>
      <trkpt lat="50.3643" lon="5.55604">
        <ele>152.19999694824</ele>
        <time>2019-05-01T09:25:51.000Z</time>
      </trkpt>
      <trkpt lat="50.36438" lon="5.55602">
        <ele>152.19999694824</ele>
        <time>2019-05-01T09:25:53.000Z</time>
      </trkpt>
      <trkpt lat="50.36462" lon="5.55597">
        <ele>152.19999694824</ele>
        <time>2019-05-01T09:25:54.000Z</time>
      </trkpt>
      <trkpt lat="50.36479" lon="5.55593">
        <ele>152.19999694824</ele>
        <time>2019-05-01T09:25:57.000Z</time>
      </trkpt>
      <trkpt lat="50.36517" lon="5.55586">
        <ele>152.19999694824</ele>
        <time>2019-05-01T09:25:58.000Z</time>
      </trkpt>
      <trkpt lat="50.36554" lon="5.55572">
        <ele>152.19999694824</ele>
        <time>2019-05-01T09:26:01.000Z</time>
      </trkpt>
      <trkpt lat="50.3659" lon="5.55545">
        <ele>152.19999694824</ele>
        <time>2019-05-01T09:26:04.000Z</time>
      </trkpt>
      <trkpt lat="50.36625" lon="5.55518">
        <ele>152</ele>
        <time>2019-05-01T09:26:06.000Z</time>
      </trkpt>
      <trkpt lat="50.36671" lon="5.55484">
        <ele>151.60000610352</ele>
        <time>2019-05-01T09:26:08.000Z</time>
      </trkpt>
      <trkpt lat="50.36713" lon="5.55465">
        <ele>151.39999389648</ele>
        <time>2019-05-01T09:26:10.000Z</time>
      </trkpt>
      <trkpt lat="50.36775" lon="5.55436">
        <ele>151</ele>
        <time>2019-05-01T09:26:11.000Z</time>
      </trkpt>
      <trkpt lat="50.36784" lon="5.55431">
        <ele>150.80000305176</ele>
        <time>2019-05-01T09:26:12.000Z</time>
      </trkpt>
      <trkpt lat="50.36809" lon="5.55414">
        <ele>150.60000610352</ele>
        <time>2019-05-01T09:26:18.000Z</time>
      </trkpt>
      <trkpt lat="50.36824" lon="5.55399">
        <ele>150.60000610352</ele>
        <time>2019-05-01T09:26:21.000Z</time>
      </trkpt>
      <trkpt lat="50.36838" lon="5.55377">
        <ele>150.19999694824</ele>
        <time>2019-05-01T09:26:22.000Z</time>
      </trkpt>
      <trkpt lat="50.36852" lon="5.55349">
        <ele>149.80000305176</ele>
        <time>2019-05-01T09:26:23.000Z</time>
      </trkpt>
      <trkpt lat="50.36879" lon="5.55283">
        <ele>149.80000305176</ele>
        <time>2019-05-01T09:26:28.000Z</time>
      </trkpt>
      <trkpt lat="50.36888" lon="5.55256">
        <ele>149.60000610352</ele>
        <time>2019-05-01T09:26:29.000Z</time>
      </trkpt>
      <trkpt lat="50.36902" lon="5.55202">
        <ele>149.39999389648</ele>
        <time>2019-05-01T09:26:35.000Z</time>
      </trkpt>
      <trkpt lat="50.36915" lon="5.55127">
        <ele>149</ele>
        <time>2019-05-01T09:26:36.000Z</time>
      </trkpt>
      <trkpt lat="50.3693" lon="5.55042">
        <ele>148.60000610352</ele>
        <time>2019-05-01T09:26:38.000Z</time>
      </trkpt>
      <trkpt lat="50.3694" lon="5.54967">
        <ele>148.39999389648</ele>
        <time>2019-05-01T09:26:40.000Z</time>
      </trkpt>
      <trkpt lat="50.3694" lon="5.54952">
        <ele>148.39999389648</ele>
        <time>2019-05-01T09:26:43.000Z</time>
      </trkpt>
      <trkpt lat="50.36939" lon="5.54922">
        <ele>148.39999389648</ele>
        <time>2019-05-01T09:26:45.000Z</time>
      </trkpt>
      <trkpt lat="50.36938" lon="5.54908">
        <ele>148.19999694824</ele>
        <time>2019-05-01T09:26:47.000Z</time>
      </trkpt>
      <trkpt lat="50.36938" lon="5.54893">
        <ele>148.19999694824</ele>
        <time>2019-05-01T09:26:49.000Z</time>
      </trkpt>
      <trkpt lat="50.36941" lon="5.5485">
        <ele>148.19999694824</ele>
        <time>2019-05-01T09:26:50.000Z</time>
      </trkpt>
      <trkpt lat="50.3695" lon="5.54765">
        <ele>147.80000305176</ele>
        <time>2019-05-01T09:26:52.000Z</time>
      </trkpt>
      <trkpt lat="50.36958" lon="5.54707">
        <ele>147.19999694824</ele>
        <time>2019-05-01T09:26:55.000Z</time>
      </trkpt>
      <trkpt lat="50.3697" lon="5.54619">
        <ele>146.39999389648</ele>
        <time>2019-05-01T09:26:57.000Z</time>
      </trkpt>
      <trkpt lat="50.36972" lon="5.54605">
        <ele>146.19999694824</ele>
        <time>2019-05-01T09:26:59.000Z</time>
      </trkpt>
      <trkpt lat="50.36976" lon="5.54575">
        <ele>146</ele>
        <time>2019-05-01T09:27:01.000Z</time>
      </trkpt>
      <trkpt lat="50.36986" lon="5.5449">
        <ele>144.80000305176</ele>
        <time>2019-05-01T09:27:02.000Z</time>
      </trkpt>
      <trkpt lat="50.36986" lon="5.54476">
        <ele>144.80000305176</ele>
        <time>2019-05-01T09:27:04.000Z</time>
      </trkpt>
      <trkpt lat="50.36985" lon="5.54447">
        <ele>144.60000610352</ele>
        <time>2019-05-01T09:27:05.000Z</time>
      </trkpt>
      <trkpt lat="50.36979" lon="5.54418">
        <ele>144.39999389648</ele>
        <time>2019-05-01T09:27:07.000Z</time>
      </trkpt>
      <trkpt lat="50.36961" lon="5.5438">
        <ele>144.39999389648</ele>
        <time>2019-05-01T09:27:09.000Z</time>
      </trkpt>
      <trkpt lat="50.36954" lon="5.54368">
        <ele>144.19999694824</ele>
        <time>2019-05-01T09:27:11.000Z</time>
      </trkpt>
      <trkpt lat="50.36916" lon="5.54316">
        <ele>143.80000305176</ele>
        <time>2019-05-01T09:27:13.000Z</time>
      </trkpt>
      <trkpt lat="50.36908" lon="5.54307">
        <ele>143.80000305176</ele>
        <time>2019-05-01T09:27:15.000Z</time>
      </trkpt>
      <trkpt lat="50.36864" lon="5.54243">
        <ele>143.19999694824</ele>
        <time>2019-05-01T09:27:16.000Z</time>
      </trkpt>
      <trkpt lat="50.36821" lon="5.54178">
        <ele>143</ele>
        <time>2019-05-01T09:27:17.000Z</time>
      </trkpt>
      <trkpt lat="50.36815" lon="5.54167">
        <ele>143</ele>
        <time>2019-05-01T09:27:19.000Z</time>
      </trkpt>
      <trkpt lat="50.36788" lon="5.54124">
        <ele>143</ele>
        <time>2019-05-01T09:27:20.000Z</time>
      </trkpt>
      <trkpt lat="50.36751" lon="5.54072">
        <ele>143</ele>
        <time>2019-05-01T09:27:21.000Z</time>
      </trkpt>
      <trkpt lat="50.36704" lon="5.54019">
        <ele>142.60000610352</ele>
        <time>2019-05-01T09:27:22.000Z</time>
      </trkpt>
      <trkpt lat="50.36669" lon="5.53971">
        <ele>142.80000305176</ele>
        <time>2019-05-01T09:27:23.000Z</time>
      </trkpt>
      <trkpt lat="50.36648" lon="5.53927">
        <ele>142.60000610352</ele>
        <time>2019-05-01T09:27:24.000Z</time>
      </trkpt>
      <trkpt lat="50.36644" lon="5.53914">
        <ele>142.60000610352</ele>
        <time>2019-05-01T09:27:26.000Z</time>
      </trkpt>
      <trkpt lat="50.36644" lon="5.53877">
        <ele>142.39999389648</ele>
        <time>2019-05-01T09:27:27.000Z</time>
      </trkpt>
      <trkpt lat="50.36663" lon="5.53845">
        <ele>142.39999389648</ele>
        <time>2019-05-01T09:27:29.000Z</time>
      </trkpt>
      <trkpt lat="50.36671" lon="5.53836">
        <ele>142.39999389648</ele>
        <time>2019-05-01T09:27:30.000Z</time>
      </trkpt>
      <trkpt lat="50.36711" lon="5.53791">
        <ele>141.80000305176</ele>
        <time>2019-05-01T09:27:31.000Z</time>
      </trkpt>
      <trkpt lat="50.36728" lon="5.53772">
        <ele>141.19999694824</ele>
        <time>2019-05-01T09:27:32.000Z</time>
      </trkpt>
      <trkpt lat="50.36768" lon="5.53726">
        <ele>140</ele>
        <time>2019-05-01T09:27:33.000Z</time>
      </trkpt>
      <trkpt lat="50.36815" lon="5.53672">
        <ele>139</ele>
        <time>2019-05-01T09:27:35.000Z</time>
      </trkpt>
      <trkpt lat="50.36863" lon="5.53617">
        <ele>138</ele>
        <time>2019-05-01T09:27:36.000Z</time>
      </trkpt>
      <trkpt lat="50.3687" lon="5.53608">
        <ele>137.80000305176</ele>
        <time>2019-05-01T09:27:38.000Z</time>
      </trkpt>
      <trkpt lat="50.36919" lon="5.53551">
        <ele>137.19999694824</ele>
        <time>2019-05-01T09:27:39.000Z</time>
      </trkpt>
      <trkpt lat="50.36927" lon="5.53542">
        <ele>137</ele>
        <time>2019-05-01T09:27:40.000Z</time>
      </trkpt>
      <trkpt lat="50.36942" lon="5.53523">
        <ele>136.80000305176</ele>
        <time>2019-05-01T09:27:43.000Z</time>
      </trkpt>
      <trkpt lat="50.36988" lon="5.53469">
        <ele>136.19999694824</ele>
        <time>2019-05-01T09:27:44.000Z</time>
      </trkpt>
      <trkpt lat="50.37003" lon="5.53451">
        <ele>136.19999694824</ele>
        <time>2019-05-01T09:27:45.000Z</time>
      </trkpt>
      <trkpt lat="50.37019" lon="5.53434">
        <ele>136</ele>
        <time>2019-05-01T09:27:48.000Z</time>
      </trkpt>
      <trkpt lat="50.37051" lon="5.53404">
        <ele>135.60000610352</ele>
        <time>2019-05-01T09:27:49.000Z</time>
      </trkpt>
      <trkpt lat="50.37089" lon="5.53389">
        <ele>135.39999389648</ele>
        <time>2019-05-01T09:27:52.000Z</time>
      </trkpt>
      <trkpt lat="50.37117" lon="5.53382">
        <ele>135</ele>
        <time>2019-05-01T09:27:53.000Z</time>
      </trkpt>
      <trkpt lat="50.37145" lon="5.53377">
        <ele>134.60000610352</ele>
        <time>2019-05-01T09:27:55.000Z</time>
      </trkpt>
      <trkpt lat="50.37172" lon="5.53377">
        <ele>133.80000305176</ele>
        <time>2019-05-01T09:27:56.000Z</time>
      </trkpt>
      <trkpt lat="50.37181" lon="5.5338">
        <ele>133.80000305176</ele>
        <time>2019-05-01T09:27:57.000Z</time>
      </trkpt>
      <trkpt lat="50.37207" lon="5.53398">
        <ele>133.39999389648</ele>
        <time>2019-05-01T09:27:58.000Z</time>
      </trkpt>
      <trkpt lat="50.37227" lon="5.53428">
        <ele>133.19999694824</ele>
        <time>2019-05-01T09:27:59.000Z</time>
      </trkpt>
      <trkpt lat="50.37233" lon="5.53438">
        <ele>133.19999694824</ele>
        <time>2019-05-01T09:28:00.000Z</time>
      </trkpt>
      <trkpt lat="50.37268" lon="5.53499">
        <ele>133.19999694824</ele>
        <time>2019-05-01T09:28:02.000Z</time>
      </trkpt>
      <trkpt lat="50.37289" lon="5.53533">
        <ele>133.19999694824</ele>
        <time>2019-05-01T09:28:03.000Z</time>
      </trkpt>
      <trkpt lat="50.37295" lon="5.53539">
        <ele>133.19999694824</ele>
        <time>2019-05-01T09:28:04.000Z</time>
      </trkpt>
      <trkpt lat="50.37317" lon="5.53544">
        <ele>133.39999389648</ele>
        <time>2019-05-01T09:28:06.000Z</time>
      </trkpt>
      <trkpt lat="50.37357" lon="5.53542">
        <ele>133.80000305176</ele>
        <time>2019-05-01T09:28:08.000Z</time>
      </trkpt>
      <trkpt lat="50.37371" lon="5.53542">
        <ele>133.80000305176</ele>
        <time>2019-05-01T09:28:09.000Z</time>
      </trkpt>
      <trkpt lat="50.374" lon="5.53537">
        <ele>134.19999694824</ele>
        <time>2019-05-01T09:28:10.000Z</time>
      </trkpt>
      <trkpt lat="50.37407" lon="5.53535">
        <ele>134.19999694824</ele>
        <time>2019-05-01T09:28:11.000Z</time>
      </trkpt>
      <trkpt lat="50.37428" lon="5.53521">
        <ele>134.60000610352</ele>
        <time>2019-05-01T09:28:12.000Z</time>
      </trkpt>
      <trkpt lat="50.37435" lon="5.53515">
        <ele>134.80000305176</ele>
        <time>2019-05-01T09:28:13.000Z</time>
      </trkpt>
      <trkpt lat="50.37442" lon="5.53509">
        <ele>134.80000305176</ele>
        <time>2019-05-01T09:28:14.000Z</time>
      </trkpt>
      <trkpt lat="50.37448" lon="5.53502">
        <ele>134.80000305176</ele>
        <time>2019-05-01T09:28:16.000Z</time>
      </trkpt>
      <trkpt lat="50.3746" lon="5.53485">
        <ele>134.80000305176</ele>
        <time>2019-05-01T09:28:18.000Z</time>
      </trkpt>
      <trkpt lat="50.37475" lon="5.5344">
        <ele>134.80000305176</ele>
        <time>2019-05-01T09:28:19.000Z</time>
      </trkpt>
      <trkpt lat="50.37478" lon="5.53429">
        <ele>134.80000305176</ele>
        <time>2019-05-01T09:28:20.000Z</time>
      </trkpt>
      <trkpt lat="50.37493" lon="5.53367">
        <ele>134.39999389648</ele>
        <time>2019-05-01T09:28:21.000Z</time>
      </trkpt>
      <trkpt lat="50.37504" lon="5.53311">
        <ele>133.39999389648</ele>
        <time>2019-05-01T09:28:23.000Z</time>
      </trkpt>
      <trkpt lat="50.3751" lon="5.53284">
        <ele>132.80000305176</ele>
        <time>2019-05-01T09:28:24.000Z</time>
      </trkpt>
      <trkpt lat="50.37519" lon="5.53241">
        <ele>132.19999694824</ele>
        <time>2019-05-01T09:28:25.000Z</time>
      </trkpt>
      <trkpt lat="50.37535" lon="5.53167">
        <ele>131.19999694824</ele>
        <time>2019-05-01T09:28:27.000Z</time>
      </trkpt>
      <trkpt lat="50.37541" lon="5.53137">
        <ele>130.80000305176</ele>
        <time>2019-05-01T09:28:28.000Z</time>
      </trkpt>
      <trkpt lat="50.3756" lon="5.53051">
        <ele>130</ele>
        <time>2019-05-01T09:28:29.000Z</time>
      </trkpt>
      <trkpt lat="50.37578" lon="5.52968">
        <ele>128.80000305176</ele>
        <time>2019-05-01T09:28:31.000Z</time>
      </trkpt>
      <trkpt lat="50.37583" lon="5.5294">
        <ele>128.39999389648</ele>
        <time>2019-05-01T09:28:32.000Z</time>
      </trkpt>
      <trkpt lat="50.376" lon="5.52859">
        <ele>128</ele>
        <time>2019-05-01T09:28:33.000Z</time>
      </trkpt>
      <trkpt lat="50.37603" lon="5.52846">
        <ele>127.59999847412</ele>
        <time>2019-05-01T09:28:35.000Z</time>
      </trkpt>
      <trkpt lat="50.37608" lon="5.52819">
        <ele>127.59999847412</ele>
        <time>2019-05-01T09:28:36.000Z</time>
      </trkpt>
      <trkpt lat="50.37622" lon="5.52739">
        <ele>127.19999694824</ele>
        <time>2019-05-01T09:28:37.000Z</time>
      </trkpt>
      <trkpt lat="50.37638" lon="5.52644">
        <ele>126.80000305176</ele>
        <time>2019-05-01T09:28:38.000Z</time>
      </trkpt>
      <trkpt lat="50.37653" lon="5.52556">
        <ele>126.19999694824</ele>
        <time>2019-05-01T09:28:39.000Z</time>
      </trkpt>
      <trkpt lat="50.37662" lon="5.52502">
        <ele>126</ele>
        <time>2019-05-01T09:28:40.000Z</time>
      </trkpt>
      <trkpt lat="50.37665" lon="5.52482">
        <ele>126</ele>
        <time>2019-05-01T09:28:41.000Z</time>
      </trkpt>
      <trkpt lat="50.37668" lon="5.52464">
        <ele>125.80000305176</ele>
        <time>2019-05-01T09:28:42.000Z</time>
      </trkpt>
      <trkpt lat="50.37672" lon="5.52442">
        <ele>125.59999847412</ele>
        <time>2019-05-01T09:28:43.000Z</time>
      </trkpt>
      <trkpt lat="50.37677" lon="5.52415">
        <ele>125.59999847412</ele>
        <time>2019-05-01T09:28:44.000Z</time>
      </trkpt>
      <trkpt lat="50.37678" lon="5.52394">
        <ele>125.80000305176</ele>
        <time>2019-05-01T09:28:46.000Z</time>
      </trkpt>
      <trkpt lat="50.37674" lon="5.52352">
        <ele>126.19999694824</ele>
        <time>2019-05-01T09:28:47.000Z</time>
      </trkpt>
      <trkpt lat="50.37672" lon="5.52284">
        <ele>126</ele>
        <time>2019-05-01T09:28:48.000Z</time>
      </trkpt>
      <trkpt lat="50.37667" lon="5.52207">
        <ele>126</ele>
        <time>2019-05-01T09:28:50.000Z</time>
      </trkpt>
      <trkpt lat="50.37667" lon="5.52197">
        <ele>126</ele>
        <time>2019-05-01T09:28:52.000Z</time>
      </trkpt>
      <trkpt lat="50.37662" lon="5.52105">
        <ele>126</ele>
        <time>2019-05-01T09:28:53.000Z</time>
      </trkpt>
      <trkpt lat="50.37661" lon="5.52094">
        <ele>126</ele>
        <time>2019-05-01T09:28:54.000Z</time>
      </trkpt>
      <trkpt lat="50.37658" lon="5.5202">
        <ele>126</ele>
        <time>2019-05-01T09:28:56.000Z</time>
      </trkpt>
      <trkpt lat="50.37656" lon="5.51976">
        <ele>126.19999694824</ele>
        <time>2019-05-01T09:28:57.000Z</time>
      </trkpt>
      <trkpt lat="50.37652" lon="5.51902">
        <ele>126.40000152588</ele>
        <time>2019-05-01T09:28:58.000Z</time>
      </trkpt>
      <trkpt lat="50.37649" lon="5.51843">
        <ele>126.19999694824</ele>
        <time>2019-05-01T09:29:00.000Z</time>
      </trkpt>
      <trkpt lat="50.37645" lon="5.51751">
        <ele>126.19999694824</ele>
        <time>2019-05-01T09:29:02.000Z</time>
      </trkpt>
      <trkpt lat="50.37643" lon="5.51741">
        <ele>126.40000152588</ele>
        <time>2019-05-01T09:29:04.000Z</time>
      </trkpt>
      <trkpt lat="50.37639" lon="5.51723">
        <ele>126.40000152588</ele>
        <time>2019-05-01T09:29:06.000Z</time>
      </trkpt>
      <trkpt lat="50.37633" lon="5.51708">
        <ele>126.59999847412</ele>
        <time>2019-05-01T09:29:07.000Z</time>
      </trkpt>
      <trkpt lat="50.3763" lon="5.51702">
        <ele>126.80000305176</ele>
        <time>2019-05-01T09:29:08.000Z</time>
      </trkpt>
      <trkpt lat="50.37623" lon="5.5169">
        <ele>127.19999694824</ele>
        <time>2019-05-01T09:29:09.000Z</time>
      </trkpt>
      <trkpt lat="50.37613" lon="5.51673">
        <ele>127.80000305176</ele>
        <time>2019-05-01T09:29:10.000Z</time>
      </trkpt>
      <trkpt lat="50.37599" lon="5.51652">
        <ele>129.19999694824</ele>
        <time>2019-05-01T09:29:11.000Z</time>
      </trkpt>
      <trkpt lat="50.37585" lon="5.5163">
        <ele>130.39999389648</ele>
        <time>2019-05-01T09:29:12.000Z</time>
      </trkpt>
      <trkpt lat="50.37571" lon="5.51609">
        <ele>131.39999389648</ele>
        <time>2019-05-01T09:29:13.000Z</time>
      </trkpt>
      <trkpt lat="50.37565" lon="5.51599">
        <ele>132</ele>
        <time>2019-05-01T09:29:14.000Z</time>
      </trkpt>
      <trkpt lat="50.37554" lon="5.51583">
        <ele>132.60000610352</ele>
        <time>2019-05-01T09:29:16.000Z</time>
      </trkpt>
      <trkpt lat="50.37541" lon="5.51562">
        <ele>133.80000305176</ele>
        <time>2019-05-01T09:29:18.000Z</time>
      </trkpt>
      <trkpt lat="50.3752" lon="5.51531">
        <ele>135</ele>
        <time>2019-05-01T09:29:20.000Z</time>
      </trkpt>
      <trkpt lat="50.37503" lon="5.51506">
        <ele>135.80000305176</ele>
        <time>2019-05-01T09:29:21.000Z</time>
      </trkpt>
      <trkpt lat="50.37483" lon="5.51475">
        <ele>137.19999694824</ele>
        <time>2019-05-01T09:29:22.000Z</time>
      </trkpt>
      <trkpt lat="50.3747" lon="5.51456">
        <ele>138.39999389648</ele>
        <time>2019-05-01T09:29:23.000Z</time>
      </trkpt>
      <trkpt lat="50.37457" lon="5.51438">
        <ele>139.60000610352</ele>
        <time>2019-05-01T09:29:24.000Z</time>
      </trkpt>
      <trkpt lat="50.37441" lon="5.51414">
        <ele>140.80000305176</ele>
        <time>2019-05-01T09:29:25.000Z</time>
      </trkpt>
      <trkpt lat="50.37428" lon="5.51395">
        <ele>142</ele>
        <time>2019-05-01T09:29:26.000Z</time>
      </trkpt>
      <trkpt lat="50.37419" lon="5.51381">
        <ele>142.60000610352</ele>
        <time>2019-05-01T09:29:27.000Z</time>
      </trkpt>
      <trkpt lat="50.37413" lon="5.51371">
        <ele>143</ele>
        <time>2019-05-01T09:29:30.000Z</time>
      </trkpt>
      <trkpt lat="50.374" lon="5.51351">
        <ele>144</ele>
        <time>2019-05-01T09:29:31.000Z</time>
      </trkpt>
      <trkpt lat="50.37389" lon="5.51332">
        <ele>144.80000305176</ele>
        <time>2019-05-01T09:29:33.000Z</time>
      </trkpt>
      <trkpt lat="50.37386" lon="5.51327">
        <ele>145</ele>
        <time>2019-05-01T09:29:36.000Z</time>
      </trkpt>
      <trkpt lat="50.37374" lon="5.51302">
        <ele>146.39999389648</ele>
        <time>2019-05-01T09:29:37.000Z</time>
      </trkpt>
      <trkpt lat="50.37366" lon="5.51287">
        <ele>147</ele>
        <time>2019-05-01T09:29:39.000Z</time>
      </trkpt>
      <trkpt lat="50.37362" lon="5.51276">
        <ele>147.60000610352</ele>
        <time>2019-05-01T09:29:41.000Z</time>
      </trkpt>
      <trkpt lat="50.37353" lon="5.51247">
        <ele>148.60000610352</ele>
        <time>2019-05-01T09:29:45.000Z</time>
      </trkpt>
      <trkpt lat="50.37352" lon="5.51242">
        <ele>148.80000305176</ele>
        <time>2019-05-01T09:29:50.000Z</time>
      </trkpt>
      <trkpt lat="50.37349" lon="5.51231">
        <ele>149.19999694824</ele>
        <time>2019-05-01T09:29:52.000Z</time>
      </trkpt>
      <trkpt lat="50.37348" lon="5.5122">
        <ele>149.80000305176</ele>
        <time>2019-05-01T09:29:57.000Z</time>
      </trkpt>
      <trkpt lat="50.37345" lon="5.51209">
        <ele>150</ele>
        <time>2019-05-01T09:30:04.000Z</time>
      </trkpt>
      <trkpt lat="50.37344" lon="5.51203">
        <ele>150.19999694824</ele>
        <time>2019-05-01T09:30:12.000Z</time>
      </trkpt>
      <trkpt lat="50.37342" lon="5.51192">
        <ele>150.60000610352</ele>
        <time>2019-05-01T09:30:20.000Z</time>
      </trkpt>
      <trkpt lat="50.37338" lon="5.51174">
        <ele>151.19999694824</ele>
        <time>2019-05-01T09:30:27.000Z</time>
      </trkpt>
      <trkpt lat="50.37336" lon="5.51163">
        <ele>151.80000305176</ele>
        <time>2019-05-01T09:30:29.000Z</time>
      </trkpt>
      <trkpt lat="50.37329" lon="5.51141">
        <ele>152.39999389648</ele>
        <time>2019-05-01T09:30:37.000Z</time>
      </trkpt>
      <trkpt lat="50.37324" lon="5.51131">
        <ele>153</ele>
        <time>2019-05-01T09:30:39.000Z</time>
      </trkpt>
      <trkpt lat="50.37309" lon="5.51101">
        <ele>154</ele>
        <time>2019-05-01T09:30:41.000Z</time>
      </trkpt>
      <trkpt lat="50.37306" lon="5.51096">
        <ele>154.19999694824</ele>
        <time>2019-05-01T09:30:47.000Z</time>
      </trkpt>
      <trkpt lat="50.37292" lon="5.51072">
        <ele>155.19999694824</ele>
        <time>2019-05-01T09:30:53.000Z</time>
      </trkpt>
      <trkpt lat="50.37288" lon="5.51063">
        <ele>155.80000305176</ele>
        <time>2019-05-01T09:30:55.000Z</time>
      </trkpt>
      <trkpt lat="50.3728" lon="5.51049">
        <ele>156.39999389648</ele>
        <time>2019-05-01T09:31:00.000Z</time>
      </trkpt>
      <trkpt lat="50.37272" lon="5.51033">
        <ele>157.39999389648</ele>
        <time>2019-05-01T09:31:06.000Z</time>
      </trkpt>
      <trkpt lat="50.37269" lon="5.51028">
        <ele>157.60000610352</ele>
        <time>2019-05-01T09:31:13.000Z</time>
      </trkpt>
      <trkpt lat="50.37255" lon="5.51002">
        <ele>158.80000305176</ele>
        <time>2019-05-01T09:31:20.000Z</time>
      </trkpt>
      <trkpt lat="50.37249" lon="5.50992">
        <ele>159.19999694824</ele>
        <time>2019-05-01T09:31:28.000Z</time>
      </trkpt>
      <trkpt lat="50.37237" lon="5.50973">
        <ele>159.80000305176</ele>
        <time>2019-05-01T09:31:31.000Z</time>
      </trkpt>
      <trkpt lat="50.37225" lon="5.50954">
        <ele>160.39999389648</ele>
        <time>2019-05-01T09:31:32.000Z</time>
      </trkpt>
      <trkpt lat="50.37222" lon="5.50949">
        <ele>160.60000610352</ele>
        <time>2019-05-01T09:31:33.000Z</time>
      </trkpt>
      <trkpt lat="50.3722" lon="5.50945">
        <ele>161</ele>
        <time>2019-05-01T09:31:40.000Z</time>
      </trkpt>
      <trkpt lat="50.37203" lon="5.50923">
        <ele>162</ele>
        <time>2019-05-01T09:31:46.000Z</time>
      </trkpt>
      <trkpt lat="50.372" lon="5.5092">
        <ele>162.19999694824</ele>
        <time>2019-05-01T09:31:50.000Z</time>
      </trkpt>
      <trkpt lat="50.37183" lon="5.5091">
        <ele>163</ele>
        <time>2019-05-01T09:31:53.000Z</time>
      </trkpt>
      <trkpt lat="50.3717" lon="5.50905">
        <ele>163.80000305176</ele>
        <time>2019-05-01T09:31:58.000Z</time>
      </trkpt>
      <trkpt lat="50.37162" lon="5.50902">
        <ele>164.19999694824</ele>
        <time>2019-05-01T09:32:04.000Z</time>
      </trkpt>
      <trkpt lat="50.37151" lon="5.50897">
        <ele>164.80000305176</ele>
        <time>2019-05-01T09:32:06.000Z</time>
      </trkpt>
      <trkpt lat="50.37147" lon="5.50894">
        <ele>165</ele>
        <time>2019-05-01T09:32:14.000Z</time>
      </trkpt>
      <trkpt lat="50.37143" lon="5.50892">
        <ele>165.19999694824</ele>
        <time>2019-05-01T09:32:19.000Z</time>
      </trkpt>
      <trkpt lat="50.37129" lon="5.50881">
        <ele>166.19999694824</ele>
        <time>2019-05-01T09:32:26.000Z</time>
      </trkpt>
      <trkpt lat="50.37108" lon="5.50856">
        <ele>167.19999694824</ele>
        <time>2019-05-01T09:32:32.000Z</time>
      </trkpt>
      <trkpt lat="50.37104" lon="5.50851">
        <ele>167.60000610352</ele>
        <time>2019-05-01T09:32:33.000Z</time>
      </trkpt>
      <trkpt lat="50.37084" lon="5.50827">
        <ele>168.60000610352</ele>
        <time>2019-05-01T09:32:36.000Z</time>
      </trkpt>
      <trkpt lat="50.37076" lon="5.50818">
        <ele>169</ele>
        <time>2019-05-01T09:32:38.000Z</time>
      </trkpt>
      <trkpt lat="50.37068" lon="5.50808">
        <ele>169.60000610352</ele>
        <time>2019-05-01T09:32:40.000Z</time>
      </trkpt>
      <trkpt lat="50.3705" lon="5.50793">
        <ele>170.60000610352</ele>
        <time>2019-05-01T09:32:45.000Z</time>
      </trkpt>
      <trkpt lat="50.37029" lon="5.50772">
        <ele>171.80000305176</ele>
        <time>2019-05-01T09:32:49.000Z</time>
      </trkpt>
      <trkpt lat="50.37014" lon="5.50753">
        <ele>172.60000610352</ele>
        <time>2019-05-01T09:32:50.000Z</time>
      </trkpt>
      <trkpt lat="50.37011" lon="5.50747">
        <ele>173</ele>
        <time>2019-05-01T09:32:54.000Z</time>
      </trkpt>
      <trkpt lat="50.37009" lon="5.50741">
        <ele>173.19999694824</ele>
        <time>2019-05-01T09:32:57.000Z</time>
      </trkpt>
      <trkpt lat="50.37004" lon="5.5073">
        <ele>173.39999389648</ele>
        <time>2019-05-01T09:32:59.000Z</time>
      </trkpt>
      <trkpt lat="50.37001" lon="5.50716">
        <ele>174</ele>
        <time>2019-05-01T09:33:02.000Z</time>
      </trkpt>
      <trkpt lat="50.37" lon="5.50703">
        <ele>174.60000610352</ele>
        <time>2019-05-01T09:33:03.000Z</time>
      </trkpt>
      <trkpt lat="50.36998" lon="5.5069">
        <ele>175</ele>
        <time>2019-05-01T09:33:04.000Z</time>
      </trkpt>
      <trkpt lat="50.36996" lon="5.5067">
        <ele>176</ele>
        <time>2019-05-01T09:33:11.000Z</time>
      </trkpt>
      <trkpt lat="50.36993" lon="5.50634">
        <ele>177.19999694824</ele>
        <time>2019-05-01T09:33:15.000Z</time>
      </trkpt>
      <trkpt lat="50.3699" lon="5.50605">
        <ele>178.39999389648</ele>
        <time>2019-05-01T09:33:16.000Z</time>
      </trkpt>
      <trkpt lat="50.36985" lon="5.50584">
        <ele>179</ele>
        <time>2019-05-01T09:33:20.000Z</time>
      </trkpt>
      <trkpt lat="50.3698" lon="5.50571">
        <ele>179.60000610352</ele>
        <time>2019-05-01T09:33:22.000Z</time>
      </trkpt>
      <trkpt lat="50.36978" lon="5.50565">
        <ele>180</ele>
        <time>2019-05-01T09:33:23.000Z</time>
      </trkpt>
      <trkpt lat="50.36971" lon="5.50555">
        <ele>180.39999389648</ele>
        <time>2019-05-01T09:33:30.000Z</time>
      </trkpt>
      <trkpt lat="50.36966" lon="5.50551">
        <ele>180.80000305176</ele>
        <time>2019-05-01T09:33:31.000Z</time>
      </trkpt>
      <trkpt lat="50.36952" lon="5.50545">
        <ele>181.60000610352</ele>
        <time>2019-05-01T09:33:36.000Z</time>
      </trkpt>
      <trkpt lat="50.36947" lon="5.50545">
        <ele>181.80000305176</ele>
        <time>2019-05-01T09:33:42.000Z</time>
      </trkpt>
      <trkpt lat="50.36947" lon="5.50545">
        <ele>182</ele>
        <time>2019-05-01T09:33:46.000Z</time>
      </trkpt>
      <trkpt lat="50.36938" lon="5.50548">
        <ele>182.19999694824</ele>
        <time>2019-05-01T09:33:51.000Z</time>
      </trkpt>
      <trkpt lat="50.36929" lon="5.50554">
        <ele>182.80000305176</ele>
        <time>2019-05-01T09:33:56.000Z</time>
      </trkpt>
      <trkpt lat="50.36924" lon="5.50556">
        <ele>183.19999694824</ele>
        <time>2019-05-01T09:34:00.000Z</time>
      </trkpt>
      <trkpt lat="50.36911" lon="5.50562">
        <ele>184.19999694824</ele>
        <time>2019-05-01T09:34:01.000Z</time>
      </trkpt>
      <trkpt lat="50.36906" lon="5.50562">
        <ele>184.39999389648</ele>
        <time>2019-05-01T09:34:04.000Z</time>
      </trkpt>
      <trkpt lat="50.36887" lon="5.50553">
        <ele>185.80000305176</ele>
        <time>2019-05-01T09:34:06.000Z</time>
      </trkpt>
      <trkpt lat="50.36883" lon="5.50549">
        <ele>185.80000305176</ele>
        <time>2019-05-01T09:34:11.000Z</time>
      </trkpt>
      <trkpt lat="50.36864" lon="5.50536">
        <ele>186.39999389648</ele>
        <time>2019-05-01T09:34:14.000Z</time>
      </trkpt>
      <trkpt lat="50.3686" lon="5.50532">
        <ele>186.80000305176</ele>
        <time>2019-05-01T09:34:16.000Z</time>
      </trkpt>
      <trkpt lat="50.36851" lon="5.50524">
        <ele>187.19999694824</ele>
        <time>2019-05-01T09:34:18.000Z</time>
      </trkpt>
      <trkpt lat="50.36838" lon="5.50511">
        <ele>188</ele>
        <time>2019-05-01T09:34:20.000Z</time>
      </trkpt>
      <trkpt lat="50.36822" lon="5.50493">
        <ele>189</ele>
        <time>2019-05-01T09:34:21.000Z</time>
      </trkpt>
      <trkpt lat="50.36802" lon="5.50468">
        <ele>190</ele>
        <time>2019-05-01T09:34:22.000Z</time>
      </trkpt>
      <trkpt lat="50.36792" lon="5.50451">
        <ele>190.60000610352</ele>
        <time>2019-05-01T09:34:25.000Z</time>
      </trkpt>
      <trkpt lat="50.36781" lon="5.50434">
        <ele>191.19999694824</ele>
        <time>2019-05-01T09:34:26.000Z</time>
      </trkpt>
      <trkpt lat="50.36769" lon="5.50413">
        <ele>192.60000610352</ele>
        <time>2019-05-01T09:34:30.000Z</time>
      </trkpt>
      <trkpt lat="50.36752" lon="5.50385">
        <ele>193.60000610352</ele>
        <time>2019-05-01T09:34:31.000Z</time>
      </trkpt>
      <trkpt lat="50.36748" lon="5.50379">
        <ele>193.80000305176</ele>
        <time>2019-05-01T09:34:35.000Z</time>
      </trkpt>
      <trkpt lat="50.36738" lon="5.5036">
        <ele>194.60000610352</ele>
        <time>2019-05-01T09:34:38.000Z</time>
      </trkpt>
      <trkpt lat="50.3672" lon="5.5033">
        <ele>195.60000610352</ele>
        <time>2019-05-01T09:34:44.000Z</time>
      </trkpt>
      <trkpt lat="50.36705" lon="5.50306">
        <ele>196.80000305176</ele>
        <time>2019-05-01T09:34:50.000Z</time>
      </trkpt>
      <trkpt lat="50.36685" lon="5.5027">
        <ele>198</ele>
        <time>2019-05-01T09:34:52.000Z</time>
      </trkpt>
      <trkpt lat="50.36678" lon="5.50259">
        <ele>198.19999694824</ele>
        <time>2019-05-01T09:34:56.000Z</time>
      </trkpt>
      <trkpt lat="50.36674" lon="5.50253">
        <ele>199</ele>
        <time>2019-05-01T09:35:01.000Z</time>
      </trkpt>
      <trkpt lat="50.36661" lon="5.50228">
        <ele>200</ele>
        <time>2019-05-01T09:35:06.000Z</time>
      </trkpt>
      <trkpt lat="50.36648" lon="5.50204">
        <ele>201.19999694824</ele>
        <time>2019-05-01T09:35:09.000Z</time>
      </trkpt>
      <trkpt lat="50.36635" lon="5.5018">
        <ele>202.19999694824</ele>
        <time>2019-05-01T09:35:13.000Z</time>
      </trkpt>
      <trkpt lat="50.36618" lon="5.5015">
        <ele>203.19999694824</ele>
        <time>2019-05-01T09:35:16.000Z</time>
      </trkpt>
      <trkpt lat="50.36604" lon="5.50125">
        <ele>204.39999389648</ele>
        <time>2019-05-01T09:35:22.000Z</time>
      </trkpt>
      <trkpt lat="50.3659" lon="5.50099">
        <ele>205.39999389648</ele>
        <time>2019-05-01T09:35:25.000Z</time>
      </trkpt>
      <trkpt lat="50.36576" lon="5.50076">
        <ele>206.60000610352</ele>
        <time>2019-05-01T09:35:31.000Z</time>
      </trkpt>
      <trkpt lat="50.36573" lon="5.5007">
        <ele>207</ele>
        <time>2019-05-01T09:35:37.000Z</time>
      </trkpt>
      <trkpt lat="50.36566" lon="5.50057">
        <ele>207.60000610352</ele>
        <time>2019-05-01T09:35:39.000Z</time>
      </trkpt>
      <trkpt lat="50.3656" lon="5.50044">
        <ele>208.39999389648</ele>
        <time>2019-05-01T09:35:45.000Z</time>
      </trkpt>
      <trkpt lat="50.36556" lon="5.50029">
        <ele>208.80000305176</ele>
        <time>2019-05-01T09:35:47.000Z</time>
      </trkpt>
      <trkpt lat="50.36556" lon="5.49999">
        <ele>209.80000305176</ele>
        <time>2019-05-01T09:35:51.000Z</time>
      </trkpt>
      <trkpt lat="50.36556" lon="5.49999">
        <ele>210</ele>
        <time>2019-05-01T09:35:55.000Z</time>
      </trkpt>
      <trkpt lat="50.3656" lon="5.49987">
        <ele>210.19999694824</ele>
        <time>2019-05-01T09:36:02.000Z</time>
      </trkpt>
      <trkpt lat="50.36567" lon="5.49976">
        <ele>210.80000305176</ele>
        <time>2019-05-01T09:36:06.000Z</time>
      </trkpt>
      <trkpt lat="50.36571" lon="5.49972">
        <ele>211</ele>
        <time>2019-05-01T09:36:09.000Z</time>
      </trkpt>
      <trkpt lat="50.36584" lon="5.49966">
        <ele>211.60000610352</ele>
        <time>2019-05-01T09:36:16.000Z</time>
      </trkpt>
      <trkpt lat="50.36589" lon="5.49965">
        <ele>211.80000305176</ele>
        <time>2019-05-01T09:36:20.000Z</time>
      </trkpt>
      <trkpt lat="50.36593" lon="5.49965">
        <ele>212.19999694824</ele>
        <time>2019-05-01T09:36:22.000Z</time>
      </trkpt>
      <trkpt lat="50.36604" lon="5.49966">
        <ele>212.80000305176</ele>
        <time>2019-05-01T09:36:26.000Z</time>
      </trkpt>
      <trkpt lat="50.36613" lon="5.49968">
        <ele>213.39999389648</ele>
        <time>2019-05-01T09:36:27.000Z</time>
      </trkpt>
      <trkpt lat="50.36625" lon="5.4997">
        <ele>214.60000610352</ele>
        <time>2019-05-01T09:36:30.000Z</time>
      </trkpt>
      <trkpt lat="50.36638" lon="5.49972">
        <ele>215</ele>
        <time>2019-05-01T09:36:31.000Z</time>
      </trkpt>
      <trkpt lat="50.36656" lon="5.49971">
        <ele>215.80000305176</ele>
        <time>2019-05-01T09:36:33.000Z</time>
      </trkpt>
      <trkpt lat="50.36679" lon="5.49969">
        <ele>216.19999694824</ele>
        <time>2019-05-01T09:36:36.000Z</time>
      </trkpt>
      <trkpt lat="50.36716" lon="5.49965">
        <ele>216.60000610352</ele>
        <time>2019-05-01T09:36:37.000Z</time>
      </trkpt>
      <trkpt lat="50.3673" lon="5.49964">
        <ele>216.80000305176</ele>
        <time>2019-05-01T09:36:39.000Z</time>
      </trkpt>
      <trkpt lat="50.36749" lon="5.49961">
        <ele>217.39999389648</ele>
        <time>2019-05-01T09:36:41.000Z</time>
      </trkpt>
      <trkpt lat="50.36787" lon="5.49957">
        <ele>218</ele>
        <time>2019-05-01T09:36:43.000Z</time>
      </trkpt>
      <trkpt lat="50.36797" lon="5.49956">
        <ele>218.19999694824</ele>
        <time>2019-05-01T09:36:45.000Z</time>
      </trkpt>
      <trkpt lat="50.36839" lon="5.49951">
        <ele>219</ele>
        <time>2019-05-01T09:36:46.000Z</time>
      </trkpt>
      <trkpt lat="50.3686" lon="5.4995">
        <ele>219.19999694824</ele>
        <time>2019-05-01T09:36:47.000Z</time>
      </trkpt>
      <trkpt lat="50.36891" lon="5.49947">
        <ele>220.19999694824</ele>
        <time>2019-05-01T09:36:50.000Z</time>
      </trkpt>
      <trkpt lat="50.36901" lon="5.49946">
        <ele>220.39999389648</ele>
        <time>2019-05-01T09:36:52.000Z</time>
      </trkpt>
      <trkpt lat="50.36932" lon="5.49941">
        <ele>221.60000610352</ele>
        <time>2019-05-01T09:36:59.000Z</time>
      </trkpt>
      <trkpt lat="50.36941" lon="5.4994">
        <ele>221.80000305176</ele>
        <time>2019-05-01T09:37:01.000Z</time>
      </trkpt>
      <trkpt lat="50.3698" lon="5.49931">
        <ele>222.80000305176</ele>
        <time>2019-05-01T09:37:04.000Z</time>
      </trkpt>
      <trkpt lat="50.37029" lon="5.49916">
        <ele>224</ele>
        <time>2019-05-01T09:37:07.000Z</time>
      </trkpt>
      <trkpt lat="50.37044" lon="5.49912">
        <ele>224.19999694824</ele>
        <time>2019-05-01T09:37:12.000Z</time>
      </trkpt>
      <trkpt lat="50.37086" lon="5.49899">
        <ele>224.39999389648</ele>
        <time>2019-05-01T09:37:19.000Z</time>
      </trkpt>
      <trkpt lat="50.37097" lon="5.49896">
        <ele>224.39999389648</ele>
        <time>2019-05-01T09:37:20.000Z</time>
      </trkpt>
      <trkpt lat="50.37142" lon="5.49883">
        <ele>224.39999389648</ele>
        <time>2019-05-01T09:37:26.000Z</time>
      </trkpt>
      <trkpt lat="50.3717" lon="5.49875">
        <ele>224.19999694824</ele>
        <time>2019-05-01T09:37:33.000Z</time>
      </trkpt>
      <trkpt lat="50.37226" lon="5.49858">
        <ele>224.19999694824</ele>
        <time>2019-05-01T09:37:34.000Z</time>
      </trkpt>
      <trkpt lat="50.37243" lon="5.49853">
        <ele>224.19999694824</ele>
        <time>2019-05-01T09:37:41.000Z</time>
      </trkpt>
      <trkpt lat="50.37295" lon="5.49847">
        <ele>224.19999694824</ele>
        <time>2019-05-01T09:37:43.000Z</time>
      </trkpt>
      <trkpt lat="50.37353" lon="5.49848">
        <ele>224.19999694824</ele>
        <time>2019-05-01T09:37:49.000Z</time>
      </trkpt>
      <trkpt lat="50.37371" lon="5.49848">
        <ele>224.19999694824</ele>
        <time>2019-05-01T09:37:50.000Z</time>
      </trkpt>
      <trkpt lat="50.37426" lon="5.49849">
        <ele>224.19999694824</ele>
        <time>2019-05-01T09:37:57.000Z</time>
      </trkpt>
      <trkpt lat="50.37438" lon="5.49849">
        <ele>224.19999694824</ele>
        <time>2019-05-01T09:37:58.000Z</time>
      </trkpt>
      <trkpt lat="50.37497" lon="5.4985">
        <ele>224.19999694824</ele>
        <time>2019-05-01T09:38:05.000Z</time>
      </trkpt>
      <trkpt lat="50.37503" lon="5.4985">
        <ele>224.19999694824</ele>
        <time>2019-05-01T09:38:06.000Z</time>
      </trkpt>
      <trkpt lat="50.3753" lon="5.49852">
        <ele>224.19999694824</ele>
        <time>2019-05-01T09:38:12.000Z</time>
      </trkpt>
      <trkpt lat="50.37538" lon="5.49853">
        <ele>224.39999389648</ele>
        <time>2019-05-01T09:38:13.000Z</time>
      </trkpt>
      <trkpt lat="50.3754" lon="5.49854">
        <ele>224.39999389648</ele>
        <time>2019-05-01T09:38:19.000Z</time>
      </trkpt>
      <trkpt lat="50.37541" lon="5.49853">
        <ele>224.60000610352</ele>
        <time>2019-05-01T09:38:25.000Z</time>
      </trkpt>
      <trkpt lat="50.37542" lon="5.49849">
        <ele>225</ele>
        <time>2019-05-01T09:38:31.000Z</time>
      </trkpt>
      <trkpt lat="50.37544" lon="5.49847">
        <ele>225</ele>
        <time>2019-05-01T09:38:37.000Z</time>
      </trkpt>
      <trkpt lat="50.37561" lon="5.49832">
        <ele>225</ele>
        <time>2019-05-01T09:38:43.000Z</time>
      </trkpt>
      <trkpt lat="50.37575" lon="5.498">
        <ele>224.80000305176</ele>
        <time>2019-05-01T09:38:44.000Z</time>
      </trkpt>
      <trkpt lat="50.37593" lon="5.4975">
        <ele>224.80000305176</ele>
        <time>2019-05-01T09:38:50.000Z</time>
      </trkpt>
      <trkpt lat="50.37608" lon="5.49708">
        <ele>225.19999694824</ele>
        <time>2019-05-01T09:38:51.000Z</time>
      </trkpt>
      <trkpt lat="50.37616" lon="5.49687">
        <ele>225.39999389648</ele>
        <time>2019-05-01T09:38:55.000Z</time>
      </trkpt>
      <trkpt lat="50.37618" lon="5.4968">
        <ele>225.60000610352</ele>
        <time>2019-05-01T09:39:00.000Z</time>
      </trkpt>
      <trkpt lat="50.37628" lon="5.49651">
        <ele>226</ele>
        <time>2019-05-01T09:39:06.000Z</time>
      </trkpt>
      <trkpt lat="50.37639" lon="5.49623">
        <ele>226.19999694824</ele>
        <time>2019-05-01T09:39:13.000Z</time>
      </trkpt>
      <trkpt lat="50.37641" lon="5.49616">
        <ele>226.39999389648</ele>
        <time>2019-05-01T09:39:14.000Z</time>
      </trkpt>
      <trkpt lat="50.37649" lon="5.49595">
        <ele>226.80000305176</ele>
        <time>2019-05-01T09:39:21.000Z</time>
      </trkpt>
      <trkpt lat="50.37659" lon="5.49566">
        <ele>228</ele>
        <time>2019-05-01T09:39:24.000Z</time>
      </trkpt>
      <trkpt lat="50.37662" lon="5.49559">
        <ele>228</ele>
        <time>2019-05-01T09:39:25.000Z</time>
      </trkpt>
      <trkpt lat="50.3768" lon="5.49507">
        <ele>229</ele>
        <time>2019-05-01T09:39:27.000Z</time>
      </trkpt>
      <trkpt lat="50.37689" lon="5.49484">
        <ele>229.19999694824</ele>
        <time>2019-05-01T09:39:31.000Z</time>
      </trkpt>
      <trkpt lat="50.37713" lon="5.49415">
        <ele>230</ele>
        <time>2019-05-01T09:39:34.000Z</time>
      </trkpt>
      <trkpt lat="50.37718" lon="5.494">
        <ele>230</ele>
        <time>2019-05-01T09:39:36.000Z</time>
      </trkpt>
      <trkpt lat="50.3774" lon="5.49341">
        <ele>231</ele>
        <time>2019-05-01T09:39:40.000Z</time>
      </trkpt>
      <trkpt lat="50.37754" lon="5.49301">
        <ele>232.19999694824</ele>
        <time>2019-05-01T09:39:47.000Z</time>
      </trkpt>
      <trkpt lat="50.37759" lon="5.49288">
        <ele>232.60000610352</ele>
        <time>2019-05-01T09:39:53.000Z</time>
      </trkpt>
      <trkpt lat="50.37769" lon="5.4926">
        <ele>233.39999389648</ele>
        <time>2019-05-01T09:39:59.000Z</time>
      </trkpt>
      <trkpt lat="50.37778" lon="5.49235">
        <ele>234.19999694824</ele>
        <time>2019-05-01T09:40:04.000Z</time>
      </trkpt>
      <trkpt lat="50.37784" lon="5.49215">
        <ele>234.60000610352</ele>
        <time>2019-05-01T09:40:10.000Z</time>
      </trkpt>
      <trkpt lat="50.37791" lon="5.49196">
        <ele>235</ele>
        <time>2019-05-01T09:40:11.000Z</time>
      </trkpt>
      <trkpt lat="50.37798" lon="5.49177">
        <ele>236</ele>
        <time>2019-05-01T09:40:16.000Z</time>
      </trkpt>
      <trkpt lat="50.37806" lon="5.49158">
        <ele>237</ele>
        <time>2019-05-01T09:40:17.000Z</time>
      </trkpt>
      <trkpt lat="50.37811" lon="5.49145">
        <ele>237.60000610352</ele>
        <time>2019-05-01T09:40:20.000Z</time>
      </trkpt>
      <trkpt lat="50.37815" lon="5.49134">
        <ele>238</ele>
        <time>2019-05-01T09:40:22.000Z</time>
      </trkpt>
      <trkpt lat="50.37827" lon="5.49104">
        <ele>239.19999694824</ele>
        <time>2019-05-01T09:40:24.000Z</time>
      </trkpt>
      <trkpt lat="50.37839" lon="5.49069">
        <ele>240.39999389648</ele>
        <time>2019-05-01T09:40:26.000Z</time>
      </trkpt>
      <trkpt lat="50.37846" lon="5.49048">
        <ele>240.80000305176</ele>
        <time>2019-05-01T09:40:27.000Z</time>
      </trkpt>
      <trkpt lat="50.37853" lon="5.49027">
        <ele>241.60000610352</ele>
        <time>2019-05-01T09:40:30.000Z</time>
      </trkpt>
      <trkpt lat="50.37863" lon="5.48999">
        <ele>242.60000610352</ele>
        <time>2019-05-01T09:40:31.000Z</time>
      </trkpt>
      <trkpt lat="50.37867" lon="5.48986">
        <ele>243</ele>
        <time>2019-05-01T09:40:32.000Z</time>
      </trkpt>
      <trkpt lat="50.37877" lon="5.48958">
        <ele>243.80000305176</ele>
        <time>2019-05-01T09:40:34.000Z</time>
      </trkpt>
      <trkpt lat="50.3789" lon="5.48921">
        <ele>244.39999389648</ele>
        <time>2019-05-01T09:40:39.000Z</time>
      </trkpt>
      <trkpt lat="50.37894" lon="5.48913">
        <ele>244.39999389648</ele>
        <time>2019-05-01T09:40:40.000Z</time>
      </trkpt>
      <trkpt lat="50.37908" lon="5.48891">
        <ele>244.39999389648</ele>
        <time>2019-05-01T09:40:43.000Z</time>
      </trkpt>
      <trkpt lat="50.37928" lon="5.48878">
        <ele>244.19999694824</ele>
        <time>2019-05-01T09:40:47.000Z</time>
      </trkpt>
      <trkpt lat="50.37944" lon="5.48877">
        <ele>244</ele>
        <time>2019-05-01T09:40:53.000Z</time>
      </trkpt>
      <trkpt lat="50.37966" lon="5.48878">
        <ele>243.39999389648</ele>
        <time>2019-05-01T09:40:55.000Z</time>
      </trkpt>
      <trkpt lat="50.37981" lon="5.48878">
        <ele>242.80000305176</ele>
        <time>2019-05-01T09:41:00.000Z</time>
      </trkpt>
      <trkpt lat="50.38005" lon="5.48877">
        <ele>241.80000305176</ele>
        <time>2019-05-01T09:41:04.000Z</time>
      </trkpt>
      <trkpt lat="50.38021" lon="5.48875">
        <ele>241.39999389648</ele>
        <time>2019-05-01T09:41:10.000Z</time>
      </trkpt>
      <trkpt lat="50.38047" lon="5.48872">
        <ele>240.19999694824</ele>
        <time>2019-05-01T09:41:13.000Z</time>
      </trkpt>
      <trkpt lat="50.38065" lon="5.48867">
        <ele>239.60000610352</ele>
        <time>2019-05-01T09:41:17.000Z</time>
      </trkpt>
      <trkpt lat="50.38073" lon="5.48862">
        <ele>239.39999389648</ele>
        <time>2019-05-01T09:41:24.000Z</time>
      </trkpt>
      <trkpt lat="50.38081" lon="5.48856">
        <ele>239</ele>
        <time>2019-05-01T09:41:25.000Z</time>
      </trkpt>
      <trkpt lat="50.38095" lon="5.48837">
        <ele>238.19999694824</ele>
        <time>2019-05-01T09:41:28.000Z</time>
      </trkpt>
      <trkpt lat="50.38101" lon="5.48827">
        <ele>238</ele>
        <time>2019-05-01T09:41:31.000Z</time>
      </trkpt>
      <trkpt lat="50.38116" lon="5.48792">
        <ele>237</ele>
        <time>2019-05-01T09:41:33.000Z</time>
      </trkpt>
      <trkpt lat="50.3812" lon="5.4878">
        <ele>236.39999389648</ele>
        <time>2019-05-01T09:41:35.000Z</time>
      </trkpt>
      <trkpt lat="50.38124" lon="5.48768">
        <ele>236.19999694824</ele>
        <time>2019-05-01T09:41:39.000Z</time>
      </trkpt>
      <trkpt lat="50.3813" lon="5.48745">
        <ele>235.80000305176</ele>
        <time>2019-05-01T09:41:42.000Z</time>
      </trkpt>
      <trkpt lat="50.38131" lon="5.48733">
        <ele>235.39999389648</ele>
        <time>2019-05-01T09:41:44.000Z</time>
      </trkpt>
      <trkpt lat="50.38132" lon="5.48722">
        <ele>235.19999694824</ele>
        <time>2019-05-01T09:41:46.000Z</time>
      </trkpt>
      <trkpt lat="50.38131" lon="5.48691">
        <ele>235</ele>
        <time>2019-05-01T09:41:47.000Z</time>
      </trkpt>
      <trkpt lat="50.38138" lon="5.48652">
        <ele>234.80000305176</ele>
        <time>2019-05-01T09:41:49.000Z</time>
      </trkpt>
      <trkpt lat="50.38148" lon="5.48634">
        <ele>234.80000305176</ele>
        <time>2019-05-01T09:41:51.000Z</time>
      </trkpt>
      <trkpt lat="50.38163" lon="5.48607">
        <ele>235</ele>
        <time>2019-05-01T09:41:54.000Z</time>
      </trkpt>
      <trkpt lat="50.38167" lon="5.48599">
        <ele>235</ele>
        <time>2019-05-01T09:41:56.000Z</time>
      </trkpt>
      <trkpt lat="50.38184" lon="5.4857">
        <ele>235.39999389648</ele>
        <time>2019-05-01T09:41:58.000Z</time>
      </trkpt>
      <trkpt lat="50.38196" lon="5.4855">
        <ele>235.60000610352</ele>
        <time>2019-05-01T09:42:02.000Z</time>
      </trkpt>
      <trkpt lat="50.38207" lon="5.48531">
        <ele>236.39999389648</ele>
        <time>2019-05-01T09:42:03.000Z</time>
      </trkpt>
      <trkpt lat="50.38219" lon="5.48511">
        <ele>237.39999389648</ele>
        <time>2019-05-01T09:42:07.000Z</time>
      </trkpt>
      <trkpt lat="50.38226" lon="5.48498">
        <ele>238.19999694824</ele>
        <time>2019-05-01T09:42:09.000Z</time>
      </trkpt>
      <trkpt lat="50.38234" lon="5.48485">
        <ele>238.60000610352</ele>
        <time>2019-05-01T09:42:12.000Z</time>
      </trkpt>
      <trkpt lat="50.38247" lon="5.4846">
        <ele>239.60000610352</ele>
        <time>2019-05-01T09:42:16.000Z</time>
      </trkpt>
      <trkpt lat="50.38251" lon="5.48454">
        <ele>240</ele>
        <time>2019-05-01T09:42:19.000Z</time>
      </trkpt>
      <trkpt lat="50.38265" lon="5.48429">
        <ele>241</ele>
        <time>2019-05-01T09:42:21.000Z</time>
      </trkpt>
      <trkpt lat="50.38279" lon="5.48404">
        <ele>242</ele>
        <time>2019-05-01T09:42:26.000Z</time>
      </trkpt>
      <trkpt lat="50.38282" lon="5.48398">
        <ele>242.19999694824</ele>
        <time>2019-05-01T09:42:33.000Z</time>
      </trkpt>
      <trkpt lat="50.38293" lon="5.48378">
        <ele>243.19999694824</ele>
        <time>2019-05-01T09:42:36.000Z</time>
      </trkpt>
      <trkpt lat="50.38303" lon="5.48362">
        <ele>244.39999389648</ele>
        <time>2019-05-01T09:42:39.000Z</time>
      </trkpt>
      <trkpt lat="50.38312" lon="5.48345">
        <ele>245.39999389648</ele>
        <time>2019-05-01T09:42:48.000Z</time>
      </trkpt>
      <trkpt lat="50.38315" lon="5.48339">
        <ele>245.39999389648</ele>
        <time>2019-05-01T09:42:49.000Z</time>
      </trkpt>
      <trkpt lat="50.38328" lon="5.4833">
        <ele>246.19999694824</ele>
        <time>2019-05-01T09:42:58.000Z</time>
      </trkpt>
      <trkpt lat="50.38333" lon="5.48328">
        <ele>246.39999389648</ele>
        <time>2019-05-01T09:43:01.000Z</time>
      </trkpt>
      <trkpt lat="50.38339" lon="5.48326">
        <ele>246.80000305176</ele>
        <time>2019-05-01T09:43:04.000Z</time>
      </trkpt>
      <trkpt lat="50.38369" lon="5.48316">
        <ele>247.19999694824</ele>
        <time>2019-05-01T09:43:06.000Z</time>
      </trkpt>
      <trkpt lat="50.38404" lon="5.48303">
        <ele>247.39999389648</ele>
        <time>2019-05-01T09:43:09.000Z</time>
      </trkpt>
      <trkpt lat="50.38418" lon="5.48294">
        <ele>247.39999389648</ele>
        <time>2019-05-01T09:43:17.000Z</time>
      </trkpt>
      <trkpt lat="50.38418" lon="5.48287">
        <ele>247.60000610352</ele>
        <time>2019-05-01T09:43:18.000Z</time>
      </trkpt>
      <trkpt lat="50.38419" lon="5.48283">
        <ele>247.60000610352</ele>
        <time>2019-05-01T09:43:22.000Z</time>
      </trkpt>
      <trkpt lat="50.38416" lon="5.4828">
        <ele>247.60000610352</ele>
        <time>2019-05-01T09:43:27.000Z</time>
      </trkpt>
      <trkpt lat="50.38416" lon="5.4828">
        <ele>247.60000610352</ele>
        <time>2019-05-01T09:43:28.000Z</time>
      </trkpt>
      <trkpt lat="50.38424" lon="5.48289">
        <ele>247.80000305176</ele>
        <time>2019-05-01T09:43:34.000Z</time>
      </trkpt>
      <trkpt lat="50.38424" lon="5.4829">
        <ele>247.80000305176</ele>
        <time>2019-05-01T09:43:35.000Z</time>
      </trkpt>
      <trkpt lat="50.38424" lon="5.48291">
        <ele>247.80000305176</ele>
        <time>2019-05-01T09:43:40.000Z</time>
      </trkpt>
      <trkpt lat="50.38425" lon="5.48294">
        <ele>247.80000305176</ele>
        <time>2019-05-01T09:43:46.000Z</time>
      </trkpt>
      <trkpt lat="50.38426" lon="5.48298">
        <ele>248</ele>
        <time>2019-05-01T09:43:48.000Z</time>
      </trkpt>
      <trkpt lat="50.38426" lon="5.483">
        <ele>248</ele>
        <time>2019-05-01T09:43:51.000Z</time>
      </trkpt>
      <trkpt lat="50.38426" lon="5.48301">
        <ele>248</ele>
        <time>2019-05-01T09:43:58.000Z</time>
      </trkpt>
      <trkpt lat="50.38427" lon="5.48302">
        <ele>248</ele>
        <time>2019-05-01T09:43:59.000Z</time>
      </trkpt>
      <trkpt lat="50.38431" lon="5.48301">
        <ele>248.19999694824</ele>
        <time>2019-05-01T09:44:04.000Z</time>
      </trkpt>
      <trkpt lat="50.38441" lon="5.48298">
        <ele>248.19999694824</ele>
        <time>2019-05-01T09:44:09.000Z</time>
      </trkpt>
      <trkpt lat="50.38444" lon="5.48297">
        <ele>248.19999694824</ele>
        <time>2019-05-01T09:44:12.000Z</time>
      </trkpt>
      <trkpt lat="50.38463" lon="5.48286">
        <ele>248.39999389648</ele>
        <time>2019-05-01T09:44:15.000Z</time>
      </trkpt>
      <trkpt lat="50.38485" lon="5.48271">
        <ele>248.80000305176</ele>
        <time>2019-05-01T09:44:19.000Z</time>
      </trkpt>
      <trkpt lat="50.38488" lon="5.4827">
        <ele>248.80000305176</ele>
        <time>2019-05-01T09:44:24.000Z</time>
      </trkpt>
      <trkpt lat="50.38491" lon="5.48268">
        <ele>248.80000305176</ele>
        <time>2019-05-01T09:44:25.000Z</time>
      </trkpt>
      <trkpt lat="50.38507" lon="5.48257">
        <ele>249.19999694824</ele>
        <time>2019-05-01T09:44:26.000Z</time>
      </trkpt>
      <trkpt lat="50.38519" lon="5.48249">
        <ele>249.80000305176</ele>
        <time>2019-05-01T09:44:29.000Z</time>
      </trkpt>
      <trkpt lat="50.38522" lon="5.48247">
        <ele>249.80000305176</ele>
        <time>2019-05-01T09:44:31.000Z</time>
      </trkpt>
      <trkpt lat="50.38536" lon="5.48238">
        <ele>250.80000305176</ele>
        <time>2019-05-01T09:44:33.000Z</time>
      </trkpt>
      <trkpt lat="50.38539" lon="5.48236">
        <ele>251</ele>
        <time>2019-05-01T09:44:34.000Z</time>
      </trkpt>
      <trkpt lat="50.38544" lon="5.48232">
        <ele>251.39999389648</ele>
        <time>2019-05-01T09:44:37.000Z</time>
      </trkpt>
      <trkpt lat="50.38554" lon="5.48226">
        <ele>252</ele>
        <time>2019-05-01T09:44:41.000Z</time>
      </trkpt>
      <trkpt lat="50.38566" lon="5.48217">
        <ele>253</ele>
        <time>2019-05-01T09:44:44.000Z</time>
      </trkpt>
      <trkpt lat="50.38584" lon="5.48206">
        <ele>254.19999694824</ele>
        <time>2019-05-01T09:44:46.000Z</time>
      </trkpt>
      <trkpt lat="50.38591" lon="5.48202">
        <ele>254.39999389648</ele>
        <time>2019-05-01T09:44:52.000Z</time>
      </trkpt>
      <trkpt lat="50.38601" lon="5.48196">
        <ele>255.19999694824</ele>
        <time>2019-05-01T09:44:55.000Z</time>
      </trkpt>
      <trkpt lat="50.38617" lon="5.48185">
        <ele>256.20001220703</ele>
        <time>2019-05-01T09:44:59.000Z</time>
      </trkpt>
      <trkpt lat="50.38631" lon="5.48176">
        <ele>257</ele>
        <time>2019-05-01T09:45:01.000Z</time>
      </trkpt>
      <trkpt lat="50.38637" lon="5.48172">
        <ele>257.60000610352</ele>
        <time>2019-05-01T09:45:03.000Z</time>
      </trkpt>
      <trkpt lat="50.38651" lon="5.48164">
        <ele>258.79998779297</ele>
        <time>2019-05-01T09:45:05.000Z</time>
      </trkpt>
      <trkpt lat="50.38663" lon="5.48156">
        <ele>259.60000610352</ele>
        <time>2019-05-01T09:45:07.000Z</time>
      </trkpt>
      <trkpt lat="50.38669" lon="5.48152">
        <ele>260.39999389648</ele>
        <time>2019-05-01T09:45:09.000Z</time>
      </trkpt>
      <trkpt lat="50.38676" lon="5.48148">
        <ele>260.79998779297</ele>
        <time>2019-05-01T09:45:10.000Z</time>
      </trkpt>
      <trkpt lat="50.3869" lon="5.48139">
        <ele>262</ele>
        <time>2019-05-01T09:45:11.000Z</time>
      </trkpt>
      <trkpt lat="50.38702" lon="5.48131">
        <ele>262.79998779297</ele>
        <time>2019-05-01T09:45:13.000Z</time>
      </trkpt>
      <trkpt lat="50.38708" lon="5.48126">
        <ele>263</ele>
        <time>2019-05-01T09:45:15.000Z</time>
      </trkpt>
      <trkpt lat="50.3872" lon="5.48114">
        <ele>264.20001220703</ele>
        <time>2019-05-01T09:45:17.000Z</time>
      </trkpt>
      <trkpt lat="50.38729" lon="5.48104">
        <ele>265.20001220703</ele>
        <time>2019-05-01T09:45:18.000Z</time>
      </trkpt>
      <trkpt lat="50.38734" lon="5.48095">
        <ele>265.39999389648</ele>
        <time>2019-05-01T09:45:20.000Z</time>
      </trkpt>
      <trkpt lat="50.38743" lon="5.48083">
        <ele>266.60000610352</ele>
        <time>2019-05-01T09:45:22.000Z</time>
      </trkpt>
      <trkpt lat="50.38753" lon="5.48064">
        <ele>267.60000610352</ele>
        <time>2019-05-01T09:45:23.000Z</time>
      </trkpt>
      <trkpt lat="50.38768" lon="5.48037">
        <ele>268.60000610352</ele>
        <time>2019-05-01T09:45:24.000Z</time>
      </trkpt>
      <trkpt lat="50.3877" lon="5.48032">
        <ele>268.79998779297</ele>
        <time>2019-05-01T09:45:25.000Z</time>
      </trkpt>
      <trkpt lat="50.38783" lon="5.48006">
        <ele>269.79998779297</ele>
        <time>2019-05-01T09:45:27.000Z</time>
      </trkpt>
      <trkpt lat="50.38795" lon="5.47981">
        <ele>271</ele>
        <time>2019-05-01T09:45:29.000Z</time>
      </trkpt>
      <trkpt lat="50.38808" lon="5.47955">
        <ele>272</ele>
        <time>2019-05-01T09:45:31.000Z</time>
      </trkpt>
      <trkpt lat="50.3882" lon="5.47929">
        <ele>272.60000610352</ele>
        <time>2019-05-01T09:45:32.000Z</time>
      </trkpt>
      <trkpt lat="50.38828" lon="5.47915">
        <ele>273.20001220703</ele>
        <time>2019-05-01T09:45:33.000Z</time>
      </trkpt>
      <trkpt lat="50.38838" lon="5.47895">
        <ele>273.79998779297</ele>
        <time>2019-05-01T09:45:34.000Z</time>
      </trkpt>
      <trkpt lat="50.38848" lon="5.47874">
        <ele>274.20001220703</ele>
        <time>2019-05-01T09:45:35.000Z</time>
      </trkpt>
      <trkpt lat="50.38859" lon="5.47852">
        <ele>274.79998779297</ele>
        <time>2019-05-01T09:45:37.000Z</time>
      </trkpt>
      <trkpt lat="50.38872" lon="5.47831">
        <ele>275.39999389648</ele>
        <time>2019-05-01T09:45:38.000Z</time>
      </trkpt>
      <trkpt lat="50.38877" lon="5.47827">
        <ele>275.39999389648</ele>
        <time>2019-05-01T09:45:39.000Z</time>
      </trkpt>
      <trkpt lat="50.38881" lon="5.47823">
        <ele>275.60000610352</ele>
        <time>2019-05-01T09:45:41.000Z</time>
      </trkpt>
      <trkpt lat="50.38896" lon="5.47815">
        <ele>275.79998779297</ele>
        <time>2019-05-01T09:45:42.000Z</time>
      </trkpt>
      <trkpt lat="50.38911" lon="5.47809">
        <ele>276</ele>
        <time>2019-05-01T09:45:44.000Z</time>
      </trkpt>
      <trkpt lat="50.38942" lon="5.47805">
        <ele>276.39999389648</ele>
        <time>2019-05-01T09:45:45.000Z</time>
      </trkpt>
      <trkpt lat="50.38947" lon="5.47807">
        <ele>276.60000610352</ele>
        <time>2019-05-01T09:45:46.000Z</time>
      </trkpt>
      <trkpt lat="50.38961" lon="5.47815">
        <ele>276.79998779297</ele>
        <time>2019-05-01T09:45:47.000Z</time>
      </trkpt>
      <trkpt lat="50.38971" lon="5.47822">
        <ele>277</ele>
        <time>2019-05-01T09:45:48.000Z</time>
      </trkpt>
      <trkpt lat="50.39009" lon="5.47851">
        <ele>277</ele>
        <time>2019-05-01T09:45:50.000Z</time>
      </trkpt>
      <trkpt lat="50.39038" lon="5.47869">
        <ele>276.79998779297</ele>
        <time>2019-05-01T09:45:53.000Z</time>
      </trkpt>
      <trkpt lat="50.39045" lon="5.47871">
        <ele>276.79998779297</ele>
        <time>2019-05-01T09:45:54.000Z</time>
      </trkpt>
      <trkpt lat="50.39064" lon="5.47867">
        <ele>276.39999389648</ele>
        <time>2019-05-01T09:45:57.000Z</time>
      </trkpt>
      <trkpt lat="50.39071" lon="5.47865">
        <ele>276.39999389648</ele>
        <time>2019-05-01T09:45:58.000Z</time>
      </trkpt>
      <trkpt lat="50.39119" lon="5.47844">
        <ele>276</ele>
        <time>2019-05-01T09:45:59.000Z</time>
      </trkpt>
      <trkpt lat="50.3914" lon="5.47835">
        <ele>276</ele>
        <time>2019-05-01T09:46:04.000Z</time>
      </trkpt>
      <trkpt lat="50.39169" lon="5.47821">
        <ele>275.79998779297</ele>
        <time>2019-05-01T09:46:10.000Z</time>
      </trkpt>
      <trkpt lat="50.39182" lon="5.47807">
        <ele>275.60000610352</ele>
        <time>2019-05-01T09:46:15.000Z</time>
      </trkpt>
      <trkpt lat="50.39194" lon="5.47789">
        <ele>275.39999389648</ele>
        <time>2019-05-01T09:46:16.000Z</time>
      </trkpt>
      <trkpt lat="50.39214" lon="5.47758">
        <ele>274.79998779297</ele>
        <time>2019-05-01T09:46:17.000Z</time>
      </trkpt>
      <trkpt lat="50.3922" lon="5.47747">
        <ele>274.39999389648</ele>
        <time>2019-05-01T09:46:22.000Z</time>
      </trkpt>
      <trkpt lat="50.39248" lon="5.477">
        <ele>273.39999389648</ele>
        <time>2019-05-01T09:46:27.000Z</time>
      </trkpt>
      <trkpt lat="50.39256" lon="5.47688">
        <ele>273</ele>
        <time>2019-05-01T09:46:33.000Z</time>
      </trkpt>
      <trkpt lat="50.39264" lon="5.47678">
        <ele>271.60000610352</ele>
        <time>2019-05-01T09:46:34.000Z</time>
      </trkpt>
      <trkpt lat="50.39283" lon="5.47663">
        <ele>270.39999389648</ele>
        <time>2019-05-01T09:46:36.000Z</time>
      </trkpt>
      <trkpt lat="50.39305" lon="5.4766">
        <ele>268.79998779297</ele>
        <time>2019-05-01T09:46:43.000Z</time>
      </trkpt>
      <trkpt lat="50.39317" lon="5.47661">
        <ele>268</ele>
        <time>2019-05-01T09:46:49.000Z</time>
      </trkpt>
      <trkpt lat="50.39329" lon="5.47663">
        <ele>267</ele>
        <time>2019-05-01T09:46:52.000Z</time>
      </trkpt>
      <trkpt lat="50.39341" lon="5.47666">
        <ele>265.79998779297</ele>
        <time>2019-05-01T09:46:54.000Z</time>
      </trkpt>
      <trkpt lat="50.39366" lon="5.47671">
        <ele>264</ele>
        <time>2019-05-01T09:46:58.000Z</time>
      </trkpt>
      <trkpt lat="50.39366" lon="5.47671">
        <ele>263</ele>
        <time>2019-05-01T09:46:59.000Z</time>
      </trkpt>
      <trkpt lat="50.39392" lon="5.47676">
        <ele>261.79998779297</ele>
        <time>2019-05-01T09:47:01.000Z</time>
      </trkpt>
      <trkpt lat="50.39404" lon="5.47679">
        <ele>260.60000610352</ele>
        <time>2019-05-01T09:47:05.000Z</time>
      </trkpt>
      <trkpt lat="50.39417" lon="5.47681">
        <ele>259.39999389648</ele>
        <time>2019-05-01T09:47:07.000Z</time>
      </trkpt>
      <trkpt lat="50.39429" lon="5.47683">
        <ele>258.20001220703</ele>
        <time>2019-05-01T09:47:09.000Z</time>
      </trkpt>
      <trkpt lat="50.39441" lon="5.47683">
        <ele>257</ele>
        <time>2019-05-01T09:47:15.000Z</time>
      </trkpt>
      <trkpt lat="50.39453" lon="5.4768">
        <ele>255.80000305176</ele>
        <time>2019-05-01T09:47:23.000Z</time>
      </trkpt>
      <trkpt lat="50.39466" lon="5.47676">
        <ele>254.60000610352</ele>
        <time>2019-05-01T09:47:31.000Z</time>
      </trkpt>
      <trkpt lat="50.39479" lon="5.4767">
        <ele>253.19999694824</ele>
        <time>2019-05-01T09:47:32.000Z</time>
      </trkpt>
      <trkpt lat="50.39491" lon="5.47665">
        <ele>252</ele>
        <time>2019-05-01T09:47:38.000Z</time>
      </trkpt>
      <trkpt lat="50.39504" lon="5.47659">
        <ele>250.80000305176</ele>
        <time>2019-05-01T09:47:43.000Z</time>
      </trkpt>
      <trkpt lat="50.39516" lon="5.47655">
        <ele>249.39999389648</ele>
        <time>2019-05-01T09:47:45.000Z</time>
      </trkpt>
      <trkpt lat="50.39528" lon="5.47653">
        <ele>248.19999694824</ele>
        <time>2019-05-01T09:47:48.000Z</time>
      </trkpt>
      <trkpt lat="50.3954" lon="5.47656">
        <ele>246.80000305176</ele>
        <time>2019-05-01T09:47:49.000Z</time>
      </trkpt>
      <trkpt lat="50.39552" lon="5.47664">
        <ele>245.60000610352</ele>
        <time>2019-05-01T09:47:53.000Z</time>
      </trkpt>
      <trkpt lat="50.39563" lon="5.47675">
        <ele>244.19999694824</ele>
        <time>2019-05-01T09:47:54.000Z</time>
      </trkpt>
      <trkpt lat="50.39574" lon="5.47687">
        <ele>243</ele>
        <time>2019-05-01T09:47:55.000Z</time>
      </trkpt>
      <trkpt lat="50.39586" lon="5.477">
        <ele>241.60000610352</ele>
        <time>2019-05-01T09:47:57.000Z</time>
      </trkpt>
      <trkpt lat="50.39598" lon="5.47713">
        <ele>240</ele>
        <time>2019-05-01T09:48:00.000Z</time>
      </trkpt>
      <trkpt lat="50.39609" lon="5.47725">
        <ele>237</ele>
        <time>2019-05-01T09:48:04.000Z</time>
      </trkpt>
      <trkpt lat="50.39621" lon="5.47737">
        <ele>235.80000305176</ele>
        <time>2019-05-01T09:48:05.000Z</time>
      </trkpt>
      <trkpt lat="50.39633" lon="5.47751">
        <ele>234.19999694824</ele>
        <time>2019-05-01T09:48:09.000Z</time>
      </trkpt>
      <trkpt lat="50.39645" lon="5.47764">
        <ele>232.39999389648</ele>
        <time>2019-05-01T09:48:11.000Z</time>
      </trkpt>
      <trkpt lat="50.39657" lon="5.47776">
        <ele>230.80000305176</ele>
        <time>2019-05-01T09:48:14.000Z</time>
      </trkpt>
      <trkpt lat="50.39668" lon="5.47789">
        <ele>229</ele>
        <time>2019-05-01T09:48:17.000Z</time>
      </trkpt>
      <trkpt lat="50.39679" lon="5.478">
        <ele>227.80000305176</ele>
        <time>2019-05-01T09:48:20.000Z</time>
      </trkpt>
      <trkpt lat="50.3969" lon="5.47811">
        <ele>227</ele>
        <time>2019-05-01T09:48:23.000Z</time>
      </trkpt>
      <trkpt lat="50.39702" lon="5.47818">
        <ele>225.39999389648</ele>
        <time>2019-05-01T09:48:27.000Z</time>
      </trkpt>
      <trkpt lat="50.39714" lon="5.47822">
        <ele>224.19999694824</ele>
        <time>2019-05-01T09:48:30.000Z</time>
      </trkpt>
      <trkpt lat="50.39728" lon="5.47822">
        <ele>222.39999389648</ele>
        <time>2019-05-01T09:48:31.000Z</time>
      </trkpt>
      <trkpt lat="50.3974" lon="5.47819">
        <ele>220.80000305176</ele>
        <time>2019-05-01T09:48:37.000Z</time>
      </trkpt>
      <trkpt lat="50.39753" lon="5.47815">
        <ele>219.80000305176</ele>
        <time>2019-05-01T09:48:43.000Z</time>
      </trkpt>
      <trkpt lat="50.39766" lon="5.47812">
        <ele>218.60000610352</ele>
        <time>2019-05-01T09:48:49.000Z</time>
      </trkpt>
      <trkpt lat="50.39778" lon="5.47808">
        <ele>216.80000305176</ele>
        <time>2019-05-01T09:48:50.000Z</time>
      </trkpt>
      <trkpt lat="50.3979" lon="5.47806">
        <ele>215.39999389648</ele>
        <time>2019-05-01T09:48:52.000Z</time>
      </trkpt>
      <trkpt lat="50.398" lon="5.47807">
        <ele>214.19999694824</ele>
        <time>2019-05-01T09:48:58.000Z</time>
      </trkpt>
      <trkpt lat="50.39808" lon="5.47813">
        <ele>212.19999694824</ele>
        <time>2019-05-01T09:49:05.000Z</time>
      </trkpt>
      <trkpt lat="50.39813" lon="5.47822">
        <ele>210.60000610352</ele>
        <time>2019-05-01T09:49:07.000Z</time>
      </trkpt>
      <trkpt lat="50.39817" lon="5.47845">
        <ele>208.60000610352</ele>
        <time>2019-05-01T09:49:14.000Z</time>
      </trkpt>
      <trkpt lat="50.39819" lon="5.47856">
        <ele>208</ele>
        <time>2019-05-01T09:49:15.000Z</time>
      </trkpt>
      <trkpt lat="50.3983" lon="5.47883">
        <ele>207.60000610352</ele>
        <time>2019-05-01T09:49:22.000Z</time>
      </trkpt>
      <trkpt lat="50.39833" lon="5.47892">
        <ele>207.60000610352</ele>
        <time>2019-05-01T09:49:25.000Z</time>
      </trkpt>
      <trkpt lat="50.39838" lon="5.47923">
        <ele>217.2</ele>
        <time>2019-05-01T09:49:49.000Z</time>
      </trkpt>
      <trkpt lat="50.39846" lon="5.47952">
        <ele>219.1</ele>
        <time>2019-05-01T09:49:54.000Z</time>
      </trkpt>
      <trkpt lat="50.39855" lon="5.47963">
        <ele>210</ele>
        <time>2019-05-01T09:50:30.000Z</time>
      </trkpt>
      <trkpt lat="50.39855" lon="5.47963">
        <ele>219</ele>
        <time>2019-05-01T09:50:35.000Z</time>
      </trkpt>
      <trkpt lat="50.39855" lon="5.47963">
        <ele>219</ele>
        <time>2019-05-01T09:50:40.000Z</time>
      </trkpt>
      <trkpt lat="50.39855" lon="5.47963">
        <ele>219</ele>
        <time>2019-05-01T09:50:52.000Z</time>
      </trkpt>
      <trkpt lat="50.39855" lon="5.47963">
        <ele>219</ele>
        <time>2019-05-01T09:50:58.000Z</time>
      </trkpt>
      <trkpt lat="50.39855" lon="5.47963">
        <ele>210.80000305176</ele>
        <time>2019-05-01T09:51:05.000Z</time>
      </trkpt>
      <trkpt lat="50.39858" lon="5.47994">
        <ele>218.5</ele>
        <time>2019-05-01T09:51:08.000Z</time>
      </trkpt>
      <trkpt lat="50.39869" lon="5.48006">
        <ele>217</ele>
        <time>2019-05-01T09:51:10.000Z</time>
      </trkpt>
      <trkpt lat="50.39883" lon="5.48004">
        <ele>218.4</ele>
        <time>2019-05-01T09:51:11.000Z</time>
      </trkpt>
      <trkpt lat="50.39901" lon="5.47993">
        <ele>222.7</ele>
        <time>2019-05-01T09:51:12.000Z</time>
      </trkpt>
      <trkpt lat="50.3991" lon="5.47979">
        <ele>217.60000610352</ele>
        <time>2019-05-01T09:51:15.000Z</time>
      </trkpt>
      <trkpt lat="50.39916" lon="5.47976">
        <ele>218.60000610352</ele>
        <time>2019-05-01T09:51:18.000Z</time>
      </trkpt>
      <trkpt lat="50.39918" lon="5.47975">
        <ele>218.80000305176</ele>
        <time>2019-05-01T09:51:22.000Z</time>
      </trkpt>
      <trkpt lat="50.39929" lon="5.47966">
        <ele>221</ele>
        <time>2019-05-01T09:51:27.000Z</time>
      </trkpt>
      <trkpt lat="50.39932" lon="5.47965">
        <ele>221.39999389648</ele>
        <time>2019-05-01T09:51:31.000Z</time>
      </trkpt>
      <trkpt lat="50.39947" lon="5.47953">
        <ele>223.80000305176</ele>
        <time>2019-05-01T09:51:32.000Z</time>
      </trkpt>
      <trkpt lat="50.39952" lon="5.47948">
        <ele>224.19999694824</ele>
        <time>2019-05-01T09:51:35.000Z</time>
      </trkpt>
      <trkpt lat="50.39957" lon="5.47943">
        <ele>224.80000305176</ele>
        <time>2019-05-01T09:51:53.000Z</time>
      </trkpt>
      <trkpt lat="50.39971" lon="5.47933">
        <ele>226</ele>
        <time>2019-05-01T09:52:22.000Z</time>
      </trkpt>
      <trkpt lat="50.39983" lon="5.47926">
        <ele>227.19999694824</ele>
        <time>2019-05-01T09:52:23.000Z</time>
      </trkpt>
      <trkpt lat="50.39995" lon="5.47917">
        <ele>228.19999694824</ele>
        <time>2019-05-01T09:52:24.000Z</time>
      </trkpt>
      <trkpt lat="50.40006" lon="5.47908">
        <ele>229.39999389648</ele>
        <time>2019-05-01T09:52:27.000Z</time>
      </trkpt>
      <trkpt lat="50.40018" lon="5.47899">
        <ele>230.60000610352</ele>
        <time>2019-05-01T09:52:32.000Z</time>
      </trkpt>
      <trkpt lat="50.40026" lon="5.47894">
        <ele>231.19999694824</ele>
        <time>2019-05-01T09:52:39.000Z</time>
      </trkpt>
      <trkpt lat="50.40028" lon="5.47892">
        <ele>231.60000610352</ele>
        <time>2019-05-01T09:52:40.000Z</time>
      </trkpt>
      <trkpt lat="50.4004" lon="5.47883">
        <ele>232.60000610352</ele>
        <time>2019-05-01T09:52:45.000Z</time>
      </trkpt>
      <trkpt lat="50.40054" lon="5.47871">
        <ele>233.80000305176</ele>
        <time>2019-05-01T09:52:52.000Z</time>
      </trkpt>
      <trkpt lat="50.40069" lon="5.47856">
        <ele>241.6</ele>
        <time>2019-05-01T09:53:04.000Z</time>
      </trkpt>
      <trkpt lat="50.40077" lon="5.47837">
        <ele>243</ele>
        <time>2019-05-01T09:53:08.000Z</time>
      </trkpt>
      <trkpt lat="50.40084" lon="5.4782">
        <ele>245</ele>
        <time>2019-05-01T09:53:12.000Z</time>
      </trkpt>
      <trkpt lat="50.40088" lon="5.47811">
        <ele>238.39999389648</ele>
        <time>2019-05-01T09:53:13.000Z</time>
      </trkpt>
      <trkpt lat="50.40094" lon="5.47795">
        <ele>246</ele>
        <time>2019-05-01T09:53:18.000Z</time>
      </trkpt>
      <trkpt lat="50.40106" lon="5.47794">
        <ele>246.1</ele>
        <time>2019-05-01T09:53:25.000Z</time>
      </trkpt>
      <trkpt lat="50.40117" lon="5.47821">
        <ele>245.9</ele>
        <time>2019-05-01T09:53:32.000Z</time>
      </trkpt>
      <trkpt lat="50.40136" lon="5.47857">
        <ele>242.19999694824</ele>
        <time>2019-05-01T09:53:38.000Z</time>
      </trkpt>
      <trkpt lat="50.40158" lon="5.47891">
        <ele>242</ele>
        <time>2019-05-01T09:53:43.000Z</time>
      </trkpt>
      <trkpt lat="50.40179" lon="5.47925">
        <ele>240.60000610352</ele>
        <time>2019-05-01T09:53:47.000Z</time>
      </trkpt>
      <trkpt lat="50.4019" lon="5.47944">
        <ele>240.19999694824</ele>
        <time>2019-05-01T09:53:48.000Z</time>
      </trkpt>
      <trkpt lat="50.40203" lon="5.47966">
        <ele>239.60000610352</ele>
        <time>2019-05-01T09:53:50.000Z</time>
      </trkpt>
      <trkpt lat="50.40223" lon="5.47999">
        <ele>238.39999389648</ele>
        <time>2019-05-01T09:53:53.000Z</time>
      </trkpt>
      <trkpt lat="50.4023" lon="5.4801">
        <ele>237.80000305176</ele>
        <time>2019-05-01T09:53:59.000Z</time>
      </trkpt>
      <trkpt lat="50.40243" lon="5.48032">
        <ele>236.80000305176</ele>
        <time>2019-05-01T09:54:04.000Z</time>
      </trkpt>
      <trkpt lat="50.40261" lon="5.48063">
        <ele>235.19999694824</ele>
        <time>2019-05-01T09:54:08.000Z</time>
      </trkpt>
      <trkpt lat="50.40273" lon="5.48081">
        <ele>233.80000305176</ele>
        <time>2019-05-01T09:54:09.000Z</time>
      </trkpt>
      <trkpt lat="50.40302" lon="5.48123">
        <ele>233</ele>
        <time>2019-05-01T09:54:12.000Z</time>
      </trkpt>
      <trkpt lat="50.40307" lon="5.48132">
        <ele>233</ele>
        <time>2019-05-01T09:54:16.000Z</time>
      </trkpt>
      <trkpt lat="50.40342" lon="5.4818">
        <ele>233.19999694824</ele>
        <time>2019-05-01T09:54:21.000Z</time>
      </trkpt>
      <trkpt lat="50.40387" lon="5.48244">
        <ele>233.19999694824</ele>
        <time>2019-05-01T09:54:22.000Z</time>
      </trkpt>
      <trkpt lat="50.40415" lon="5.48285">
        <ele>233.60000610352</ele>
        <time>2019-05-01T09:54:27.000Z</time>
      </trkpt>
      <trkpt lat="50.40442" lon="5.48327">
        <ele>235.39999389648</ele>
        <time>2019-05-01T09:54:34.000Z</time>
      </trkpt>
      <trkpt lat="50.40449" lon="5.48338">
        <ele>236.39999389648</ele>
        <time>2019-05-01T09:54:43.000Z</time>
      </trkpt>
      <trkpt lat="50.40462" lon="5.48358">
        <ele>237.60000610352</ele>
        <time>2019-05-01T09:54:50.000Z</time>
      </trkpt>
      <trkpt lat="50.40472" lon="5.48372">
        <ele>239.39999389648</ele>
        <time>2019-05-01T09:54:51.000Z</time>
      </trkpt>
      <trkpt lat="50.40486" lon="5.48391">
        <ele>240.60000610352</ele>
        <time>2019-05-01T09:55:14.000Z</time>
      </trkpt>
      <trkpt lat="50.40497" lon="5.48406">
        <ele>242.19999694824</ele>
        <time>2019-05-01T09:55:17.000Z</time>
      </trkpt>
      <trkpt lat="50.40507" lon="5.48421">
        <ele>243.19999694824</ele>
        <time>2019-05-01T09:55:18.000Z</time>
      </trkpt>
      <trkpt lat="50.4052" lon="5.48439">
        <ele>244.19999694824</ele>
        <time>2019-05-01T09:55:21.000Z</time>
      </trkpt>
      <trkpt lat="50.4053" lon="5.48454">
        <ele>245.19999694824</ele>
        <time>2019-05-01T09:55:25.000Z</time>
      </trkpt>
      <trkpt lat="50.40537" lon="5.48464">
        <ele>246</ele>
        <time>2019-05-01T09:55:28.000Z</time>
      </trkpt>
      <trkpt lat="50.40545" lon="5.48474">
        <ele>246.60000610352</ele>
        <time>2019-05-01T09:55:31.000Z</time>
      </trkpt>
      <trkpt lat="50.40555" lon="5.48489">
        <ele>247.60000610352</ele>
        <time>2019-05-01T09:55:33.000Z</time>
      </trkpt>
      <trkpt lat="50.40566" lon="5.48505">
        <ele>248.80000305176</ele>
        <time>2019-05-01T09:56:19.000Z</time>
      </trkpt>
      <trkpt lat="50.40573" lon="5.48515">
        <ele>249.60000610352</ele>
        <time>2019-05-01T09:56:25.000Z</time>
      </trkpt>
      <trkpt lat="50.40577" lon="5.48521">
        <ele>250</ele>
        <time>2019-05-01T09:56:32.000Z</time>
      </trkpt>
      <trkpt lat="50.40596" lon="5.48547">
        <ele>251</ele>
        <time>2019-05-01T09:56:46.000Z</time>
      </trkpt>
      <trkpt lat="50.40614" lon="5.48573">
        <ele>252</ele>
        <time>2019-05-01T09:56:49.000Z</time>
      </trkpt>
      <trkpt lat="50.40632" lon="5.48599">
        <ele>253.19999694824</ele>
        <time>2019-05-01T09:56:52.000Z</time>
      </trkpt>
      <trkpt lat="50.40647" lon="5.48621">
        <ele>254</ele>
        <time>2019-05-01T09:56:56.000Z</time>
      </trkpt>
      <trkpt lat="50.40655" lon="5.48632">
        <ele>254.39999389648</ele>
        <time>2019-05-01T09:56:59.000Z</time>
      </trkpt>
      <trkpt lat="50.40681" lon="5.48673">
        <ele>262.5</ele>
        <time>2019-05-01T09:57:04.000Z</time>
      </trkpt>
      <trkpt lat="50.40718" lon="5.48728">
        <ele>263.7</ele>
        <time>2019-05-01T09:57:06.000Z</time>
      </trkpt>
      <trkpt lat="50.40752" lon="5.48778">
        <ele>265.4</ele>
        <time>2019-05-01T09:57:11.000Z</time>
      </trkpt>
      <trkpt lat="50.40777" lon="5.48808">
        <ele>265.7</ele>
        <time>2019-05-01T09:57:12.000Z</time>
      </trkpt>
      <trkpt lat="50.40796" lon="5.4882">
        <ele>260.79998779297</ele>
        <time>2019-05-01T09:57:18.000Z</time>
      </trkpt>
      <trkpt lat="50.408" lon="5.48819">
        <ele>260.79998779297</ele>
        <time>2019-05-01T09:57:24.000Z</time>
      </trkpt>
      <trkpt lat="50.40804" lon="5.48817">
        <ele>261</ele>
        <time>2019-05-01T09:57:31.000Z</time>
      </trkpt>
      <trkpt lat="50.40811" lon="5.4881">
        <ele>261.20001220703</ele>
        <time>2019-05-01T09:57:37.000Z</time>
      </trkpt>
      <trkpt lat="50.40818" lon="5.48801">
        <ele>261.20001220703</ele>
        <time>2019-05-01T09:57:43.000Z</time>
      </trkpt>
      <trkpt lat="50.40829" lon="5.48787">
        <ele>261.20001220703</ele>
        <time>2019-05-01T09:57:50.000Z</time>
      </trkpt>
      <trkpt lat="50.4084" lon="5.48772">
        <ele>261.20001220703</ele>
        <time>2019-05-01T09:57:52.000Z</time>
      </trkpt>
      <trkpt lat="50.40853" lon="5.48757">
        <ele>260.79998779297</ele>
        <time>2019-05-01T09:57:55.000Z</time>
      </trkpt>
      <trkpt lat="50.40864" lon="5.48741">
        <ele>265</ele>
        <time>2019-05-01T09:58:02.000Z</time>
      </trkpt>
      <trkpt lat="50.40882" lon="5.4878">
        <ele>260.20001220703</ele>
        <time>2019-05-01T09:58:09.000Z</time>
      </trkpt>
      <trkpt lat="50.40899" lon="5.48808">
        <ele>259.60000610352</ele>
        <time>2019-05-01T09:58:16.000Z</time>
      </trkpt>
      <trkpt lat="50.40917" lon="5.48841">
        <ele>258.60000610352</ele>
        <time>2019-05-01T09:58:22.000Z</time>
      </trkpt>
      <trkpt lat="50.40945" lon="5.4889">
        <ele>261.4</ele>
        <time>2019-05-01T09:58:30.000Z</time>
      </trkpt>
      <trkpt lat="50.4096" lon="5.48924">
        <ele>256.20001220703</ele>
        <time>2019-05-01T09:58:31.000Z</time>
      </trkpt>
      <trkpt lat="50.4097" lon="5.48943">
        <ele>255.19999694824</ele>
        <time>2019-05-01T09:59:10.000Z</time>
      </trkpt>
      <trkpt lat="50.40986" lon="5.48975">
        <ele>253.80000305176</ele>
        <time>2019-05-01T09:59:12.000Z</time>
      </trkpt>
      <trkpt lat="50.40998" lon="5.48996">
        <ele>252.39999389648</ele>
        <time>2019-05-01T09:59:18.000Z</time>
      </trkpt>
      <trkpt lat="50.4101" lon="5.49021">
        <ele>251.39999389648</ele>
        <time>2019-05-01T09:59:20.000Z</time>
      </trkpt>
      <trkpt lat="50.41022" lon="5.49046">
        <ele>250.39999389648</ele>
        <time>2019-05-01T09:59:21.000Z</time>
      </trkpt>
      <trkpt lat="50.41029" lon="5.49058">
        <ele>249.60000610352</ele>
        <time>2019-05-01T09:59:23.000Z</time>
      </trkpt>
      <trkpt lat="50.41042" lon="5.49084">
        <ele>248.39999389648</ele>
        <time>2019-05-01T09:59:30.000Z</time>
      </trkpt>
      <trkpt lat="50.41062" lon="5.49124">
        <ele>247.19999694824</ele>
        <time>2019-05-01T09:59:32.000Z</time>
      </trkpt>
      <trkpt lat="50.41076" lon="5.49153">
        <ele>245</ele>
        <time>2019-05-01T09:59:39.000Z</time>
      </trkpt>
      <trkpt lat="50.4109" lon="5.49183">
        <ele>243.39999389648</ele>
        <time>2019-05-01T10:00:19.000Z</time>
      </trkpt>
      <trkpt lat="50.41103" lon="5.49213">
        <ele>242</ele>
        <time>2019-05-01T10:00:42.000Z</time>
      </trkpt>
      <trkpt lat="50.4111" lon="5.49228">
        <ele>241</ele>
        <time>2019-05-01T10:00:45.000Z</time>
      </trkpt>
      <trkpt lat="50.41123" lon="5.49257">
        <ele>239.60000610352</ele>
        <time>2019-05-01T10:00:47.000Z</time>
      </trkpt>
      <trkpt lat="50.4113" lon="5.49271">
        <ele>238.60000610352</ele>
        <time>2019-05-01T10:04:50.000Z</time>
      </trkpt>
      <trkpt lat="50.41142" lon="5.49299">
        <ele>236.80000305176</ele>
        <time>2019-05-01T10:04:57.000Z</time>
      </trkpt>
      <trkpt lat="50.41155" lon="5.49328">
        <ele>235.19999694824</ele>
        <time>2019-05-01T10:05:00.000Z</time>
      </trkpt>
      <trkpt lat="50.41167" lon="5.49361">
        <ele>233.60000610352</ele>
        <time>2019-05-01T10:05:07.000Z</time>
      </trkpt>
      <trkpt lat="50.41177" lon="5.49396">
        <ele>232.19999694824</ele>
        <time>2019-05-01T10:05:14.000Z</time>
      </trkpt>
      <trkpt lat="50.41187" lon="5.49432">
        <ele>230.39999389648</ele>
        <time>2019-05-01T10:05:16.000Z</time>
      </trkpt>
      <trkpt lat="50.41192" lon="5.4945">
        <ele>229.60000610352</ele>
        <time>2019-05-01T10:05:23.000Z</time>
      </trkpt>
      <trkpt lat="50.41197" lon="5.49468">
        <ele>229</ele>
        <time>2019-05-01T10:05:24.000Z</time>
      </trkpt>
      <trkpt lat="50.41209" lon="5.49502">
        <ele>227.39999389648</ele>
        <time>2019-05-01T10:05:26.000Z</time>
      </trkpt>
      <trkpt lat="50.41223" lon="5.49538">
        <ele>233.3</ele>
        <time>2019-05-01T10:05:28.000Z</time>
      </trkpt>
      <trkpt lat="50.41237" lon="5.49563">
        <ele>231.9</ele>
        <time>2019-05-01T10:05:35.000Z</time>
      </trkpt>
      <trkpt lat="50.41246" lon="5.49573">
        <ele>230.3</ele>
        <time>2019-05-01T10:05:37.000Z</time>
      </trkpt>
      <trkpt lat="50.41264" lon="5.49583">
        <ele>226.8</ele>
        <time>2019-05-01T10:05:44.000Z</time>
      </trkpt>
      <trkpt lat="50.41275" lon="5.49587">
        <ele>227</ele>
        <time>2019-05-01T10:05:46.000Z</time>
      </trkpt>
      <trkpt lat="50.41291" lon="5.49597">
        <ele>226.5</ele>
        <time>2019-05-01T10:05:51.000Z</time>
      </trkpt>
      <trkpt lat="50.41298" lon="5.49603">
        <ele>217.19999694824</ele>
        <time>2019-05-01T10:05:56.000Z</time>
      </trkpt>
      <trkpt lat="50.41303" lon="5.49615">
        <ele>216.80000305176</ele>
        <time>2019-05-01T10:05:59.000Z</time>
      </trkpt>
      <trkpt lat="50.41308" lon="5.49627">
        <ele>216.60000610352</ele>
        <time>2019-05-01T10:06:02.000Z</time>
      </trkpt>
      <trkpt lat="50.41312" lon="5.49639">
        <ele>216.39999389648</ele>
        <time>2019-05-01T10:06:04.000Z</time>
      </trkpt>
      <trkpt lat="50.41317" lon="5.49659">
        <ele>215.80000305176</ele>
        <time>2019-05-01T10:06:10.000Z</time>
      </trkpt>
      <trkpt lat="50.41321" lon="5.49666">
        <ele>215.39999389648</ele>
        <time>2019-05-01T10:06:11.000Z</time>
      </trkpt>
      <trkpt lat="50.41326" lon="5.49674">
        <ele>214.60000610352</ele>
        <time>2019-05-01T10:06:16.000Z</time>
      </trkpt>
      <trkpt lat="50.41326" lon="5.49674">
        <ele>214.39999389648</ele>
        <time>2019-05-01T10:06:18.000Z</time>
      </trkpt>
      <trkpt lat="50.41326" lon="5.49675">
        <ele>214</ele>
        <time>2019-05-01T10:06:22.000Z</time>
      </trkpt>
      <trkpt lat="50.41336" lon="5.49683">
        <ele>231</ele>
        <time>2019-05-01T10:06:23.000Z</time>
      </trkpt>
      <trkpt lat="50.41345" lon="5.49665">
        <ele>230</ele>
        <time>2019-05-01T10:06:27.000Z</time>
      </trkpt>
      <trkpt lat="50.41343" lon="5.49614">
        <ele>232</ele>
        <time>2019-05-01T10:06:43.000Z</time>
      </trkpt>
      <trkpt lat="50.41339" lon="5.49562">
        <ele>226.6</ele>
        <time>2019-05-01T10:07:14.000Z</time>
      </trkpt>
      <trkpt lat="50.41337" lon="5.49526">
        <ele>207.80000305176</ele>
        <time>2019-05-01T10:07:18.000Z</time>
      </trkpt>
      <trkpt lat="50.4133" lon="5.4949">
        <ele>220.6</ele>
        <time>2019-05-01T10:07:26.000Z</time>
      </trkpt>
      <trkpt lat="50.4133" lon="5.49455">
        <ele>223.3</ele>
        <time>2019-05-01T10:07:37.000Z</time>
      </trkpt>
      <trkpt lat="50.41353" lon="5.49433">
        <ele>219.5</ele>
        <time>2019-05-01T10:07:44.000Z</time>
      </trkpt>
      <trkpt lat="50.41385" lon="5.49418">
        <ele>218.1</ele>
        <time>2019-05-01T10:10:46.000Z</time>
      </trkpt>
      <trkpt lat="50.41412" lon="5.49394">
        <ele>201.39999389648</ele>
        <time>2019-05-01T10:10:53.000Z</time>
      </trkpt>
      <trkpt lat="50.41433" lon="5.49364">
        <ele>200.19999694824</ele>
        <time>2019-05-01T10:11:26.000Z</time>
      </trkpt>
      <trkpt lat="50.41442" lon="5.49353">
        <ele>199.60000610352</ele>
        <time>2019-05-01T10:11:29.000Z</time>
      </trkpt>
      <trkpt lat="50.41452" lon="5.49341">
        <ele>215.8</ele>
        <time>2019-05-01T10:11:36.000Z</time>
      </trkpt>
      <trkpt lat="50.41475" lon="5.49324">
        <ele>221.9</ele>
        <time>2019-05-01T10:11:43.000Z</time>
      </trkpt>
      <trkpt lat="50.41486" lon="5.49348">
        <ele>214.5</ele>
        <time>2019-05-01T10:11:45.000Z</time>
      </trkpt>
      <trkpt lat="50.41494" lon="5.49374">
        <ele>214.1</ele>
        <time>2019-05-01T10:11:51.000Z</time>
      </trkpt>
      <trkpt lat="50.41525" lon="5.49396">
        <ele>208.6</ele>
        <time>2019-05-01T10:11:55.000Z</time>
      </trkpt>
      <trkpt lat="50.41543" lon="5.49405">
        <ele>207.1</ele>
        <time>2019-05-01T10:11:57.000Z</time>
      </trkpt>
      <trkpt lat="50.41562" lon="5.49414">
        <ele>204.6</ele>
        <time>2019-05-01T10:12:00.000Z</time>
      </trkpt>
      <trkpt lat="50.41579" lon="5.4942">
        <ele>203.4</ele>
        <time>2019-05-01T10:12:02.000Z</time>
      </trkpt>
      <trkpt lat="50.41609" lon="5.49426">
        <ele>203.3</ele>
        <time>2019-05-01T10:12:06.000Z</time>
      </trkpt>
      <trkpt lat="50.41635" lon="5.49432">
        <ele>202.4</ele>
        <time>2019-05-01T10:12:13.000Z</time>
      </trkpt>
      <trkpt lat="50.4166" lon="5.49442">
        <ele>201.1</ele>
        <time>2019-05-01T10:12:18.000Z</time>
      </trkpt>
      <trkpt lat="50.41675" lon="5.49445">
        <ele>194.5</ele>
        <time>2019-05-01T10:12:19.000Z</time>
      </trkpt>
      <trkpt lat="50.41718" lon="5.49456">
        <ele>192.8</ele>
        <time>2019-05-01T10:12:24.000Z</time>
      </trkpt>
      <trkpt lat="50.41744" lon="5.49463">
        <ele>191.5</ele>
        <time>2019-05-01T10:12:30.000Z</time>
      </trkpt>
      <trkpt lat="50.41766" lon="5.49464">
        <ele>179.6</ele>
        <time>2019-05-01T10:12:37.000Z</time>
      </trkpt>
      <trkpt lat="50.41778" lon="5.49464">
        <ele>178.3</ele>
        <time>2019-05-01T10:12:39.000Z</time>
      </trkpt>
      <trkpt lat="50.41793" lon="5.49475">
        <ele>176.6</ele>
        <time>2019-05-01T10:12:43.000Z</time>
      </trkpt>
      <trkpt lat="50.418" lon="5.49493">
        <ele>175.3</ele>
        <time>2019-05-01T10:12:44.000Z</time>
      </trkpt>
      <trkpt lat="50.41799" lon="5.49513">
        <ele>176.2</ele>
        <time>2019-05-01T10:12:49.000Z</time>
      </trkpt>
      <trkpt lat="50.41795" lon="5.49532">
        <ele>177.2</ele>
        <time>2019-05-01T10:13:24.000Z</time>
      </trkpt>
      <trkpt lat="50.41784" lon="5.49557">
        <ele>179.6</ele>
        <time>2019-05-01T10:13:27.000Z</time>
      </trkpt>
      <trkpt lat="50.41777" lon="5.49577">
        <ele>182.7</ele>
        <time>2019-05-01T10:13:29.000Z</time>
      </trkpt>
      <trkpt lat="50.41774" lon="5.49602">
        <ele>182.7</ele>
        <time>2019-05-01T10:13:31.000Z</time>
      </trkpt>
      <trkpt lat="50.41773" lon="5.49638">
        <ele>182.2</ele>
        <time>2019-05-01T10:13:42.000Z</time>
      </trkpt>
      <trkpt lat="50.41776" lon="5.49666">
        <ele>183.7</ele>
        <time>2019-05-01T10:13:43.000Z</time>
      </trkpt>
      <trkpt lat="50.41782" lon="5.49698">
        <ele>182.9</ele>
        <time>2019-05-01T10:13:45.000Z</time>
      </trkpt>
      <trkpt lat="50.41791" lon="5.49727">
        <ele>181.6</ele>
        <time>2019-05-01T10:13:48.000Z</time>
      </trkpt>
      <trkpt lat="50.41802" lon="5.49751">
        <ele>184</ele>
        <time>2019-05-01T10:13:49.000Z</time>
      </trkpt>
      <trkpt lat="50.4182" lon="5.4979">
        <ele>184</ele>
        <time>2019-05-01T10:15:06.000Z</time>
      </trkpt>
      <trkpt lat="50.41837" lon="5.4981">
        <ele>164.4</ele>
        <time>2019-05-01T10:15:08.000Z</time>
      </trkpt>
      <trkpt lat="50.41855" lon="5.49831">
        <ele>164.3</ele>
        <time>2019-05-01T10:15:14.000Z</time>
      </trkpt>
      <trkpt lat="50.41872" lon="5.4985">
        <ele>171.8</ele>
        <time>2019-05-01T10:15:20.000Z</time>
      </trkpt>
      <trkpt lat="50.41883" lon="5.49859">
        <ele>171</ele>
        <time>2019-05-01T10:15:21.000Z</time>
      </trkpt>
      <trkpt lat="50.41908" lon="5.49874">
        <ele>169.7</ele>
        <time>2019-05-01T10:15:27.000Z</time>
      </trkpt>
      <trkpt lat="50.41924" lon="5.49878">
        <ele>156.6</ele>
        <time>2019-05-01T10:15:29.000Z</time>
      </trkpt>
      <trkpt lat="50.41947" lon="5.49878">
        <ele>155.2</ele>
        <time>2019-05-01T10:15:32.000Z</time>
      </trkpt>
      <trkpt lat="50.41968" lon="5.49868">
        <ele>152.7</ele>
        <time>2019-05-01T10:15:35.000Z</time>
      </trkpt>
      <trkpt lat="50.41992" lon="5.49834">
        <ele>146.7</ele>
        <time>2019-05-01T10:15:37.000Z</time>
      </trkpt>
      <trkpt lat="50.4201" lon="5.49808">
        <ele>142.8</ele>
        <time>2019-05-01T10:15:41.000Z</time>
      </trkpt>
      <trkpt lat="50.42023" lon="5.49787">
        <ele>142.5</ele>
        <time>2019-05-01T10:15:42.000Z</time>
      </trkpt>
      <trkpt lat="50.42035" lon="5.49757">
        <ele>142.4</ele>
        <time>2019-05-01T10:15:43.000Z</time>
      </trkpt>
      <trkpt lat="50.42042" lon="5.4973">
        <ele>145</ele>
        <time>2019-05-01T10:15:45.000Z</time>
      </trkpt>
      <trkpt lat="50.42052" lon="5.49678">
        <ele>147.1</ele>
        <time>2019-05-01T10:15:48.000Z</time>
      </trkpt>
      <trkpt lat="50.42075" lon="5.49685">
        <ele>147.9</ele>
        <time>2019-05-01T10:15:49.000Z</time>
      </trkpt>
      <trkpt lat="50.42093" lon="5.49696">
        <ele>149</ele>
        <time>2019-05-01T10:15:53.000Z</time>
      </trkpt>
      <trkpt lat="50.42117" lon="5.49708">
        <ele>148.5</ele>
        <time>2019-05-01T10:15:57.000Z</time>
      </trkpt>
      <trkpt lat="50.42142" lon="5.49734">
        <ele>147.2</ele>
        <time>2019-05-01T10:15:59.000Z</time>
      </trkpt>
      <trkpt lat="50.42166" lon="5.49757">
        <ele>143.2</ele>
        <time>2019-05-01T10:16:04.000Z</time>
      </trkpt>
      <trkpt lat="50.42184" lon="5.49775">
        <ele>145</ele>
        <time>2019-05-01T10:16:08.000Z</time>
      </trkpt>
      <trkpt lat="50.42208" lon="5.49799">
        <ele>145</ele>
        <time>2019-05-01T10:16:09.000Z</time>
      </trkpt>
      <trkpt lat="50.42242" lon="5.49838">
        <ele>141.8</ele>
        <time>2019-05-01T10:16:15.000Z</time>
      </trkpt>
      <trkpt lat="50.42287" lon="5.49895">
        <ele>143.9</ele>
        <time>2019-05-01T10:16:25.000Z</time>
      </trkpt>
      <trkpt lat="50.42324" lon="5.49968">
        <ele>132.60000610352</ele>
        <time>2019-05-01T10:16:28.000Z</time>
      </trkpt>
      <trkpt lat="50.42352" lon="5.50031">
        <ele>132.60000610352</ele>
        <time>2019-05-01T10:16:33.000Z</time>
      </trkpt>
      <trkpt lat="50.42359" lon="5.5005">
        <ele>132.60000610352</ele>
        <time>2019-05-01T10:16:39.000Z</time>
      </trkpt>
      <trkpt lat="50.42392" lon="5.50122">
        <ele>132.60000610352</ele>
        <time>2019-05-01T10:16:40.000Z</time>
      </trkpt>
      <trkpt lat="50.424" lon="5.50139">
        <ele>132.60000610352</ele>
        <time>2019-05-01T10:16:43.000Z</time>
      </trkpt>
      <trkpt lat="50.42408" lon="5.50157">
        <ele>132.60000610352</ele>
        <time>2019-05-01T10:16:47.000Z</time>
      </trkpt>
      <trkpt lat="50.42425" lon="5.5022">
        <ele>132.39999389648</ele>
        <time>2019-05-01T10:16:50.000Z</time>
      </trkpt>
      <trkpt lat="50.42436" lon="5.50288">
        <ele>132</ele>
        <time>2019-05-01T10:16:53.000Z</time>
      </trkpt>
      <trkpt lat="50.4244" lon="5.50309">
        <ele>132</ele>
        <time>2019-05-01T10:16:55.000Z</time>
      </trkpt>
      <trkpt lat="50.42448" lon="5.50361">
        <ele>131.80000305176</ele>
        <time>2019-05-01T10:16:57.000Z</time>
      </trkpt>
      <trkpt lat="50.42462" lon="5.50418">
        <ele>131.80000305176</ele>
        <time>2019-05-01T10:16:58.000Z</time>
      </trkpt>
      <trkpt lat="50.4249" lon="5.50477">
        <ele>131.80000305176</ele>
        <time>2019-05-01T10:17:53.000Z</time>
      </trkpt>
      <trkpt lat="50.4252" lon="5.5054">
        <ele>131.80000305176</ele>
        <time>2019-05-01T10:17:54.000Z</time>
      </trkpt>
      <trkpt lat="50.42544" lon="5.50618">
        <ele>131</ele>
        <time>2019-05-01T10:17:58.000Z</time>
      </trkpt>
      <trkpt lat="50.42551" lon="5.50649">
        <ele>131</ele>
        <time>2019-05-01T10:17:59.000Z</time>
      </trkpt>
      <trkpt lat="50.42553" lon="5.5066">
        <ele>131</ele>
        <time>2019-05-01T10:18:05.000Z</time>
      </trkpt>
      <trkpt lat="50.42555" lon="5.50671">
        <ele>131</ele>
        <time>2019-05-01T10:18:06.000Z</time>
      </trkpt>
      <trkpt lat="50.42565" lon="5.50746">
        <ele>131</ele>
        <time>2019-05-01T10:18:10.000Z</time>
      </trkpt>
      <trkpt lat="50.4257" lon="5.50812">
        <ele>130.80000305176</ele>
        <time>2019-05-01T10:18:11.000Z</time>
      </trkpt>
      <trkpt lat="50.42575" lon="5.50853">
        <ele>130.60000610352</ele>
        <time>2019-05-01T10:18:14.000Z</time>
      </trkpt>
      <trkpt lat="50.42577" lon="5.50886">
        <ele>130.39999389648</ele>
        <time>2019-05-01T10:18:15.000Z</time>
      </trkpt>
      <trkpt lat="50.42582" lon="5.50938">
        <ele>130.39999389648</ele>
        <time>2019-05-01T10:18:17.000Z</time>
      </trkpt>
      <trkpt lat="50.42587" lon="5.51002">
        <ele>130</ele>
        <time>2019-05-01T10:18:18.000Z</time>
      </trkpt>
      <trkpt lat="50.42588" lon="5.51023">
        <ele>129.80000305176</ele>
        <time>2019-05-01T10:18:19.000Z</time>
      </trkpt>
      <trkpt lat="50.4259" lon="5.51101">
        <ele>129.60000610352</ele>
        <time>2019-05-01T10:18:21.000Z</time>
      </trkpt>
      <trkpt lat="50.42588" lon="5.51155">
        <ele>129.60000610352</ele>
        <time>2019-05-01T10:18:22.000Z</time>
      </trkpt>
      <trkpt lat="50.4258" lon="5.51226">
        <ele>143.3</ele>
        <time>2019-05-01T10:18:24.000Z</time>
      </trkpt>
      <trkpt lat="50.42567" lon="5.5129">
        <ele>148.4</ele>
        <time>2019-05-01T10:18:25.000Z</time>
      </trkpt>
      <trkpt lat="50.42557" lon="5.51322">
        <ele>128.80000305176</ele>
        <time>2019-05-01T10:18:27.000Z</time>
      </trkpt>
      <trkpt lat="50.42547" lon="5.51343">
        <ele>159.2</ele>
        <time>2019-05-01T10:18:30.000Z</time>
      </trkpt>
      <trkpt lat="50.42535" lon="5.51354">
        <ele>159.4</ele>
        <time>2019-05-01T10:18:33.000Z</time>
      </trkpt>
      <trkpt lat="50.42514" lon="5.51362">
        <ele>158.6</ele>
        <time>2019-05-01T10:18:35.000Z</time>
      </trkpt>
      <trkpt lat="50.42498" lon="5.51367">
        <ele>156.3</ele>
        <time>2019-05-01T10:18:38.000Z</time>
      </trkpt>
      <trkpt lat="50.42475" lon="5.51368">
        <ele>156.7</ele>
        <time>2019-05-01T10:18:43.000Z</time>
      </trkpt>
      <trkpt lat="50.42445" lon="5.5135">
        <ele>154.5</ele>
        <time>2019-05-01T10:18:45.000Z</time>
      </trkpt>
      <trkpt lat="50.42422" lon="5.51338">
        <ele>150.3</ele>
        <time>2019-05-01T10:18:47.000Z</time>
      </trkpt>
      <trkpt lat="50.42406" lon="5.51329">
        <ele>151</ele>
        <time>2019-05-01T10:18:50.000Z</time>
      </trkpt>
      <trkpt lat="50.4239" lon="5.5133">
        <ele>153.1</ele>
        <time>2019-05-01T10:18:52.000Z</time>
      </trkpt>
      <trkpt lat="50.42381" lon="5.5133">
        <ele>153.9</ele>
        <time>2019-05-01T10:18:54.000Z</time>
      </trkpt>
      <trkpt lat="50.42336" lon="5.51355">
        <ele>126</ele>
        <time>2019-05-01T10:18:55.000Z</time>
      </trkpt>
      <trkpt lat="50.42317" lon="5.51367">
        <ele>125.40000152588</ele>
        <time>2019-05-01T10:18:56.000Z</time>
      </trkpt>
      <trkpt lat="50.42299" lon="5.51378">
        <ele>124.80000305176</ele>
        <time>2019-05-01T10:18:59.000Z</time>
      </trkpt>
      <trkpt lat="50.42282" lon="5.51389">
        <ele>155</ele>
        <time>2019-05-01T10:19:01.000Z</time>
      </trkpt>
      <trkpt lat="50.42267" lon="5.51403">
        <ele>124.80000305176</ele>
        <time>2019-05-01T10:19:02.000Z</time>
      </trkpt>
      <trkpt lat="50.42256" lon="5.51429">
        <ele>124.80000305176</ele>
        <time>2019-05-01T10:19:04.000Z</time>
      </trkpt>
      <trkpt lat="50.42252" lon="5.51437">
        <ele>152.6</ele>
        <time>2019-05-01T10:19:07.000Z</time>
      </trkpt>
      <trkpt lat="50.42247" lon="5.51453">
        <ele>156.1</ele>
        <time>2019-05-01T10:19:08.000Z</time>
      </trkpt>
      <trkpt lat="50.4224" lon="5.51487">
        <ele>154.4</ele>
        <time>2019-05-01T10:19:10.000Z</time>
      </trkpt>
      <trkpt lat="50.4224" lon="5.51522">
        <ele>153.4</ele>
        <time>2019-05-01T10:19:12.000Z</time>
      </trkpt>
      <trkpt lat="50.42241" lon="5.51566">
        <ele>151.9</ele>
        <time>2019-05-01T10:19:14.000Z</time>
      </trkpt>
      <trkpt lat="50.42247" lon="5.51603">
        <ele>150.5</ele>
        <time>2019-05-01T10:19:16.000Z</time>
      </trkpt>
      <trkpt lat="50.42259" lon="5.51643">
        <ele>152.2</ele>
        <time>2019-05-01T10:19:18.000Z</time>
      </trkpt>
      <trkpt lat="50.42269" lon="5.51678">
        <ele>149.1</ele>
        <time>2019-05-01T10:19:20.000Z</time>
      </trkpt>
      <trkpt lat="50.42277" lon="5.51704">
        <ele>151.3</ele>
        <time>2019-05-01T10:19:24.000Z</time>
      </trkpt>
      <trkpt lat="50.423" lon="5.5176">
        <ele>150.5</ele>
        <time>2019-05-01T10:19:43.000Z</time>
      </trkpt>
      <trkpt lat="50.42334" lon="5.51833">
        <ele>142.3</ele>
        <time>2019-05-01T10:19:44.000Z</time>
      </trkpt>
      <trkpt lat="50.42362" lon="5.5189">
        <ele>150.6</ele>
        <time>2019-05-01T10:19:47.000Z</time>
      </trkpt>
      <trkpt lat="50.42402" lon="5.51972">
        <ele>145.3</ele>
        <time>2019-05-01T10:19:48.000Z</time>
      </trkpt>
      <trkpt lat="50.4245" lon="5.52065">
        <ele>149</ele>
        <time>2019-05-01T10:19:50.000Z</time>
      </trkpt>
      <trkpt lat="50.42474" lon="5.52116">
        <ele>144.8</ele>
        <time>2019-05-01T10:19:53.000Z</time>
      </trkpt>
      <trkpt lat="50.425" lon="5.52171">
        <ele>140.2</ele>
        <time>2019-05-01T10:19:54.000Z</time>
      </trkpt>
      <trkpt lat="50.42529" lon="5.52235">
        <ele>146.5</ele>
        <time>2019-05-01T10:19:58.000Z</time>
      </trkpt>
      <trkpt lat="50.4255" lon="5.52277">
        <ele>144</ele>
        <time>2019-05-01T10:22:44.000Z</time>
      </trkpt>
      <trkpt lat="50.42569" lon="5.5232">
        <ele>143.4</ele>
        <time>2019-05-01T10:22:49.000Z</time>
      </trkpt>
      <trkpt lat="50.42586" lon="5.52361">
        <ele>150.1</ele>
        <time>2019-05-01T10:22:50.000Z</time>
      </trkpt>
      <trkpt lat="50.42608" lon="5.52416">
        <ele>147.1</ele>
        <time>2019-05-01T10:22:56.000Z</time>
      </trkpt>
      <trkpt lat="50.42622" lon="5.52455">
        <ele>145.1</ele>
        <time>2019-05-01T10:23:03.000Z</time>
      </trkpt>
      <trkpt lat="50.42637" lon="5.52529">
        <ele>140.9</ele>
        <time>2019-05-01T10:23:04.000Z</time>
      </trkpt>
      <trkpt lat="50.42649" lon="5.5261">
        <ele>135.4</ele>
        <time>2019-05-01T10:23:06.000Z</time>
      </trkpt>
      <trkpt lat="50.42652" lon="5.5265">
        <ele>133.5</ele>
        <time>2019-05-01T10:23:13.000Z</time>
      </trkpt>
      <trkpt lat="50.42657" lon="5.52729">
        <ele>127.1</ele>
        <time>2019-05-01T10:23:14.000Z</time>
      </trkpt>
      <trkpt lat="50.42659" lon="5.52763">
        <ele>125.7</ele>
        <time>2019-05-01T10:23:19.000Z</time>
      </trkpt>
      <trkpt lat="50.42661" lon="5.52817">
        <ele>124.6</ele>
        <time>2019-05-01T10:23:26.000Z</time>
      </trkpt>
      <trkpt lat="50.42665" lon="5.52868">
        <ele>123.3</ele>
        <time>2019-05-01T10:23:32.000Z</time>
      </trkpt>
      <trkpt lat="50.4267" lon="5.52959">
        <ele>128.9</ele>
        <time>2019-05-01T10:23:33.000Z</time>
      </trkpt>
      <trkpt lat="50.42674" lon="5.53005">
        <ele>116</ele>
        <time>2019-05-01T10:23:36.000Z</time>
      </trkpt>
      <trkpt lat="50.42677" lon="5.53041">
        <ele>115.59999847412</ele>
        <time>2019-05-01T10:23:42.000Z</time>
      </trkpt>
      <trkpt lat="50.42681" lon="5.53121">
        <ele>121.4</ele>
        <time>2019-05-01T10:23:49.000Z</time>
      </trkpt>
      <trkpt lat="50.42683" lon="5.53166">
        <ele>119.8</ele>
        <time>2019-05-01T10:23:51.000Z</time>
      </trkpt>
      <trkpt lat="50.42683" lon="5.53189">
        <ele>119.4</ele>
        <time>2019-05-01T10:23:58.000Z</time>
      </trkpt>
      <trkpt lat="50.42686" lon="5.53224">
        <ele>119.4</ele>
        <time>2019-05-01T10:24:00.000Z</time>
      </trkpt>
      <trkpt lat="50.4269" lon="5.53234">
        <ele>119</ele>
        <time>2019-05-01T10:24:07.000Z</time>
      </trkpt>
      <trkpt lat="50.42706" lon="5.5325">
        <ele>118.5</ele>
        <time>2019-05-01T10:24:14.000Z</time>
      </trkpt>
      <trkpt lat="50.42722" lon="5.5326">
        <ele>112.80000305176</ele>
        <time>2019-05-01T10:24:15.000Z</time>
      </trkpt>
      <trkpt lat="50.42739" lon="5.53275">
        <ele>112.80000305176</ele>
        <time>2019-05-01T10:24:21.000Z</time>
      </trkpt>
      <trkpt lat="50.42745" lon="5.5328">
        <ele>112.80000305176</ele>
        <time>2019-05-01T10:24:28.000Z</time>
      </trkpt>
      <trkpt lat="50.42757" lon="5.53292">
        <ele>112.80000305176</ele>
        <time>2019-05-01T10:24:29.000Z</time>
      </trkpt>
      <trkpt lat="50.42768" lon="5.53303">
        <ele>113.19999694824</ele>
        <time>2019-05-01T10:24:36.000Z</time>
      </trkpt>
      <trkpt lat="50.42779" lon="5.53314">
        <ele>114</ele>
        <time>2019-05-01T10:24:37.000Z</time>
      </trkpt>
      <trkpt lat="50.42791" lon="5.53322">
        <ele>114.80000305176</ele>
        <time>2019-05-01T10:24:44.000Z</time>
      </trkpt>
      <trkpt lat="50.42799" lon="5.53324">
        <ele>115.19999694824</ele>
        <time>2019-05-01T10:24:45.000Z</time>
      </trkpt>
      <trkpt lat="50.42806" lon="5.53326">
        <ele>115.40000152588</ele>
        <time>2019-05-01T10:24:50.000Z</time>
      </trkpt>
      <trkpt lat="50.42829" lon="5.53327">
        <ele>116.19999694824</ele>
        <time>2019-05-01T10:24:52.000Z</time>
      </trkpt>
      <trkpt lat="50.42846" lon="5.53325">
        <ele>116.40000152588</ele>
        <time>2019-05-01T10:24:55.000Z</time>
      </trkpt>
      <trkpt lat="50.42907" lon="5.53317">
        <ele>116.40000152588</ele>
        <time>2019-05-01T10:25:51.000Z</time>
      </trkpt>
      <trkpt lat="50.42925" lon="5.53316">
        <ele>116</ele>
        <time>2019-05-01T10:25:59.000Z</time>
      </trkpt>
      <trkpt lat="50.42952" lon="5.5332">
        <ele>115.19999694824</ele>
        <time>2019-05-01T10:26:06.000Z</time>
      </trkpt>
      <trkpt lat="50.4298" lon="5.53327">
        <ele>113.80000305176</ele>
        <time>2019-05-01T10:26:07.000Z</time>
      </trkpt>
      <trkpt lat="50.43025" lon="5.5334">
        <ele>113</ele>
        <time>2019-05-01T10:26:15.000Z</time>
      </trkpt>
      <trkpt lat="50.43084" lon="5.53366">
        <ele>112</ele>
        <time>2019-05-01T10:26:23.000Z</time>
      </trkpt>
      <trkpt lat="50.43092" lon="5.53369">
        <ele>112</ele>
        <time>2019-05-01T10:26:24.000Z</time>
      </trkpt>
      <trkpt lat="50.43142" lon="5.53378">
        <ele>111.80000305176</ele>
        <time>2019-05-01T10:26:29.000Z</time>
      </trkpt>
      <trkpt lat="50.43202" lon="5.53386">
        <ele>112</ele>
        <time>2019-05-01T10:26:34.000Z</time>
      </trkpt>
      <trkpt lat="50.4321" lon="5.53387">
        <ele>112</ele>
        <time>2019-05-01T10:26:41.000Z</time>
      </trkpt>
      <trkpt lat="50.43268" lon="5.53386">
        <ele>126.8</ele>
        <time>2019-05-01T10:26:42.000Z</time>
      </trkpt>
      <trkpt lat="50.43286" lon="5.53383">
        <ele>127.4</ele>
        <time>2019-05-01T10:26:45.000Z</time>
      </trkpt>
      <trkpt lat="50.43344" lon="5.53376">
        <ele>128</ele>
        <time>2019-05-01T10:26:46.000Z</time>
      </trkpt>
      <trkpt lat="50.43418" lon="5.53371">
        <ele>126.8</ele>
        <time>2019-05-01T10:26:49.000Z</time>
      </trkpt>
      <trkpt lat="50.43479" lon="5.53366">
        <ele>125</ele>
        <time>2019-05-01T10:26:51.000Z</time>
      </trkpt>
      <trkpt lat="50.43492" lon="5.53364">
        <ele>125</ele>
        <time>2019-05-01T10:26:53.000Z</time>
      </trkpt>
      <trkpt lat="50.4354" lon="5.53386">
        <ele>124.4</ele>
        <time>2019-05-01T10:26:56.000Z</time>
      </trkpt>
      <trkpt lat="50.43549" lon="5.53391">
        <ele>111.19999694824</ele>
        <time>2019-05-01T10:26:58.000Z</time>
      </trkpt>
      <trkpt lat="50.43604" lon="5.53417">
        <ele>111.19999694824</ele>
        <time>2019-05-01T10:26:59.000Z</time>
      </trkpt>
      <trkpt lat="50.43655" lon="5.53433">
        <ele>111</ele>
        <time>2019-05-01T10:27:00.000Z</time>
      </trkpt>
      <trkpt lat="50.43702" lon="5.53433">
        <ele>110.80000305176</ele>
        <time>2019-05-01T10:27:03.000Z</time>
      </trkpt>
      <trkpt lat="50.43738" lon="5.53418">
        <ele>120.1</ele>
        <time>2019-05-01T10:27:05.000Z</time>
      </trkpt>
      <trkpt lat="50.43773" lon="5.53396">
        <ele>123.3</ele>
        <time>2019-05-01T10:27:08.000Z</time>
      </trkpt>
      <trkpt lat="50.43786" lon="5.53384">
        <ele>123.9</ele>
        <time>2019-05-01T10:27:09.000Z</time>
      </trkpt>
      <trkpt lat="50.43817" lon="5.53358">
        <ele>113.80000305176</ele>
        <time>2019-05-01T10:27:11.000Z</time>
      </trkpt>
      <trkpt lat="50.43822" lon="5.53352">
        <ele>114</ele>
        <time>2019-05-01T10:27:14.000Z</time>
      </trkpt>
      <trkpt lat="50.43844" lon="5.5333">
        <ele>115</ele>
        <time>2019-05-01T10:27:15.000Z</time>
      </trkpt>
      <trkpt lat="50.43873" lon="5.53302">
        <ele>116</ele>
        <time>2019-05-01T10:27:18.000Z</time>
      </trkpt>
      <trkpt lat="50.43904" lon="5.5327">
        <ele>117.19999694824</ele>
        <time>2019-05-01T10:27:19.000Z</time>
      </trkpt>
      <trkpt lat="50.43933" lon="5.53237">
        <ele>127.4</ele>
        <time>2019-05-01T10:27:22.000Z</time>
      </trkpt>
      <trkpt lat="50.43944" lon="5.53225">
        <ele>127.6</ele>
        <time>2019-05-01T10:27:24.000Z</time>
      </trkpt>
      <trkpt lat="50.43973" lon="5.53199">
        <ele>128.1</ele>
        <time>2019-05-01T10:27:26.000Z</time>
      </trkpt>
      <trkpt lat="50.43987" lon="5.53192">
        <ele>128.4</ele>
        <time>2019-05-01T10:27:28.000Z</time>
      </trkpt>
      <trkpt lat="50.44001" lon="5.53183">
        <ele>127.6</ele>
        <time>2019-05-01T10:27:30.000Z</time>
      </trkpt>
      <trkpt lat="50.44036" lon="5.53179">
        <ele>126.1</ele>
        <time>2019-05-01T10:29:25.000Z</time>
      </trkpt>
      <trkpt lat="50.44069" lon="5.53184">
        <ele>126.2</ele>
        <time>2019-05-01T10:29:26.000Z</time>
      </trkpt>
      <trkpt lat="50.44093" lon="5.53186">
        <ele>126.9</ele>
        <time>2019-05-01T10:29:28.000Z</time>
      </trkpt>
      <trkpt lat="50.44137" lon="5.53187">
        <ele>127.4</ele>
        <time>2019-05-01T10:29:31.000Z</time>
      </trkpt>
      <trkpt lat="50.44178" lon="5.53187">
        <ele>130.2</ele>
        <time>2019-05-01T10:29:33.000Z</time>
      </trkpt>
      <trkpt lat="50.44219" lon="5.53191">
        <ele>129.8</ele>
        <time>2019-05-01T10:29:35.000Z</time>
      </trkpt>
      <trkpt lat="50.44257" lon="5.53205">
        <ele>136</ele>
        <time>2019-05-01T10:29:37.000Z</time>
      </trkpt>
      <trkpt lat="50.44303" lon="5.53231">
        <ele>137.9</ele>
        <time>2019-05-01T10:29:40.000Z</time>
      </trkpt>
      <trkpt lat="50.44321" lon="5.53245">
        <ele>138.3</ele>
        <time>2019-05-01T10:29:41.000Z</time>
      </trkpt>
      <trkpt lat="50.44348" lon="5.53273">
        <ele>140.8</ele>
        <time>2019-05-01T10:29:44.000Z</time>
      </trkpt>
      <trkpt lat="50.44376" lon="5.53306">
        <ele>141.6</ele>
        <time>2019-05-01T10:29:47.000Z</time>
      </trkpt>
      <trkpt lat="50.44388" lon="5.53327">
        <ele>142.5</ele>
        <time>2019-05-01T10:29:50.000Z</time>
      </trkpt>
      <trkpt lat="50.44399" lon="5.53349">
        <ele>133.7</ele>
        <time>2019-05-01T10:29:52.000Z</time>
      </trkpt>
      <trkpt lat="50.44409" lon="5.5337">
        <ele>130.5</ele>
        <time>2019-05-01T10:29:58.000Z</time>
      </trkpt>
      <trkpt lat="50.44428" lon="5.53414">
        <ele>138.5</ele>
        <time>2019-05-01T10:29:59.000Z</time>
      </trkpt>
      <trkpt lat="50.44438" lon="5.53439">
        <ele>137.1</ele>
        <time>2019-05-01T10:30:01.000Z</time>
      </trkpt>
      <trkpt lat="50.44448" lon="5.53469">
        <ele>137.3</ele>
        <time>2019-05-01T10:30:04.000Z</time>
      </trkpt>
      <trkpt lat="50.4447" lon="5.53534">
        <ele>115</ele>
        <time>2019-05-01T10:30:12.000Z</time>
      </trkpt>
      <trkpt lat="50.44475" lon="5.53547">
        <ele>114.80000305176</ele>
        <time>2019-05-01T10:30:18.000Z</time>
      </trkpt>
      <trkpt lat="50.4449" lon="5.5359">
        <ele>114</ele>
        <time>2019-05-01T10:30:20.000Z</time>
      </trkpt>
      <trkpt lat="50.44508" lon="5.53645">
        <ele>112.59999847412</ele>
        <time>2019-05-01T10:30:27.000Z</time>
      </trkpt>
      <trkpt lat="50.44532" lon="5.53725">
        <ele>111.59999847412</ele>
        <time>2019-05-01T10:30:29.000Z</time>
      </trkpt>
      <trkpt lat="50.44539" lon="5.53752">
        <ele>111.59999847412</ele>
        <time>2019-05-01T10:30:37.000Z</time>
      </trkpt>
      <trkpt lat="50.44557" lon="5.53818">
        <ele>111.59999847412</ele>
        <time>2019-05-01T10:30:44.000Z</time>
      </trkpt>
      <trkpt lat="50.44569" lon="5.5387">
        <ele>111.80000305176</ele>
        <time>2019-05-01T10:30:50.000Z</time>
      </trkpt>
      <trkpt lat="50.4458" lon="5.53948">
        <ele>112.40000152588</ele>
        <time>2019-05-01T10:30:56.000Z</time>
      </trkpt>
      <trkpt lat="50.44581" lon="5.53986">
        <ele>112.40000152588</ele>
        <time>2019-05-01T10:31:00.000Z</time>
      </trkpt>
      <trkpt lat="50.44582" lon="5.54035">
        <ele>112.80000305176</ele>
        <time>2019-05-01T10:31:01.000Z</time>
      </trkpt>
      <trkpt lat="50.44583" lon="5.54125">
        <ele>113.40000152588</ele>
        <time>2019-05-01T10:31:05.000Z</time>
      </trkpt>
      <trkpt lat="50.44583" lon="5.54138">
        <ele>113.40000152588</ele>
        <time>2019-05-01T10:31:08.000Z</time>
      </trkpt>
      <trkpt lat="50.44591" lon="5.54173">
        <ele>113.59999847412</ele>
        <time>2019-05-01T10:31:21.000Z</time>
      </trkpt>
      <trkpt lat="50.44604" lon="5.54206">
        <ele>113.40000152588</ele>
        <time>2019-05-01T10:31:25.000Z</time>
      </trkpt>
      <trkpt lat="50.44614" lon="5.54226">
        <ele>113.59999847412</ele>
        <time>2019-05-01T10:31:29.000Z</time>
      </trkpt>
      <trkpt lat="50.44623" lon="5.54244">
        <ele>113.59999847412</ele>
        <time>2019-05-01T10:31:37.000Z</time>
      </trkpt>
      <trkpt lat="50.44637" lon="5.54281">
        <ele>113.80000305176</ele>
        <time>2019-05-01T10:31:39.000Z</time>
      </trkpt>
      <trkpt lat="50.44642" lon="5.54308">
        <ele>114.19999694824</ele>
        <time>2019-05-01T10:31:43.000Z</time>
      </trkpt>
      <trkpt lat="50.44643" lon="5.54326">
        <ele>114.59999847412</ele>
        <time>2019-05-01T10:31:47.000Z</time>
      </trkpt>
      <trkpt lat="50.44642" lon="5.54343">
        <ele>114.80000305176</ele>
        <time>2019-05-01T10:31:54.000Z</time>
      </trkpt>
      <trkpt lat="50.44641" lon="5.54351">
        <ele>115.19999694824</ele>
        <time>2019-05-01T10:31:56.000Z</time>
      </trkpt>
      <trkpt lat="50.44638" lon="5.54367">
        <ele>115.40000152588</ele>
        <time>2019-05-01T10:32:02.000Z</time>
      </trkpt>
      <trkpt lat="50.44634" lon="5.54382">
        <ele>115.80000305176</ele>
        <time>2019-05-01T10:32:09.000Z</time>
      </trkpt>
      <trkpt lat="50.44627" lon="5.54403">
        <ele>117</ele>
        <time>2019-05-01T10:32:10.000Z</time>
      </trkpt>
      <trkpt lat="50.44623" lon="5.54416">
        <ele>117.59999847412</ele>
        <time>2019-05-01T10:32:18.000Z</time>
      </trkpt>
      <trkpt lat="50.44618" lon="5.54429">
        <ele>118</ele>
        <time>2019-05-01T10:32:23.000Z</time>
      </trkpt>
      <trkpt lat="50.44611" lon="5.54456">
        <ele>119.19999694824</ele>
        <time>2019-05-01T10:32:26.000Z</time>
      </trkpt>
      <trkpt lat="50.4461" lon="5.54463">
        <ele>119.40000152588</ele>
        <time>2019-05-01T10:32:28.000Z</time>
      </trkpt>
      <trkpt lat="50.44607" lon="5.54493">
        <ele>120.40000152588</ele>
        <time>2019-05-01T10:32:32.000Z</time>
      </trkpt>
      <trkpt lat="50.44607" lon="5.54508">
        <ele>120.80000305176</ele>
        <time>2019-05-01T10:32:34.000Z</time>
      </trkpt>
      <trkpt lat="50.44608" lon="5.54531">
        <ele>121.40000152588</ele>
        <time>2019-05-01T10:32:41.000Z</time>
      </trkpt>
      <trkpt lat="50.44611" lon="5.54563">
        <ele>122</ele>
        <time>2019-05-01T10:32:48.000Z</time>
      </trkpt>
      <trkpt lat="50.44614" lon="5.54589">
        <ele>122.80000305176</ele>
        <time>2019-05-01T10:32:50.000Z</time>
      </trkpt>
      <trkpt lat="50.44616" lon="5.54606">
        <ele>123.19999694824</ele>
        <time>2019-05-01T10:32:52.000Z</time>
      </trkpt>
      <trkpt lat="50.44623" lon="5.54649">
        <ele>124</ele>
        <time>2019-05-01T10:32:57.000Z</time>
      </trkpt>
      <trkpt lat="50.44639" lon="5.54705">
        <ele>124.59999847412</ele>
        <time>2019-05-01T10:33:00.000Z</time>
      </trkpt>
      <trkpt lat="50.44649" lon="5.54726">
        <ele>125</ele>
        <time>2019-05-01T10:33:03.000Z</time>
      </trkpt>
      <trkpt lat="50.44661" lon="5.54745">
        <ele>125.19999694824</ele>
        <time>2019-05-01T10:33:04.000Z</time>
      </trkpt>
      <trkpt lat="50.44702" lon="5.54801">
        <ele>126</ele>
        <time>2019-05-01T10:33:10.000Z</time>
      </trkpt>
      <trkpt lat="50.44706" lon="5.54808">
        <ele>126</ele>
        <time>2019-05-01T10:33:14.000Z</time>
      </trkpt>
      <trkpt lat="50.44747" lon="5.54865">
        <ele>126.80000305176</ele>
        <time>2019-05-01T10:33:21.000Z</time>
      </trkpt>
      <trkpt lat="50.4476" lon="5.54886">
        <ele>127</ele>
        <time>2019-05-01T10:33:54.000Z</time>
      </trkpt>
      <trkpt lat="50.44772" lon="5.54909">
        <ele>127.19999694824</ele>
        <time>2019-05-01T10:33:59.000Z</time>
      </trkpt>
      <trkpt lat="50.4478" lon="5.54924">
        <ele>127.40000152588</ele>
        <time>2019-05-01T10:34:01.000Z</time>
      </trkpt>
      <trkpt lat="50.44789" lon="5.54949">
        <ele>127.80000305176</ele>
        <time>2019-05-01T10:34:04.000Z</time>
      </trkpt>
      <trkpt lat="50.4481" lon="5.55015">
        <ele>128.19999694824</ele>
        <time>2019-05-01T10:34:10.000Z</time>
      </trkpt>
      <trkpt lat="50.44813" lon="5.55023">
        <ele>128.39999389648</ele>
        <time>2019-05-01T10:34:17.000Z</time>
      </trkpt>
      <trkpt lat="50.44823" lon="5.55055">
        <ele>129.39999389648</ele>
        <time>2019-05-01T10:34:25.000Z</time>
      </trkpt>
      <trkpt lat="50.44837" lon="5.55092">
        <ele>130.39999389648</ele>
        <time>2019-05-01T10:34:33.000Z</time>
      </trkpt>
      <trkpt lat="50.4484" lon="5.55099">
        <ele>130.60000610352</ele>
        <time>2019-05-01T10:34:34.000Z</time>
      </trkpt>
      <trkpt lat="50.44858" lon="5.5514">
        <ele>131.60000610352</ele>
        <time>2019-05-01T10:34:42.000Z</time>
      </trkpt>
      <trkpt lat="50.44861" lon="5.55147">
        <ele>131.80000305176</ele>
        <time>2019-05-01T10:34:43.000Z</time>
      </trkpt>
      <trkpt lat="50.44877" lon="5.55179">
        <ele>132.80000305176</ele>
        <time>2019-05-01T10:34:45.000Z</time>
      </trkpt>
      <trkpt lat="50.44896" lon="5.55218">
        <ele>134</ele>
        <time>2019-05-01T10:34:53.000Z</time>
      </trkpt>
      <trkpt lat="50.44902" lon="5.55231">
        <ele>134.60000610352</ele>
        <time>2019-05-01T10:35:01.000Z</time>
      </trkpt>
      <trkpt lat="50.44911" lon="5.5525">
        <ele>135.19999694824</ele>
        <time>2019-05-01T10:35:08.000Z</time>
      </trkpt>
      <trkpt lat="50.44933" lon="5.55294">
        <ele>136.39999389648</ele>
        <time>2019-05-01T10:35:11.000Z</time>
      </trkpt>
      <trkpt lat="50.44936" lon="5.55301">
        <ele>136.60000610352</ele>
        <time>2019-05-01T10:35:15.000Z</time>
      </trkpt>
      <trkpt lat="50.44951" lon="5.55332">
        <ele>137.60000610352</ele>
        <time>2019-05-01T10:35:21.000Z</time>
      </trkpt>
      <trkpt lat="50.44965" lon="5.55363">
        <ele>138.60000610352</ele>
        <time>2019-05-01T10:35:28.000Z</time>
      </trkpt>
      <trkpt lat="50.44974" lon="5.55382">
        <ele>139.19999694824</ele>
        <time>2019-05-01T10:35:29.000Z</time>
      </trkpt>
      <trkpt lat="50.44983" lon="5.55401">
        <ele>139.80000305176</ele>
        <time>2019-05-01T10:35:36.000Z</time>
      </trkpt>
      <trkpt lat="50.44995" lon="5.55427">
        <ele>141</ele>
        <time>2019-05-01T10:35:38.000Z</time>
      </trkpt>
      <trkpt lat="50.4501" lon="5.5546">
        <ele>141.80000305176</ele>
        <time>2019-05-01T10:35:40.000Z</time>
      </trkpt>
      <trkpt lat="50.45013" lon="5.55468">
        <ele>142</ele>
        <time>2019-05-01T10:35:47.000Z</time>
      </trkpt>
      <trkpt lat="50.45015" lon="5.55475">
        <ele>142.19999694824</ele>
        <time>2019-05-01T10:35:54.000Z</time>
      </trkpt>
      <trkpt lat="50.45017" lon="5.555">
        <ele>142.80000305176</ele>
        <time>2019-05-01T10:36:00.000Z</time>
      </trkpt>
      <trkpt lat="50.45016" lon="5.55517">
        <ele>143.19999694824</ele>
        <time>2019-05-01T10:36:01.000Z</time>
      </trkpt>
      <trkpt lat="50.45013" lon="5.55533">
        <ele>143.39999389648</ele>
        <time>2019-05-01T10:36:03.000Z</time>
      </trkpt>
      <trkpt lat="50.45011" lon="5.55541">
        <ele>143.80000305176</ele>
        <time>2019-05-01T10:36:09.000Z</time>
      </trkpt>
      <trkpt lat="50.45005" lon="5.55564">
        <ele>144.39999389648</ele>
        <time>2019-05-01T10:36:16.000Z</time>
      </trkpt>
      <trkpt lat="50.44997" lon="5.55596">
        <ele>145.39999389648</ele>
        <time>2019-05-01T10:36:18.000Z</time>
      </trkpt>
      <trkpt lat="50.44991" lon="5.5562">
        <ele>146.60000610352</ele>
        <time>2019-05-01T10:36:25.000Z</time>
      </trkpt>
      <trkpt lat="50.44987" lon="5.55637">
        <ele>147</ele>
        <time>2019-05-01T10:36:39.000Z</time>
      </trkpt>
      <trkpt lat="50.44974" lon="5.557">
        <ele>147.60000610352</ele>
        <time>2019-05-01T10:36:41.000Z</time>
      </trkpt>
      <trkpt lat="50.44977" lon="5.55739">
        <ele>147.60000610352</ele>
        <time>2019-05-01T10:36:46.000Z</time>
      </trkpt>
      <trkpt lat="50.44985" lon="5.55775">
        <ele>150</ele>
        <time>2019-05-01T10:36:53.000Z</time>
      </trkpt>
      <trkpt lat="50.44996" lon="5.55796">
        <ele>150.3</ele>
        <time>2019-05-01T10:36:54.000Z</time>
      </trkpt>
      <trkpt lat="50.45007" lon="5.55818">
        <ele>145.60000610352</ele>
        <time>2019-05-01T10:37:01.000Z</time>
      </trkpt>
      <trkpt lat="50.45034" lon="5.55864">
        <ele>145.5</ele>
        <time>2019-05-01T10:37:03.000Z</time>
      </trkpt>
      <trkpt lat="50.45049" lon="5.55891">
        <ele>144.3</ele>
        <time>2019-05-01T10:37:07.000Z</time>
      </trkpt>
      <trkpt lat="50.45067" lon="5.55923">
        <ele>141.2</ele>
        <time>2019-05-01T10:37:12.000Z</time>
      </trkpt>
      <trkpt lat="50.45083" lon="5.55954">
        <ele>141.1</ele>
        <time>2019-05-01T10:37:19.000Z</time>
      </trkpt>
      <trkpt lat="50.45099" lon="5.55982">
        <ele>138.9</ele>
        <time>2019-05-01T10:37:28.000Z</time>
      </trkpt>
      <trkpt lat="50.45115" lon="5.56018">
        <ele>135.39999389648</ele>
        <time>2019-05-01T10:37:30.000Z</time>
      </trkpt>
      <trkpt lat="50.4513" lon="5.56053">
        <ele>134</ele>
        <time>2019-05-01T10:37:31.000Z</time>
      </trkpt>
      <trkpt lat="50.45136" lon="5.5607">
        <ele>133</ele>
        <time>2019-05-01T10:37:37.000Z</time>
      </trkpt>
      <trkpt lat="50.45151" lon="5.56106">
        <ele>131.80000305176</ele>
        <time>2019-05-01T10:38:27.000Z</time>
      </trkpt>
      <trkpt lat="50.45165" lon="5.56141">
        <ele>129.80000305176</ele>
        <time>2019-05-01T10:38:30.000Z</time>
      </trkpt>
      <trkpt lat="50.45174" lon="5.56156">
        <ele>128.80000305176</ele>
        <time>2019-05-01T10:38:38.000Z</time>
      </trkpt>
      <trkpt lat="50.45183" lon="5.56171">
        <ele>128</ele>
        <time>2019-05-01T10:38:44.000Z</time>
      </trkpt>
      <trkpt lat="50.45193" lon="5.56183">
        <ele>126.80000305176</ele>
        <time>2019-05-01T10:38:48.000Z</time>
      </trkpt>
      <trkpt lat="50.45217" lon="5.56198">
        <ele>127.3</ele>
        <time>2019-05-01T10:38:50.000Z</time>
      </trkpt>
      <trkpt lat="50.45241" lon="5.56219">
        <ele>126.4</ele>
        <time>2019-05-01T10:38:52.000Z</time>
      </trkpt>
      <trkpt lat="50.45266" lon="5.56237">
        <ele>124.8</ele>
        <time>2019-05-01T10:38:56.000Z</time>
      </trkpt>
      <trkpt lat="50.45289" lon="5.56256">
        <ele>120.3</ele>
        <time>2019-05-01T10:39:00.000Z</time>
      </trkpt>
      <trkpt lat="50.45319" lon="5.56278">
        <ele>119.4</ele>
        <time>2019-05-01T10:39:13.000Z</time>
      </trkpt>
      <trkpt lat="50.45342" lon="5.56295">
        <ele>116.6</ele>
        <time>2019-05-01T10:39:16.000Z</time>
      </trkpt>
      <trkpt lat="50.45355" lon="5.56314">
        <ele>115.6</ele>
        <time>2019-05-01T10:39:19.000Z</time>
      </trkpt>
      <trkpt lat="50.45367" lon="5.56335">
        <ele>111.6</ele>
        <time>2019-05-01T10:39:21.000Z</time>
      </trkpt>
      <trkpt lat="50.45377" lon="5.56372">
        <ele>110.6</ele>
        <time>2019-05-01T10:39:24.000Z</time>
      </trkpt>
      <trkpt lat="50.45382" lon="5.564">
        <ele>109.8</ele>
        <time>2019-05-01T10:40:20.000Z</time>
      </trkpt>
      <trkpt lat="50.45391" lon="5.56443">
        <ele>107.4</ele>
        <time>2019-05-01T10:40:32.000Z</time>
      </trkpt>
      <trkpt lat="50.45395" lon="5.56462">
        <ele>107.1</ele>
        <time>2019-05-01T10:40:38.000Z</time>
      </trkpt>
      <trkpt lat="50.454" lon="5.56487">
        <ele>106.7</ele>
        <time>2019-05-01T10:40:43.000Z</time>
      </trkpt>
      <trkpt lat="50.45409" lon="5.5652">
        <ele>106.1</ele>
        <time>2019-05-01T10:40:53.000Z</time>
      </trkpt>
      <trkpt lat="50.45426" lon="5.56543">
        <ele>106</ele>
        <time>2019-05-01T10:40:59.000Z</time>
      </trkpt>
      <trkpt lat="50.45457" lon="5.5656">
        <ele>106</ele>
        <time>2019-05-01T10:41:04.000Z</time>
      </trkpt>
      <trkpt lat="50.45475" lon="5.56569">
        <ele>106</ele>
        <time>2019-05-01T10:41:05.000Z</time>
      </trkpt>
      <trkpt lat="50.45503" lon="5.56584">
        <ele>106</ele>
        <time>2019-05-01T10:41:09.000Z</time>
      </trkpt>
      <trkpt lat="50.45526" lon="5.56579">
        <ele>107.3</ele>
        <time>2019-05-01T10:41:13.000Z</time>
      </trkpt>
      <trkpt lat="50.45567" lon="5.56562">
        <ele>108.1</ele>
        <time>2019-05-01T10:41:18.000Z</time>
      </trkpt>
      <trkpt lat="50.45609" lon="5.56553">
        <ele>114.4</ele>
        <time>2019-05-01T10:41:22.000Z</time>
      </trkpt>
      <trkpt lat="50.45647" lon="5.56565">
        <ele>115.7</ele>
        <time>2019-05-01T10:41:23.000Z</time>
      </trkpt>
      <trkpt lat="50.45663" lon="5.56572">
        <ele>115.1</ele>
        <time>2019-05-01T10:41:25.000Z</time>
      </trkpt>
      <trkpt lat="50.45698" lon="5.56586">
        <ele>112</ele>
        <time>2019-05-01T10:41:28.000Z</time>
      </trkpt>
      <trkpt lat="50.45736" lon="5.56588">
        <ele>113.5</ele>
        <time>2019-05-01T10:41:36.000Z</time>
      </trkpt>
      <trkpt lat="50.45794" lon="5.5657">
        <ele>117.9</ele>
        <time>2019-05-01T10:41:37.000Z</time>
      </trkpt>
      <trkpt lat="50.45843" lon="5.56554">
        <ele>117</ele>
        <time>2019-05-01T10:41:39.000Z</time>
      </trkpt>
      <trkpt lat="50.45881" lon="5.56544">
        <ele>119.5</ele>
        <time>2019-05-01T10:41:45.000Z</time>
      </trkpt>
      <trkpt lat="50.45912" lon="5.56531">
        <ele>122.5</ele>
        <time>2019-05-01T10:41:52.000Z</time>
      </trkpt>
      <trkpt lat="50.45942" lon="5.56521">
        <ele>121.7</ele>
        <time>2019-05-01T10:41:59.000Z</time>
      </trkpt>
      <trkpt lat="50.45975" lon="5.56504">
        <ele>119.9</ele>
        <time>2019-05-01T10:42:00.000Z</time>
      </trkpt>
      <trkpt lat="50.45987" lon="5.56501">
        <ele>110.19999694824</ele>
        <time>2019-05-01T10:42:01.000Z</time>
      </trkpt>
      <trkpt lat="50.45999" lon="5.56495">
        <ele>110.80000305176</ele>
        <time>2019-05-01T10:42:09.000Z</time>
      </trkpt>
      <trkpt lat="50.46039" lon="5.56474">
        <ele>111.40000152588</ele>
        <time>2019-05-01T10:42:17.000Z</time>
      </trkpt>
      <trkpt lat="50.46097" lon="5.56443">
        <ele>111.59999847412</ele>
        <time>2019-05-01T10:42:19.000Z</time>
      </trkpt>
      <trkpt lat="50.46154" lon="5.56413">
        <ele>111.59999847412</ele>
        <time>2019-05-01T10:42:22.000Z</time>
      </trkpt>
      <trkpt lat="50.46163" lon="5.56408">
        <ele>111.40000152588</ele>
        <time>2019-05-01T10:42:28.000Z</time>
      </trkpt>
      <trkpt lat="50.46216" lon="5.5639">
        <ele>111</ele>
        <time>2019-05-01T10:42:36.000Z</time>
      </trkpt>
      <trkpt lat="50.4626" lon="5.56389">
        <ele>110</ele>
        <time>2019-05-01T10:42:37.000Z</time>
      </trkpt>
      <trkpt lat="50.46278" lon="5.56392">
        <ele>109.40000152588</ele>
        <time>2019-05-01T10:42:39.000Z</time>
      </trkpt>
      <trkpt lat="50.46307" lon="5.56401">
        <ele>108.59999847412</ele>
        <time>2019-05-01T10:42:42.000Z</time>
      </trkpt>
      <trkpt lat="50.46317" lon="5.56404">
        <ele>108.19999694824</ele>
        <time>2019-05-01T10:42:43.000Z</time>
      </trkpt>
      <trkpt lat="50.46355" lon="5.56423">
        <ele>107.59999847412</ele>
        <time>2019-05-01T10:42:50.000Z</time>
      </trkpt>
      <trkpt lat="50.46364" lon="5.56429">
        <ele>107.59999847412</ele>
        <time>2019-05-01T10:42:54.000Z</time>
      </trkpt>
      <trkpt lat="50.46372" lon="5.56437">
        <ele>107.19999694824</ele>
        <time>2019-05-01T10:42:55.000Z</time>
      </trkpt>
      <trkpt lat="50.46388" lon="5.56455">
        <ele>106.59999847412</ele>
        <time>2019-05-01T10:42:57.000Z</time>
      </trkpt>
      <trkpt lat="50.46413" lon="5.56482">
        <ele>106</ele>
        <time>2019-05-01T10:42:59.000Z</time>
      </trkpt>
      <trkpt lat="50.46444" lon="5.5652">
        <ele>105</ele>
        <time>2019-05-01T10:43:01.000Z</time>
      </trkpt>
      <trkpt lat="50.46452" lon="5.5653">
        <ele>104.59999847412</ele>
        <time>2019-05-01T10:43:07.000Z</time>
      </trkpt>
      <trkpt lat="50.46481" lon="5.56573">
        <ele>104</ele>
        <time>2019-05-01T10:43:12.000Z</time>
      </trkpt>
      <trkpt lat="50.46494" lon="5.56596">
        <ele>103.80000305176</ele>
        <time>2019-05-01T10:43:18.000Z</time>
      </trkpt>
      <trkpt lat="50.46512" lon="5.56631">
        <ele>103.40000152588</ele>
        <time>2019-05-01T10:43:25.000Z</time>
      </trkpt>
      <trkpt lat="50.46527" lon="5.56668">
        <ele>103</ele>
        <time>2019-05-01T10:43:27.000Z</time>
      </trkpt>
      <trkpt lat="50.46536" lon="5.56707">
        <ele>102.40000152588</ele>
        <time>2019-05-01T10:43:34.000Z</time>
      </trkpt>
      <trkpt lat="50.46548" lon="5.56746">
        <ele>102.19999694824</ele>
        <time>2019-05-01T10:43:40.000Z</time>
      </trkpt>
      <trkpt lat="50.46561" lon="5.56798">
        <ele>101.59999847412</ele>
        <time>2019-05-01T10:43:48.000Z</time>
      </trkpt>
      <trkpt lat="50.4657" lon="5.56838">
        <ele>101.40000152588</ele>
        <time>2019-05-01T10:43:49.000Z</time>
      </trkpt>
      <trkpt lat="50.46572" lon="5.56851">
        <ele>101.19999694824</ele>
        <time>2019-05-01T10:43:57.000Z</time>
      </trkpt>
      <trkpt lat="50.46584" lon="5.56933">
        <ele>101</ele>
        <time>2019-05-01T10:44:02.000Z</time>
      </trkpt>
      <trkpt lat="50.46588" lon="5.57017">
        <ele>100.59999847412</ele>
        <time>2019-05-01T10:44:04.000Z</time>
      </trkpt>
      <trkpt lat="50.46593" lon="5.571">
        <ele>100.19999694824</ele>
        <time>2019-05-01T10:44:11.000Z</time>
      </trkpt>
      <trkpt lat="50.46594" lon="5.57115">
        <ele>100.19999694824</ele>
        <time>2019-05-01T10:44:13.000Z</time>
      </trkpt>
      <trkpt lat="50.46596" lon="5.57143">
        <ele>100</ele>
        <time>2019-05-01T10:44:20.000Z</time>
      </trkpt>
      <trkpt lat="50.46599" lon="5.57228">
        <ele>123.2</ele>
        <time>2019-05-01T10:44:21.000Z</time>
      </trkpt>
      <trkpt lat="50.46608" lon="5.5735">
        <ele>121.6</ele>
        <time>2019-05-01T10:44:28.000Z</time>
      </trkpt>
      <trkpt lat="50.46617" lon="5.57446">
        <ele>121.8</ele>
        <time>2019-05-01T10:44:35.000Z</time>
      </trkpt>
      <trkpt lat="50.46627" lon="5.57529">
        <ele>119.1</ele>
        <time>2019-05-01T10:44:37.000Z</time>
      </trkpt>
      <trkpt lat="50.46637" lon="5.57585">
        <ele>116.7</ele>
        <time>2019-05-01T10:44:45.000Z</time>
      </trkpt>
      <trkpt lat="50.46649" lon="5.57668">
        <ele>115.2</ele>
        <time>2019-05-01T10:44:46.000Z</time>
      </trkpt>
      <trkpt lat="50.46669" lon="5.57759">
        <ele>114.7</ele>
        <time>2019-05-01T10:44:50.000Z</time>
      </trkpt>
      <trkpt lat="50.4669" lon="5.5783">
        <ele>115.3</ele>
        <time>2019-05-01T10:44:57.000Z</time>
      </trkpt>
      <trkpt lat="50.46702" lon="5.57861">
        <ele>100.80000305176</ele>
        <time>2019-05-01T10:45:03.000Z</time>
      </trkpt>
      <trkpt lat="50.46724" lon="5.57916">
        <ele>100.80000305176</ele>
        <time>2019-05-01T10:45:10.000Z</time>
      </trkpt>
      <trkpt lat="50.46759" lon="5.57974">
        <ele>100.40000152588</ele>
        <time>2019-05-01T10:45:17.000Z</time>
      </trkpt>
      <trkpt lat="50.46805" lon="5.58032">
        <ele>100.40000152588</ele>
        <time>2019-05-01T10:45:21.000Z</time>
      </trkpt>
      <trkpt lat="50.46818" lon="5.58045">
        <ele>100.40000152588</ele>
        <time>2019-05-01T10:45:25.000Z</time>
      </trkpt>
      <trkpt lat="50.46834" lon="5.58055">
        <ele>100.40000152588</ele>
        <time>2019-05-01T10:45:30.000Z</time>
      </trkpt>
      <trkpt lat="50.46889" lon="5.58082">
        <ele>100.40000152588</ele>
        <time>2019-05-01T10:45:35.000Z</time>
      </trkpt>
      <trkpt lat="50.46897" lon="5.58086">
        <ele>100.40000152588</ele>
        <time>2019-05-01T10:45:45.000Z</time>
      </trkpt>
      <trkpt lat="50.46934" lon="5.58104">
        <ele>100.59999847412</ele>
        <time>2019-05-01T10:45:47.000Z</time>
      </trkpt>
      <trkpt lat="50.46942" lon="5.58105">
        <ele>100.59999847412</ele>
        <time>2019-05-01T10:45:51.000Z</time>
      </trkpt>
      <trkpt lat="50.4698" lon="5.58107">
        <ele>101</ele>
        <time>2019-05-01T10:45:53.000Z</time>
      </trkpt>
      <trkpt lat="50.47019" lon="5.58095">
        <ele>101.19999694824</ele>
        <time>2019-05-01T10:45:56.000Z</time>
      </trkpt>
      <trkpt lat="50.47056" lon="5.5808">
        <ele>101</ele>
        <time>2019-05-01T10:46:04.000Z</time>
      </trkpt>
      <trkpt lat="50.47101" lon="5.58064">
        <ele>100.80000305176</ele>
        <time>2019-05-01T10:46:10.000Z</time>
      </trkpt>
      <trkpt lat="50.47152" lon="5.58046">
        <ele>100.59999847412</ele>
        <time>2019-05-01T10:46:15.000Z</time>
      </trkpt>
      <trkpt lat="50.47209" lon="5.58023">
        <ele>99.199996948242</ele>
        <time>2019-05-01T10:46:18.000Z</time>
      </trkpt>
      <trkpt lat="50.47248" lon="5.58008">
        <ele>98.400001525879</ele>
        <time>2019-05-01T10:47:28.000Z</time>
      </trkpt>
      <trkpt lat="50.47278" lon="5.57995">
        <ele>98.199996948242</ele>
        <time>2019-05-01T10:47:29.000Z</time>
      </trkpt>
      <trkpt lat="50.47306" lon="5.57978">
        <ele>97.599998474121</ele>
        <time>2019-05-01T10:47:33.000Z</time>
      </trkpt>
      <trkpt lat="50.47322" lon="5.5796">
        <ele>96.800003051758</ele>
        <time>2019-05-01T10:47:36.000Z</time>
      </trkpt>
      <trkpt lat="50.4733" lon="5.5795">
        <ele>96.599998474121</ele>
        <time>2019-05-01T10:47:37.000Z</time>
      </trkpt>
      <trkpt lat="50.47336" lon="5.57941">
        <ele>96.599998474121</ele>
        <time>2019-05-01T10:47:39.000Z</time>
      </trkpt>
      <trkpt lat="50.47356" lon="5.5791">
        <ele>95.800003051758</ele>
        <time>2019-05-01T10:47:44.000Z</time>
      </trkpt>
      <trkpt lat="50.47375" lon="5.5788">
        <ele>95.400001525879</ele>
        <time>2019-05-01T10:47:47.000Z</time>
      </trkpt>
      <trkpt lat="50.47401" lon="5.57841">
        <ele>94.800003051758</ele>
        <time>2019-05-01T10:47:52.000Z</time>
      </trkpt>
      <trkpt lat="50.47434" lon="5.57795">
        <ele>94.400001525879</ele>
        <time>2019-05-01T10:47:56.000Z</time>
      </trkpt>
      <trkpt lat="50.47465" lon="5.57772">
        <ele>94.400001525879</ele>
        <time>2019-05-01T10:48:01.000Z</time>
      </trkpt>
      <trkpt lat="50.47473" lon="5.57768">
        <ele>94.400001525879</ele>
        <time>2019-05-01T10:48:02.000Z</time>
      </trkpt>
      <trkpt lat="50.47498" lon="5.57765">
        <ele>94.400001525879</ele>
        <time>2019-05-01T10:48:07.000Z</time>
      </trkpt>
      <trkpt lat="50.47507" lon="5.57765">
        <ele>94.599998474121</ele>
        <time>2019-05-01T10:48:10.000Z</time>
      </trkpt>
      <trkpt lat="50.47524" lon="5.57767">
        <ele>94.599998474121</ele>
        <time>2019-05-01T10:48:16.000Z</time>
      </trkpt>
      <trkpt lat="50.47549" lon="5.57775">
        <ele>94.599998474121</ele>
        <time>2019-05-01T10:48:22.000Z</time>
      </trkpt>
      <trkpt lat="50.47592" lon="5.57793">
        <ele>94.800003051758</ele>
        <time>2019-05-01T10:48:27.000Z</time>
      </trkpt>
      <trkpt lat="50.47619" lon="5.57809">
        <ele>95.199996948242</ele>
        <time>2019-05-01T10:48:29.000Z</time>
      </trkpt>
      <trkpt lat="50.4763" lon="5.57817">
        <ele>95.800003051758</ele>
        <time>2019-05-01T10:48:33.000Z</time>
      </trkpt>
      <trkpt lat="50.47649" lon="5.57833">
        <ele>96.400001525879</ele>
        <time>2019-05-01T10:48:38.000Z</time>
      </trkpt>
      <trkpt lat="50.47685" lon="5.5787">
        <ele>96.400001525879</ele>
        <time>2019-05-01T10:48:40.000Z</time>
      </trkpt>
      <trkpt lat="50.47715" lon="5.57904">
        <ele>96.400001525879</ele>
        <time>2019-05-01T10:48:45.000Z</time>
      </trkpt>
      <trkpt lat="50.47742" lon="5.57942">
        <ele>95.400001525879</ele>
        <time>2019-05-01T10:48:47.000Z</time>
      </trkpt>
      <trkpt lat="50.47759" lon="5.57989">
        <ele>95.199996948242</ele>
        <time>2019-05-01T10:48:51.000Z</time>
      </trkpt>
      <trkpt lat="50.47765" lon="5.58042">
        <ele>95</ele>
        <time>2019-05-01T10:48:56.000Z</time>
      </trkpt>
      <trkpt lat="50.47764" lon="5.58084">
        <ele>95</ele>
        <time>2019-05-01T10:48:57.000Z</time>
      </trkpt>
      <trkpt lat="50.47763" lon="5.58097">
        <ele>95</ele>
        <time>2019-05-01T10:49:03.000Z</time>
      </trkpt>
      <trkpt lat="50.47761" lon="5.58111">
        <ele>95</ele>
        <time>2019-05-01T10:49:06.000Z</time>
      </trkpt>
      <trkpt lat="50.47753" lon="5.58149">
        <ele>95</ele>
        <time>2019-05-01T10:49:10.000Z</time>
      </trkpt>
      <trkpt lat="50.47732" lon="5.5821">
        <ele>95</ele>
        <time>2019-05-01T10:49:16.000Z</time>
      </trkpt>
      <trkpt lat="50.47698" lon="5.58291">
        <ele>95</ele>
        <time>2019-05-01T10:49:18.000Z</time>
      </trkpt>
      <trkpt lat="50.47694" lon="5.58302">
        <ele>95</ele>
        <time>2019-05-01T10:49:25.000Z</time>
      </trkpt>
      <trkpt lat="50.47675" lon="5.58362">
        <ele>95</ele>
        <time>2019-05-01T10:49:27.000Z</time>
      </trkpt>
      <trkpt lat="50.47656" lon="5.58452">
        <ele>95</ele>
        <time>2019-05-01T10:49:32.000Z</time>
      </trkpt>
      <trkpt lat="50.47637" lon="5.58545">
        <ele>95</ele>
        <time>2019-05-01T10:49:36.000Z</time>
      </trkpt>
      <trkpt lat="50.47634" lon="5.58613">
        <ele>95.199996948242</ele>
        <time>2019-05-01T10:49:38.000Z</time>
      </trkpt>
      <trkpt lat="50.47642" lon="5.58665">
        <ele>95.199996948242</ele>
        <time>2019-05-01T10:49:42.000Z</time>
      </trkpt>
      <trkpt lat="50.47663" lon="5.58711">
        <ele>95.199996948242</ele>
        <time>2019-05-01T10:49:44.000Z</time>
      </trkpt>
      <trkpt lat="50.47668" lon="5.58721">
        <ele>95.199996948242</ele>
        <time>2019-05-01T10:49:50.000Z</time>
      </trkpt>
      <trkpt lat="50.477" lon="5.58767">
        <ele>95</ele>
        <time>2019-05-01T10:49:52.000Z</time>
      </trkpt>
      <trkpt lat="50.47751" lon="5.58824">
        <ele>95</ele>
        <time>2019-05-01T10:49:59.000Z</time>
      </trkpt>
      <trkpt lat="50.47766" lon="5.5884">
        <ele>95</ele>
        <time>2019-05-01T10:50:07.000Z</time>
      </trkpt>
      <trkpt lat="50.47805" lon="5.58874">
        <ele>94.800003051758</ele>
        <time>2019-05-01T10:50:08.000Z</time>
      </trkpt>
      <trkpt lat="50.47814" lon="5.58878">
        <ele>94.800003051758</ele>
        <time>2019-05-01T10:50:11.000Z</time>
      </trkpt>
      <trkpt lat="50.47856" lon="5.58884">
        <ele>94.599998474121</ele>
        <time>2019-05-01T10:50:16.000Z</time>
      </trkpt>
      <trkpt lat="50.47879" lon="5.5888">
        <ele>94.599998474121</ele>
        <time>2019-05-01T10:50:23.000Z</time>
      </trkpt>
      <trkpt lat="50.47892" lon="5.58874">
        <ele>94.800003051758</ele>
        <time>2019-05-01T10:50:30.000Z</time>
      </trkpt>
      <trkpt lat="50.47904" lon="5.58865">
        <ele>94.800003051758</ele>
        <time>2019-05-01T10:50:31.000Z</time>
      </trkpt>
      <trkpt lat="50.47915" lon="5.58855">
        <ele>113.2</ele>
        <time>2019-05-01T10:50:38.000Z</time>
      </trkpt>
      <trkpt lat="50.47924" lon="5.58842">
        <ele>113</ele>
        <time>2019-05-01T10:51:03.000Z</time>
      </trkpt>
      <trkpt lat="50.47936" lon="5.58869">
        <ele>95.199996948242</ele>
        <time>2019-05-01T10:51:24.000Z</time>
      </trkpt>
      <trkpt lat="50.47947" lon="5.58899">
        <ele>95.599998474121</ele>
        <time>2019-05-01T10:51:25.000Z</time>
      </trkpt>
      <trkpt lat="50.47967" lon="5.58965">
        <ele>96.400001525879</ele>
        <time>2019-05-01T10:51:28.000Z</time>
      </trkpt>
      <trkpt lat="50.47975" lon="5.59018">
        <ele>96.599998474121</ele>
        <time>2019-05-01T10:51:30.000Z</time>
      </trkpt>
      <trkpt lat="50.47979" lon="5.5905">
        <ele>96</ele>
        <time>2019-05-01T10:51:31.000Z</time>
      </trkpt>
      <trkpt lat="50.47981" lon="5.59057">
        <ele>96</ele>
        <time>2019-05-01T10:51:32.000Z</time>
      </trkpt>
      <trkpt lat="50.47995" lon="5.5907">
        <ele>96</ele>
        <time>2019-05-01T10:51:47.000Z</time>
      </trkpt>
      <trkpt lat="50.48011" lon="5.59075">
        <ele>95.800003051758</ele>
        <time>2019-05-01T10:51:52.000Z</time>
      </trkpt>
      <trkpt lat="50.4803" lon="5.59079">
        <ele>95.599998474121</ele>
        <time>2019-05-01T10:51:56.000Z</time>
      </trkpt>
      <trkpt lat="50.48034" lon="5.5908">
        <ele>95.599998474121</ele>
        <time>2019-05-01T10:51:59.000Z</time>
      </trkpt>
      <trkpt lat="50.48056" lon="5.59085">
        <ele>95.599998474121</ele>
        <time>2019-05-01T10:52:00.000Z</time>
      </trkpt>
      <trkpt lat="50.48097" lon="5.59095">
        <ele>95.800003051758</ele>
        <time>2019-05-01T10:52:03.000Z</time>
      </trkpt>
      <trkpt lat="50.4815" lon="5.59109">
        <ele>96.400001525879</ele>
        <time>2019-05-01T10:57:03.000Z</time>
      </trkpt>
      <trkpt lat="50.48191" lon="5.59118">
        <ele>96.599998474121</ele>
        <time>2019-05-01T10:57:04.000Z</time>
      </trkpt>
      <trkpt lat="50.48219" lon="5.59124">
        <ele>97.199996948242</ele>
        <time>2019-05-01T10:57:05.000Z</time>
      </trkpt>
      <trkpt lat="50.4823" lon="5.59121">
        <ele>97.199996948242</ele>
        <time>2019-05-01T10:57:07.000Z</time>
      </trkpt>
      <trkpt lat="50.48241" lon="5.59102">
        <ele>97.199996948242</ele>
        <time>2019-05-01T10:57:10.000Z</time>
      </trkpt>
      <trkpt lat="50.48244" lon="5.59086">
        <ele>97.199996948242</ele>
        <time>2019-05-01T10:57:12.000Z</time>
      </trkpt>
      <trkpt lat="50.48245" lon="5.59071">
        <ele>97.199996948242</ele>
        <time>2019-05-01T10:57:13.000Z</time>
      </trkpt>
      <trkpt lat="50.48247" lon="5.59038">
        <ele>97.599998474121</ele>
        <time>2019-05-01T10:57:18.000Z</time>
      </trkpt>
      <trkpt lat="50.48248" lon="5.5903">
        <ele>98</ele>
        <time>2019-05-01T10:57:22.000Z</time>
      </trkpt>
      <trkpt lat="50.48249" lon="5.59008">
        <ele>99</ele>
        <time>2019-05-01T10:57:25.000Z</time>
      </trkpt>
      <trkpt lat="50.48251" lon="5.58986">
        <ele>100.19999694824</ele>
        <time>2019-05-01T10:57:32.000Z</time>
      </trkpt>
      <trkpt lat="50.48252" lon="5.58978">
        <ele>100.40000152588</ele>
        <time>2019-05-01T10:57:33.000Z</time>
      </trkpt>
      <trkpt lat="50.48255" lon="5.58955">
        <ele>101.19999694824</ele>
        <time>2019-05-01T10:57:38.000Z</time>
      </trkpt>
      <trkpt lat="50.48261" lon="5.58923">
        <ele>102.40000152588</ele>
        <time>2019-05-01T10:57:39.000Z</time>
      </trkpt>
      <trkpt lat="50.48269" lon="5.58902">
        <ele>103.40000152588</ele>
        <time>2019-05-01T10:57:43.000Z</time>
      </trkpt>
      <trkpt lat="50.48277" lon="5.58883">
        <ele>104</ele>
        <time>2019-05-01T10:57:44.000Z</time>
      </trkpt>
      <trkpt lat="50.48282" lon="5.58869">
        <ele>104.59999847412</ele>
        <time>2019-05-01T10:57:47.000Z</time>
      </trkpt>
      <trkpt lat="50.4829" lon="5.58845">
        <ele>116</ele>
        <time>2019-05-01T10:57:50.000Z</time>
      </trkpt>
      <trkpt lat="50.48301" lon="5.58819">
        <ele>112</ele>
        <time>2019-05-01T10:57:51.000Z</time>
      </trkpt>
      <trkpt lat="50.48311" lon="5.58812">
        <ele>113.1</ele>
        <time>2019-05-01T10:57:54.000Z</time>
      </trkpt>
      <trkpt lat="50.48331" lon="5.58803">
        <ele>113.8</ele>
        <time>2019-05-01T10:57:55.000Z</time>
      </trkpt>
      <trkpt lat="50.48343" lon="5.5879">
        <ele>123.1</ele>
        <time>2019-05-01T10:57:56.000Z</time>
      </trkpt>
      <trkpt lat="50.48366" lon="5.58757">
        <ele>122</ele>
        <time>2019-05-01T10:57:58.000Z</time>
      </trkpt>
      <trkpt lat="50.48376" lon="5.58738">
        <ele>109</ele>
        <time>2019-05-01T10:58:00.000Z</time>
      </trkpt>
      <trkpt lat="50.48375" lon="5.58716">
        <ele>108.19999694824</ele>
        <time>2019-05-01T10:58:02.000Z</time>
      </trkpt>
      <trkpt lat="50.48374" lon="5.58705">
        <ele>107.59999847412</ele>
        <time>2019-05-01T10:58:05.000Z</time>
      </trkpt>
      <trkpt lat="50.48374" lon="5.58695">
        <ele>107</ele>
        <time>2019-05-01T10:58:08.000Z</time>
      </trkpt>
      <trkpt lat="50.48378" lon="5.58686">
        <ele>106.40000152588</ele>
        <time>2019-05-01T10:58:15.000Z</time>
      </trkpt>
      <trkpt lat="50.48384" lon="5.58679">
        <ele>105.80000305176</ele>
        <time>2019-05-01T10:58:17.000Z</time>
      </trkpt>
      <trkpt lat="50.48391" lon="5.58674">
        <ele>105.19999694824</ele>
        <time>2019-05-01T10:58:18.000Z</time>
      </trkpt>
      <trkpt lat="50.48399" lon="5.58668">
        <ele>105</ele>
        <time>2019-05-01T10:58:20.000Z</time>
      </trkpt>
      <trkpt lat="50.48406" lon="5.58662">
        <ele>104.59999847412</ele>
        <time>2019-05-01T10:58:21.000Z</time>
      </trkpt>
      <trkpt lat="50.48431" lon="5.58642">
        <ele>103.40000152588</ele>
        <time>2019-05-01T10:58:22.000Z</time>
      </trkpt>
      <trkpt lat="50.48449" lon="5.58627">
        <ele>102.59999847412</ele>
        <time>2019-05-01T10:58:24.000Z</time>
      </trkpt>
      <trkpt lat="50.48458" lon="5.5862">
        <ele>102</ele>
        <time>2019-05-01T10:58:25.000Z</time>
      </trkpt>
      <trkpt lat="50.48467" lon="5.58612">
        <ele>101</ele>
        <time>2019-05-01T10:58:28.000Z</time>
      </trkpt>
      <trkpt lat="50.48484" lon="5.58599">
        <ele>99.800003051758</ele>
        <time>2019-05-01T10:58:30.000Z</time>
      </trkpt>
      <trkpt lat="50.48499" lon="5.58586">
        <ele>98.800003051758</ele>
        <time>2019-05-01T10:58:31.000Z</time>
      </trkpt>
      <trkpt lat="50.48506" lon="5.58579">
        <ele>98.199996948242</ele>
        <time>2019-05-01T10:58:32.000Z</time>
      </trkpt>
      <trkpt lat="50.48521" lon="5.58568">
        <ele>97</ele>
        <time>2019-05-01T10:58:33.000Z</time>
      </trkpt>
      <trkpt lat="50.48542" lon="5.58552">
        <ele>96</ele>
        <time>2019-05-01T10:58:39.000Z</time>
      </trkpt>
      <trkpt lat="50.48549" lon="5.58547">
        <ele>95.800003051758</ele>
        <time>2019-05-01T10:58:52.000Z</time>
      </trkpt>
      <trkpt lat="50.48598" lon="5.58518">
        <ele>95</ele>
      </trkpt>
      <trkpt lat="50.48605" lon="5.58515">
        <ele>95</ele>
      </trkpt>
      <trkpt lat="50.48648" lon="5.58499">
        <ele>94.800003051758</ele>
      </trkpt>
      <trkpt lat="50.4868" lon="5.58487">
        <ele>94.800003051758</ele>
      </trkpt>
      <trkpt lat="50.48705" lon="5.58479">
        <ele>94.599998474121</ele>
      </trkpt>
      <trkpt lat="50.48731" lon="5.58474">
        <ele>93.599998474121</ele>
      </trkpt>
      <trkpt lat="50.48757" lon="5.58472">
        <ele>92.599998474121</ele>
      </trkpt>
      <trkpt lat="50.48792" lon="5.58472">
        <ele>91.599998474121</ele>
      </trkpt>
      <trkpt lat="50.48816" lon="5.58474">
        <ele>91</ele>
      </trkpt>
      <trkpt lat="50.48857" lon="5.5848">
        <ele>90.400001525879</ele>
      </trkpt>
      <trkpt lat="50.48873" lon="5.58483">
        <ele>90.400001525879</ele>
      </trkpt>
      <trkpt lat="50.48911" lon="5.58494">
        <ele>90.199996948242</ele>
      </trkpt>
      <trkpt lat="50.48919" lon="5.58497">
        <ele>90.199996948242</ele>
      </trkpt>
      <trkpt lat="50.4896" lon="5.58519">
        <ele>99.8</ele>
      </trkpt>
      <trkpt lat="50.49003" lon="5.58549">
        <ele>99.4</ele>
      </trkpt>
      <trkpt lat="50.49051" lon="5.58592">
        <ele>89.800003051758</ele>
      </trkpt>
      <trkpt lat="50.49089" lon="5.58627">
        <ele>89.800003051758</ele>
      </trkpt>
      <trkpt lat="50.49128" lon="5.58659">
        <ele>90</ele>
      </trkpt>
      <trkpt lat="50.49174" lon="5.58699">
        <ele>90</ele>
      </trkpt>
      <trkpt lat="50.49186" lon="5.58712">
        <ele>90</ele>
      </trkpt>
      <trkpt lat="50.49203" lon="5.58734">
        <ele>89.800003051758</ele>
      </trkpt>
      <trkpt lat="50.49243" lon="5.5878">
        <ele>90</ele>
      </trkpt>
      <trkpt lat="50.49283" lon="5.58829">
        <ele>89.800003051758</ele>
      </trkpt>
      <trkpt lat="50.49319" lon="5.58886">
        <ele>89.800003051758</ele>
      </trkpt>
      <trkpt lat="50.4935" lon="5.58934">
        <ele>89.599998474121</ele>
      </trkpt>
      <trkpt lat="50.49397" lon="5.59007">
        <ele>89.599998474121</ele>
      </trkpt>
      <trkpt lat="50.4944" lon="5.5906">
        <ele>90.199996948242</ele>
      </trkpt>
      <trkpt lat="50.49491" lon="5.59112">
        <ele>89.800003051758</ele>
      </trkpt>
      <trkpt lat="50.49524" lon="5.59137">
        <ele>89.599998474121</ele>
      </trkpt>
      <trkpt lat="50.49571" lon="5.59166">
        <ele>97.5</ele>
      </trkpt>
      <trkpt lat="50.49596" lon="5.59186">
        <ele>97.5</ele>
      </trkpt>
      <trkpt lat="50.4961" lon="5.5921">
        <ele>98.2</ele>
      </trkpt>
      <trkpt lat="50.49623" lon="5.5922">
        <ele>98.2</ele>
      </trkpt>
      <trkpt lat="50.49643" lon="5.5923">
        <ele>97.9</ele>
      </trkpt>
      <trkpt lat="50.49661" lon="5.59242">
        <ele>96.9</ele>
      </trkpt>
      <trkpt lat="50.49704" lon="5.59291">
        <ele>97.5</ele>
      </trkpt>
      <trkpt lat="50.49737" lon="5.5934">
        <ele>88.800003051758</ele>
      </trkpt>
      <trkpt lat="50.49781" lon="5.59395">
        <ele>88.599998474121</ele>
      </trkpt>
      <trkpt lat="50.49794" lon="5.5941">
        <ele>88.599998474121</ele>
      </trkpt>
      <trkpt lat="50.49843" lon="5.59458">
        <ele>88.599998474121</ele>
      </trkpt>
      <trkpt lat="50.49857" lon="5.59472">
        <ele>88.599998474121</ele>
      </trkpt>
      <trkpt lat="50.49906" lon="5.59515">
        <ele>88.599998474121</ele>
      </trkpt>
      <trkpt lat="50.49927" lon="5.59532">
        <ele>88.599998474121</ele>
      </trkpt>
      <trkpt lat="50.49977" lon="5.59571">
        <ele>88.400001525879</ele>
      </trkpt>
      <trkpt lat="50.49992" lon="5.59582">
        <ele>88.400001525879</ele>
      </trkpt>
      <trkpt lat="50.50032" lon="5.59597">
        <ele>94.3</ele>
      </trkpt>
      <trkpt lat="50.50057" lon="5.59605">
        <ele>94</ele>
      </trkpt>
      <trkpt lat="50.50107" lon="5.5962">
        <ele>93.7</ele>
      </trkpt>
      <trkpt lat="50.50131" lon="5.59629">
        <ele>93.8</ele>
      </trkpt>
      <trkpt lat="50.50146" lon="5.59646">
        <ele>88</ele>
      </trkpt>
      <trkpt lat="50.50169" lon="5.59684">
        <ele>87.800003051758</ele>
      </trkpt>
      <trkpt lat="50.50199" lon="5.59729">
        <ele>87.800003051758</ele>
      </trkpt>
      <trkpt lat="50.5023" lon="5.59766">
        <ele>88</ele>
      </trkpt>
      <trkpt lat="50.50243" lon="5.59774">
        <ele>88.199996948242</ele>
      </trkpt>
      <trkpt lat="50.50256" lon="5.59761">
        <ele>98.1</ele>
      </trkpt>
      <trkpt lat="50.50281" lon="5.59732">
        <ele>97.2</ele>
      </trkpt>
      <trkpt lat="50.5031" lon="5.59711">
        <ele>97.5</ele>
      </trkpt>
      <trkpt lat="50.50324" lon="5.59706">
        <ele>97.5</ele>
      </trkpt>
      <trkpt lat="50.50327" lon="5.59663">
        <ele>94.7</ele>
      </trkpt>
      <trkpt lat="50.50331" lon="5.59579">
        <ele>95.599998474121</ele>
      </trkpt>
      <trkpt lat="50.50334" lon="5.59506">
        <ele>95.800003051758</ele>
      </trkpt>
      <trkpt lat="50.50337" lon="5.59424">
        <ele>95.800003051758</ele>
      </trkpt>
      <trkpt lat="50.50338" lon="5.59398">
        <ele>95.800003051758</ele>
      </trkpt>
      <trkpt lat="50.50339" lon="5.59369">
        <ele>108.9</ele>
      </trkpt>
      <trkpt lat="50.50359" lon="5.59368">
        <ele>108.8</ele>
      </trkpt>
      <trkpt lat="50.50374" lon="5.59371">
        <ele>108.4</ele>
      </trkpt>
      <trkpt lat="50.50393" lon="5.59365">
        <ele>109</ele>
      </trkpt>
      <trkpt lat="50.50451" lon="5.5935">
        <ele>97.400001525879</ele>
      </trkpt>
      <trkpt lat="50.50507" lon="5.59332">
        <ele>96.599998474121</ele>
      </trkpt>
      <trkpt lat="50.50515" lon="5.5933">
        <ele>96.400001525879</ele>
      </trkpt>
      <trkpt lat="50.5054" lon="5.59324">
        <ele>95.800003051758</ele>
      </trkpt>
      <trkpt lat="50.50583" lon="5.59314">
        <ele>95</ele>
      </trkpt>
      <trkpt lat="50.50592" lon="5.59312">
        <ele>94.800003051758</ele>
      </trkpt>
      <trkpt lat="50.50635" lon="5.59305">
        <ele>93.800003051758</ele>
      </trkpt>
      <trkpt lat="50.50644" lon="5.59304">
        <ele>93.800003051758</ele>
      </trkpt>
      <trkpt lat="50.50689" lon="5.59299">
        <ele>93</ele>
      </trkpt>
      <trkpt lat="50.50707" lon="5.59295">
        <ele>92.800003051758</ele>
      </trkpt>
      <trkpt lat="50.50715" lon="5.59292">
        <ele>92.599998474121</ele>
      </trkpt>
      <trkpt lat="50.50731" lon="5.59285">
        <ele>92.599998474121</ele>
      </trkpt>
      <trkpt lat="50.50779" lon="5.5925">
        <ele>92.599998474121</ele>
      </trkpt>
      <trkpt lat="50.50785" lon="5.59243">
        <ele>92.599998474121</ele>
      </trkpt>
      <trkpt lat="50.50798" lon="5.59215">
        <ele>93.400001525879</ele>
      </trkpt>
      <trkpt lat="50.50803" lon="5.59206">
        <ele>93.599998474121</ele>
      </trkpt>
      <trkpt lat="50.5081" lon="5.59185">
        <ele>94.800003051758</ele>
      </trkpt>
      <trkpt lat="50.50825" lon="5.59143">
        <ele>95.800003051758</ele>
      </trkpt>
      <trkpt lat="50.50828" lon="5.59133">
        <ele>96</ele>
      </trkpt>
      <trkpt lat="50.50839" lon="5.591">
        <ele>96.800003051758</ele>
      </trkpt>
      <trkpt lat="50.50843" lon="5.59076">
        <ele>97.599998474121</ele>
      </trkpt>
      <trkpt lat="50.50845" lon="5.59064">
        <ele>97.800003051758</ele>
      </trkpt>
      <trkpt lat="50.50849" lon="5.59016">
        <ele>99</ele>
      </trkpt>
      <trkpt lat="50.50851" lon="5.58991">
        <ele>99.199996948242</ele>
      </trkpt>
      <trkpt lat="50.50859" lon="5.58905">
        <ele>100</ele>
      </trkpt>
      <trkpt lat="50.50861" lon="5.58894">
        <ele>100.19999694824</ele>
      </trkpt>
      <trkpt lat="50.50862" lon="5.58883">
        <ele>100.19999694824</ele>
      </trkpt>
      <trkpt lat="50.50879" lon="5.58821">
        <ele>100.59999847412</ele>
      </trkpt>
      <trkpt lat="50.50888" lon="5.5879">
        <ele>101.19999694824</ele>
      </trkpt>
      <trkpt lat="50.50902" lon="5.58745">
        <ele>101.40000152588</ele>
      </trkpt>
      <trkpt lat="50.50928" lon="5.58662">
        <ele>101.40000152588</ele>
      </trkpt>
      <trkpt lat="50.5094" lon="5.58625">
        <ele>100.59999847412</ele>
      </trkpt>
      <trkpt lat="50.50944" lon="5.58613">
        <ele>100</ele>
      </trkpt>
      <trkpt lat="50.50962" lon="5.58551">
        <ele>98.800003051758</ele>
      </trkpt>
      <trkpt lat="50.50968" lon="5.58523">
        <ele>98.400001525879</ele>
      </trkpt>
      <trkpt lat="50.50975" lon="5.58462">
        <ele>98.199996948242</ele>
      </trkpt>
      <trkpt lat="50.50974" lon="5.58413">
        <ele>97.599998474121</ele>
      </trkpt>
      <trkpt lat="50.50973" lon="5.58396">
        <ele>97.400001525879</ele>
      </trkpt>
      <trkpt lat="50.50968" lon="5.58363">
        <ele>96.599998474121</ele>
      </trkpt>
      <trkpt lat="50.50962" lon="5.58313">
        <ele>95.400001525879</ele>
      </trkpt>
      <trkpt lat="50.50954" lon="5.58263">
        <ele>93.800003051758</ele>
      </trkpt>
      <trkpt lat="50.50947" lon="5.58213">
        <ele>92.599998474121</ele>
      </trkpt>
      <trkpt lat="50.50937" lon="5.58165">
        <ele>91.400001525879</ele>
      </trkpt>
      <trkpt lat="50.50934" lon="5.5815">
        <ele>91</ele>
      </trkpt>
      <trkpt lat="50.50928" lon="5.5812">
        <ele>90</ele>
      </trkpt>
      <trkpt lat="50.5092" lon="5.58076">
        <ele>88.800003051758</ele>
      </trkpt>
      <trkpt lat="50.50912" lon="5.58048">
        <ele>88.599998474121</ele>
      </trkpt>
      <trkpt lat="50.50885" lon="5.57972">
        <ele>88.599998474121</ele>
      </trkpt>
      <trkpt lat="50.5088" lon="5.57959">
        <ele>88.599998474121</ele>
      </trkpt>
      <trkpt lat="50.50856" lon="5.57901">
        <ele>89.199996948242</ele>
      </trkpt>
      <trkpt lat="50.50849" lon="5.57878">
        <ele>89.800003051758</ele>
      </trkpt>
      <trkpt lat="50.50838" lon="5.57828">
        <ele>91</ele>
      </trkpt>
      <trkpt lat="50.50835" lon="5.57803">
        <ele>91</ele>
      </trkpt>
      <trkpt lat="50.50818" lon="5.57741">
        <ele>91</ele>
      </trkpt>
      <trkpt lat="50.5079" lon="5.57655">
        <ele>91</ele>
      </trkpt>
      <trkpt lat="50.50783" lon="5.57631">
        <ele>90.599998474121</ele>
      </trkpt>
      <trkpt lat="50.50772" lon="5.57595">
        <ele>90</ele>
      </trkpt>
      <trkpt lat="50.50756" lon="5.57548">
        <ele>89.400001525879</ele>
      </trkpt>
      <trkpt lat="50.50736" lon="5.57489">
        <ele>88.800003051758</ele>
      </trkpt>
      <trkpt lat="50.50717" lon="5.5743">
        <ele>88.599998474121</ele>
      </trkpt>
      <trkpt lat="50.5069" lon="5.5735">
        <ele>88.400001525879</ele>
      </trkpt>
      <trkpt lat="50.50679" lon="5.57316">
        <ele>88.199996948242</ele>
      </trkpt>
      <trkpt lat="50.50652" lon="5.57238">
        <ele>88.199996948242</ele>
      </trkpt>
      <trkpt lat="50.50626" lon="5.57159">
        <ele>88.199996948242</ele>
      </trkpt>
      <trkpt lat="50.50618" lon="5.57136">
        <ele>88.199996948242</ele>
      </trkpt>
      <trkpt lat="50.50593" lon="5.57058">
        <ele>88.199996948242</ele>
      </trkpt>
      <trkpt lat="50.5059" lon="5.57046">
        <ele>88.199996948242</ele>
      </trkpt>
      <trkpt lat="50.50586" lon="5.57022">
        <ele>88.199996948242</ele>
      </trkpt>
      <trkpt lat="50.50585" lon="5.56998">
        <ele>88.199996948242</ele>
      </trkpt>
      <trkpt lat="50.50586" lon="5.56914">
        <ele>88.199996948242</ele>
      </trkpt>
      <trkpt lat="50.50587" lon="5.5689">
        <ele>88.199996948242</ele>
      </trkpt>
      <trkpt lat="50.50591" lon="5.56804">
        <ele>88.400001525879</ele>
      </trkpt>
      <trkpt lat="50.50594" lon="5.56779">
        <ele>88.400001525879</ele>
      </trkpt>
      <trkpt lat="50.5061" lon="5.56724">
        <ele>88.599998474121</ele>
      </trkpt>
      <trkpt lat="50.50632" lon="5.56672">
        <ele>89.199996948242</ele>
      </trkpt>
      <trkpt lat="50.50646" lon="5.56641">
        <ele>89.400001525879</ele>
      </trkpt>
      <trkpt lat="50.5066" lon="5.5661">
        <ele>89.800003051758</ele>
      </trkpt>
      <trkpt lat="50.50671" lon="5.56591">
        <ele>90</ele>
      </trkpt>
      <trkpt lat="50.50706" lon="5.56542">
        <ele>90.599998474121</ele>
      </trkpt>
      <trkpt lat="50.50712" lon="5.56534">
        <ele>90.599998474121</ele>
      </trkpt>
      <trkpt lat="50.50735" lon="5.56491">
        <ele>91.400001525879</ele>
      </trkpt>
      <trkpt lat="50.50743" lon="5.56471">
        <ele>91.800003051758</ele>
      </trkpt>
      <trkpt lat="50.5076" lon="5.5643">
        <ele>92.800003051758</ele>
      </trkpt>
      <trkpt lat="50.50765" lon="5.56421">
        <ele>93</ele>
      </trkpt>
      <trkpt lat="50.50784" lon="5.56383">
        <ele>93.800003051758</ele>
      </trkpt>
      <trkpt lat="50.50808" lon="5.56334">
        <ele>94</ele>
      </trkpt>
      <trkpt lat="50.50824" lon="5.56304">
        <ele>94</ele>
      </trkpt>
      <trkpt lat="50.50863" lon="5.56235">
        <ele>93.599998474121</ele>
      </trkpt>
      <trkpt lat="50.50868" lon="5.56225">
        <ele>93.199996948242</ele>
      </trkpt>
      <trkpt lat="50.5088" lon="5.56206">
        <ele>92.800003051758</ele>
      </trkpt>
      <trkpt lat="50.50909" lon="5.56158">
        <ele>91.599998474121</ele>
      </trkpt>
      <trkpt lat="50.50921" lon="5.56139">
        <ele>90.400001525879</ele>
      </trkpt>
      <trkpt lat="50.5095" lon="5.56091">
        <ele>89.400001525879</ele>
      </trkpt>
      <trkpt lat="50.50956" lon="5.56081">
        <ele>89.199996948242</ele>
      </trkpt>
      <trkpt lat="50.50982" lon="5.56042">
        <ele>88.400001525879</ele>
      </trkpt>
      <trkpt lat="50.51002" lon="5.56016">
        <ele>88</ele>
      </trkpt>
      <trkpt lat="50.51019" lon="5.55995">
        <ele>86.800003051758</ele>
      </trkpt>
      <trkpt lat="50.51029" lon="5.55985">
        <ele>86.400001525879</ele>
      </trkpt>
      <trkpt lat="50.51034" lon="5.55981">
        <ele>86.199996948242</ele>
      </trkpt>
      <trkpt lat="50.51043" lon="5.55977">
        <ele>85.800003051758</ele>
      </trkpt>
      <trkpt lat="50.51047" lon="5.55975">
        <ele>85.599998474121</ele>
      </trkpt>
      <trkpt lat="50.51055" lon="5.55972">
        <ele>85.400001525879</ele>
      </trkpt>
      <trkpt lat="50.51059" lon="5.55969">
        <ele>85.400001525879</ele>
      </trkpt>
      <trkpt lat="50.5106" lon="5.55968">
        <ele>85.400001525879</ele>
      </trkpt>
      <trkpt lat="50.51062" lon="5.55967">
        <ele>85.400001525879</ele>
      </trkpt>
      <trkpt lat="50.51064" lon="5.55966">
        <ele>85.400001525879</ele>
      </trkpt>
      <trkpt lat="50.51075" lon="5.55959">
        <ele>85.400001525879</ele>
      </trkpt>
      <trkpt lat="50.51079" lon="5.55957">
        <ele>85.400001525879</ele>
      </trkpt>
      <trkpt lat="50.51107" lon="5.55943">
        <ele>85.400001525879</ele>
      </trkpt>
      <trkpt lat="50.51154" lon="5.55928">
        <ele>85</ele>
      </trkpt>
      <trkpt lat="50.512" lon="5.55926">
        <ele>84.800003051758</ele>
      </trkpt>
      <trkpt lat="50.51262" lon="5.55927">
        <ele>84.800003051758</ele>
      </trkpt>
      <trkpt lat="50.51285" lon="5.55927">
        <ele>84.800003051758</ele>
      </trkpt>
      <trkpt lat="50.51332" lon="5.55933">
        <ele>84.400001525879</ele>
      </trkpt>
      <trkpt lat="50.51377" lon="5.55949">
        <ele>84.599998474121</ele>
      </trkpt>
      <trkpt lat="50.51414" lon="5.55976">
        <ele>84.400001525879</ele>
      </trkpt>
      <trkpt lat="50.51463" lon="5.56017">
        <ele>84</ele>
      </trkpt>
      <trkpt lat="50.51484" lon="5.56036">
        <ele>83.800003051758</ele>
      </trkpt>
      <trkpt lat="50.51533" lon="5.56079">
        <ele>83.800003051758</ele>
      </trkpt>
      <trkpt lat="50.51548" lon="5.56092">
        <ele>83.800003051758</ele>
      </trkpt>
      <trkpt lat="50.51599" lon="5.56136">
        <ele>83.800003051758</ele>
      </trkpt>
      <trkpt lat="50.51614" lon="5.5615">
        <ele>83.800003051758</ele>
      </trkpt>
      <trkpt lat="50.51667" lon="5.56194">
        <ele>84</ele>
      </trkpt>
      <trkpt lat="50.51682" lon="5.56206">
        <ele>84</ele>
      </trkpt>
      <trkpt lat="50.51736" lon="5.56244">
        <ele>84.199996948242</ele>
      </trkpt>
      <trkpt lat="50.51783" lon="5.56256">
        <ele>84.400001525879</ele>
      </trkpt>
      <trkpt lat="50.51823" lon="5.56263">
        <ele>84.599998474121</ele>
      </trkpt>
      <trkpt lat="50.51831" lon="5.56264">
        <ele>84.599998474121</ele>
      </trkpt>
      <trkpt lat="50.51856" lon="5.5627">
        <ele>84.800003051758</ele>
      </trkpt>
      <trkpt lat="50.51895" lon="5.5629">
        <ele>85</ele>
      </trkpt>
      <trkpt lat="50.51911" lon="5.56299">
        <ele>85.199996948242</ele>
      </trkpt>
      <trkpt lat="50.51954" lon="5.56326">
        <ele>85.800003051758</ele>
      </trkpt>
      <trkpt lat="50.51968" lon="5.56334">
        <ele>86</ele>
      </trkpt>
      <trkpt lat="50.5201" lon="5.5636">
        <ele>86.199996948242</ele>
      </trkpt>
      <trkpt lat="50.52037" lon="5.56383">
        <ele>87</ele>
      </trkpt>
      <trkpt lat="50.52056" lon="5.56403">
        <ele>87.800003051758</ele>
      </trkpt>
      <trkpt lat="50.52081" lon="5.56434">
        <ele>87.800003051758</ele>
      </trkpt>
      <trkpt lat="50.52112" lon="5.56472">
        <ele>88.199996948242</ele>
      </trkpt>
      <trkpt lat="50.52155" lon="5.56526">
        <ele>88.400001525879</ele>
      </trkpt>
      <trkpt lat="50.52168" lon="5.56541">
        <ele>88.400001525879</ele>
      </trkpt>
      <trkpt lat="50.52214" lon="5.56596">
        <ele>88.199996948242</ele>
      </trkpt>
      <trkpt lat="50.52227" lon="5.56612">
        <ele>87.599998474121</ele>
      </trkpt>
      <trkpt lat="50.52269" lon="5.56662">
        <ele>86.599998474121</ele>
      </trkpt>
      <trkpt lat="50.52284" lon="5.56677">
        <ele>86.400001525879</ele>
      </trkpt>
      <trkpt lat="50.52323" lon="5.56706">
        <ele>85.599998474121</ele>
      </trkpt>
      <trkpt lat="50.52331" lon="5.56711">
        <ele>85.400001525879</ele>
      </trkpt>
      <trkpt lat="50.52354" lon="5.56726">
        <ele>84.599998474121</ele>
      </trkpt>
      <trkpt lat="50.5241" lon="5.56762">
        <ele>83.599998474121</ele>
      </trkpt>
      <trkpt lat="50.52447" lon="5.56787">
        <ele>82.599998474121</ele>
      </trkpt>
      <trkpt lat="50.52485" lon="5.56811">
        <ele>82.400001525879</ele>
      </trkpt>
      <trkpt lat="50.52537" lon="5.56844">
        <ele>82.199996948242</ele>
      </trkpt>
      <trkpt lat="50.52589" lon="5.56879">
        <ele>82.199996948242</ele>
      </trkpt>
      <trkpt lat="50.52641" lon="5.56917">
        <ele>82.199996948242</ele>
      </trkpt>
      <trkpt lat="50.52665" lon="5.56924">
        <ele>82.199996948242</ele>
      </trkpt>
      <trkpt lat="50.52681" lon="5.56925">
        <ele>82.199996948242</ele>
      </trkpt>
      <trkpt lat="50.52713" lon="5.56908">
        <ele>82</ele>
      </trkpt>
      <trkpt lat="50.52721" lon="5.56902">
        <ele>82</ele>
      </trkpt>
      <trkpt lat="50.52755" lon="5.56867">
        <ele>81.599998474121</ele>
      </trkpt>
      <trkpt lat="50.52783" lon="5.56841">
        <ele>81.400001525879</ele>
      </trkpt>
      <trkpt lat="50.52804" lon="5.56823">
        <ele>81.400001525879</ele>
      </trkpt>
      <trkpt lat="50.5285" lon="5.56776">
        <ele>81.400001525879</ele>
      </trkpt>
      <trkpt lat="50.52898" lon="5.56724">
        <ele>81.599998474121</ele>
      </trkpt>
      <trkpt lat="50.52911" lon="5.5671">
        <ele>81.800003051758</ele>
      </trkpt>
      <trkpt lat="50.52945" lon="5.56667">
        <ele>81.800003051758</ele>
      </trkpt>
      <trkpt lat="50.52963" lon="5.56642">
        <ele>82</ele>
      </trkpt>
      <trkpt lat="50.52974" lon="5.56635">
        <ele>82.400001525879</ele>
      </trkpt>
      <trkpt lat="50.5299" lon="5.5664">
        <ele>83</ele>
      </trkpt>
      <trkpt lat="50.53003" lon="5.56646">
        <ele>83</ele>
      </trkpt>
      <trkpt lat="50.53031" lon="5.56659">
        <ele>83</ele>
      </trkpt>
      <trkpt lat="50.53085" lon="5.56678">
        <ele>82.800003051758</ele>
      </trkpt>
      <trkpt lat="50.53121" lon="5.56689">
        <ele>81.800003051758</ele>
      </trkpt>
      <trkpt lat="50.53127" lon="5.5669">
        <ele>81.400001525879</ele>
      </trkpt>
      <trkpt lat="50.53155" lon="5.56696">
        <ele>80.800003051758</ele>
      </trkpt>
      <trkpt lat="50.53182" lon="5.56698">
        <ele>81</ele>
      </trkpt>
      <trkpt lat="50.5321" lon="5.56701">
        <ele>83</ele>
      </trkpt>
      <trkpt lat="50.53213" lon="5.56701">
        <ele>83.599998474121</ele>
      </trkpt>
      <trkpt lat="50.53216" lon="5.56702">
        <ele>84</ele>
      </trkpt>
      <trkpt lat="50.53218" lon="5.56702">
        <ele>84.199996948242</ele>
      </trkpt>
      <trkpt lat="50.53234" lon="5.56703">
        <ele>84.199996948242</ele>
      </trkpt>
      <trkpt lat="50.53261" lon="5.56703">
        <ele>84.199996948242</ele>
      </trkpt>
      <trkpt lat="50.5329" lon="5.56688">
        <ele>84.199996948242</ele>
      </trkpt>
      <trkpt lat="50.53302" lon="5.56679">
        <ele>83.800003051758</ele>
      </trkpt>
      <trkpt lat="50.53324" lon="5.56655">
        <ele>83.199996948242</ele>
      </trkpt>
      <trkpt lat="50.53334" lon="5.56643">
        <ele>83</ele>
      </trkpt>
      <trkpt lat="50.53352" lon="5.56621">
        <ele>82.599998474121</ele>
      </trkpt>
      <trkpt lat="50.53383" lon="5.56586">
        <ele>82.800003051758</ele>
      </trkpt>
      <trkpt lat="50.53394" lon="5.56576">
        <ele>83.800003051758</ele>
      </trkpt>
      <trkpt lat="50.53398" lon="5.56574">
        <ele>84.199996948242</ele>
      </trkpt>
      <trkpt lat="50.53402" lon="5.56573">
        <ele>84.400001525879</ele>
      </trkpt>
      <trkpt lat="50.53413" lon="5.56574">
        <ele>85.199996948242</ele>
      </trkpt>
      <trkpt lat="50.5342" lon="5.56575">
        <ele>85.800003051758</ele>
      </trkpt>
      <trkpt lat="50.53427" lon="5.56578">
        <ele>86.400001525879</ele>
      </trkpt>
      <trkpt lat="50.53438" lon="5.56586">
        <ele>87.599998474121</ele>
      </trkpt>
      <trkpt lat="50.53441" lon="5.56588">
        <ele>88</ele>
      </trkpt>
      <trkpt lat="50.53447" lon="5.56592">
        <ele>88.599998474121</ele>
      </trkpt>
      <trkpt lat="50.53458" lon="5.56602">
        <ele>89.800003051758</ele>
      </trkpt>
      <trkpt lat="50.5346" lon="5.56605">
        <ele>90.199996948242</ele>
      </trkpt>
      <trkpt lat="50.53466" lon="5.5661">
        <ele>91</ele>
      </trkpt>
      <trkpt lat="50.53475" lon="5.56618">
        <ele>92</ele>
      </trkpt>
      <trkpt lat="50.53479" lon="5.5662">
        <ele>92.199996948242</ele>
      </trkpt>
      <trkpt lat="50.53492" lon="5.56627">
        <ele>93.199996948242</ele>
      </trkpt>
      <trkpt lat="50.53499" lon="5.56629">
        <ele>93.599998474121</ele>
      </trkpt>
      <trkpt lat="50.5351" lon="5.56633">
        <ele>94.400001525879</ele>
      </trkpt>
      <trkpt lat="50.53524" lon="5.56641">
        <ele>95.400001525879</ele>
      </trkpt>
      <trkpt lat="50.53527" lon="5.56644">
        <ele>96</ele>
      </trkpt>
      <trkpt lat="50.53536" lon="5.56652">
        <ele>96.800003051758</ele>
      </trkpt>
      <trkpt lat="50.5354" lon="5.56658">
        <ele>97</ele>
      </trkpt>
      <trkpt lat="50.53546" lon="5.56671">
        <ele>97.599998474121</ele>
      </trkpt>
      <trkpt lat="50.53548" lon="5.56676">
        <ele>98.199996948242</ele>
      </trkpt>
      <trkpt lat="50.53555" lon="5.56693">
        <ele>99.599998474121</ele>
      </trkpt>
      <trkpt lat="50.53566" lon="5.56714">
        <ele>100.40000152588</ele>
      </trkpt>
      <trkpt lat="50.53574" lon="5.56734">
        <ele>101.59999847412</ele>
      </trkpt>
      <trkpt lat="50.53579" lon="5.56751">
        <ele>102.40000152588</ele>
      </trkpt>
      <trkpt lat="50.5358" lon="5.56756">
        <ele>102.59999847412</ele>
      </trkpt>
      <trkpt lat="50.53583" lon="5.56768">
        <ele>103.40000152588</ele>
      </trkpt>
      <trkpt lat="50.53587" lon="5.56787">
        <ele>104.80000305176</ele>
      </trkpt>
      <trkpt lat="50.53591" lon="5.56806">
        <ele>105.59999847412</ele>
      </trkpt>
      <trkpt lat="50.53592" lon="5.56813">
        <ele>106</ele>
      </trkpt>
      <trkpt lat="50.53602" lon="5.56859">
        <ele>107.19999694824</ele>
      </trkpt>
      <trkpt lat="50.53604" lon="5.56872">
        <ele>107.80000305176</ele>
      </trkpt>
      <trkpt lat="50.53607" lon="5.56885">
        <ele>108.40000152588</ele>
      </trkpt>
      <trkpt lat="50.53608" lon="5.56897">
        <ele>108.59999847412</ele>
      </trkpt>
      <trkpt lat="50.53608" lon="5.56909">
        <ele>109</ele>
      </trkpt>
      <trkpt lat="50.53607" lon="5.56921">
        <ele>109.59999847412</ele>
      </trkpt>
      <trkpt lat="50.53606" lon="5.56932">
        <ele>110.19999694824</ele>
      </trkpt>
      <trkpt lat="50.53609" lon="5.56951">
        <ele>110.59999847412</ele>
      </trkpt>
      <trkpt lat="50.53613" lon="5.56981">
        <ele>112</ele>
      </trkpt>
      <trkpt lat="50.53615" lon="5.56998">
        <ele>112.59999847412</ele>
      </trkpt>
      <trkpt lat="50.53617" lon="5.57009">
        <ele>113</ele>
      </trkpt>
      <trkpt lat="50.53623" lon="5.57045">
        <ele>114</ele>
      </trkpt>
      <trkpt lat="50.53627" lon="5.57081">
        <ele>115</ele>
      </trkpt>
      <trkpt lat="50.53627" lon="5.57087">
        <ele>115.19999694824</ele>
      </trkpt>
      <trkpt lat="50.53629" lon="5.57126">
        <ele>116.19999694824</ele>
      </trkpt>
      <trkpt lat="50.5363" lon="5.57137">
        <ele>116.59999847412</ele>
      </trkpt>
      <trkpt lat="50.53632" lon="5.57154">
        <ele>117.19999694824</ele>
      </trkpt>
      <trkpt lat="50.53635" lon="5.57173">
        <ele>118</ele>
      </trkpt>
      <trkpt lat="50.53637" lon="5.57186">
        <ele>118.40000152588</ele>
      </trkpt>
      <trkpt lat="50.5364" lon="5.57208">
        <ele>119.19999694824</ele>
      </trkpt>
      <trkpt lat="50.53641" lon="5.57214">
        <ele>119.40000152588</ele>
      </trkpt>
      <trkpt lat="50.53641" lon="5.5722">
        <ele>119.59999847412</ele>
      </trkpt>
      <trkpt lat="50.53641" lon="5.57232">
        <ele>120.19999694824</ele>
      </trkpt>
      <trkpt lat="50.53642" lon="5.57251">
        <ele>121</ele>
      </trkpt>
      <trkpt lat="50.53643" lon="5.57257">
        <ele>121.19999694824</ele>
      </trkpt>
      <trkpt lat="50.53646" lon="5.57283">
        <ele>122</ele>
      </trkpt>
      <trkpt lat="50.5365" lon="5.57312">
        <ele>122.80000305176</ele>
      </trkpt>
      <trkpt lat="50.53652" lon="5.57326">
        <ele>123.40000152588</ele>
      </trkpt>
      <trkpt lat="50.53657" lon="5.57362">
        <ele>124.59999847412</ele>
      </trkpt>
      <trkpt lat="50.53661" lon="5.57392">
        <ele>125.59999847412</ele>
      </trkpt>
      <trkpt lat="50.53662" lon="5.57399">
        <ele>125.80000305176</ele>
      </trkpt>
      <trkpt lat="50.53667" lon="5.57448">
        <ele>126.80000305176</ele>
      </trkpt>
      <trkpt lat="50.53677" lon="5.57535">
        <ele>127.59999847412</ele>
      </trkpt>
      <trkpt lat="50.5368" lon="5.57562">
        <ele>127.80000305176</ele>
      </trkpt>
      <trkpt lat="50.53684" lon="5.57603">
        <ele>128</ele>
      </trkpt>
      <trkpt lat="50.53689" lon="5.57644">
        <ele>128.60000610352</ele>
      </trkpt>
      <trkpt lat="50.5369" lon="5.57651">
        <ele>128.60000610352</ele>
      </trkpt>
      <trkpt lat="50.53694" lon="5.57671">
        <ele>128.80000305176</ele>
      </trkpt>
      <trkpt lat="50.53696" lon="5.57697">
        <ele>128.80000305176</ele>
      </trkpt>
      <trkpt lat="50.53698" lon="5.57715">
        <ele>128.80000305176</ele>
      </trkpt>
      <trkpt lat="50.53696" lon="5.57726">
        <ele>128.39999389648</ele>
      </trkpt>
      <trkpt lat="50.53696" lon="5.57731">
        <ele>128.19999694824</ele>
      </trkpt>
      <trkpt lat="50.53697" lon="5.57734">
        <ele>127.80000305176</ele>
      </trkpt>
      <trkpt lat="50.53697" lon="5.57734">
        <ele>127.80000305176</ele>
      </trkpt>
      <trkpt lat="50.53699" lon="5.5774">
        <ele>127.40000152588</ele>
      </trkpt>
      <trkpt lat="50.537" lon="5.57744">
        <ele>127.40000152588</ele>
      </trkpt>
      <trkpt lat="50.53705" lon="5.57768">
        <ele>127.40000152588</ele>
      </trkpt>
      <trkpt lat="50.53706" lon="5.57776">
        <ele>127.40000152588</ele>
      </trkpt>
      <trkpt lat="50.53714" lon="5.57827">
        <ele>127.19999694824</ele>
      </trkpt>
      <trkpt lat="50.53716" lon="5.57837">
        <ele>127.19999694824</ele>
      </trkpt>
      <trkpt lat="50.53722" lon="5.57879">
        <ele>126.40000152588</ele>
      </trkpt>
      <trkpt lat="50.53721" lon="5.5789">
        <ele>126.19999694824</ele>
      </trkpt>
      <trkpt lat="50.53714" lon="5.57924">
        <ele>125.59999847412</ele>
      </trkpt>
      <trkpt lat="50.5371" lon="5.57935">
        <ele>125.40000152588</ele>
      </trkpt>
      <trkpt lat="50.537" lon="5.57956">
        <ele>124.59999847412</ele>
      </trkpt>
      <trkpt lat="50.537" lon="5.57956">
        <ele>124.40000152588</ele>
      </trkpt>
      <trkpt lat="50.53691" lon="5.57981">
        <ele>124.19999694824</ele>
      </trkpt>
      <trkpt lat="50.53686" lon="5.58008">
        <ele>123.40000152588</ele>
      </trkpt>
      <trkpt lat="50.53686" lon="5.58023">
        <ele>123</ele>
      </trkpt>
      <trkpt lat="50.5369" lon="5.58051">
        <ele>122</ele>
      </trkpt>
      <trkpt lat="50.53693" lon="5.58065">
        <ele>121.59999847412</ele>
      </trkpt>
      <trkpt lat="50.537" lon="5.58092">
        <ele>120.59999847412</ele>
      </trkpt>
      <trkpt lat="50.53711" lon="5.58132">
        <ele>119.40000152588</ele>
      </trkpt>
      <trkpt lat="50.53722" lon="5.58172">
        <ele>118.19999694824</ele>
      </trkpt>
      <trkpt lat="50.53729" lon="5.58198">
        <ele>117</ele>
      </trkpt>
      <trkpt lat="50.5374" lon="5.58239">
        <ele>115.80000305176</ele>
      </trkpt>
      <trkpt lat="50.53759" lon="5.58308">
        <ele>114.80000305176</ele>
      </trkpt>
      <trkpt lat="50.53767" lon="5.58335">
        <ele>114.19999694824</ele>
      </trkpt>
      <trkpt lat="50.53774" lon="5.58364">
        <ele>113.59999847412</ele>
      </trkpt>
      <trkpt lat="50.53786" lon="5.58408">
        <ele>112.19999694824</ele>
      </trkpt>
      <trkpt lat="50.53795" lon="5.58437">
        <ele>110.80000305176</ele>
      </trkpt>
      <trkpt lat="50.53807" lon="5.58464">
        <ele>110.19999694824</ele>
      </trkpt>
      <trkpt lat="50.53814" lon="5.58476">
        <ele>109.59999847412</ele>
      </trkpt>
      <trkpt lat="50.53821" lon="5.58488">
        <ele>109.19999694824</ele>
      </trkpt>
      <trkpt lat="50.53844" lon="5.58523">
        <ele>108.40000152588</ele>
      </trkpt>
      <trkpt lat="50.53859" lon="5.58547">
        <ele>107.59999847412</ele>
      </trkpt>
      <trkpt lat="50.53867" lon="5.58559">
        <ele>107.19999694824</ele>
      </trkpt>
      <trkpt lat="50.53884" lon="5.58584">
        <ele>105.59999847412</ele>
      </trkpt>
      <trkpt lat="50.53909" lon="5.58623">
        <ele>104.59999847412</ele>
      </trkpt>
      <trkpt lat="50.53917" lon="5.58637">
        <ele>104.19999694824</ele>
      </trkpt>
      <trkpt lat="50.53935" lon="5.58663">
        <ele>102.80000305176</ele>
      </trkpt>
      <trkpt lat="50.53952" lon="5.5869">
        <ele>101.40000152588</ele>
      </trkpt>
      <trkpt lat="50.53971" lon="5.58717">
        <ele>100</ele>
      </trkpt>
      <trkpt lat="50.53989" lon="5.58744">
        <ele>99</ele>
      </trkpt>
      <trkpt lat="50.54008" lon="5.58771">
        <ele>97.800003051758</ele>
      </trkpt>
      <trkpt lat="50.54026" lon="5.58799">
        <ele>96.800003051758</ele>
      </trkpt>
      <trkpt lat="50.54045" lon="5.58827">
        <ele>95</ele>
      </trkpt>
      <trkpt lat="50.54064" lon="5.58854">
        <ele>93.800003051758</ele>
      </trkpt>
      <trkpt lat="50.54093" lon="5.58894">
        <ele>92.599998474121</ele>
      </trkpt>
      <trkpt lat="50.54104" lon="5.58907">
        <ele>92</ele>
      </trkpt>
      <trkpt lat="50.54114" lon="5.5892">
        <ele>91.400001525879</ele>
      </trkpt>
      <trkpt lat="50.54145" lon="5.58952">
        <ele>90</ele>
      </trkpt>
      <trkpt lat="50.54165" lon="5.58972">
        <ele>88.599998474121</ele>
      </trkpt>
      <trkpt lat="50.54195" lon="5.59002">
        <ele>87.199996948242</ele>
      </trkpt>
      <trkpt lat="50.54224" lon="5.59032">
        <ele>86.400001525879</ele>
      </trkpt>
      <trkpt lat="50.54252" lon="5.59065">
        <ele>86.199996948242</ele>
      </trkpt>
      <trkpt lat="50.54262" lon="5.59075">
        <ele>86</ele>
      </trkpt>
      <trkpt lat="50.54292" lon="5.59104">
        <ele>85.800003051758</ele>
      </trkpt>
      <trkpt lat="50.54302" lon="5.59114">
        <ele>85.800003051758</ele>
      </trkpt>
      <trkpt lat="50.54323" lon="5.59127">
        <ele>85.599998474121</ele>
      </trkpt>
      <trkpt lat="50.54355" lon="5.5914">
        <ele>85</ele>
      </trkpt>
      <trkpt lat="50.54366" lon="5.59142">
        <ele>85</ele>
      </trkpt>
      <trkpt lat="50.54412" lon="5.59141">
        <ele>84.199996948242</ele>
      </trkpt>
      <trkpt lat="50.54423" lon="5.5914">
        <ele>83.800003051758</ele>
      </trkpt>
      <trkpt lat="50.54447" lon="5.59139">
        <ele>82.599998474121</ele>
      </trkpt>
      <trkpt lat="50.54459" lon="5.59138">
        <ele>82</ele>
      </trkpt>
      <trkpt lat="50.54472" lon="5.59137">
        <ele>81.599998474121</ele>
      </trkpt>
      <trkpt lat="50.54506" lon="5.59138">
        <ele>80.599998474121</ele>
      </trkpt>
      <trkpt lat="50.54517" lon="5.59139">
        <ele>80</ele>
      </trkpt>
      <trkpt lat="50.54528" lon="5.59141">
        <ele>79.199996948242</ele>
      </trkpt>
      <trkpt lat="50.5455" lon="5.59147">
        <ele>77.800003051758</ele>
      </trkpt>
      <trkpt lat="50.54561" lon="5.5915">
        <ele>77.199996948242</ele>
      </trkpt>
      <trkpt lat="50.54581" lon="5.59154">
        <ele>76.400001525879</ele>
      </trkpt>
      <trkpt lat="50.54589" lon="5.59155">
        <ele>76.199996948242</ele>
      </trkpt>
      <trkpt lat="50.54618" lon="5.59151">
        <ele>75.400001525879</ele>
      </trkpt>
      <trkpt lat="50.54624" lon="5.59148">
        <ele>74.800003051758</ele>
      </trkpt>
      <trkpt lat="50.54635" lon="5.59142">
        <ele>74.800003051758</ele>
      </trkpt>
      <trkpt lat="50.54649" lon="5.59131">
        <ele>74.800003051758</ele>
      </trkpt>
      <trkpt lat="50.54694" lon="5.59098">
        <ele>74.800003051758</ele>
      </trkpt>
      <trkpt lat="50.54735" lon="5.59075">
        <ele>74.800003051758</ele>
      </trkpt>
      <trkpt lat="50.5478" lon="5.59061">
        <ele>74.800003051758</ele>
      </trkpt>
      <trkpt lat="50.54788" lon="5.59058">
        <ele>74.800003051758</ele>
      </trkpt>
      <trkpt lat="50.54825" lon="5.59035">
        <ele>74.800003051758</ele>
      </trkpt>
      <trkpt lat="50.54848" lon="5.59022">
        <ele>75</ele>
      </trkpt>
      <trkpt lat="50.54898" lon="5.58992">
        <ele>75.199996948242</ele>
      </trkpt>
      <trkpt lat="50.54949" lon="5.58962">
        <ele>75.400001525879</ele>
      </trkpt>
      <trkpt lat="50.54964" lon="5.58954">
        <ele>75.400001525879</ele>
      </trkpt>
      <trkpt lat="50.55016" lon="5.58922">
        <ele>75.400001525879</ele>
      </trkpt>
      <trkpt lat="50.55024" lon="5.58918">
        <ele>75.199996948242</ele>
      </trkpt>
      <trkpt lat="50.55076" lon="5.58885">
        <ele>75.199996948242</ele>
      </trkpt>
      <trkpt lat="50.55099" lon="5.58871">
        <ele>75</ele>
      </trkpt>
      <trkpt lat="50.55147" lon="5.58832">
        <ele>74.800003051758</ele>
      </trkpt>
      <trkpt lat="50.55199" lon="5.58779">
        <ele>74.599998474121</ele>
      </trkpt>
      <trkpt lat="50.55247" lon="5.58719">
        <ele>75</ele>
      </trkpt>
      <trkpt lat="50.55252" lon="5.5871">
        <ele>75</ele>
      </trkpt>
      <trkpt lat="50.55292" lon="5.58652">
        <ele>75.400001525879</ele>
      </trkpt>
      <trkpt lat="50.55308" lon="5.58626">
        <ele>75.599998474121</ele>
      </trkpt>
      <trkpt lat="50.55345" lon="5.58561">
        <ele>75.599998474121</ele>
      </trkpt>
      <trkpt lat="50.55355" lon="5.58542">
        <ele>75.599998474121</ele>
      </trkpt>
      <trkpt lat="50.55389" lon="5.58474">
        <ele>75</ele>
      </trkpt>
      <trkpt lat="50.55409" lon="5.58434">
        <ele>75</ele>
      </trkpt>
      <trkpt lat="50.55445" lon="5.58363">
        <ele>74.800003051758</ele>
      </trkpt>
      <trkpt lat="50.55468" lon="5.58324">
        <ele>74.800003051758</ele>
      </trkpt>
      <trkpt lat="50.55511" lon="5.58256">
        <ele>74.599998474121</ele>
      </trkpt>
      <trkpt lat="50.55542" lon="5.58206">
        <ele>74.199996948242</ele>
      </trkpt>
      <trkpt lat="50.5557" lon="5.58152">
        <ele>74</ele>
      </trkpt>
      <trkpt lat="50.55575" lon="5.58141">
        <ele>73.800003051758</ele>
      </trkpt>
      <trkpt lat="50.55598" lon="5.58067">
        <ele>73.199996948242</ele>
      </trkpt>
      <trkpt lat="50.55619" lon="5.57978">
        <ele>73</ele>
      </trkpt>
      <trkpt lat="50.55622" lon="5.57965">
        <ele>72.800003051758</ele>
      </trkpt>
      <trkpt lat="50.55628" lon="5.57941">
        <ele>72.800003051758</ele>
      </trkpt>
      <trkpt lat="50.5565" lon="5.57856">
        <ele>72.400001525879</ele>
      </trkpt>
      <trkpt lat="50.55653" lon="5.57844">
        <ele>72.199996948242</ele>
      </trkpt>
      <trkpt lat="50.5567" lon="5.57784">
        <ele>71.800003051758</ele>
      </trkpt>
      <trkpt lat="50.55695" lon="5.57701">
        <ele>71.400001525879</ele>
      </trkpt>
      <trkpt lat="50.55725" lon="5.57639">
        <ele>71.400001525879</ele>
      </trkpt>
      <trkpt lat="50.55731" lon="5.57629">
        <ele>71.400001525879</ele>
      </trkpt>
      <trkpt lat="50.55751" lon="5.57606">
        <ele>71.400001525879</ele>
      </trkpt>
      <trkpt lat="50.55795" lon="5.57572">
        <ele>71.400001525879</ele>
      </trkpt>
      <trkpt lat="50.55848" lon="5.57536">
        <ele>71.400001525879</ele>
      </trkpt>
      <trkpt lat="50.55863" lon="5.57526">
        <ele>71.400001525879</ele>
      </trkpt>
      <trkpt lat="50.55917" lon="5.57497">
        <ele>71.599998474121</ele>
      </trkpt>
      <trkpt lat="50.55932" lon="5.57492">
        <ele>71.599998474121</ele>
      </trkpt>
      <trkpt lat="50.55988" lon="5.57478">
        <ele>71.800003051758</ele>
      </trkpt>
      <trkpt lat="50.56045" lon="5.57471">
        <ele>72.199996948242</ele>
      </trkpt>
      <trkpt lat="50.56053" lon="5.57469">
        <ele>72.199996948242</ele>
      </trkpt>
      <trkpt lat="50.56104" lon="5.57468">
        <ele>72.199996948242</ele>
      </trkpt>
      <trkpt lat="50.56164" lon="5.57476">
        <ele>72</ele>
      </trkpt>
      <trkpt lat="50.56172" lon="5.57478">
        <ele>72</ele>
      </trkpt>
      <trkpt lat="50.56231" lon="5.57497">
        <ele>71.800003051758</ele>
      </trkpt>
      <trkpt lat="50.5624" lon="5.57501">
        <ele>71.800003051758</ele>
      </trkpt>
      <trkpt lat="50.56297" lon="5.57529">
        <ele>71.400001525879</ele>
      </trkpt>
      <trkpt lat="50.56305" lon="5.57533">
        <ele>71.400001525879</ele>
      </trkpt>
      <trkpt lat="50.56345" lon="5.57559">
        <ele>71</ele>
      </trkpt>
      <trkpt lat="50.56361" lon="5.57572">
        <ele>71</ele>
      </trkpt>
      <trkpt lat="50.56384" lon="5.5759">
        <ele>70.800003051758</ele>
      </trkpt>
      <trkpt lat="50.5642" lon="5.57622">
        <ele>70.800003051758</ele>
      </trkpt>
      <trkpt lat="50.56466" lon="5.57669">
        <ele>70.800003051758</ele>
      </trkpt>
      <trkpt lat="50.56472" lon="5.57676">
        <ele>70.800003051758</ele>
      </trkpt>
      <trkpt lat="50.56512" lon="5.57725">
        <ele>70.599998474121</ele>
      </trkpt>
      <trkpt lat="50.56552" lon="5.57783">
        <ele>70.400001525879</ele>
      </trkpt>
      <trkpt lat="50.56557" lon="5.57791">
        <ele>70.400001525879</ele>
      </trkpt>
      <trkpt lat="50.56597" lon="5.57853">
        <ele>70.400001525879</ele>
      </trkpt>
      <trkpt lat="50.56614" lon="5.5788">
        <ele>70.199996948242</ele>
      </trkpt>
      <trkpt lat="50.56646" lon="5.57936">
        <ele>70.199996948242</ele>
      </trkpt>
      <trkpt lat="50.56679" lon="5.57995">
        <ele>70.199996948242</ele>
      </trkpt>
      <trkpt lat="50.56707" lon="5.58052">
        <ele>70</ele>
      </trkpt>
      <trkpt lat="50.56744" lon="5.58125">
        <ele>70</ele>
      </trkpt>
      <trkpt lat="50.56775" lon="5.58184">
        <ele>70.599998474121</ele>
      </trkpt>
      <trkpt lat="50.5678" lon="5.58191">
        <ele>70.800003051758</ele>
      </trkpt>
      <trkpt lat="50.56818" lon="5.58253">
        <ele>71</ele>
      </trkpt>
      <trkpt lat="50.56858" lon="5.58318">
        <ele>70.800003051758</ele>
      </trkpt>
      <trkpt lat="50.56862" lon="5.58327">
        <ele>70.800003051758</ele>
      </trkpt>
      <trkpt lat="50.56879" lon="5.58379">
        <ele>70.599998474121</ele>
      </trkpt>
      <trkpt lat="50.56884" lon="5.58424">
        <ele>70.199996948242</ele>
      </trkpt>
      <trkpt lat="50.5689" lon="5.58511">
        <ele>70.599998474121</ele>
      </trkpt>
      <trkpt lat="50.56892" lon="5.5852">
        <ele>70.599998474121</ele>
      </trkpt>
      <trkpt lat="50.56903" lon="5.58546">
        <ele>70.800003051758</ele>
      </trkpt>
      <trkpt lat="50.56907" lon="5.58553">
        <ele>70.800003051758</ele>
      </trkpt>
      <trkpt lat="50.56919" lon="5.58575">
        <ele>71</ele>
      </trkpt>
      <trkpt lat="50.56926" lon="5.5859">
        <ele>71</ele>
      </trkpt>
      <trkpt lat="50.56935" lon="5.58596">
        <ele>71</ele>
      </trkpt>
      <trkpt lat="50.56946" lon="5.58582">
        <ele>71</ele>
      </trkpt>
      <trkpt lat="50.56947" lon="5.58565">
        <ele>71</ele>
      </trkpt>
      <trkpt lat="50.56948" lon="5.58557">
        <ele>71</ele>
      </trkpt>
      <trkpt lat="50.5695" lon="5.5855">
        <ele>71</ele>
      </trkpt>
      <trkpt lat="50.56954" lon="5.58526">
        <ele>71</ele>
      </trkpt>
      <trkpt lat="50.56958" lon="5.5851">
        <ele>71</ele>
      </trkpt>
      <trkpt lat="50.56971" lon="5.58499">
        <ele>71</ele>
      </trkpt>
      <trkpt lat="50.56977" lon="5.58499">
        <ele>71</ele>
      </trkpt>
      <trkpt lat="50.56987" lon="5.58497">
        <ele>71</ele>
      </trkpt>
      <trkpt lat="50.57" lon="5.58491">
        <ele>71.199996948242</ele>
      </trkpt>
      <trkpt lat="50.57003" lon="5.58489">
        <ele>71.199996948242</ele>
      </trkpt>
      <trkpt lat="50.5701" lon="5.58485">
        <ele>71.400001525879</ele>
      </trkpt>
      <trkpt lat="50.57012" lon="5.58483">
        <ele>71.400001525879</ele>
      </trkpt>
      <trkpt lat="50.57018" lon="5.58479">
        <ele>72.400001525879</ele>
      </trkpt>
      <trkpt lat="50.57022" lon="5.58477">
        <ele>73.199996948242</ele>
      </trkpt>
      <trkpt lat="50.57026" lon="5.58475">
        <ele>73.599998474121</ele>
      </trkpt>
      <trkpt lat="50.57028" lon="5.58473">
        <ele>73.800003051758</ele>
      </trkpt>
      <trkpt lat="50.5703" lon="5.5847">
        <ele>73.800003051758</ele>
      </trkpt>
      <trkpt lat="50.57038" lon="5.58458">
        <ele>73.800003051758</ele>
      </trkpt>
      <trkpt lat="50.57039" lon="5.58457">
        <ele>73.800003051758</ele>
      </trkpt>
      <trkpt lat="50.57041" lon="5.58456">
        <ele>73.800003051758</ele>
      </trkpt>
      <trkpt lat="50.5705" lon="5.58452">
        <ele>73.599998474121</ele>
      </trkpt>
      <trkpt lat="50.57057" lon="5.58452">
        <ele>73.599998474121</ele>
      </trkpt>
      <trkpt lat="50.57063" lon="5.58459">
        <ele>73.599998474121</ele>
      </trkpt>
      <trkpt lat="50.57067" lon="5.5847">
        <ele>73.400001525879</ele>
      </trkpt>
      <trkpt lat="50.57072" lon="5.58488">
        <ele>73.199996948242</ele>
      </trkpt>
      <trkpt lat="50.57075" lon="5.58495">
        <ele>73.199996948242</ele>
      </trkpt>
      <trkpt lat="50.57085" lon="5.58509">
        <ele>73.199996948242</ele>
      </trkpt>
      <trkpt lat="50.57095" lon="5.58523">
        <ele>73.199996948242</ele>
      </trkpt>
      <trkpt lat="50.57098" lon="5.58545">
        <ele>73.400001525879</ele>
      </trkpt>
      <trkpt lat="50.57099" lon="5.58561">
        <ele>73.400001525879</ele>
      </trkpt>
      <trkpt lat="50.57102" lon="5.58613">
        <ele>73.800003051758</ele>
      </trkpt>
      <trkpt lat="50.57103" lon="5.58622">
        <ele>73.800003051758</ele>
      </trkpt>
      <trkpt lat="50.57105" lon="5.5864">
        <ele>74</ele>
      </trkpt>
      <trkpt lat="50.57111" lon="5.58667">
        <ele>74</ele>
      </trkpt>
      <trkpt lat="50.57131" lon="5.58745">
        <ele>73.599998474121</ele>
      </trkpt>
      <trkpt lat="50.57148" lon="5.58805">
        <ele>72.800003051758</ele>
      </trkpt>
      <trkpt lat="50.57153" lon="5.58827">
        <ele>72.599998474121</ele>
      </trkpt>
      <trkpt lat="50.57175" lon="5.58904">
        <ele>71.599998474121</ele>
      </trkpt>
      <trkpt lat="50.57181" lon="5.58925">
        <ele>71.400001525879</ele>
      </trkpt>
      <trkpt lat="50.57211" lon="5.59007">
        <ele>71.199996948242</ele>
      </trkpt>
      <trkpt lat="50.57244" lon="5.59078">
        <ele>71.599998474121</ele>
      </trkpt>
      <trkpt lat="50.57268" lon="5.5914">
        <ele>71.800003051758</ele>
      </trkpt>
      <trkpt lat="50.57293" lon="5.59197">
        <ele>72</ele>
      </trkpt>
      <trkpt lat="50.57308" lon="5.59234">
        <ele>72.599998474121</ele>
      </trkpt>
      <trkpt lat="50.57312" lon="5.59244">
        <ele>73</ele>
      </trkpt>
      <trkpt lat="50.57325" lon="5.5928">
        <ele>73.800003051758</ele>
      </trkpt>
      <trkpt lat="50.57334" lon="5.5931">
        <ele>74.400001525879</ele>
      </trkpt>
      <trkpt lat="50.57352" lon="5.59366">
        <ele>74.800003051758</ele>
      </trkpt>
      <trkpt lat="50.57369" lon="5.59423">
        <ele>74.599998474121</ele>
      </trkpt>
      <trkpt lat="50.5738" lon="5.59457">
        <ele>74</ele>
      </trkpt>
      <trkpt lat="50.57393" lon="5.59503">
        <ele>72.800003051758</ele>
      </trkpt>
      <trkpt lat="50.57407" lon="5.59548">
        <ele>72.199996948242</ele>
      </trkpt>
      <trkpt lat="50.57431" lon="5.59634">
        <ele>72</ele>
      </trkpt>
      <trkpt lat="50.57437" lon="5.59655">
        <ele>72</ele>
      </trkpt>
      <trkpt lat="50.57449" lon="5.59702">
        <ele>71.800003051758</ele>
      </trkpt>
      <trkpt lat="50.5746" lon="5.59751">
        <ele>71.599998474121</ele>
      </trkpt>
      <trkpt lat="50.57481" lon="5.59838">
        <ele>70.599998474121</ele>
      </trkpt>
      <trkpt lat="50.57487" lon="5.59862">
        <ele>70.400001525879</ele>
      </trkpt>
      <trkpt lat="50.57508" lon="5.59928">
        <ele>70.199996948242</ele>
      </trkpt>
      <trkpt lat="50.57533" lon="5.60004">
        <ele>70.199996948242</ele>
      </trkpt>
      <trkpt lat="50.57537" lon="5.60014">
        <ele>70.199996948242</ele>
      </trkpt>
      <trkpt lat="50.57571" lon="5.60086">
        <ele>70.199996948242</ele>
      </trkpt>
      <trkpt lat="50.57583" lon="5.60112">
        <ele>70.199996948242</ele>
      </trkpt>
      <trkpt lat="50.57586" lon="5.60119">
        <ele>70.400001525879</ele>
      </trkpt>
      <trkpt lat="50.576" lon="5.60138">
        <ele>70.400001525879</ele>
      </trkpt>
      <trkpt lat="50.5761" lon="5.60151">
        <ele>70.599998474121</ele>
      </trkpt>
      <trkpt lat="50.57633" lon="5.60178">
        <ele>70.400001525879</ele>
      </trkpt>
      <trkpt lat="50.57644" lon="5.60189">
        <ele>70.400001525879</ele>
      </trkpt>
      <trkpt lat="50.57691" lon="5.60226">
        <ele>70.599998474121</ele>
      </trkpt>
      <trkpt lat="50.57737" lon="5.60258">
        <ele>70.599998474121</ele>
      </trkpt>
      <trkpt lat="50.57752" lon="5.60266">
        <ele>70.599998474121</ele>
      </trkpt>
      <trkpt lat="50.57767" lon="5.60274">
        <ele>70.599998474121</ele>
      </trkpt>
      <trkpt lat="50.57805" lon="5.60286">
        <ele>70.400001525879</ele>
      </trkpt>
      <trkpt lat="50.57828" lon="5.6028">
        <ele>70.400001525879</ele>
      </trkpt>
      <trkpt lat="50.57846" lon="5.60257">
        <ele>70.400001525879</ele>
      </trkpt>
      <trkpt lat="50.57852" lon="5.60248">
        <ele>70.400001525879</ele>
      </trkpt>
      <trkpt lat="50.57888" lon="5.60198">
        <ele>70.400001525879</ele>
      </trkpt>
      <trkpt lat="50.57912" lon="5.60166">
        <ele>70.599998474121</ele>
      </trkpt>
      <trkpt lat="50.57951" lon="5.60113">
        <ele>70.599998474121</ele>
      </trkpt>
      <trkpt lat="50.57987" lon="5.60067">
        <ele>71</ele>
      </trkpt>
      <trkpt lat="50.57992" lon="5.6006">
        <ele>71</ele>
      </trkpt>
      <trkpt lat="50.58004" lon="5.60044">
        <ele>71</ele>
      </trkpt>
      <trkpt lat="50.58008" lon="5.60036">
        <ele>71</ele>
      </trkpt>
      <trkpt lat="50.5801" lon="5.60028">
        <ele>71.199996948242</ele>
      </trkpt>
      <trkpt lat="50.5801" lon="5.60026">
        <ele>71.199996948242</ele>
      </trkpt>
      <trkpt lat="50.58011" lon="5.60024">
        <ele>71.199996948242</ele>
      </trkpt>
      <trkpt lat="50.58015" lon="5.6001">
        <ele>71.199996948242</ele>
      </trkpt>
      <trkpt lat="50.58019" lon="5.59984">
        <ele>71</ele>
      </trkpt>
      <trkpt lat="50.58029" lon="5.59962">
        <ele>70.800003051758</ele>
      </trkpt>
      <trkpt lat="50.58034" lon="5.59955">
        <ele>70.800003051758</ele>
      </trkpt>
      <trkpt lat="50.5806" lon="5.59915">
        <ele>70</ele>
      </trkpt>
      <trkpt lat="50.58069" lon="5.59898">
        <ele>69.800003051758</ele>
      </trkpt>
      <trkpt lat="50.58081" lon="5.59869">
        <ele>69.800003051758</ele>
      </trkpt>
      <trkpt lat="50.5811" lon="5.59812">
        <ele>69.800003051758</ele>
      </trkpt>
      <trkpt lat="50.58137" lon="5.59744">
        <ele>69.599998474121</ele>
      </trkpt>
      <trkpt lat="50.5816" lon="5.59665">
        <ele>69.199996948242</ele>
      </trkpt>
      <trkpt lat="50.58185" lon="5.59581">
        <ele>69</ele>
      </trkpt>
      <trkpt lat="50.58189" lon="5.5957">
        <ele>69</ele>
      </trkpt>
      <trkpt lat="50.58216" lon="5.59487">
        <ele>69</ele>
      </trkpt>
      <trkpt lat="50.5822" lon="5.59478">
        <ele>68.800003051758</ele>
      </trkpt>
      <trkpt lat="50.58227" lon="5.59458">
        <ele>68.599998474121</ele>
      </trkpt>
      <trkpt lat="50.58256" lon="5.59378">
        <ele>68.400001525879</ele>
      </trkpt>
      <trkpt lat="50.58291" lon="5.59299">
        <ele>68.199996948242</ele>
      </trkpt>
      <trkpt lat="50.58325" lon="5.59231">
        <ele>68.199996948242</ele>
      </trkpt>
      <trkpt lat="50.58341" lon="5.59203">
        <ele>68</ele>
      </trkpt>
      <trkpt lat="50.58363" lon="5.59166">
        <ele>67.800003051758</ele>
      </trkpt>
      <trkpt lat="50.58397" lon="5.59114">
        <ele>67.400001525879</ele>
      </trkpt>
      <trkpt lat="50.58443" lon="5.59057">
        <ele>67</ele>
      </trkpt>
      <trkpt lat="50.58449" lon="5.59049">
        <ele>67</ele>
      </trkpt>
      <trkpt lat="50.58496" lon="5.58994">
        <ele>66.800003051758</ele>
      </trkpt>
      <trkpt lat="50.5851" lon="5.58979">
        <ele>66.599998474121</ele>
      </trkpt>
      <trkpt lat="50.58523" lon="5.58963">
        <ele>66.599998474121</ele>
      </trkpt>
      <trkpt lat="50.58571" lon="5.58913">
        <ele>66.400001525879</ele>
      </trkpt>
      <trkpt lat="50.58623" lon="5.5888">
        <ele>66.599998474121</ele>
      </trkpt>
      <trkpt lat="50.58659" lon="5.58864">
        <ele>66.800003051758</ele>
      </trkpt>
      <trkpt lat="50.58674" lon="5.58861">
        <ele>66.800003051758</ele>
      </trkpt>
      <trkpt lat="50.58687" lon="5.58859">
        <ele>67</ele>
      </trkpt>
      <trkpt lat="50.58733" lon="5.58854">
        <ele>67.400001525879</ele>
      </trkpt>
      <trkpt lat="50.5879" lon="5.58845">
        <ele>67.599998474121</ele>
      </trkpt>
      <trkpt lat="50.58806" lon="5.58842">
        <ele>67.800003051758</ele>
      </trkpt>
      <trkpt lat="50.58862" lon="5.58835">
        <ele>68.199996948242</ele>
      </trkpt>
      <trkpt lat="50.5887" lon="5.58834">
        <ele>68.199996948242</ele>
      </trkpt>
      <trkpt lat="50.58926" lon="5.58829">
        <ele>68.199996948242</ele>
      </trkpt>
      <trkpt lat="50.58973" lon="5.58825">
        <ele>68.199996948242</ele>
      </trkpt>
      <trkpt lat="50.58989" lon="5.58824">
        <ele>68.400001525879</ele>
      </trkpt>
      <trkpt lat="50.59028" lon="5.58822">
        <ele>68.599998474121</ele>
      </trkpt>
      <trkpt lat="50.59083" lon="5.58821">
        <ele>68.599998474121</ele>
      </trkpt>
      <trkpt lat="50.59091" lon="5.58821">
        <ele>68.599998474121</ele>
      </trkpt>
      <trkpt lat="50.59145" lon="5.58827">
        <ele>69</ele>
      </trkpt>
      <trkpt lat="50.59161" lon="5.58829">
        <ele>69.199996948242</ele>
      </trkpt>
      <trkpt lat="50.59193" lon="5.58839">
        <ele>69.400001525879</ele>
      </trkpt>
      <trkpt lat="50.59233" lon="5.58848">
        <ele>69.800003051758</ele>
      </trkpt>
      <trkpt lat="50.59287" lon="5.58863">
        <ele>70.599998474121</ele>
      </trkpt>
      <trkpt lat="50.59302" lon="5.58868">
        <ele>70.800003051758</ele>
      </trkpt>
      <trkpt lat="50.59357" lon="5.58889">
        <ele>71.400001525879</ele>
      </trkpt>
      <trkpt lat="50.59372" lon="5.58894">
        <ele>71.599998474121</ele>
      </trkpt>
      <trkpt lat="50.59379" lon="5.58897">
        <ele>71.599998474121</ele>
      </trkpt>
      <trkpt lat="50.59424" lon="5.58918">
        <ele>72.400001525879</ele>
      </trkpt>
      <trkpt lat="50.59439" lon="5.58925">
        <ele>72.599998474121</ele>
      </trkpt>
      <trkpt lat="50.59491" lon="5.58952">
        <ele>73</ele>
      </trkpt>
      <trkpt lat="50.59514" lon="5.58964">
        <ele>73.400001525879</ele>
      </trkpt>
      <trkpt lat="50.59529" lon="5.58972">
        <ele>73.400001525879</ele>
      </trkpt>
      <trkpt lat="50.5958" lon="5.58999">
        <ele>73.800003051758</ele>
      </trkpt>
      <trkpt lat="50.59635" lon="5.59029">
        <ele>74.400001525879</ele>
      </trkpt>
      <trkpt lat="50.59648" lon="5.59036">
        <ele>74.800003051758</ele>
      </trkpt>
      <trkpt lat="50.59694" lon="5.59064">
        <ele>75.599998474121</ele>
      </trkpt>
      <trkpt lat="50.597" lon="5.59068">
        <ele>75.800003051758</ele>
      </trkpt>
      <trkpt lat="50.59751" lon="5.59099">
        <ele>76.599998474121</ele>
      </trkpt>
      <trkpt lat="50.5977" lon="5.59112">
        <ele>77</ele>
      </trkpt>
      <trkpt lat="50.59789" lon="5.59125">
        <ele>77.199996948242</ele>
      </trkpt>
      <trkpt lat="50.59843" lon="5.59166">
        <ele>77.599998474121</ele>
      </trkpt>
      <trkpt lat="50.59887" lon="5.59203">
        <ele>77</ele>
      </trkpt>
      <trkpt lat="50.59916" lon="5.59232">
        <ele>75.800003051758</ele>
      </trkpt>
      <trkpt lat="50.59931" lon="5.59249">
        <ele>75.400001525879</ele>
      </trkpt>
      <trkpt lat="50.59947" lon="5.59268">
        <ele>74.800003051758</ele>
      </trkpt>
      <trkpt lat="50.59975" lon="5.59309">
        <ele>73.599998474121</ele>
      </trkpt>
      <trkpt lat="50.60003" lon="5.59356">
        <ele>72.400001525879</ele>
      </trkpt>
      <trkpt lat="50.60022" lon="5.5939">
        <ele>71.199996948242</ele>
      </trkpt>
      <trkpt lat="50.60029" lon="5.59401">
        <ele>71</ele>
      </trkpt>
      <trkpt lat="50.60048" lon="5.59434">
        <ele>69.800003051758</ele>
      </trkpt>
      <trkpt lat="50.60078" lon="5.59494">
        <ele>68.800003051758</ele>
      </trkpt>
      <trkpt lat="50.60082" lon="5.59508">
        <ele>68.599998474121</ele>
      </trkpt>
      <trkpt lat="50.60088" lon="5.59551">
        <ele>68</ele>
      </trkpt>
      <trkpt lat="50.60084" lon="5.59595">
        <ele>67.599998474121</ele>
      </trkpt>
      <trkpt lat="50.60082" lon="5.59623">
        <ele>67.400001525879</ele>
      </trkpt>
      <trkpt lat="50.60077" lon="5.59665">
        <ele>66.400001525879</ele>
      </trkpt>
      <trkpt lat="50.60075" lon="5.59678">
        <ele>66.199996948242</ele>
      </trkpt>
      <trkpt lat="50.60067" lon="5.59745">
        <ele>65.199996948242</ele>
      </trkpt>
      <trkpt lat="50.6007" lon="5.59814">
        <ele>65.199996948242</ele>
      </trkpt>
      <trkpt lat="50.60079" lon="5.59906">
        <ele>65.400001525879</ele>
      </trkpt>
      <trkpt lat="50.60091" lon="5.59997">
        <ele>66.599998474121</ele>
      </trkpt>
      <trkpt lat="50.60094" lon="5.60009">
        <ele>66.800003051758</ele>
      </trkpt>
      <trkpt lat="50.60102" lon="5.60046">
        <ele>67</ele>
      </trkpt>
      <trkpt lat="50.60118" lon="5.60107">
        <ele>67.599998474121</ele>
      </trkpt>
      <trkpt lat="50.60141" lon="5.60177">
        <ele>67.199996948242</ele>
      </trkpt>
      <trkpt lat="50.60174" lon="5.60251">
        <ele>67</ele>
      </trkpt>
      <trkpt lat="50.60184" lon="5.60271">
        <ele>66.800003051758</ele>
      </trkpt>
      <trkpt lat="50.60221" lon="5.60338">
        <ele>66.800003051758</ele>
      </trkpt>
      <trkpt lat="50.60259" lon="5.60385">
        <ele>66.599998474121</ele>
      </trkpt>
      <trkpt lat="50.60299" lon="5.60426">
        <ele>66.599998474121</ele>
      </trkpt>
      <trkpt lat="50.6034" lon="5.60469">
        <ele>66.199996948242</ele>
      </trkpt>
      <trkpt lat="50.60375" lon="5.60504">
        <ele>66</ele>
      </trkpt>
      <trkpt lat="50.60382" lon="5.60509">
        <ele>66</ele>
      </trkpt>
      <trkpt lat="50.60405" lon="5.60523">
        <ele>65.599998474121</ele>
      </trkpt>
      <trkpt lat="50.60422" lon="5.60529">
        <ele>65.400001525879</ele>
      </trkpt>
      <trkpt lat="50.60446" lon="5.60531">
        <ele>65</ele>
      </trkpt>
      <trkpt lat="50.60454" lon="5.60532">
        <ele>65</ele>
      </trkpt>
      <trkpt lat="50.60501" lon="5.60537">
        <ele>64.599998474121</ele>
      </trkpt>
      <trkpt lat="50.60542" lon="5.60538">
        <ele>64.199996948242</ele>
      </trkpt>
      <trkpt lat="50.6055" lon="5.60537">
        <ele>64.199996948242</ele>
      </trkpt>
      <trkpt lat="50.60583" lon="5.60527">
        <ele>63.799999237061</ele>
      </trkpt>
      <trkpt lat="50.60611" lon="5.60519">
        <ele>63.799999237061</ele>
      </trkpt>
      <trkpt lat="50.60647" lon="5.60503">
        <ele>64</ele>
      </trkpt>
      <trkpt lat="50.60677" lon="5.6049">
        <ele>64.199996948242</ele>
      </trkpt>
      <trkpt lat="50.60684" lon="5.60485">
        <ele>64.199996948242</ele>
      </trkpt>
      <trkpt lat="50.60698" lon="5.60472">
        <ele>64.199996948242</ele>
      </trkpt>
      <trkpt lat="50.60718" lon="5.60451">
        <ele>64.400001525879</ele>
      </trkpt>
      <trkpt lat="50.60769" lon="5.60393">
        <ele>64.800003051758</ele>
      </trkpt>
      <trkpt lat="50.60775" lon="5.60386">
        <ele>64.800003051758</ele>
      </trkpt>
      <trkpt lat="50.60787" lon="5.60371">
        <ele>64.800003051758</ele>
      </trkpt>
      <trkpt lat="50.60823" lon="5.60325">
        <ele>64.800003051758</ele>
      </trkpt>
      <trkpt lat="50.60867" lon="5.6027">
        <ele>64.599998474121</ele>
      </trkpt>
      <trkpt lat="50.6091" lon="5.60217">
        <ele>64</ele>
      </trkpt>
      <trkpt lat="50.60916" lon="5.6021">
        <ele>63.799999237061</ele>
      </trkpt>
      <trkpt lat="50.60922" lon="5.60203">
        <ele>63.799999237061</ele>
      </trkpt>
      <trkpt lat="50.60969" lon="5.60141">
        <ele>63.599998474121</ele>
      </trkpt>
      <trkpt lat="50.61017" lon="5.60082">
        <ele>63</ele>
      </trkpt>
      <trkpt lat="50.6103" lon="5.60069">
        <ele>63</ele>
      </trkpt>
      <trkpt lat="50.61049" lon="5.60049">
        <ele>62.799999237061</ele>
      </trkpt>
      <trkpt lat="50.61086" lon="5.60011">
        <ele>62.599998474121</ele>
      </trkpt>
      <trkpt lat="50.61126" lon="5.59951">
        <ele>65.4</ele>
      </trkpt>
      <trkpt lat="50.61143" lon="5.59955">
        <ele>61.799999237061</ele>
      </trkpt>
      <trkpt lat="50.61154" lon="5.59961">
        <ele>61.599998474121</ele>
      </trkpt>
      <trkpt lat="50.6117" lon="5.59984">
        <ele>61.400001525879</ele>
      </trkpt>
      <trkpt lat="50.61175" lon="5.59993">
        <ele>61.400001525879</ele>
      </trkpt>
      <trkpt lat="50.61205" lon="5.6006">
        <ele>66.5</ele>
      </trkpt>
      <trkpt lat="50.61222" lon="5.6009">
        <ele>61.799999237061</ele>
      </trkpt>
      <trkpt lat="50.61226" lon="5.60098">
        <ele>66.8</ele>
      </trkpt>
      <trkpt lat="50.61232" lon="5.60076">
        <ele>66.7</ele>
      </trkpt>
      <trkpt lat="50.61238" lon="5.60052">
        <ele>66.7</ele>
      </trkpt>
      <trkpt lat="50.61249" lon="5.60007">
        <ele>66.9</ele>
      </trkpt>
      <trkpt lat="50.61258" lon="5.5997">
        <ele>66.5</ele>
      </trkpt>
      <trkpt lat="50.61272" lon="5.59909">
        <ele>65.8</ele>
      </trkpt>
      <trkpt lat="50.61288" lon="5.59841">
        <ele>66.2</ele>
      </trkpt>
      <trkpt lat="50.61297" lon="5.59812">
        <ele>66.2</ele>
      </trkpt>
      <trkpt lat="50.61315" lon="5.5972">
        <ele>65.4</ele>
      </trkpt>
      <trkpt lat="50.61319" lon="5.59692">
        <ele>65</ele>
      </trkpt>
      <trkpt lat="50.61328" lon="5.59657">
        <ele>65</ele>
      </trkpt>
      <trkpt lat="50.61347" lon="5.59565">
        <ele>65.8</ele>
      </trkpt>
      <trkpt lat="50.61352" lon="5.59545">
        <ele>65.7</ele>
      </trkpt>
      <trkpt lat="50.61371" lon="5.59462">
        <ele>66.2</ele>
      </trkpt>
      <trkpt lat="50.61379" lon="5.59422">
        <ele>66.5</ele>
      </trkpt>
      <trkpt lat="50.61384" lon="5.59385">
        <ele>66.3</ele>
      </trkpt>
      <trkpt lat="50.61402" lon="5.59307">
        <ele>65.3</ele>
      </trkpt>
      <trkpt lat="50.6141" lon="5.59276">
        <ele>65.3</ele>
      </trkpt>
      <trkpt lat="50.61425" lon="5.59199">
        <ele>64.8</ele>
      </trkpt>
      <trkpt lat="50.61431" lon="5.59166">
        <ele>64.6</ele>
      </trkpt>
      <trkpt lat="50.61438" lon="5.59109">
        <ele>64.5</ele>
      </trkpt>
      <trkpt lat="50.61452" lon="5.59024">
        <ele>65.1</ele>
      </trkpt>
      <trkpt lat="50.61455" lon="5.58985">
        <ele>65.7</ele>
      </trkpt>
      <trkpt lat="50.61463" lon="5.58908">
        <ele>65.8</ele>
      </trkpt>
      <trkpt lat="50.61463" lon="5.58894">
        <ele>65.8</ele>
      </trkpt>
      <trkpt lat="50.61452" lon="5.58849">
        <ele>65.7</ele>
      </trkpt>
      <trkpt lat="50.61435" lon="5.58771">
        <ele>65.8</ele>
      </trkpt>
      <trkpt lat="50.61419" lon="5.58697">
        <ele>65.2</ele>
      </trkpt>
      <trkpt lat="50.614" lon="5.58616">
        <ele>65</ele>
      </trkpt>
      <trkpt lat="50.61381" lon="5.5853">
        <ele>60.799999237061</ele>
      </trkpt>
      <trkpt lat="50.61373" lon="5.58511">
        <ele>65</ele>
      </trkpt>
      <trkpt lat="50.61361" lon="5.58491">
        <ele>60.799999237061</ele>
      </trkpt>
      <trkpt lat="50.61341" lon="5.58464">
        <ele>60.599998474121</ele>
      </trkpt>
      <trkpt lat="50.61324" lon="5.58443">
        <ele>66.4</ele>
      </trkpt>
      <trkpt lat="50.61314" lon="5.58433">
        <ele>60.799999237061</ele>
      </trkpt>
      <trkpt lat="50.61295" lon="5.58416">
        <ele>60.799999237061</ele>
      </trkpt>
      <trkpt lat="50.61284" lon="5.58411">
        <ele>60.599998474121</ele>
      </trkpt>
      <trkpt lat="50.61266" lon="5.58406">
        <ele>60.599998474121</ele>
      </trkpt>
      <trkpt lat="50.6122" lon="5.58394">
        <ele>60.599998474121</ele>
      </trkpt>
      <trkpt lat="50.61192" lon="5.58386">
        <ele>61.200000762939</ele>
      </trkpt>
      <trkpt lat="50.61176" lon="5.58385">
        <ele>61.799999237061</ele>
      </trkpt>
      <trkpt lat="50.61153" lon="5.58398">
        <ele>63.599998474121</ele>
      </trkpt>
      <trkpt lat="50.61139" lon="5.58403">
        <ele>63.599998474121</ele>
      </trkpt>
      <trkpt lat="50.61123" lon="5.58407">
        <ele>69</ele>
      </trkpt>
      <trkpt lat="50.61109" lon="5.58409">
        <ele>69</ele>
      </trkpt>
      <trkpt lat="50.61094" lon="5.58409">
        <ele>69.6</ele>
      </trkpt>
      <trkpt lat="50.61075" lon="5.58408">
        <ele>70</ele>
      </trkpt>
      <trkpt lat="50.61047" lon="5.58408">
        <ele>70.1</ele>
      </trkpt>
      <trkpt lat="50.61025" lon="5.58407">
        <ele>70.5</ele>
      </trkpt>
      <trkpt lat="50.60995" lon="5.58405">
        <ele>72.2</ele>
      </trkpt>
      <trkpt lat="50.60961" lon="5.58405">
        <ele>66.599998474121</ele>
      </trkpt>
      <trkpt lat="50.60942" lon="5.58403">
        <ele>74.2</ele>
      </trkpt>
      <trkpt lat="50.60908" lon="5.5839">
        <ele>83.5</ele>
      </trkpt>
      <trkpt lat="50.60892" lon="5.58381">
        <ele>85</ele>
      </trkpt>
      <trkpt lat="50.60876" lon="5.58364">
        <ele>86.6</ele>
      </trkpt>
      <trkpt lat="50.60865" lon="5.58348">
        <ele>88</ele>
      </trkpt>
      <trkpt lat="50.60853" lon="5.58327">
        <ele>69.800003051758</ele>
      </trkpt>
      <trkpt lat="50.60844" lon="5.58312">
        <ele>70.400001525879</ele>
      </trkpt>
      <trkpt lat="50.60827" lon="5.58282">
        <ele>71</ele>
      </trkpt>
      <trkpt lat="50.60807" lon="5.58244">
        <ele>71.800003051758</ele>
      </trkpt>
      <trkpt lat="50.60799" lon="5.58229">
        <ele>72</ele>
      </trkpt>
      <trkpt lat="50.60778" lon="5.58191">
        <ele>73.199996948242</ele>
      </trkpt>
      <trkpt lat="50.60752" lon="5.5814">
        <ele>78.3</ele>
      </trkpt>
      <trkpt lat="50.60728" lon="5.58094">
        <ele>87.7</ele>
      </trkpt>
      <trkpt lat="50.60703" lon="5.58045">
        <ele>85.5</ele>
      </trkpt>
      <trkpt lat="50.60691" lon="5.58025">
        <ele>77.199996948242</ele>
      </trkpt>
      <trkpt lat="50.60675" lon="5.5799">
        <ele>77.599998474121</ele>
      </trkpt>
      <trkpt lat="50.60652" lon="5.57936">
        <ele>78.400001525879</ele>
      </trkpt>
      <trkpt lat="50.60645" lon="5.57918">
        <ele>78.599998474121</ele>
      </trkpt>
      <trkpt lat="50.60629" lon="5.57875">
        <ele>79.400001525879</ele>
      </trkpt>
      <trkpt lat="50.60617" lon="5.57842">
        <ele>79.800003051758</ele>
      </trkpt>
      <trkpt lat="50.60605" lon="5.57804">
        <ele>85</ele>
      </trkpt>
      <trkpt lat="50.60594" lon="5.57764">
        <ele>84.3</ele>
      </trkpt>
      <trkpt lat="50.6058" lon="5.57709">
        <ele>93.8</ele>
      </trkpt>
      <trkpt lat="50.60563" lon="5.57626">
        <ele>88.4</ele>
      </trkpt>
      <trkpt lat="50.60543" lon="5.57531">
        <ele>85</ele>
      </trkpt>
      <trkpt lat="50.60527" lon="5.57439">
        <ele>84</ele>
      </trkpt>
      <trkpt lat="50.6052" lon="5.57393">
        <ele>83.6</ele>
      </trkpt>
      <trkpt lat="50.60496" lon="5.57257">
        <ele>91.1</ele>
      </trkpt>
      <trkpt lat="50.60478" lon="5.57158">
        <ele>88</ele>
      </trkpt>
      <trkpt lat="50.60461" lon="5.57058">
        <ele>88.9</ele>
      </trkpt>
      <trkpt lat="50.60447" lon="5.56976">
        <ele>89.3</ele>
      </trkpt>
      <trkpt lat="50.60435" lon="5.56897">
        <ele>87.4</ele>
      </trkpt>
      <trkpt lat="50.60416" lon="5.5678">
        <ele>94.8</ele>
      </trkpt>
      <trkpt lat="50.60411" lon="5.56753">
        <ele>88.4</ele>
      </trkpt>
      <trkpt lat="50.604" lon="5.56684">
        <ele>88.8</ele>
      </trkpt>
      <trkpt lat="50.60392" lon="5.56632">
        <ele>87.7</ele>
      </trkpt>
      <trkpt lat="50.60379" lon="5.56551">
        <ele>87.2</ele>
      </trkpt>
      <trkpt lat="50.60371" lon="5.56484">
        <ele>86.5</ele>
      </trkpt>
      <trkpt lat="50.60369" lon="5.56453">
        <ele>86.4</ele>
      </trkpt>
      <trkpt lat="50.60367" lon="5.56409">
        <ele>85.8</ele>
      </trkpt>
      <trkpt lat="50.60368" lon="5.56374">
        <ele>85</ele>
      </trkpt>
      <trkpt lat="50.6037" lon="5.56339">
        <ele>84.9</ele>
      </trkpt>
      <trkpt lat="50.60374" lon="5.56302">
        <ele>83.6</ele>
      </trkpt>
      <trkpt lat="50.6038" lon="5.56263">
        <ele>82.7</ele>
      </trkpt>
      <trkpt lat="50.60388" lon="5.56226">
        <ele>81.2</ele>
      </trkpt>
      <trkpt lat="50.60404" lon="5.56163">
        <ele>77.4</ele>
      </trkpt>
      <trkpt lat="50.60418" lon="5.56128">
        <ele>73.9</ele>
      </trkpt>
      <trkpt lat="50.60432" lon="5.56098">
        <ele>74.9</ele>
      </trkpt>
      <trkpt lat="50.60461" lon="5.56039">
        <ele>75.4</ele>
      </trkpt>
      <trkpt lat="50.60486" lon="5.55993">
        <ele>74.9</ele>
      </trkpt>
      <trkpt lat="50.60504" lon="5.55965">
        <ele>71.3</ele>
      </trkpt>
      <trkpt lat="50.60515" lon="5.55945">
        <ele>71.2</ele>
      </trkpt>
      <trkpt lat="50.60534" lon="5.5591">
        <ele>71.1</ele>
      </trkpt>
      <trkpt lat="50.60545" lon="5.5588">
        <ele>70.7</ele>
      </trkpt>
      <trkpt lat="50.60551" lon="5.5585">
        <ele>70.6</ele>
      </trkpt>
      <trkpt lat="50.60553" lon="5.55822">
        <ele>70.2</ele>
      </trkpt>
      <trkpt lat="50.60555" lon="5.55798">
        <ele>70.2</ele>
      </trkpt>
      <trkpt lat="50.6056" lon="5.55774">
        <ele>70</ele>
      </trkpt>
      <trkpt lat="50.60571" lon="5.55739">
        <ele>70.2</ele>
      </trkpt>
      <trkpt lat="50.60582" lon="5.55709">
        <ele>71.1</ele>
      </trkpt>
      <trkpt lat="50.60591" lon="5.55679">
        <ele>70.8</ele>
      </trkpt>
      <trkpt lat="50.60597" lon="5.55649">
        <ele>72.3</ele>
      </trkpt>
      <trkpt lat="50.60601" lon="5.55612">
        <ele>73.1</ele>
      </trkpt>
      <trkpt lat="50.60604" lon="5.5558">
        <ele>73.5</ele>
      </trkpt>
      <trkpt lat="50.60608" lon="5.55544">
        <ele>72.3</ele>
      </trkpt>
      <trkpt lat="50.60613" lon="5.55487">
        <ele>71.9</ele>
      </trkpt>
      <trkpt lat="50.6062" lon="5.55397">
        <ele>73.1</ele>
      </trkpt>
      <trkpt lat="50.60625" lon="5.55342">
        <ele>72.5</ele>
      </trkpt>
      <trkpt lat="50.60628" lon="5.55295">
        <ele>71.8</ele>
      </trkpt>
      <trkpt lat="50.60632" lon="5.5524">
        <ele>70.9</ele>
      </trkpt>
      <trkpt lat="50.60634" lon="5.55195">
        <ele>70.5</ele>
      </trkpt>
      <trkpt lat="50.60637" lon="5.55134">
        <ele>67.9</ele>
      </trkpt>
      <trkpt lat="50.60642" lon="5.55004">
        <ele>64.1</ele>
      </trkpt>
      <trkpt lat="50.60644" lon="5.5494">
        <ele>66.7</ele>
      </trkpt>
      <trkpt lat="50.60641" lon="5.54833">
        <ele>71.9</ele>
      </trkpt>
      <trkpt lat="50.60638" lon="5.54745">
        <ele>72.9</ele>
      </trkpt>
      <trkpt lat="50.60637" lon="5.54671">
        <ele>71.6</ele>
      </trkpt>
      <trkpt lat="50.60636" lon="5.54618">
        <ele>70</ele>
      </trkpt>
      <trkpt lat="50.60639" lon="5.5456">
        <ele>69.1</ele>
      </trkpt>
      <trkpt lat="50.60645" lon="5.54457">
        <ele>68.6</ele>
      </trkpt>
      <trkpt lat="50.60651" lon="5.5438">
        <ele>69.2</ele>
      </trkpt>
      <trkpt lat="50.60655" lon="5.54343">
        <ele>69.4</ele>
      </trkpt>
      <trkpt lat="50.60664" lon="5.54275">
        <ele>69.9</ele>
      </trkpt>
      <trkpt lat="50.60681" lon="5.54185">
        <ele>68.1</ele>
      </trkpt>
      <trkpt lat="50.60687" lon="5.54153">
        <ele>66.9</ele>
      </trkpt>
      <trkpt lat="50.60705" lon="5.54058">
        <ele>64.1</ele>
      </trkpt>
      <trkpt lat="50.60722" lon="5.53964">
        <ele>64.9</ele>
      </trkpt>
      <trkpt lat="50.60735" lon="5.53896">
        <ele>65.6</ele>
      </trkpt>
      <trkpt lat="50.6075" lon="5.53822">
        <ele>62</ele>
      </trkpt>
      <trkpt lat="50.60761" lon="5.53765">
        <ele>62.400001525879</ele>
      </trkpt>
      <trkpt lat="50.60778" lon="5.53676">
        <ele>62.400001525879</ele>
      </trkpt>
      <trkpt lat="50.60782" lon="5.53646">
        <ele>62.400001525879</ele>
      </trkpt>
      <trkpt lat="50.60796" lon="5.53571">
        <ele>62.599998474121</ele>
      </trkpt>
      <trkpt lat="50.608" lon="5.53557">
        <ele>62.799999237061</ele>
      </trkpt>
      <trkpt lat="50.60827" lon="5.53471">
        <ele>63.200000762939</ele>
      </trkpt>
      <trkpt lat="50.60842" lon="5.53431">
        <ele>63.200000762939</ele>
      </trkpt>
      <trkpt lat="50.60872" lon="5.53355">
        <ele>63.400001525879</ele>
      </trkpt>
      <trkpt lat="50.60882" lon="5.53331">
        <ele>63.400001525879</ele>
      </trkpt>
      <trkpt lat="50.60913" lon="5.53259">
        <ele>64</ele>
      </trkpt>
      <trkpt lat="50.60918" lon="5.53247">
        <ele>64.199996948242</ele>
      </trkpt>
      <trkpt lat="50.6095" lon="5.53195">
        <ele>64.599998474121</ele>
      </trkpt>
      <trkpt lat="50.60992" lon="5.53141">
        <ele>65</ele>
      </trkpt>
      <trkpt lat="50.61" lon="5.53132">
        <ele>65</ele>
      </trkpt>
      <trkpt lat="50.61023" lon="5.53109">
        <ele>65</ele>
      </trkpt>
      <trkpt lat="50.61054" lon="5.53079">
        <ele>65</ele>
      </trkpt>
      <trkpt lat="50.61102" lon="5.53033">
        <ele>65.400001525879</ele>
      </trkpt>
      <trkpt lat="50.61126" lon="5.53011">
        <ele>65.400001525879</ele>
      </trkpt>
      <trkpt lat="50.61174" lon="5.52966">
        <ele>65.599998474121</ele>
      </trkpt>
      <trkpt lat="50.61189" lon="5.52949">
        <ele>65.599998474121</ele>
      </trkpt>
      <trkpt lat="50.6124" lon="5.52902">
        <ele>65.599998474121</ele>
      </trkpt>
      <trkpt lat="50.6129" lon="5.52853">
        <ele>65.599998474121</ele>
      </trkpt>
      <trkpt lat="50.61314" lon="5.52826">
        <ele>65.599998474121</ele>
      </trkpt>
      <trkpt lat="50.61361" lon="5.52768">
        <ele>65.800003051758</ele>
      </trkpt>
      <trkpt lat="50.61369" lon="5.52758">
        <ele>65.800003051758</ele>
      </trkpt>
      <trkpt lat="50.61415" lon="5.52697">
        <ele>65.800003051758</ele>
      </trkpt>
      <trkpt lat="50.61429" lon="5.52676">
        <ele>65.800003051758</ele>
      </trkpt>
      <trkpt lat="50.6147" lon="5.5261">
        <ele>65.800003051758</ele>
      </trkpt>
      <trkpt lat="50.6149" lon="5.52577">
        <ele>65.800003051758</ele>
      </trkpt>
      <trkpt lat="50.61529" lon="5.52507">
        <ele>65.599998474121</ele>
      </trkpt>
      <trkpt lat="50.61541" lon="5.52484">
        <ele>65.599998474121</ele>
      </trkpt>
      <trkpt lat="50.61578" lon="5.52411">
        <ele>65.400001525879</ele>
      </trkpt>
      <trkpt lat="50.61583" lon="5.52399">
        <ele>65.400001525879</ele>
      </trkpt>
      <trkpt lat="50.61616" lon="5.52324">
        <ele>65.400001525879</ele>
      </trkpt>
      <trkpt lat="50.61632" lon="5.52286">
        <ele>65.400001525879</ele>
      </trkpt>
      <trkpt lat="50.61659" lon="5.52208">
        <ele>65.199996948242</ele>
      </trkpt>
      <trkpt lat="50.61668" lon="5.52182">
        <ele>65.400001525879</ele>
      </trkpt>
      <trkpt lat="50.61691" lon="5.52099">
        <ele>65.199996948242</ele>
      </trkpt>
      <trkpt lat="50.61694" lon="5.52085">
        <ele>65.199996948242</ele>
      </trkpt>
      <trkpt lat="50.61703" lon="5.52028">
        <ele>65</ele>
      </trkpt>
      <trkpt lat="50.61701" lon="5.52012">
        <ele>60.8</ele>
      </trkpt>
      <trkpt lat="50.61694" lon="5.51978">
        <ele>60.7</ele>
      </trkpt>
      <trkpt lat="50.61689" lon="5.51956">
        <ele>61</ele>
      </trkpt>
      <trkpt lat="50.61693" lon="5.51941">
        <ele>64.800003051758</ele>
      </trkpt>
      <trkpt lat="50.61694" lon="5.51923">
        <ele>61.5</ele>
      </trkpt>
      <trkpt lat="50.61706" lon="5.519">
        <ele>64.599998474121</ele>
      </trkpt>
      <trkpt lat="50.61714" lon="5.51879">
        <ele>62</ele>
      </trkpt>
      <trkpt lat="50.61717" lon="5.51852">
        <ele>61</ele>
      </trkpt>
      <trkpt lat="50.61715" lon="5.51825">
        <ele>58.9</ele>
      </trkpt>
      <trkpt lat="50.61714" lon="5.51797">
        <ele>58.7</ele>
      </trkpt>
      <trkpt lat="50.61712" lon="5.51723">
        <ele>57.8</ele>
      </trkpt>
      <trkpt lat="50.6171" lon="5.51666">
        <ele>58.8</ele>
      </trkpt>
      <trkpt lat="50.61705" lon="5.51614">
        <ele>59.8</ele>
      </trkpt>
      <trkpt lat="50.61695" lon="5.51529">
        <ele>62.7</ele>
      </trkpt>
      <trkpt lat="50.61685" lon="5.51494">
        <ele>63.4</ele>
      </trkpt>
      <trkpt lat="50.61685" lon="5.51478">
        <ele>64</ele>
      </trkpt>
      <trkpt lat="50.61678" lon="5.51457">
        <ele>63.5</ele>
      </trkpt>
      <trkpt lat="50.61674" lon="5.51431">
        <ele>63.3</ele>
      </trkpt>
      <trkpt lat="50.61676" lon="5.51415">
        <ele>63</ele>
      </trkpt>
      <trkpt lat="50.61674" lon="5.51401">
        <ele>62</ele>
      </trkpt>
      <trkpt lat="50.61677" lon="5.51386">
        <ele>61.9</ele>
      </trkpt>
      <trkpt lat="50.61675" lon="5.51366">
        <ele>61.4</ele>
      </trkpt>
      <trkpt lat="50.61668" lon="5.51324">
        <ele>60.4</ele>
      </trkpt>
      <trkpt lat="50.61664" lon="5.51299">
        <ele>61</ele>
      </trkpt>
      <trkpt lat="50.61664" lon="5.51279">
        <ele>61.8</ele>
      </trkpt>
      <trkpt lat="50.61666" lon="5.51261">
        <ele>62.4</ele>
      </trkpt>
      <trkpt lat="50.61673" lon="5.51241">
        <ele>63.599998474121</ele>
      </trkpt>
      <trkpt lat="50.61685" lon="5.51222">
        <ele>63.799999237061</ele>
      </trkpt>
      <trkpt lat="50.61692" lon="5.51215">
        <ele>64.400001525879</ele>
      </trkpt>
      <trkpt lat="50.61707" lon="5.51206">
        <ele>65.400001525879</ele>
      </trkpt>
      <trkpt lat="50.6172" lon="5.51199">
        <ele>66.599998474121</ele>
      </trkpt>
      <trkpt lat="50.61733" lon="5.51192">
        <ele>67.800003051758</ele>
      </trkpt>
      <trkpt lat="50.61753" lon="5.51181">
        <ele>69</ele>
      </trkpt>
      <trkpt lat="50.61773" lon="5.5117">
        <ele>70.199996948242</ele>
      </trkpt>
      <trkpt lat="50.61828" lon="5.51138">
        <ele>70.599998474121</ele>
      </trkpt>
      <trkpt lat="50.61844" lon="5.5113">
        <ele>70.599998474121</ele>
      </trkpt>
      <trkpt lat="50.61851" lon="5.5113">
        <ele>70.199996948242</ele>
      </trkpt>
      <trkpt lat="50.61865" lon="5.51141">
        <ele>69.599998474121</ele>
      </trkpt>
      <trkpt lat="50.6187" lon="5.51151">
        <ele>68.800003051758</ele>
      </trkpt>
      <trkpt lat="50.61873" lon="5.51163">
        <ele>68.400001525879</ele>
      </trkpt>
      <trkpt lat="50.61874" lon="5.51185">
        <ele>65.2</ele>
      </trkpt>
      <trkpt lat="50.61871" lon="5.51198">
        <ele>67.400001525879</ele>
      </trkpt>
      <trkpt lat="50.61863" lon="5.51211">
        <ele>65</ele>
      </trkpt>
      <trkpt lat="50.61856" lon="5.51218">
        <ele>64.7</ele>
      </trkpt>
      <trkpt lat="50.61845" lon="5.51221">
        <ele>64.6</ele>
      </trkpt>
      <trkpt lat="50.61836" lon="5.51218">
        <ele>64.6</ele>
      </trkpt>
      <trkpt lat="50.61823" lon="5.51202">
        <ele>62</ele>
      </trkpt>
      <trkpt lat="50.61813" lon="5.51174">
        <ele>62</ele>
      </trkpt>
      <trkpt lat="50.61803" lon="5.51133">
        <ele>61.599998474121</ele>
      </trkpt>
      <trkpt lat="50.61795" lon="5.51092">
        <ele>61.599998474121</ele>
      </trkpt>
      <trkpt lat="50.61792" lon="5.51073">
        <ele>63.8</ele>
      </trkpt>
      <trkpt lat="50.61784" lon="5.51035">
        <ele>61.599998474121</ele>
      </trkpt>
      <trkpt lat="50.61773" lon="5.50986">
        <ele>61.599998474121</ele>
      </trkpt>
      <trkpt lat="50.61766" lon="5.50953">
        <ele>64</ele>
      </trkpt>
      <trkpt lat="50.61761" lon="5.50921">
        <ele>63.4</ele>
      </trkpt>
      <trkpt lat="50.6176" lon="5.50879">
        <ele>63.7</ele>
      </trkpt>
      <trkpt lat="50.6176" lon="5.50867">
        <ele>63.6</ele>
      </trkpt>
      <trkpt lat="50.61754" lon="5.50827">
        <ele>63.4</ele>
      </trkpt>
      <trkpt lat="50.61745" lon="5.50796">
        <ele>62.400001525879</ele>
      </trkpt>
      <trkpt lat="50.61728" lon="5.50744">
        <ele>65</ele>
      </trkpt>
      <trkpt lat="50.61698" lon="5.50678">
        <ele>65.1</ele>
      </trkpt>
      <trkpt lat="50.61673" lon="5.50623">
        <ele>64.6</ele>
      </trkpt>
      <trkpt lat="50.61642" lon="5.50562">
        <ele>65.9</ele>
      </trkpt>
      <trkpt lat="50.61627" lon="5.50533">
        <ele>66.3</ele>
      </trkpt>
      <trkpt lat="50.61608" lon="5.50496">
        <ele>62.400001525879</ele>
      </trkpt>
      <trkpt lat="50.61599" lon="5.50477">
        <ele>64.9</ele>
      </trkpt>
      <trkpt lat="50.61597" lon="5.50457">
        <ele>64.5</ele>
      </trkpt>
      <trkpt lat="50.61597" lon="5.50442">
        <ele>64.2</ele>
      </trkpt>
      <trkpt lat="50.61602" lon="5.50427">
        <ele>63.9</ele>
      </trkpt>
      <trkpt lat="50.6161" lon="5.50388">
        <ele>64</ele>
      </trkpt>
      <trkpt lat="50.61611" lon="5.50351">
        <ele>64</ele>
      </trkpt>
      <trkpt lat="50.61604" lon="5.50329">
        <ele>64</ele>
      </trkpt>
      <trkpt lat="50.61582" lon="5.50292">
        <ele>65</ele>
      </trkpt>
      <trkpt lat="50.61542" lon="5.50221">
        <ele>64</ele>
      </trkpt>
      <trkpt lat="50.61505" lon="5.5016">
        <ele>63</ele>
      </trkpt>
      <trkpt lat="50.61469" lon="5.50094">
        <ele>63.3</ele>
      </trkpt>
      <trkpt lat="50.61408" lon="5.49986">
        <ele>63</ele>
      </trkpt>
      <trkpt lat="50.61327" lon="5.49853">
        <ele>60</ele>
      </trkpt>
      <trkpt lat="50.61272" lon="5.49754">
        <ele>61</ele>
      </trkpt>
      <trkpt lat="50.61247" lon="5.49712">
        <ele>65.1</ele>
      </trkpt>
      <trkpt lat="50.61223" lon="5.49676">
        <ele>66.3</ele>
      </trkpt>
      <trkpt lat="50.61166" lon="5.49589">
        <ele>65</ele>
      </trkpt>
      <trkpt lat="50.6112" lon="5.4952">
        <ele>65</ele>
      </trkpt>
      <trkpt lat="50.61074" lon="5.49449">
        <ele>63</ele>
      </trkpt>
      <trkpt lat="50.61025" lon="5.49377">
        <ele>63.6</ele>
      </trkpt>
      <trkpt lat="50.60976" lon="5.49304">
        <ele>65</ele>
      </trkpt>
      <trkpt lat="50.60871" lon="5.49143">
        <ele>65</ele>
      </trkpt>
      <trkpt lat="50.6082" lon="5.49059">
        <ele>66</ele>
      </trkpt>
      <trkpt lat="50.6073" lon="5.48885">
        <ele>64</ele>
      </trkpt>
      <trkpt lat="50.60682" lon="5.48789">
        <ele>64</ele>
      </trkpt>
      <trkpt lat="50.60593" lon="5.48597">
        <ele>64.1</ele>
      </trkpt>
      <trkpt lat="50.6055" lon="5.48496">
        <ele>66</ele>
      </trkpt>
      <trkpt lat="50.60504" lon="5.48394">
        <ele>67</ele>
      </trkpt>
      <trkpt lat="50.60503" lon="5.48376">
        <ele>67</ele>
      </trkpt>
      <trkpt lat="50.60498" lon="5.48367">
        <ele>67</ele>
      </trkpt>
      <trkpt lat="50.60492" lon="5.48366">
        <ele>67</ele>
      </trkpt>
      <trkpt lat="50.60486" lon="5.48376">
        <ele>67</ele>
      </trkpt>
      <trkpt lat="50.60484" lon="5.48393">
        <ele>67</ele>
      </trkpt>
      <trkpt lat="50.60422" lon="5.48467">
        <ele>65</ele>
      </trkpt>
      <trkpt lat="50.60405" lon="5.48438">
        <ele>65</ele>
      </trkpt>
      <trkpt lat="50.60427" lon="5.4843">
        <ele>65.2</ele>
      </trkpt>
    </trkseg>
  </trk>
</gpx>